<?xml version="1.0" encoding="UTF-8" standalone="no" ?>
<gpx xmlns="http://www.topografix.com/GPX/1/1" xmlns:xsi="http://www.w3.org/2001/XMLSchema-instance" xsi:schemaLocation="http://www.topografix.com/GPX/1/1 http://www.topografix.com/GPX/1/1/gpx.xsd" version="1.1" creator="VisuGPX - https://www.visugpx.com">
  <metadata>
    <name>Terres Noires 2011</name>
    <desc><![CDATA[Terres Noires 2011]]></desc>
  </metadata>
  <trk>
    <name><![CDATA[JUN-26-11 16:12:36]]></name>
    <trkseg>
      <trkpt lat="44.08373" lon="6.22616">
        <ele>596.15</ele>
        <time>2011-06-26T05:56:31Z</time>
      </trkpt>
      <trkpt lat="44.08373" lon="6.22615">
        <ele>595.67</ele>
        <time>2011-06-26T05:57:22Z</time>
      </trkpt>
      <trkpt lat="44.08373" lon="6.22615">
        <ele>595.67</ele>
        <time>2011-06-26T05:59:51Z</time>
      </trkpt>
      <trkpt lat="44.08375" lon="6.22619">
        <ele>595.67</ele>
        <time>2011-06-26T06:00:06Z</time>
      </trkpt>
      <trkpt lat="44.08396" lon="6.22634">
        <ele>595.67</ele>
        <time>2011-06-26T06:00:14Z</time>
      </trkpt>
      <trkpt lat="44.084" lon="6.22636">
        <ele>595.67</ele>
        <time>2011-06-26T06:00:15Z</time>
      </trkpt>
      <trkpt lat="44.08404" lon="6.22637">
        <ele>595.67</ele>
        <time>2011-06-26T06:00:16Z</time>
      </trkpt>
      <trkpt lat="44.08408" lon="6.22637">
        <ele>595.67</ele>
        <time>2011-06-26T06:00:17Z</time>
      </trkpt>
      <trkpt lat="44.08412" lon="6.22638">
        <ele>596.15</ele>
        <time>2011-06-26T06:00:18Z</time>
      </trkpt>
      <trkpt lat="44.08441" lon="6.22639">
        <ele>595.67</ele>
        <time>2011-06-26T06:00:29Z</time>
      </trkpt>
      <trkpt lat="44.08464" lon="6.22651">
        <ele>595.67</ele>
        <time>2011-06-26T06:00:41Z</time>
      </trkpt>
      <trkpt lat="44.085" lon="6.2268">
        <ele>597.12</ele>
        <time>2011-06-26T06:00:56Z</time>
      </trkpt>
      <trkpt lat="44.08511" lon="6.22712">
        <ele>599.52</ele>
        <time>2011-06-26T06:01:08Z</time>
      </trkpt>
      <trkpt lat="44.0845" lon="6.22688">
        <ele>599.52</ele>
        <time>2011-06-26T06:01:20Z</time>
      </trkpt>
      <trkpt lat="44.08379" lon="6.2266">
        <ele>600</ele>
        <time>2011-06-26T06:01:35Z</time>
      </trkpt>
      <trkpt lat="44.08324" lon="6.22631">
        <ele>600.48</ele>
        <time>2011-06-26T06:01:47Z</time>
      </trkpt>
      <trkpt lat="44.0832" lon="6.22627">
        <ele>600.48</ele>
        <time>2011-06-26T06:01:48Z</time>
      </trkpt>
      <trkpt lat="44.0828" lon="6.22564">
        <ele>600.96</ele>
        <time>2011-06-26T06:02:00Z</time>
      </trkpt>
      <trkpt lat="44.08277" lon="6.22559">
        <ele>600.96</ele>
        <time>2011-06-26T06:02:01Z</time>
      </trkpt>
      <trkpt lat="44.08274" lon="6.22553">
        <ele>600.96</ele>
        <time>2011-06-26T06:02:02Z</time>
      </trkpt>
      <trkpt lat="44.08271" lon="6.22548">
        <ele>600.96</ele>
        <time>2011-06-26T06:02:03Z</time>
      </trkpt>
      <trkpt lat="44.08268" lon="6.22542">
        <ele>600.96</ele>
        <time>2011-06-26T06:02:04Z</time>
      </trkpt>
      <trkpt lat="44.08258" lon="6.22527">
        <ele>600.96</ele>
        <time>2011-06-26T06:02:07Z</time>
      </trkpt>
      <trkpt lat="44.08254" lon="6.22523">
        <ele>600.96</ele>
        <time>2011-06-26T06:02:08Z</time>
      </trkpt>
      <trkpt lat="44.0825" lon="6.22522">
        <ele>600.96</ele>
        <time>2011-06-26T06:02:09Z</time>
      </trkpt>
      <trkpt lat="44.08246" lon="6.22522">
        <ele>600.96</ele>
        <time>2011-06-26T06:02:10Z</time>
      </trkpt>
      <trkpt lat="44.08242" lon="6.22524">
        <ele>601.44</ele>
        <time>2011-06-26T06:02:11Z</time>
      </trkpt>
      <trkpt lat="44.08238" lon="6.22526">
        <ele>601.92</ele>
        <time>2011-06-26T06:02:12Z</time>
      </trkpt>
      <trkpt lat="44.08188" lon="6.22545">
        <ele>604.81</ele>
        <time>2011-06-26T06:02:26Z</time>
      </trkpt>
      <trkpt lat="44.08169" lon="6.22579">
        <ele>607.21</ele>
        <time>2011-06-26T06:02:36Z</time>
      </trkpt>
      <trkpt lat="44.08145" lon="6.2261">
        <ele>610.09</ele>
        <time>2011-06-26T06:02:47Z</time>
      </trkpt>
      <trkpt lat="44.0813" lon="6.22638">
        <ele>613.46</ele>
        <time>2011-06-26T06:02:58Z</time>
      </trkpt>
      <trkpt lat="44.08126" lon="6.22662">
        <ele>615.38</ele>
        <time>2011-06-26T06:03:06Z</time>
      </trkpt>
      <trkpt lat="44.08118" lon="6.22689">
        <ele>618.75</ele>
        <time>2011-06-26T06:03:18Z</time>
      </trkpt>
      <trkpt lat="44.08109" lon="6.22708">
        <ele>621.63</ele>
        <time>2011-06-26T06:03:28Z</time>
      </trkpt>
      <trkpt lat="44.081" lon="6.22737">
        <ele>624.51</ele>
        <time>2011-06-26T06:03:39Z</time>
      </trkpt>
      <trkpt lat="44.08093" lon="6.22759">
        <ele>627.88</ele>
        <time>2011-06-26T06:03:48Z</time>
      </trkpt>
      <trkpt lat="44.08083" lon="6.22781">
        <ele>631.24</ele>
        <time>2011-06-26T06:03:58Z</time>
      </trkpt>
      <trkpt lat="44.08074" lon="6.22807">
        <ele>634.61</ele>
        <time>2011-06-26T06:04:10Z</time>
      </trkpt>
      <trkpt lat="44.08079" lon="6.22838">
        <ele>637.49</ele>
        <time>2011-06-26T06:04:23Z</time>
      </trkpt>
      <trkpt lat="44.0808" lon="6.22895">
        <ele>639.41</ele>
        <time>2011-06-26T06:04:39Z</time>
      </trkpt>
      <trkpt lat="44.08064" lon="6.22928">
        <ele>642.78</ele>
        <time>2011-06-26T06:04:54Z</time>
      </trkpt>
      <trkpt lat="44.08051" lon="6.22946">
        <ele>646.14</ele>
        <time>2011-06-26T06:05:05Z</time>
      </trkpt>
      <trkpt lat="44.08031" lon="6.22954">
        <ele>649.03</ele>
        <time>2011-06-26T06:05:20Z</time>
      </trkpt>
      <trkpt lat="44.0803" lon="6.22953">
        <ele>649.51</ele>
        <time>2011-06-26T06:05:21Z</time>
      </trkpt>
      <trkpt lat="44.08029" lon="6.22952">
        <ele>649.51</ele>
        <time>2011-06-26T06:05:22Z</time>
      </trkpt>
      <trkpt lat="44.08028" lon="6.2295">
        <ele>649.51</ele>
        <time>2011-06-26T06:05:23Z</time>
      </trkpt>
      <trkpt lat="44.08028" lon="6.22948">
        <ele>649.99</ele>
        <time>2011-06-26T06:05:24Z</time>
      </trkpt>
      <trkpt lat="44.08028" lon="6.22946">
        <ele>649.99</ele>
        <time>2011-06-26T06:05:25Z</time>
      </trkpt>
      <trkpt lat="44.08028" lon="6.22944">
        <ele>650.47</ele>
        <time>2011-06-26T06:05:26Z</time>
      </trkpt>
      <trkpt lat="44.08027" lon="6.22942">
        <ele>650.95</ele>
        <time>2011-06-26T06:05:27Z</time>
      </trkpt>
      <trkpt lat="44.08027" lon="6.2294">
        <ele>650.95</ele>
        <time>2011-06-26T06:05:28Z</time>
      </trkpt>
      <trkpt lat="44.08027" lon="6.22938">
        <ele>650.95</ele>
        <time>2011-06-26T06:05:29Z</time>
      </trkpt>
      <trkpt lat="44.08027" lon="6.22937">
        <ele>650.95</ele>
        <time>2011-06-26T06:05:30Z</time>
      </trkpt>
      <trkpt lat="44.08027" lon="6.22935">
        <ele>651.43</ele>
        <time>2011-06-26T06:05:31Z</time>
      </trkpt>
      <trkpt lat="44.08026" lon="6.22899">
        <ele>654.8</ele>
        <time>2011-06-26T06:05:46Z</time>
      </trkpt>
      <trkpt lat="44.08023" lon="6.22872">
        <ele>657.68</ele>
        <time>2011-06-26T06:05:57Z</time>
      </trkpt>
      <trkpt lat="44.08012" lon="6.22846">
        <ele>661.04</ele>
        <time>2011-06-26T06:06:11Z</time>
      </trkpt>
      <trkpt lat="44.08007" lon="6.22842">
        <ele>661.52</ele>
        <time>2011-06-26T06:06:15Z</time>
      </trkpt>
      <trkpt lat="44.08006" lon="6.22842">
        <ele>662.01</ele>
        <time>2011-06-26T06:06:16Z</time>
      </trkpt>
      <trkpt lat="44.08004" lon="6.22842">
        <ele>662.01</ele>
        <time>2011-06-26T06:06:17Z</time>
      </trkpt>
      <trkpt lat="44.08003" lon="6.22842">
        <ele>662.49</ele>
        <time>2011-06-26T06:06:18Z</time>
      </trkpt>
      <trkpt lat="44.08001" lon="6.22842">
        <ele>662.97</ele>
        <time>2011-06-26T06:06:19Z</time>
      </trkpt>
      <trkpt lat="44.07999" lon="6.22842">
        <ele>662.49</ele>
        <time>2011-06-26T06:06:20Z</time>
      </trkpt>
      <trkpt lat="44.07998" lon="6.22843">
        <ele>662.97</ele>
        <time>2011-06-26T06:06:21Z</time>
      </trkpt>
      <trkpt lat="44.07996" lon="6.22844">
        <ele>663.45</ele>
        <time>2011-06-26T06:06:22Z</time>
      </trkpt>
      <trkpt lat="44.07995" lon="6.22845">
        <ele>663.45</ele>
        <time>2011-06-26T06:06:23Z</time>
      </trkpt>
      <trkpt lat="44.07993" lon="6.22846">
        <ele>663.93</ele>
        <time>2011-06-26T06:06:24Z</time>
      </trkpt>
      <trkpt lat="44.07992" lon="6.22847">
        <ele>663.93</ele>
        <time>2011-06-26T06:06:25Z</time>
      </trkpt>
      <trkpt lat="44.0799" lon="6.22849">
        <ele>663.93</ele>
        <time>2011-06-26T06:06:26Z</time>
      </trkpt>
      <trkpt lat="44.07989" lon="6.2285">
        <ele>663.93</ele>
        <time>2011-06-26T06:06:27Z</time>
      </trkpt>
      <trkpt lat="44.07988" lon="6.22852">
        <ele>663.93</ele>
        <time>2011-06-26T06:06:28Z</time>
      </trkpt>
      <trkpt lat="44.0797" lon="6.22886">
        <ele>666.81</ele>
        <time>2011-06-26T06:06:43Z</time>
      </trkpt>
      <trkpt lat="44.07961" lon="6.22913">
        <ele>670.18</ele>
        <time>2011-06-26T06:06:54Z</time>
      </trkpt>
      <trkpt lat="44.07955" lon="6.22918">
        <ele>671.14</ele>
        <time>2011-06-26T06:06:59Z</time>
      </trkpt>
      <trkpt lat="44.07954" lon="6.22917">
        <ele>671.62</ele>
        <time>2011-06-26T06:07:00Z</time>
      </trkpt>
      <trkpt lat="44.07952" lon="6.22916">
        <ele>672.1</ele>
        <time>2011-06-26T06:07:01Z</time>
      </trkpt>
      <trkpt lat="44.07951" lon="6.22916">
        <ele>672.58</ele>
        <time>2011-06-26T06:07:02Z</time>
      </trkpt>
      <trkpt lat="44.07949" lon="6.22914">
        <ele>672.58</ele>
        <time>2011-06-26T06:07:03Z</time>
      </trkpt>
      <trkpt lat="44.07947" lon="6.22913">
        <ele>673.06</ele>
        <time>2011-06-26T06:07:04Z</time>
      </trkpt>
      <trkpt lat="44.07946" lon="6.22912">
        <ele>673.54</ele>
        <time>2011-06-26T06:07:05Z</time>
      </trkpt>
      <trkpt lat="44.07944" lon="6.2291">
        <ele>674.02</ele>
        <time>2011-06-26T06:07:06Z</time>
      </trkpt>
      <trkpt lat="44.07928" lon="6.2289">
        <ele>676.91</ele>
        <time>2011-06-26T06:07:18Z</time>
      </trkpt>
      <trkpt lat="44.0791" lon="6.22871">
        <ele>680.27</ele>
        <time>2011-06-26T06:07:32Z</time>
      </trkpt>
      <trkpt lat="44.07896" lon="6.22849">
        <ele>683.63</ele>
        <time>2011-06-26T06:07:45Z</time>
      </trkpt>
      <trkpt lat="44.07877" lon="6.22828">
        <ele>686.52</ele>
        <time>2011-06-26T06:07:59Z</time>
      </trkpt>
      <trkpt lat="44.07863" lon="6.2281">
        <ele>689.4</ele>
        <time>2011-06-26T06:08:10Z</time>
      </trkpt>
      <trkpt lat="44.07857" lon="6.22771">
        <ele>691.81</ele>
        <time>2011-06-26T06:08:23Z</time>
      </trkpt>
      <trkpt lat="44.07859" lon="6.22731">
        <ele>694.69</ele>
        <time>2011-06-26T06:08:36Z</time>
      </trkpt>
      <trkpt lat="44.07839" lon="6.22676">
        <ele>694.69</ele>
        <time>2011-06-26T06:08:48Z</time>
      </trkpt>
      <trkpt lat="44.07827" lon="6.22654">
        <ele>693.73</ele>
        <time>2011-06-26T06:08:52Z</time>
      </trkpt>
      <trkpt lat="44.07824" lon="6.22648">
        <ele>693.73</ele>
        <time>2011-06-26T06:08:53Z</time>
      </trkpt>
      <trkpt lat="44.07805" lon="6.22573">
        <ele>695.65</ele>
        <time>2011-06-26T06:09:06Z</time>
      </trkpt>
      <trkpt lat="44.07774" lon="6.22549">
        <ele>697.57</ele>
        <time>2011-06-26T06:09:17Z</time>
      </trkpt>
      <trkpt lat="44.07752" lon="6.22565">
        <ele>700.94</ele>
        <time>2011-06-26T06:09:28Z</time>
      </trkpt>
      <trkpt lat="44.07736" lon="6.22587">
        <ele>703.34</ele>
        <time>2011-06-26T06:09:39Z</time>
      </trkpt>
      <trkpt lat="44.07735" lon="6.22592">
        <ele>704.3</ele>
        <time>2011-06-26T06:09:41Z</time>
      </trkpt>
      <trkpt lat="44.07735" lon="6.22594">
        <ele>703.82</ele>
        <time>2011-06-26T06:09:42Z</time>
      </trkpt>
      <trkpt lat="44.07735" lon="6.22597">
        <ele>703.82</ele>
        <time>2011-06-26T06:09:43Z</time>
      </trkpt>
      <trkpt lat="44.07736" lon="6.22599">
        <ele>704.3</ele>
        <time>2011-06-26T06:09:44Z</time>
      </trkpt>
      <trkpt lat="44.07737" lon="6.22601">
        <ele>704.78</ele>
        <time>2011-06-26T06:09:45Z</time>
      </trkpt>
      <trkpt lat="44.07737" lon="6.22603">
        <ele>705.26</ele>
        <time>2011-06-26T06:09:46Z</time>
      </trkpt>
      <trkpt lat="44.07738" lon="6.22606">
        <ele>705.26</ele>
        <time>2011-06-26T06:09:47Z</time>
      </trkpt>
      <trkpt lat="44.07736" lon="6.22642">
        <ele>708.63</ele>
        <time>2011-06-26T06:10:02Z</time>
      </trkpt>
      <trkpt lat="44.07734" lon="6.22668">
        <ele>711.99</ele>
        <time>2011-06-26T06:10:15Z</time>
      </trkpt>
      <trkpt lat="44.0773" lon="6.22702">
        <ele>714.88</ele>
        <time>2011-06-26T06:10:29Z</time>
      </trkpt>
      <trkpt lat="44.07738" lon="6.2274">
        <ele>717.76</ele>
        <time>2011-06-26T06:10:43Z</time>
      </trkpt>
      <trkpt lat="44.0774" lon="6.22772">
        <ele>720.65</ele>
        <time>2011-06-26T06:10:56Z</time>
      </trkpt>
      <trkpt lat="44.07737" lon="6.22793">
        <ele>723.53</ele>
        <time>2011-06-26T06:11:07Z</time>
      </trkpt>
      <trkpt lat="44.07728" lon="6.22825">
        <ele>726.89</ele>
        <time>2011-06-26T06:11:21Z</time>
      </trkpt>
      <trkpt lat="44.07732" lon="6.2287">
        <ele>729.3</ele>
        <time>2011-06-26T06:11:36Z</time>
      </trkpt>
      <trkpt lat="44.07734" lon="6.22911">
        <ele>732.18</ele>
        <time>2011-06-26T06:11:51Z</time>
      </trkpt>
      <trkpt lat="44.07728" lon="6.22936">
        <ele>735.55</ele>
        <time>2011-06-26T06:12:03Z</time>
      </trkpt>
      <trkpt lat="44.07721" lon="6.22964">
        <ele>738.91</ele>
        <time>2011-06-26T06:12:16Z</time>
      </trkpt>
      <trkpt lat="44.07711" lon="6.22997">
        <ele>741.79</ele>
        <time>2011-06-26T06:12:31Z</time>
      </trkpt>
      <trkpt lat="44.07716" lon="6.23046">
        <ele>743.24</ele>
        <time>2011-06-26T06:12:46Z</time>
      </trkpt>
      <trkpt lat="44.0771" lon="6.23107">
        <ele>744.2</ele>
        <time>2011-06-26T06:13:00Z</time>
      </trkpt>
      <trkpt lat="44.07698" lon="6.23174">
        <ele>744.68</ele>
        <time>2011-06-26T06:13:15Z</time>
      </trkpt>
      <trkpt lat="44.07689" lon="6.23219">
        <ele>746.6</ele>
        <time>2011-06-26T06:13:28Z</time>
      </trkpt>
      <trkpt lat="44.07683" lon="6.23255">
        <ele>749</ele>
        <time>2011-06-26T06:13:42Z</time>
      </trkpt>
      <trkpt lat="44.07679" lon="6.23278">
        <ele>752.37</ele>
        <time>2011-06-26T06:13:52Z</time>
      </trkpt>
      <trkpt lat="44.07679" lon="6.23282">
        <ele>752.85</ele>
        <time>2011-06-26T06:13:54Z</time>
      </trkpt>
      <trkpt lat="44.07673" lon="6.23305">
        <ele>755.73</ele>
        <time>2011-06-26T06:14:06Z</time>
      </trkpt>
      <trkpt lat="44.07668" lon="6.23318">
        <ele>758.14</ele>
        <time>2011-06-26T06:14:14Z</time>
      </trkpt>
      <trkpt lat="44.07667" lon="6.23319">
        <ele>758.62</ele>
        <time>2011-06-26T06:14:15Z</time>
      </trkpt>
      <trkpt lat="44.07665" lon="6.2332">
        <ele>759.1</ele>
        <time>2011-06-26T06:14:16Z</time>
      </trkpt>
      <trkpt lat="44.07652" lon="6.23331">
        <ele>761.98</ele>
        <time>2011-06-26T06:14:28Z</time>
      </trkpt>
      <trkpt lat="44.07642" lon="6.23336">
        <ele>763.9</ele>
        <time>2011-06-26T06:14:36Z</time>
      </trkpt>
      <trkpt lat="44.07641" lon="6.23337">
        <ele>764.39</ele>
        <time>2011-06-26T06:14:37Z</time>
      </trkpt>
      <trkpt lat="44.0764" lon="6.23338">
        <ele>764.87</ele>
        <time>2011-06-26T06:14:38Z</time>
      </trkpt>
      <trkpt lat="44.07639" lon="6.23339">
        <ele>764.87</ele>
        <time>2011-06-26T06:14:39Z</time>
      </trkpt>
      <trkpt lat="44.07638" lon="6.2334">
        <ele>765.35</ele>
        <time>2011-06-26T06:14:40Z</time>
      </trkpt>
      <trkpt lat="44.07636" lon="6.23341">
        <ele>765.35</ele>
        <time>2011-06-26T06:14:41Z</time>
      </trkpt>
      <trkpt lat="44.07635" lon="6.23341">
        <ele>765.35</ele>
        <time>2011-06-26T06:14:42Z</time>
      </trkpt>
      <trkpt lat="44.07612" lon="6.23355">
        <ele>767.27</ele>
        <time>2011-06-26T06:14:57Z</time>
      </trkpt>
      <trkpt lat="44.07594" lon="6.23375">
        <ele>770.63</ele>
        <time>2011-06-26T06:15:11Z</time>
      </trkpt>
      <trkpt lat="44.07585" lon="6.23401">
        <ele>774</ele>
        <time>2011-06-26T06:15:26Z</time>
      </trkpt>
      <trkpt lat="44.07575" lon="6.23428">
        <ele>775.44</ele>
        <time>2011-06-26T06:15:38Z</time>
      </trkpt>
      <trkpt lat="44.0757" lon="6.23447">
        <ele>775.92</ele>
        <time>2011-06-26T06:15:47Z</time>
      </trkpt>
      <trkpt lat="44.07571" lon="6.23448">
        <ele>776.88</ele>
        <time>2011-06-26T06:15:48Z</time>
      </trkpt>
      <trkpt lat="44.07572" lon="6.23446">
        <ele>777.36</ele>
        <time>2011-06-26T06:15:53Z</time>
      </trkpt>
      <trkpt lat="44.07573" lon="6.23445">
        <ele>777.36</ele>
        <time>2011-06-26T06:15:54Z</time>
      </trkpt>
      <trkpt lat="44.07574" lon="6.23441">
        <ele>778.32</ele>
        <time>2011-06-26T06:15:56Z</time>
      </trkpt>
      <trkpt lat="44.07585" lon="6.23429">
        <ele>780.25</ele>
        <time>2011-06-26T06:16:08Z</time>
      </trkpt>
      <trkpt lat="44.07596" lon="6.2342">
        <ele>782.65</ele>
        <time>2011-06-26T06:16:42Z</time>
      </trkpt>
      <trkpt lat="44.07599" lon="6.23425">
        <ele>783.13</ele>
        <time>2011-06-26T06:16:49Z</time>
      </trkpt>
      <trkpt lat="44.07593" lon="6.23435">
        <ele>783.61</ele>
        <time>2011-06-26T06:17:05Z</time>
      </trkpt>
      <trkpt lat="44.07593" lon="6.2344">
        <ele>783.13</ele>
        <time>2011-06-26T06:17:49Z</time>
      </trkpt>
      <trkpt lat="44.07594" lon="6.23442">
        <ele>783.13</ele>
        <time>2011-06-26T06:18:16Z</time>
      </trkpt>
      <trkpt lat="44.07594" lon="6.23445">
        <ele>783.61</ele>
        <time>2011-06-26T06:18:17Z</time>
      </trkpt>
      <trkpt lat="44.07595" lon="6.23447">
        <ele>784.09</ele>
        <time>2011-06-26T06:18:18Z</time>
      </trkpt>
      <trkpt lat="44.07595" lon="6.23448">
        <ele>784.09</ele>
        <time>2011-06-26T06:18:19Z</time>
      </trkpt>
      <trkpt lat="44.07596" lon="6.2345">
        <ele>784.09</ele>
        <time>2011-06-26T06:18:20Z</time>
      </trkpt>
      <trkpt lat="44.07603" lon="6.23471">
        <ele>787.46</ele>
        <time>2011-06-26T06:18:32Z</time>
      </trkpt>
      <trkpt lat="44.07605" lon="6.23479">
        <ele>788.9</ele>
        <time>2011-06-26T06:18:36Z</time>
      </trkpt>
      <trkpt lat="44.07608" lon="6.23491">
        <ele>791.78</ele>
        <time>2011-06-26T06:18:43Z</time>
      </trkpt>
      <trkpt lat="44.07609" lon="6.23499">
        <ele>793.22</ele>
        <time>2011-06-26T06:18:47Z</time>
      </trkpt>
      <trkpt lat="44.07609" lon="6.23506">
        <ele>794.67</ele>
        <time>2011-06-26T06:18:51Z</time>
      </trkpt>
      <trkpt lat="44.07608" lon="6.23519">
        <ele>798.03</ele>
        <time>2011-06-26T06:19:01Z</time>
      </trkpt>
      <trkpt lat="44.07606" lon="6.23527">
        <ele>800.92</ele>
        <time>2011-06-26T06:19:12Z</time>
      </trkpt>
      <trkpt lat="44.07604" lon="6.23534">
        <ele>801.88</ele>
        <time>2011-06-26T06:19:24Z</time>
      </trkpt>
      <trkpt lat="44.07602" lon="6.23544">
        <ele>804.76</ele>
        <time>2011-06-26T06:19:34Z</time>
      </trkpt>
      <trkpt lat="44.076" lon="6.23557">
        <ele>807.64</ele>
        <time>2011-06-26T06:19:45Z</time>
      </trkpt>
      <trkpt lat="44.07595" lon="6.23567">
        <ele>810.05</ele>
        <time>2011-06-26T06:19:58Z</time>
      </trkpt>
      <trkpt lat="44.07587" lon="6.23573">
        <ele>812.93</ele>
        <time>2011-06-26T06:20:12Z</time>
      </trkpt>
      <trkpt lat="44.07581" lon="6.23577">
        <ele>815.34</ele>
        <time>2011-06-26T06:20:25Z</time>
      </trkpt>
      <trkpt lat="44.07575" lon="6.23584">
        <ele>817.26</ele>
        <time>2011-06-26T06:20:38Z</time>
      </trkpt>
      <trkpt lat="44.0757" lon="6.23591">
        <ele>819.66</ele>
        <time>2011-06-26T06:20:52Z</time>
      </trkpt>
      <trkpt lat="44.07565" lon="6.23601">
        <ele>822.55</ele>
        <time>2011-06-26T06:21:06Z</time>
      </trkpt>
      <trkpt lat="44.07561" lon="6.23614">
        <ele>824.95</ele>
        <time>2011-06-26T06:21:20Z</time>
      </trkpt>
      <trkpt lat="44.0756" lon="6.2362">
        <ele>825.91</ele>
        <time>2011-06-26T06:21:25Z</time>
      </trkpt>
      <trkpt lat="44.0756" lon="6.23633">
        <ele>827.35</ele>
        <time>2011-06-26T06:21:35Z</time>
      </trkpt>
      <trkpt lat="44.0756" lon="6.23634">
        <ele>827.35</ele>
        <time>2011-06-26T06:21:36Z</time>
      </trkpt>
      <trkpt lat="44.07558" lon="6.23657">
        <ele>829.27</ele>
        <time>2011-06-26T06:21:51Z</time>
      </trkpt>
      <trkpt lat="44.07558" lon="6.23659">
        <ele>828.79</ele>
        <time>2011-06-26T06:21:52Z</time>
      </trkpt>
      <trkpt lat="44.07558" lon="6.23661">
        <ele>828.79</ele>
        <time>2011-06-26T06:21:53Z</time>
      </trkpt>
      <trkpt lat="44.07557" lon="6.23676">
        <ele>830.24</ele>
        <time>2011-06-26T06:22:02Z</time>
      </trkpt>
      <trkpt lat="44.07557" lon="6.23677">
        <ele>830.24</ele>
        <time>2011-06-26T06:22:03Z</time>
      </trkpt>
      <trkpt lat="44.07557" lon="6.23679">
        <ele>830.24</ele>
        <time>2011-06-26T06:22:04Z</time>
      </trkpt>
      <trkpt lat="44.07557" lon="6.2368">
        <ele>830.24</ele>
        <time>2011-06-26T06:22:05Z</time>
      </trkpt>
      <trkpt lat="44.07556" lon="6.23682">
        <ele>830.24</ele>
        <time>2011-06-26T06:22:06Z</time>
      </trkpt>
      <trkpt lat="44.07556" lon="6.23702">
        <ele>833.12</ele>
        <time>2011-06-26T06:22:22Z</time>
      </trkpt>
      <trkpt lat="44.07557" lon="6.23712">
        <ele>836</ele>
        <time>2011-06-26T06:22:37Z</time>
      </trkpt>
      <trkpt lat="44.07561" lon="6.23722">
        <ele>837.93</ele>
        <time>2011-06-26T06:22:49Z</time>
      </trkpt>
      <trkpt lat="44.07567" lon="6.23733">
        <ele>841.29</ele>
        <time>2011-06-26T06:23:01Z</time>
      </trkpt>
      <trkpt lat="44.07575" lon="6.23742">
        <ele>844.18</ele>
        <time>2011-06-26T06:23:14Z</time>
      </trkpt>
      <trkpt lat="44.07584" lon="6.23751">
        <ele>848.02</ele>
        <time>2011-06-26T06:23:27Z</time>
      </trkpt>
      <trkpt lat="44.07589" lon="6.23762">
        <ele>850.42</ele>
        <time>2011-06-26T06:23:39Z</time>
      </trkpt>
      <trkpt lat="44.07579" lon="6.23781">
        <ele>850.42</ele>
        <time>2011-06-26T06:23:51Z</time>
      </trkpt>
      <trkpt lat="44.07571" lon="6.23787">
        <ele>852.35</ele>
        <time>2011-06-26T06:23:58Z</time>
      </trkpt>
      <trkpt lat="44.07571" lon="6.23789">
        <ele>852.83</ele>
        <time>2011-06-26T06:23:59Z</time>
      </trkpt>
      <trkpt lat="44.07569" lon="6.23791">
        <ele>852.83</ele>
        <time>2011-06-26T06:24:00Z</time>
      </trkpt>
      <trkpt lat="44.07569" lon="6.23793">
        <ele>853.31</ele>
        <time>2011-06-26T06:24:01Z</time>
      </trkpt>
      <trkpt lat="44.07568" lon="6.23795">
        <ele>853.31</ele>
        <time>2011-06-26T06:24:02Z</time>
      </trkpt>
      <trkpt lat="44.07547" lon="6.23811">
        <ele>854.75</ele>
        <time>2011-06-26T06:24:13Z</time>
      </trkpt>
      <trkpt lat="44.07535" lon="6.23822">
        <ele>856.67</ele>
        <time>2011-06-26T06:24:25Z</time>
      </trkpt>
      <trkpt lat="44.07534" lon="6.23824">
        <ele>856.67</ele>
        <time>2011-06-26T06:24:26Z</time>
      </trkpt>
      <trkpt lat="44.07534" lon="6.23826">
        <ele>857.15</ele>
        <time>2011-06-26T06:24:27Z</time>
      </trkpt>
      <trkpt lat="44.07534" lon="6.23828">
        <ele>857.15</ele>
        <time>2011-06-26T06:24:28Z</time>
      </trkpt>
      <trkpt lat="44.07533" lon="6.2383">
        <ele>857.15</ele>
        <time>2011-06-26T06:24:29Z</time>
      </trkpt>
      <trkpt lat="44.07532" lon="6.23832">
        <ele>857.63</ele>
        <time>2011-06-26T06:24:30Z</time>
      </trkpt>
      <trkpt lat="44.07531" lon="6.23834">
        <ele>857.63</ele>
        <time>2011-06-26T06:24:31Z</time>
      </trkpt>
      <trkpt lat="44.07528" lon="6.23838">
        <ele>859.56</ele>
        <time>2011-06-26T06:24:41Z</time>
      </trkpt>
      <trkpt lat="44.07522" lon="6.23839">
        <ele>861.48</ele>
        <time>2011-06-26T06:24:52Z</time>
      </trkpt>
      <trkpt lat="44.07514" lon="6.23839">
        <ele>864.84</ele>
        <time>2011-06-26T06:25:03Z</time>
      </trkpt>
      <trkpt lat="44.07506" lon="6.23844">
        <ele>867.73</ele>
        <time>2011-06-26T06:25:16Z</time>
      </trkpt>
      <trkpt lat="44.07501" lon="6.23853">
        <ele>870.61</ele>
        <time>2011-06-26T06:25:29Z</time>
      </trkpt>
      <trkpt lat="44.07495" lon="6.23862">
        <ele>873.98</ele>
        <time>2011-06-26T06:25:41Z</time>
      </trkpt>
      <trkpt lat="44.0749" lon="6.23873">
        <ele>876.86</ele>
        <time>2011-06-26T06:25:53Z</time>
      </trkpt>
      <trkpt lat="44.07487" lon="6.23884">
        <ele>879.74</ele>
        <time>2011-06-26T06:26:06Z</time>
      </trkpt>
      <trkpt lat="44.07483" lon="6.23898">
        <ele>881.19</ele>
        <time>2011-06-26T06:26:19Z</time>
      </trkpt>
      <trkpt lat="44.07481" lon="6.23902">
        <ele>881.67</ele>
        <time>2011-06-26T06:26:23Z</time>
      </trkpt>
      <trkpt lat="44.07475" lon="6.23905">
        <ele>884.55</ele>
        <time>2011-06-26T06:26:31Z</time>
      </trkpt>
      <trkpt lat="44.0747" lon="6.2391">
        <ele>886.95</ele>
        <time>2011-06-26T06:26:44Z</time>
      </trkpt>
      <trkpt lat="44.07465" lon="6.23921">
        <ele>890.32</ele>
        <time>2011-06-26T06:26:58Z</time>
      </trkpt>
      <trkpt lat="44.07464" lon="6.23925">
        <ele>890.8</ele>
        <time>2011-06-26T06:27:03Z</time>
      </trkpt>
      <trkpt lat="44.07459" lon="6.23936">
        <ele>893.2</ele>
        <time>2011-06-26T06:27:13Z</time>
      </trkpt>
      <trkpt lat="44.07453" lon="6.2395">
        <ele>896.09</ele>
        <time>2011-06-26T06:27:26Z</time>
      </trkpt>
      <trkpt lat="44.07448" lon="6.2397">
        <ele>897.53</ele>
        <time>2011-06-26T06:27:40Z</time>
      </trkpt>
      <trkpt lat="44.07447" lon="6.23983">
        <ele>900.89</ele>
        <time>2011-06-26T06:27:51Z</time>
      </trkpt>
      <trkpt lat="44.07447" lon="6.23985">
        <ele>900.89</ele>
        <time>2011-06-26T06:27:52Z</time>
      </trkpt>
      <trkpt lat="44.07448" lon="6.23996">
        <ele>902.82</ele>
        <time>2011-06-26T06:28:00Z</time>
      </trkpt>
      <trkpt lat="44.07442" lon="6.24005">
        <ele>904.74</ele>
        <time>2011-06-26T06:28:11Z</time>
      </trkpt>
      <trkpt lat="44.07441" lon="6.24008">
        <ele>905.22</ele>
        <time>2011-06-26T06:28:28Z</time>
      </trkpt>
      <trkpt lat="44.07433" lon="6.24018">
        <ele>906.66</ele>
        <time>2011-06-26T06:28:41Z</time>
      </trkpt>
      <trkpt lat="44.07416" lon="6.24032">
        <ele>908.58</ele>
        <time>2011-06-26T06:28:53Z</time>
      </trkpt>
      <trkpt lat="44.07397" lon="6.24049">
        <ele>911.47</ele>
        <time>2011-06-26T06:29:07Z</time>
      </trkpt>
      <trkpt lat="44.07372" lon="6.2406">
        <ele>912.43</ele>
        <time>2011-06-26T06:29:21Z</time>
      </trkpt>
      <trkpt lat="44.07349" lon="6.24072">
        <ele>915.31</ele>
        <time>2011-06-26T06:29:36Z</time>
      </trkpt>
      <trkpt lat="44.07348" lon="6.24083">
        <ele>917.72</ele>
        <time>2011-06-26T06:29:43Z</time>
      </trkpt>
      <trkpt lat="44.07355" lon="6.24108">
        <ele>921.08</ele>
        <time>2011-06-26T06:29:58Z</time>
      </trkpt>
      <trkpt lat="44.07357" lon="6.24115">
        <ele>922.52</ele>
        <time>2011-06-26T06:30:04Z</time>
      </trkpt>
      <trkpt lat="44.07366" lon="6.24121">
        <ele>923.48</ele>
        <time>2011-06-26T06:30:11Z</time>
      </trkpt>
      <trkpt lat="44.07392" lon="6.24125">
        <ele>925.89</ele>
        <time>2011-06-26T06:30:27Z</time>
      </trkpt>
      <trkpt lat="44.07403" lon="6.24126">
        <ele>927.33</ele>
        <time>2011-06-26T06:30:35Z</time>
      </trkpt>
      <trkpt lat="44.07406" lon="6.24132">
        <ele>927.81</ele>
        <time>2011-06-26T06:30:40Z</time>
      </trkpt>
      <trkpt lat="44.07378" lon="6.24144">
        <ele>929.73</ele>
        <time>2011-06-26T06:30:54Z</time>
      </trkpt>
      <trkpt lat="44.07349" lon="6.24145">
        <ele>932.62</ele>
        <time>2011-06-26T06:31:09Z</time>
      </trkpt>
      <trkpt lat="44.07314" lon="6.24149">
        <ele>934.54</ele>
        <time>2011-06-26T06:31:26Z</time>
      </trkpt>
      <trkpt lat="44.07283" lon="6.2414">
        <ele>937.9</ele>
        <time>2011-06-26T06:31:42Z</time>
      </trkpt>
      <trkpt lat="44.07259" lon="6.24126">
        <ele>940.79</ele>
        <time>2011-06-26T06:31:55Z</time>
      </trkpt>
      <trkpt lat="44.07238" lon="6.24108">
        <ele>943.19</ele>
        <time>2011-06-26T06:32:09Z</time>
      </trkpt>
      <trkpt lat="44.07209" lon="6.24098">
        <ele>945.11</ele>
        <time>2011-06-26T06:32:25Z</time>
      </trkpt>
      <trkpt lat="44.07207" lon="6.24096">
        <ele>945.59</ele>
        <time>2011-06-26T06:32:26Z</time>
      </trkpt>
      <trkpt lat="44.07197" lon="6.24079">
        <ele>947.04</ele>
        <time>2011-06-26T06:32:33Z</time>
      </trkpt>
      <trkpt lat="44.07191" lon="6.24073">
        <ele>947.52</ele>
        <time>2011-06-26T06:32:37Z</time>
      </trkpt>
      <trkpt lat="44.07162" lon="6.24061">
        <ele>951.36</ele>
        <time>2011-06-26T06:32:53Z</time>
      </trkpt>
      <trkpt lat="44.07136" lon="6.24064">
        <ele>954.73</ele>
        <time>2011-06-26T06:33:08Z</time>
      </trkpt>
      <trkpt lat="44.07112" lon="6.24062">
        <ele>957.13</ele>
        <time>2011-06-26T06:33:23Z</time>
      </trkpt>
      <trkpt lat="44.07104" lon="6.24062">
        <ele>958.09</ele>
        <time>2011-06-26T06:33:30Z</time>
      </trkpt>
      <trkpt lat="44.07098" lon="6.24061">
        <ele>959.53</ele>
        <time>2011-06-26T06:33:34Z</time>
      </trkpt>
      <trkpt lat="44.07095" lon="6.24062">
        <ele>960.49</ele>
        <time>2011-06-26T06:33:37Z</time>
      </trkpt>
      <trkpt lat="44.07093" lon="6.2407">
        <ele>961.94</ele>
        <time>2011-06-26T06:33:43Z</time>
      </trkpt>
      <trkpt lat="44.07122" lon="6.24085">
        <ele>964.82</ele>
        <time>2011-06-26T06:33:58Z</time>
      </trkpt>
      <trkpt lat="44.07146" lon="6.24097">
        <ele>966.74</ele>
        <time>2011-06-26T06:34:11Z</time>
      </trkpt>
      <trkpt lat="44.07163" lon="6.24126">
        <ele>969.15</ele>
        <time>2011-06-26T06:34:25Z</time>
      </trkpt>
      <trkpt lat="44.07184" lon="6.2414">
        <ele>972.03</ele>
        <time>2011-06-26T06:34:37Z</time>
      </trkpt>
      <trkpt lat="44.07211" lon="6.24159">
        <ele>974.91</ele>
        <time>2011-06-26T06:34:50Z</time>
      </trkpt>
      <trkpt lat="44.07245" lon="6.24197">
        <ele>976.84</ele>
        <time>2011-06-26T06:35:05Z</time>
      </trkpt>
      <trkpt lat="44.07271" lon="6.24229">
        <ele>979.24</ele>
        <time>2011-06-26T06:35:19Z</time>
      </trkpt>
      <trkpt lat="44.07309" lon="6.2426">
        <ele>980.68</ele>
        <time>2011-06-26T06:35:34Z</time>
      </trkpt>
      <trkpt lat="44.07327" lon="6.24321">
        <ele>981.64</ele>
        <time>2011-06-26T06:35:47Z</time>
      </trkpt>
      <trkpt lat="44.07323" lon="6.24337">
        <ele>982.12</ele>
        <time>2011-06-26T06:35:52Z</time>
      </trkpt>
      <trkpt lat="44.07305" lon="6.24336">
        <ele>983.57</ele>
        <time>2011-06-26T06:35:58Z</time>
      </trkpt>
      <trkpt lat="44.07271" lon="6.24321">
        <ele>986.93</ele>
        <time>2011-06-26T06:36:11Z</time>
      </trkpt>
      <trkpt lat="44.07236" lon="6.24287">
        <ele>989.33</ele>
        <time>2011-06-26T06:36:26Z</time>
      </trkpt>
      <trkpt lat="44.07216" lon="6.24286">
        <ele>992.22</ele>
        <time>2011-06-26T06:36:36Z</time>
      </trkpt>
      <trkpt lat="44.07188" lon="6.24292">
        <ele>995.58</ele>
        <time>2011-06-26T06:36:50Z</time>
      </trkpt>
      <trkpt lat="44.07159" lon="6.24282">
        <ele>997.51</ele>
        <time>2011-06-26T06:37:05Z</time>
      </trkpt>
      <trkpt lat="44.0714" lon="6.24268">
        <ele>1002.79</ele>
        <time>2011-06-26T06:37:16Z</time>
      </trkpt>
      <trkpt lat="44.07134" lon="6.24262">
        <ele>988.85</ele>
        <time>2011-06-26T06:37:20Z</time>
      </trkpt>
      <trkpt lat="44.07133" lon="6.24261">
        <ele>1000.87</ele>
        <time>2011-06-26T06:37:21Z</time>
      </trkpt>
      <trkpt lat="44.0713" lon="6.24258">
        <ele>1010</ele>
        <time>2011-06-26T06:37:23Z</time>
      </trkpt>
      <trkpt lat="44.07128" lon="6.24257">
        <ele>1000.39</ele>
        <time>2011-06-26T06:37:24Z</time>
      </trkpt>
      <trkpt lat="44.07127" lon="6.24257">
        <ele>1005.2</ele>
        <time>2011-06-26T06:37:25Z</time>
      </trkpt>
      <trkpt lat="44.07122" lon="6.24258">
        <ele>996.54</ele>
        <time>2011-06-26T06:37:28Z</time>
      </trkpt>
      <trkpt lat="44.0711" lon="6.24279">
        <ele>1005.2</ele>
        <time>2011-06-26T06:37:39Z</time>
      </trkpt>
      <trkpt lat="44.07092" lon="6.24308">
        <ele>1008.56</ele>
        <time>2011-06-26T06:37:54Z</time>
      </trkpt>
      <trkpt lat="44.0706" lon="6.24333">
        <ele>1010.96</ele>
        <time>2011-06-26T06:38:09Z</time>
      </trkpt>
      <trkpt lat="44.07029" lon="6.24348">
        <ele>1013.85</ele>
        <time>2011-06-26T06:38:23Z</time>
      </trkpt>
      <trkpt lat="44.07006" lon="6.24371">
        <ele>1017.21</ele>
        <time>2011-06-26T06:38:36Z</time>
      </trkpt>
      <trkpt lat="44.0697" lon="6.24392">
        <ele>1020.58</ele>
        <time>2011-06-26T06:38:52Z</time>
      </trkpt>
      <trkpt lat="44.06953" lon="6.2442">
        <ele>1022.98</ele>
        <time>2011-06-26T06:39:04Z</time>
      </trkpt>
      <trkpt lat="44.06959" lon="6.24451">
        <ele>1025.86</ele>
        <time>2011-06-26T06:39:18Z</time>
      </trkpt>
      <trkpt lat="44.06976" lon="6.24483">
        <ele>1028.27</ele>
        <time>2011-06-26T06:39:33Z</time>
      </trkpt>
      <trkpt lat="44.06991" lon="6.24511">
        <ele>1031.15</ele>
        <time>2011-06-26T06:39:47Z</time>
      </trkpt>
      <trkpt lat="44.07001" lon="6.24539">
        <ele>1034.52</ele>
        <time>2011-06-26T06:40:00Z</time>
      </trkpt>
      <trkpt lat="44.07005" lon="6.24569">
        <ele>1037.88</ele>
        <time>2011-06-26T06:40:11Z</time>
      </trkpt>
      <trkpt lat="44.07012" lon="6.2458">
        <ele>1039.32</ele>
        <time>2011-06-26T06:40:17Z</time>
      </trkpt>
      <trkpt lat="44.0704" lon="6.24595">
        <ele>1042.21</ele>
        <time>2011-06-26T06:40:31Z</time>
      </trkpt>
      <trkpt lat="44.07074" lon="6.24607">
        <ele>1044.13</ele>
        <time>2011-06-26T06:40:46Z</time>
      </trkpt>
      <trkpt lat="44.07098" lon="6.24632">
        <ele>1047.01</ele>
        <time>2011-06-26T06:40:59Z</time>
      </trkpt>
      <trkpt lat="44.0712" lon="6.24668">
        <ele>1050.38</ele>
        <time>2011-06-26T06:41:13Z</time>
      </trkpt>
      <trkpt lat="44.07122" lon="6.2467">
        <ele>1050.86</ele>
        <time>2011-06-26T06:41:14Z</time>
      </trkpt>
      <trkpt lat="44.07143" lon="6.24708">
        <ele>1053.26</ele>
        <time>2011-06-26T06:41:30Z</time>
      </trkpt>
      <trkpt lat="44.07136" lon="6.24721">
        <ele>1056.15</ele>
        <time>2011-06-26T06:41:38Z</time>
      </trkpt>
      <trkpt lat="44.07117" lon="6.24702">
        <ele>1057.11</ele>
        <time>2011-06-26T06:41:48Z</time>
      </trkpt>
      <trkpt lat="44.07088" lon="6.24674">
        <ele>1060.47</ele>
        <time>2011-06-26T06:42:04Z</time>
      </trkpt>
      <trkpt lat="44.07053" lon="6.24662">
        <ele>1063.36</ele>
        <time>2011-06-26T06:42:21Z</time>
      </trkpt>
      <trkpt lat="44.07022" lon="6.2466">
        <ele>1066.24</ele>
        <time>2011-06-26T06:42:34Z</time>
      </trkpt>
      <trkpt lat="44.06987" lon="6.24647">
        <ele>1068.64</ele>
        <time>2011-06-26T06:42:49Z</time>
      </trkpt>
      <trkpt lat="44.06953" lon="6.24621">
        <ele>1071.53</ele>
        <time>2011-06-26T06:43:04Z</time>
      </trkpt>
      <trkpt lat="44.06931" lon="6.24592">
        <ele>1074.41</ele>
        <time>2011-06-26T06:43:17Z</time>
      </trkpt>
      <trkpt lat="44.06892" lon="6.2457">
        <ele>1077.29</ele>
        <time>2011-06-26T06:43:34Z</time>
      </trkpt>
      <trkpt lat="44.06848" lon="6.24568">
        <ele>1078.74</ele>
        <time>2011-06-26T06:43:50Z</time>
      </trkpt>
      <trkpt lat="44.06813" lon="6.24593">
        <ele>1078.26</ele>
        <time>2011-06-26T06:44:02Z</time>
      </trkpt>
      <trkpt lat="44.0681" lon="6.24597">
        <ele>1078.26</ele>
        <time>2011-06-26T06:44:03Z</time>
      </trkpt>
      <trkpt lat="44.06797" lon="6.24605">
        <ele>1076.33</ele>
        <time>2011-06-26T06:44:06Z</time>
      </trkpt>
      <trkpt lat="44.06792" lon="6.24607">
        <ele>1076.33</ele>
        <time>2011-06-26T06:44:07Z</time>
      </trkpt>
      <trkpt lat="44.06787" lon="6.24607">
        <ele>1076.33</ele>
        <time>2011-06-26T06:44:08Z</time>
      </trkpt>
      <trkpt lat="44.06781" lon="6.24606">
        <ele>1076.33</ele>
        <time>2011-06-26T06:44:09Z</time>
      </trkpt>
      <trkpt lat="44.06774" lon="6.246">
        <ele>1075.85</ele>
        <time>2011-06-26T06:44:10Z</time>
      </trkpt>
      <trkpt lat="44.06768" lon="6.24594">
        <ele>1076.33</ele>
        <time>2011-06-26T06:44:11Z</time>
      </trkpt>
      <trkpt lat="44.06763" lon="6.24591">
        <ele>1076.33</ele>
        <time>2011-06-26T06:44:12Z</time>
      </trkpt>
      <trkpt lat="44.0676" lon="6.24584">
        <ele>1076.81</ele>
        <time>2011-06-26T06:44:13Z</time>
      </trkpt>
      <trkpt lat="44.06739" lon="6.24562">
        <ele>1076.81</ele>
        <time>2011-06-26T06:44:18Z</time>
      </trkpt>
      <trkpt lat="44.06716" lon="6.2455">
        <ele>1076.33</ele>
        <time>2011-06-26T06:44:23Z</time>
      </trkpt>
      <trkpt lat="44.06695" lon="6.24531">
        <ele>1075.85</ele>
        <time>2011-06-26T06:44:28Z</time>
      </trkpt>
      <trkpt lat="44.0669" lon="6.24529">
        <ele>1076.33</ele>
        <time>2011-06-26T06:44:29Z</time>
      </trkpt>
      <trkpt lat="44.06686" lon="6.24526">
        <ele>1076.81</ele>
        <time>2011-06-26T06:44:30Z</time>
      </trkpt>
      <trkpt lat="44.06681" lon="6.24524">
        <ele>1076.33</ele>
        <time>2011-06-26T06:44:31Z</time>
      </trkpt>
      <trkpt lat="44.06676" lon="6.24523">
        <ele>1076.33</ele>
        <time>2011-06-26T06:44:32Z</time>
      </trkpt>
      <trkpt lat="44.06661" lon="6.24515">
        <ele>1076.33</ele>
        <time>2011-06-26T06:44:35Z</time>
      </trkpt>
      <trkpt lat="44.06656" lon="6.24512">
        <ele>1076.33</ele>
        <time>2011-06-26T06:44:36Z</time>
      </trkpt>
      <trkpt lat="44.06652" lon="6.24508">
        <ele>1076.81</ele>
        <time>2011-06-26T06:44:37Z</time>
      </trkpt>
      <trkpt lat="44.06644" lon="6.24498">
        <ele>1076.81</ele>
        <time>2011-06-26T06:44:39Z</time>
      </trkpt>
      <trkpt lat="44.06627" lon="6.2448">
        <ele>1076.81</ele>
        <time>2011-06-26T06:44:43Z</time>
      </trkpt>
      <trkpt lat="44.06618" lon="6.24473">
        <ele>1076.81</ele>
        <time>2011-06-26T06:44:45Z</time>
      </trkpt>
      <trkpt lat="44.06608" lon="6.24469">
        <ele>1076.81</ele>
        <time>2011-06-26T06:44:47Z</time>
      </trkpt>
      <trkpt lat="44.06603" lon="6.24468">
        <ele>1076.33</ele>
        <time>2011-06-26T06:44:48Z</time>
      </trkpt>
      <trkpt lat="44.06598" lon="6.24468">
        <ele>1076.81</ele>
        <time>2011-06-26T06:44:49Z</time>
      </trkpt>
      <trkpt lat="44.06593" lon="6.24468">
        <ele>1076.81</ele>
        <time>2011-06-26T06:44:50Z</time>
      </trkpt>
      <trkpt lat="44.06588" lon="6.24469">
        <ele>1076.33</ele>
        <time>2011-06-26T06:44:51Z</time>
      </trkpt>
      <trkpt lat="44.06583" lon="6.24469">
        <ele>1076.81</ele>
        <time>2011-06-26T06:44:52Z</time>
      </trkpt>
      <trkpt lat="44.06578" lon="6.2447">
        <ele>1076.81</ele>
        <time>2011-06-26T06:44:53Z</time>
      </trkpt>
      <trkpt lat="44.06572" lon="6.24469">
        <ele>1076.81</ele>
        <time>2011-06-26T06:44:54Z</time>
      </trkpt>
      <trkpt lat="44.06567" lon="6.24468">
        <ele>1076.33</ele>
        <time>2011-06-26T06:44:55Z</time>
      </trkpt>
      <trkpt lat="44.06562" lon="6.24466">
        <ele>1076.81</ele>
        <time>2011-06-26T06:44:56Z</time>
      </trkpt>
      <trkpt lat="44.06546" lon="6.24462">
        <ele>1076.33</ele>
        <time>2011-06-26T06:44:59Z</time>
      </trkpt>
      <trkpt lat="44.0654" lon="6.24463">
        <ele>1076.33</ele>
        <time>2011-06-26T06:45:00Z</time>
      </trkpt>
      <trkpt lat="44.06534" lon="6.24463">
        <ele>1075.37</ele>
        <time>2011-06-26T06:45:01Z</time>
      </trkpt>
      <trkpt lat="44.06525" lon="6.24463">
        <ele>1076.81</ele>
        <time>2011-06-26T06:45:03Z</time>
      </trkpt>
      <trkpt lat="44.06521" lon="6.24465">
        <ele>1076.33</ele>
        <time>2011-06-26T06:45:04Z</time>
      </trkpt>
      <trkpt lat="44.06517" lon="6.24466">
        <ele>1076.81</ele>
        <time>2011-06-26T06:45:05Z</time>
      </trkpt>
      <trkpt lat="44.06513" lon="6.24467">
        <ele>1076.33</ele>
        <time>2011-06-26T06:45:06Z</time>
      </trkpt>
      <trkpt lat="44.06509" lon="6.24468">
        <ele>1076.81</ele>
        <time>2011-06-26T06:45:07Z</time>
      </trkpt>
      <trkpt lat="44.06502" lon="6.2447">
        <ele>1076.33</ele>
        <time>2011-06-26T06:45:09Z</time>
      </trkpt>
      <trkpt lat="44.06453" lon="6.24467">
        <ele>1076.81</ele>
        <time>2011-06-26T06:45:21Z</time>
      </trkpt>
      <trkpt lat="44.06414" lon="6.24454">
        <ele>1077.78</ele>
        <time>2011-06-26T06:45:33Z</time>
      </trkpt>
      <trkpt lat="44.06368" lon="6.24458">
        <ele>1077.29</ele>
        <time>2011-06-26T06:45:44Z</time>
      </trkpt>
      <trkpt lat="44.06349" lon="6.24466">
        <ele>1076.81</ele>
        <time>2011-06-26T06:45:48Z</time>
      </trkpt>
      <trkpt lat="44.06344" lon="6.24468">
        <ele>1076.81</ele>
        <time>2011-06-26T06:45:49Z</time>
      </trkpt>
      <trkpt lat="44.06329" lon="6.24474">
        <ele>1075.85</ele>
        <time>2011-06-26T06:45:52Z</time>
      </trkpt>
      <trkpt lat="44.06319" lon="6.2448">
        <ele>1075.85</ele>
        <time>2011-06-26T06:45:54Z</time>
      </trkpt>
      <trkpt lat="44.06315" lon="6.24484">
        <ele>1075.37</ele>
        <time>2011-06-26T06:45:55Z</time>
      </trkpt>
      <trkpt lat="44.0631" lon="6.24487">
        <ele>1074.89</ele>
        <time>2011-06-26T06:45:56Z</time>
      </trkpt>
      <trkpt lat="44.06299" lon="6.24493">
        <ele>1074.89</ele>
        <time>2011-06-26T06:45:58Z</time>
      </trkpt>
      <trkpt lat="44.06264" lon="6.24508">
        <ele>1073.45</ele>
        <time>2011-06-26T06:46:04Z</time>
      </trkpt>
      <trkpt lat="44.0625" lon="6.24513">
        <ele>1072.97</ele>
        <time>2011-06-26T06:46:07Z</time>
      </trkpt>
      <trkpt lat="44.06246" lon="6.24514">
        <ele>1072.97</ele>
        <time>2011-06-26T06:46:08Z</time>
      </trkpt>
      <trkpt lat="44.06242" lon="6.24513">
        <ele>1072.97</ele>
        <time>2011-06-26T06:46:09Z</time>
      </trkpt>
      <trkpt lat="44.06194" lon="6.24514">
        <ele>1070.57</ele>
        <time>2011-06-26T06:46:20Z</time>
      </trkpt>
      <trkpt lat="44.06131" lon="6.24514">
        <ele>1067.68</ele>
        <time>2011-06-26T06:46:32Z</time>
      </trkpt>
      <trkpt lat="44.06107" lon="6.24512">
        <ele>1066.72</ele>
        <time>2011-06-26T06:46:37Z</time>
      </trkpt>
      <trkpt lat="44.06103" lon="6.24511">
        <ele>1066.72</ele>
        <time>2011-06-26T06:46:38Z</time>
      </trkpt>
      <trkpt lat="44.06099" lon="6.24512">
        <ele>1066.24</ele>
        <time>2011-06-26T06:46:39Z</time>
      </trkpt>
      <trkpt lat="44.06073" lon="6.24518">
        <ele>1065.76</ele>
        <time>2011-06-26T06:46:46Z</time>
      </trkpt>
      <trkpt lat="44.06069" lon="6.2452">
        <ele>1065.76</ele>
        <time>2011-06-26T06:46:47Z</time>
      </trkpt>
      <trkpt lat="44.06065" lon="6.24521">
        <ele>1065.76</ele>
        <time>2011-06-26T06:46:48Z</time>
      </trkpt>
      <trkpt lat="44.06055" lon="6.24528">
        <ele>1064.8</ele>
        <time>2011-06-26T06:46:51Z</time>
      </trkpt>
      <trkpt lat="44.06053" lon="6.24532">
        <ele>1065.28</ele>
        <time>2011-06-26T06:46:52Z</time>
      </trkpt>
      <trkpt lat="44.06048" lon="6.24541">
        <ele>1064.32</ele>
        <time>2011-06-26T06:46:55Z</time>
      </trkpt>
      <trkpt lat="44.06043" lon="6.24545">
        <ele>1063.36</ele>
        <time>2011-06-26T06:46:57Z</time>
      </trkpt>
      <trkpt lat="44.06017" lon="6.2457">
        <ele>1064.32</ele>
        <time>2011-06-26T06:47:08Z</time>
      </trkpt>
      <trkpt lat="44.06012" lon="6.24576">
        <ele>1063.84</ele>
        <time>2011-06-26T06:47:11Z</time>
      </trkpt>
      <trkpt lat="44.06011" lon="6.24578">
        <ele>1063.84</ele>
        <time>2011-06-26T06:47:12Z</time>
      </trkpt>
      <trkpt lat="44.0601" lon="6.2458">
        <ele>1063.84</ele>
        <time>2011-06-26T06:47:13Z</time>
      </trkpt>
      <trkpt lat="44.06008" lon="6.24582">
        <ele>1063.84</ele>
        <time>2011-06-26T06:47:14Z</time>
      </trkpt>
      <trkpt lat="44.06007" lon="6.24586">
        <ele>1062.87</ele>
        <time>2011-06-26T06:47:15Z</time>
      </trkpt>
      <trkpt lat="44.06006" lon="6.24589">
        <ele>1062.87</ele>
        <time>2011-06-26T06:47:16Z</time>
      </trkpt>
      <trkpt lat="44.06006" lon="6.24592">
        <ele>1062.39</ele>
        <time>2011-06-26T06:47:17Z</time>
      </trkpt>
      <trkpt lat="44.06006" lon="6.24595">
        <ele>1061.91</ele>
        <time>2011-06-26T06:47:18Z</time>
      </trkpt>
      <trkpt lat="44.06005" lon="6.24597">
        <ele>1061.43</ele>
        <time>2011-06-26T06:47:19Z</time>
      </trkpt>
      <trkpt lat="44.06004" lon="6.246">
        <ele>1061.43</ele>
        <time>2011-06-26T06:47:20Z</time>
      </trkpt>
      <trkpt lat="44.05999" lon="6.24611">
        <ele>1061.43</ele>
        <time>2011-06-26T06:47:24Z</time>
      </trkpt>
      <trkpt lat="44.05997" lon="6.24612">
        <ele>1061.43</ele>
        <time>2011-06-26T06:47:25Z</time>
      </trkpt>
      <trkpt lat="44.0599" lon="6.2462">
        <ele>1060.95</ele>
        <time>2011-06-26T06:47:34Z</time>
      </trkpt>
      <trkpt lat="44.0599" lon="6.24622">
        <ele>1060.47</ele>
        <time>2011-06-26T06:47:35Z</time>
      </trkpt>
      <trkpt lat="44.05975" lon="6.24677">
        <ele>1057.59</ele>
        <time>2011-06-26T06:47:51Z</time>
      </trkpt>
      <trkpt lat="44.05929" lon="6.24726">
        <ele>1055.67</ele>
        <time>2011-06-26T06:48:03Z</time>
      </trkpt>
      <trkpt lat="44.0591" lon="6.24747">
        <ele>1054.7</ele>
        <time>2011-06-26T06:48:17Z</time>
      </trkpt>
      <trkpt lat="44.05894" lon="6.24788">
        <ele>1052.3</ele>
        <time>2011-06-26T06:48:30Z</time>
      </trkpt>
      <trkpt lat="44.0585" lon="6.24843">
        <ele>1049.9</ele>
        <time>2011-06-26T06:48:41Z</time>
      </trkpt>
      <trkpt lat="44.05823" lon="6.24859">
        <ele>1047.97</ele>
        <time>2011-06-26T06:48:46Z</time>
      </trkpt>
      <trkpt lat="44.05819" lon="6.24863">
        <ele>1047.97</ele>
        <time>2011-06-26T06:48:47Z</time>
      </trkpt>
      <trkpt lat="44.05809" lon="6.24873">
        <ele>1047.01</ele>
        <time>2011-06-26T06:48:49Z</time>
      </trkpt>
      <trkpt lat="44.05805" lon="6.24877">
        <ele>1047.01</ele>
        <time>2011-06-26T06:48:50Z</time>
      </trkpt>
      <trkpt lat="44.05783" lon="6.24903">
        <ele>1045.57</ele>
        <time>2011-06-26T06:48:55Z</time>
      </trkpt>
      <trkpt lat="44.0578" lon="6.2491">
        <ele>1045.57</ele>
        <time>2011-06-26T06:48:56Z</time>
      </trkpt>
      <trkpt lat="44.05761" lon="6.24969">
        <ele>1042.69</ele>
        <time>2011-06-26T06:49:04Z</time>
      </trkpt>
      <trkpt lat="44.05759" lon="6.24983">
        <ele>1044.61</ele>
        <time>2011-06-26T06:49:08Z</time>
      </trkpt>
      <trkpt lat="44.05751" lon="6.2499">
        <ele>1045.57</ele>
        <time>2011-06-26T06:49:12Z</time>
      </trkpt>
      <trkpt lat="44.05736" lon="6.24993">
        <ele>1047.01</ele>
        <time>2011-06-26T06:49:19Z</time>
      </trkpt>
      <trkpt lat="44.05719" lon="6.25001">
        <ele>1050.38</ele>
        <time>2011-06-26T06:49:28Z</time>
      </trkpt>
      <trkpt lat="44.05718" lon="6.25002">
        <ele>1050.38</ele>
        <time>2011-06-26T06:49:29Z</time>
      </trkpt>
      <trkpt lat="44.05712" lon="6.25006">
        <ele>1051.82</ele>
        <time>2011-06-26T06:49:34Z</time>
      </trkpt>
      <trkpt lat="44.05704" lon="6.25019">
        <ele>1053.74</ele>
        <time>2011-06-26T06:49:40Z</time>
      </trkpt>
      <trkpt lat="44.05699" lon="6.25024">
        <ele>1054.7</ele>
        <time>2011-06-26T06:49:42Z</time>
      </trkpt>
      <trkpt lat="44.05675" lon="6.25044">
        <ele>1058.07</ele>
        <time>2011-06-26T06:49:52Z</time>
      </trkpt>
      <trkpt lat="44.05647" lon="6.25059">
        <ele>1060.95</ele>
        <time>2011-06-26T06:50:05Z</time>
      </trkpt>
      <trkpt lat="44.05613" lon="6.25066">
        <ele>1063.84</ele>
        <time>2011-06-26T06:50:20Z</time>
      </trkpt>
      <trkpt lat="44.05602" lon="6.25069">
        <ele>1066.24</ele>
        <time>2011-06-26T06:50:26Z</time>
      </trkpt>
      <trkpt lat="44.05572" lon="6.25069">
        <ele>1069.6</ele>
        <time>2011-06-26T06:50:41Z</time>
      </trkpt>
      <trkpt lat="44.05551" lon="6.25059">
        <ele>1072.49</ele>
        <time>2011-06-26T06:50:54Z</time>
      </trkpt>
      <trkpt lat="44.05529" lon="6.25047">
        <ele>1075.37</ele>
        <time>2011-06-26T06:51:08Z</time>
      </trkpt>
      <trkpt lat="44.05524" lon="6.25048">
        <ele>1076.33</ele>
        <time>2011-06-26T06:51:11Z</time>
      </trkpt>
      <trkpt lat="44.05499" lon="6.25045">
        <ele>1079.22</ele>
        <time>2011-06-26T06:51:24Z</time>
      </trkpt>
      <trkpt lat="44.05475" lon="6.25047">
        <ele>1082.1</ele>
        <time>2011-06-26T06:51:37Z</time>
      </trkpt>
      <trkpt lat="44.05449" lon="6.25048">
        <ele>1084.99</ele>
        <time>2011-06-26T06:51:50Z</time>
      </trkpt>
      <trkpt lat="44.05423" lon="6.25046">
        <ele>1088.35</ele>
        <time>2011-06-26T06:52:03Z</time>
      </trkpt>
      <trkpt lat="44.05397" lon="6.25047">
        <ele>1091.71</ele>
        <time>2011-06-26T06:52:18Z</time>
      </trkpt>
      <trkpt lat="44.05372" lon="6.25051">
        <ele>1094.6</ele>
        <time>2011-06-26T06:52:32Z</time>
      </trkpt>
      <trkpt lat="44.05349" lon="6.25052">
        <ele>1097.48</ele>
        <time>2011-06-26T06:52:45Z</time>
      </trkpt>
      <trkpt lat="44.05328" lon="6.25057">
        <ele>1100.85</ele>
        <time>2011-06-26T06:52:58Z</time>
      </trkpt>
      <trkpt lat="44.05304" lon="6.25057">
        <ele>1104.21</ele>
        <time>2011-06-26T06:53:13Z</time>
      </trkpt>
      <trkpt lat="44.05285" lon="6.25053">
        <ele>1107.58</ele>
        <time>2011-06-26T06:53:25Z</time>
      </trkpt>
      <trkpt lat="44.05261" lon="6.25052">
        <ele>1109.98</ele>
        <time>2011-06-26T06:53:40Z</time>
      </trkpt>
      <trkpt lat="44.05258" lon="6.25052">
        <ele>1110.46</ele>
        <time>2011-06-26T06:53:42Z</time>
      </trkpt>
      <trkpt lat="44.05233" lon="6.25055">
        <ele>1113.82</ele>
        <time>2011-06-26T06:53:58Z</time>
      </trkpt>
      <trkpt lat="44.05227" lon="6.25056">
        <ele>1114.79</ele>
        <time>2011-06-26T06:54:02Z</time>
      </trkpt>
      <trkpt lat="44.05211" lon="6.25053">
        <ele>1116.71</ele>
        <time>2011-06-26T06:54:15Z</time>
      </trkpt>
      <trkpt lat="44.05204" lon="6.25051">
        <ele>1117.67</ele>
        <time>2011-06-26T06:54:19Z</time>
      </trkpt>
      <trkpt lat="44.05175" lon="6.25038">
        <ele>1120.55</ele>
        <time>2011-06-26T06:54:33Z</time>
      </trkpt>
      <trkpt lat="44.05152" lon="6.25037">
        <ele>1123.92</ele>
        <time>2011-06-26T06:54:46Z</time>
      </trkpt>
      <trkpt lat="44.05128" lon="6.25026">
        <ele>1126.8</ele>
        <time>2011-06-26T06:55:00Z</time>
      </trkpt>
      <trkpt lat="44.05111" lon="6.25014">
        <ele>1130.17</ele>
        <time>2011-06-26T06:55:12Z</time>
      </trkpt>
      <trkpt lat="44.05095" lon="6.24999">
        <ele>1132.57</ele>
        <time>2011-06-26T06:55:24Z</time>
      </trkpt>
      <trkpt lat="44.05085" lon="6.24991">
        <ele>1135.45</ele>
        <time>2011-06-26T06:55:33Z</time>
      </trkpt>
      <trkpt lat="44.05073" lon="6.24983">
        <ele>1139.3</ele>
        <time>2011-06-26T06:55:44Z</time>
      </trkpt>
      <trkpt lat="44.05071" lon="6.24982">
        <ele>1139.3</ele>
        <time>2011-06-26T06:55:45Z</time>
      </trkpt>
      <trkpt lat="44.0505" lon="6.24959">
        <ele>1141.7</ele>
        <time>2011-06-26T06:55:59Z</time>
      </trkpt>
      <trkpt lat="44.0504" lon="6.24942">
        <ele>1142.66</ele>
        <time>2011-06-26T06:56:09Z</time>
      </trkpt>
      <trkpt lat="44.05036" lon="6.24945">
        <ele>1143.14</ele>
        <time>2011-06-26T06:56:13Z</time>
      </trkpt>
      <trkpt lat="44.05035" lon="6.24951">
        <ele>1144.59</ele>
        <time>2011-06-26T06:56:16Z</time>
      </trkpt>
      <trkpt lat="44.0504" lon="6.24988">
        <ele>1147.47</ele>
        <time>2011-06-26T06:56:31Z</time>
      </trkpt>
      <trkpt lat="44.05039" lon="6.24996">
        <ele>1147.95</ele>
        <time>2011-06-26T06:56:35Z</time>
      </trkpt>
      <trkpt lat="44.05053" lon="6.25021">
        <ele>1150.35</ele>
        <time>2011-06-26T06:56:49Z</time>
      </trkpt>
      <trkpt lat="44.05065" lon="6.25045">
        <ele>1153.72</ele>
        <time>2011-06-26T06:57:01Z</time>
      </trkpt>
      <trkpt lat="44.05068" lon="6.25049">
        <ele>1154.68</ele>
        <time>2011-06-26T06:57:05Z</time>
      </trkpt>
      <trkpt lat="44.05072" lon="6.25055">
        <ele>1155.16</ele>
        <time>2011-06-26T06:57:09Z</time>
      </trkpt>
      <trkpt lat="44.05087" lon="6.25084">
        <ele>1158.53</ele>
        <time>2011-06-26T06:57:26Z</time>
      </trkpt>
      <trkpt lat="44.05097" lon="6.25103">
        <ele>1160.93</ele>
        <time>2011-06-26T06:57:38Z</time>
      </trkpt>
      <trkpt lat="44.05105" lon="6.25113">
        <ele>1162.37</ele>
        <time>2011-06-26T06:57:44Z</time>
      </trkpt>
      <trkpt lat="44.05108" lon="6.25117">
        <ele>1162.85</ele>
        <time>2011-06-26T06:57:46Z</time>
      </trkpt>
      <trkpt lat="44.05118" lon="6.25135">
        <ele>1166.7</ele>
        <time>2011-06-26T06:57:59Z</time>
      </trkpt>
      <trkpt lat="44.05121" lon="6.25138">
        <ele>1167.66</ele>
        <time>2011-06-26T06:58:03Z</time>
      </trkpt>
      <trkpt lat="44.0513" lon="6.25141">
        <ele>1168.62</ele>
        <time>2011-06-26T06:58:10Z</time>
      </trkpt>
      <trkpt lat="44.05145" lon="6.25154">
        <ele>1171.5</ele>
        <time>2011-06-26T06:58:25Z</time>
      </trkpt>
      <trkpt lat="44.05171" lon="6.25161">
        <ele>1172.95</ele>
        <time>2011-06-26T06:58:41Z</time>
      </trkpt>
      <trkpt lat="44.05198" lon="6.25165">
        <ele>1175.83</ele>
        <time>2011-06-26T06:58:55Z</time>
      </trkpt>
      <trkpt lat="44.05228" lon="6.25164">
        <ele>1176.31</ele>
        <time>2011-06-26T06:59:08Z</time>
      </trkpt>
      <trkpt lat="44.05242" lon="6.25173">
        <ele>1178.23</ele>
        <time>2011-06-26T06:59:22Z</time>
      </trkpt>
      <trkpt lat="44.05256" lon="6.25187">
        <ele>1180.16</ele>
        <time>2011-06-26T06:59:38Z</time>
      </trkpt>
      <trkpt lat="44.05265" lon="6.25193">
        <ele>1183.04</ele>
        <time>2011-06-26T06:59:53Z</time>
      </trkpt>
      <trkpt lat="44.05276" lon="6.25203">
        <ele>1185.44</ele>
        <time>2011-06-26T07:00:09Z</time>
      </trkpt>
      <trkpt lat="44.05283" lon="6.25208">
        <ele>1188.33</ele>
        <time>2011-06-26T07:00:22Z</time>
      </trkpt>
      <trkpt lat="44.05292" lon="6.25214">
        <ele>1190.25</ele>
        <time>2011-06-26T07:00:33Z</time>
      </trkpt>
      <trkpt lat="44.05305" lon="6.25223">
        <ele>1193.13</ele>
        <time>2011-06-26T07:00:48Z</time>
      </trkpt>
      <trkpt lat="44.05315" lon="6.25233">
        <ele>1195.54</ele>
        <time>2011-06-26T07:01:01Z</time>
      </trkpt>
      <trkpt lat="44.05324" lon="6.2524">
        <ele>1196.5</ele>
        <time>2011-06-26T07:01:15Z</time>
      </trkpt>
      <trkpt lat="44.05325" lon="6.25241">
        <ele>1196.98</ele>
        <time>2011-06-26T07:01:16Z</time>
      </trkpt>
      <trkpt lat="44.05356" lon="6.25256">
        <ele>1199.86</ele>
        <time>2011-06-26T07:01:33Z</time>
      </trkpt>
      <trkpt lat="44.05362" lon="6.25267">
        <ele>1201.79</ele>
        <time>2011-06-26T07:01:41Z</time>
      </trkpt>
      <trkpt lat="44.05352" lon="6.25282">
        <ele>1200.34</ele>
        <time>2011-06-26T07:01:53Z</time>
      </trkpt>
      <trkpt lat="44.05362" lon="6.25297">
        <ele>1196.98</ele>
        <time>2011-06-26T07:01:59Z</time>
      </trkpt>
      <trkpt lat="44.0537" lon="6.25302">
        <ele>1196.02</ele>
        <time>2011-06-26T07:02:01Z</time>
      </trkpt>
      <trkpt lat="44.05381" lon="6.25306">
        <ele>1195.54</ele>
        <time>2011-06-26T07:02:03Z</time>
      </trkpt>
      <trkpt lat="44.05412" lon="6.25323">
        <ele>1192.65</ele>
        <time>2011-06-26T07:02:09Z</time>
      </trkpt>
      <trkpt lat="44.05417" lon="6.25325">
        <ele>1191.69</ele>
        <time>2011-06-26T07:02:10Z</time>
      </trkpt>
      <trkpt lat="44.05421" lon="6.25327">
        <ele>1191.21</ele>
        <time>2011-06-26T07:02:11Z</time>
      </trkpt>
      <trkpt lat="44.05424" lon="6.25329">
        <ele>1190.25</ele>
        <time>2011-06-26T07:02:12Z</time>
      </trkpt>
      <trkpt lat="44.05428" lon="6.25331">
        <ele>1189.77</ele>
        <time>2011-06-26T07:02:13Z</time>
      </trkpt>
      <trkpt lat="44.05432" lon="6.25333">
        <ele>1188.81</ele>
        <time>2011-06-26T07:02:14Z</time>
      </trkpt>
      <trkpt lat="44.05436" lon="6.25335">
        <ele>1188.33</ele>
        <time>2011-06-26T07:02:15Z</time>
      </trkpt>
      <trkpt lat="44.05455" lon="6.25343">
        <ele>1184.96</ele>
        <time>2011-06-26T07:02:20Z</time>
      </trkpt>
      <trkpt lat="44.05458" lon="6.25346">
        <ele>1184</ele>
        <time>2011-06-26T07:02:21Z</time>
      </trkpt>
      <trkpt lat="44.05472" lon="6.25353">
        <ele>1181.12</ele>
        <time>2011-06-26T07:02:25Z</time>
      </trkpt>
      <trkpt lat="44.05475" lon="6.25355">
        <ele>1181.12</ele>
        <time>2011-06-26T07:02:26Z</time>
      </trkpt>
      <trkpt lat="44.0549" lon="6.25364">
        <ele>1178.23</ele>
        <time>2011-06-26T07:02:31Z</time>
      </trkpt>
      <trkpt lat="44.05501" lon="6.2537">
        <ele>1176.31</ele>
        <time>2011-06-26T07:02:35Z</time>
      </trkpt>
      <trkpt lat="44.05502" lon="6.2537">
        <ele>1175.83</ele>
        <time>2011-06-26T07:02:36Z</time>
      </trkpt>
      <trkpt lat="44.05503" lon="6.25369">
        <ele>1175.83</ele>
        <time>2011-06-26T07:02:38Z</time>
      </trkpt>
      <trkpt lat="44.05504" lon="6.25372">
        <ele>1174.87</ele>
        <time>2011-06-26T07:02:41Z</time>
      </trkpt>
      <trkpt lat="44.05503" lon="6.25374">
        <ele>1174.87</ele>
        <time>2011-06-26T07:02:44Z</time>
      </trkpt>
      <trkpt lat="44.05484" lon="6.25376">
        <ele>1171.02</ele>
        <time>2011-06-26T07:02:51Z</time>
      </trkpt>
      <trkpt lat="44.05468" lon="6.25379">
        <ele>1168.14</ele>
        <time>2011-06-26T07:02:55Z</time>
      </trkpt>
      <trkpt lat="44.05455" lon="6.25381">
        <ele>1165.74</ele>
        <time>2011-06-26T07:02:58Z</time>
      </trkpt>
      <trkpt lat="44.05435" lon="6.25387">
        <ele>1161.41</ele>
        <time>2011-06-26T07:03:04Z</time>
      </trkpt>
      <trkpt lat="44.05419" lon="6.25392">
        <ele>1158.53</ele>
        <time>2011-06-26T07:03:09Z</time>
      </trkpt>
      <trkpt lat="44.05404" lon="6.25399">
        <ele>1155.16</ele>
        <time>2011-06-26T07:03:15Z</time>
      </trkpt>
      <trkpt lat="44.05402" lon="6.254">
        <ele>1154.68</ele>
        <time>2011-06-26T07:03:16Z</time>
      </trkpt>
      <trkpt lat="44.05392" lon="6.25403">
        <ele>1151.8</ele>
        <time>2011-06-26T07:03:20Z</time>
      </trkpt>
      <trkpt lat="44.05384" lon="6.25404">
        <ele>1150.35</ele>
        <time>2011-06-26T07:03:22Z</time>
      </trkpt>
      <trkpt lat="44.0538" lon="6.25406">
        <ele>1148.91</ele>
        <time>2011-06-26T07:03:23Z</time>
      </trkpt>
      <trkpt lat="44.05376" lon="6.25407">
        <ele>1147.95</ele>
        <time>2011-06-26T07:03:24Z</time>
      </trkpt>
      <trkpt lat="44.05359" lon="6.25417">
        <ele>1144.59</ele>
        <time>2011-06-26T07:03:29Z</time>
      </trkpt>
      <trkpt lat="44.05356" lon="6.2542">
        <ele>1143.63</ele>
        <time>2011-06-26T07:03:30Z</time>
      </trkpt>
      <trkpt lat="44.05351" lon="6.25422">
        <ele>1142.66</ele>
        <time>2011-06-26T07:03:31Z</time>
      </trkpt>
      <trkpt lat="44.05347" lon="6.25425">
        <ele>1141.7</ele>
        <time>2011-06-26T07:03:32Z</time>
      </trkpt>
      <trkpt lat="44.05336" lon="6.25431">
        <ele>1138.82</ele>
        <time>2011-06-26T07:03:35Z</time>
      </trkpt>
      <trkpt lat="44.05328" lon="6.25436">
        <ele>1136.9</ele>
        <time>2011-06-26T07:03:37Z</time>
      </trkpt>
      <trkpt lat="44.05324" lon="6.25437">
        <ele>1135.94</ele>
        <time>2011-06-26T07:03:38Z</time>
      </trkpt>
      <trkpt lat="44.05319" lon="6.25437">
        <ele>1134.49</ele>
        <time>2011-06-26T07:03:39Z</time>
      </trkpt>
      <trkpt lat="44.05315" lon="6.25437">
        <ele>1133.53</ele>
        <time>2011-06-26T07:03:40Z</time>
      </trkpt>
      <trkpt lat="44.05311" lon="6.25436">
        <ele>1132.57</ele>
        <time>2011-06-26T07:03:41Z</time>
      </trkpt>
      <trkpt lat="44.05308" lon="6.25435">
        <ele>1132.57</ele>
        <time>2011-06-26T07:03:42Z</time>
      </trkpt>
      <trkpt lat="44.053" lon="6.25435">
        <ele>1131.13</ele>
        <time>2011-06-26T07:03:45Z</time>
      </trkpt>
      <trkpt lat="44.05289" lon="6.25439">
        <ele>1127.28</ele>
        <time>2011-06-26T07:03:49Z</time>
      </trkpt>
      <trkpt lat="44.05277" lon="6.25441">
        <ele>1124.4</ele>
        <time>2011-06-26T07:03:52Z</time>
      </trkpt>
      <trkpt lat="44.05263" lon="6.25446">
        <ele>1121.03</ele>
        <time>2011-06-26T07:03:55Z</time>
      </trkpt>
      <trkpt lat="44.05254" lon="6.25451">
        <ele>1119.11</ele>
        <time>2011-06-26T07:03:57Z</time>
      </trkpt>
      <trkpt lat="44.0524" lon="6.25464">
        <ele>1115.27</ele>
        <time>2011-06-26T07:04:01Z</time>
      </trkpt>
      <trkpt lat="44.05236" lon="6.25467">
        <ele>1114.79</ele>
        <time>2011-06-26T07:04:02Z</time>
      </trkpt>
      <trkpt lat="44.0522" lon="6.25475">
        <ele>1112.86</ele>
        <time>2011-06-26T07:04:06Z</time>
      </trkpt>
      <trkpt lat="44.05214" lon="6.25483">
        <ele>1110.46</ele>
        <time>2011-06-26T07:04:08Z</time>
      </trkpt>
      <trkpt lat="44.05208" lon="6.25492">
        <ele>1108.06</ele>
        <time>2011-06-26T07:04:10Z</time>
      </trkpt>
      <trkpt lat="44.05204" lon="6.25496">
        <ele>1107.1</ele>
        <time>2011-06-26T07:04:11Z</time>
      </trkpt>
      <trkpt lat="44.05197" lon="6.255">
        <ele>1106.61</ele>
        <time>2011-06-26T07:04:13Z</time>
      </trkpt>
      <trkpt lat="44.05188" lon="6.25506">
        <ele>1104.69</ele>
        <time>2011-06-26T07:04:16Z</time>
      </trkpt>
      <trkpt lat="44.05184" lon="6.2551">
        <ele>1103.73</ele>
        <time>2011-06-26T07:04:17Z</time>
      </trkpt>
      <trkpt lat="44.05181" lon="6.25514">
        <ele>1102.77</ele>
        <time>2011-06-26T07:04:18Z</time>
      </trkpt>
      <trkpt lat="44.05177" lon="6.25518">
        <ele>1101.33</ele>
        <time>2011-06-26T07:04:19Z</time>
      </trkpt>
      <trkpt lat="44.05173" lon="6.25522">
        <ele>1099.89</ele>
        <time>2011-06-26T07:04:20Z</time>
      </trkpt>
      <trkpt lat="44.05169" lon="6.25524">
        <ele>1098.44</ele>
        <time>2011-06-26T07:04:21Z</time>
      </trkpt>
      <trkpt lat="44.05164" lon="6.25525">
        <ele>1097.96</ele>
        <time>2011-06-26T07:04:22Z</time>
      </trkpt>
      <trkpt lat="44.0516" lon="6.25525">
        <ele>1097</ele>
        <time>2011-06-26T07:04:23Z</time>
      </trkpt>
      <trkpt lat="44.05156" lon="6.25527">
        <ele>1096.52</ele>
        <time>2011-06-26T07:04:24Z</time>
      </trkpt>
      <trkpt lat="44.05152" lon="6.2553">
        <ele>1095.08</ele>
        <time>2011-06-26T07:04:25Z</time>
      </trkpt>
      <trkpt lat="44.05147" lon="6.25532">
        <ele>1093.64</ele>
        <time>2011-06-26T07:04:26Z</time>
      </trkpt>
      <trkpt lat="44.05142" lon="6.25534">
        <ele>1092.68</ele>
        <time>2011-06-26T07:04:27Z</time>
      </trkpt>
      <trkpt lat="44.05137" lon="6.25536">
        <ele>1091.71</ele>
        <time>2011-06-26T07:04:28Z</time>
      </trkpt>
      <trkpt lat="44.05134" lon="6.25538">
        <ele>1090.75</ele>
        <time>2011-06-26T07:04:29Z</time>
      </trkpt>
      <trkpt lat="44.0513" lon="6.2554">
        <ele>1090.27</ele>
        <time>2011-06-26T07:04:30Z</time>
      </trkpt>
      <trkpt lat="44.05121" lon="6.25545">
        <ele>1087.39</ele>
        <time>2011-06-26T07:04:32Z</time>
      </trkpt>
      <trkpt lat="44.05116" lon="6.25548">
        <ele>1085.95</ele>
        <time>2011-06-26T07:04:33Z</time>
      </trkpt>
      <trkpt lat="44.05112" lon="6.25551">
        <ele>1084.99</ele>
        <time>2011-06-26T07:04:34Z</time>
      </trkpt>
      <trkpt lat="44.05107" lon="6.25554">
        <ele>1084.02</ele>
        <time>2011-06-26T07:04:35Z</time>
      </trkpt>
      <trkpt lat="44.05101" lon="6.25557">
        <ele>1083.06</ele>
        <time>2011-06-26T07:04:36Z</time>
      </trkpt>
      <trkpt lat="44.05096" lon="6.25559">
        <ele>1082.1</ele>
        <time>2011-06-26T07:04:37Z</time>
      </trkpt>
      <trkpt lat="44.0509" lon="6.25561">
        <ele>1080.66</ele>
        <time>2011-06-26T07:04:38Z</time>
      </trkpt>
      <trkpt lat="44.05084" lon="6.25564">
        <ele>1079.22</ele>
        <time>2011-06-26T07:04:39Z</time>
      </trkpt>
      <trkpt lat="44.05079" lon="6.25567">
        <ele>1078.74</ele>
        <time>2011-06-26T07:04:40Z</time>
      </trkpt>
      <trkpt lat="44.05074" lon="6.25569">
        <ele>1077.78</ele>
        <time>2011-06-26T07:04:41Z</time>
      </trkpt>
      <trkpt lat="44.05063" lon="6.25574">
        <ele>1076.81</ele>
        <time>2011-06-26T07:04:43Z</time>
      </trkpt>
      <trkpt lat="44.05058" lon="6.25577">
        <ele>1075.37</ele>
        <time>2011-06-26T07:04:44Z</time>
      </trkpt>
      <trkpt lat="44.05043" lon="6.25586">
        <ele>1073.45</ele>
        <time>2011-06-26T07:04:47Z</time>
      </trkpt>
      <trkpt lat="44.05039" lon="6.2559">
        <ele>1072.49</ele>
        <time>2011-06-26T07:04:48Z</time>
      </trkpt>
      <trkpt lat="44.05026" lon="6.25599">
        <ele>1069.12</ele>
        <time>2011-06-26T07:04:51Z</time>
      </trkpt>
      <trkpt lat="44.05022" lon="6.25602">
        <ele>1068.16</ele>
        <time>2011-06-26T07:04:52Z</time>
      </trkpt>
      <trkpt lat="44.05017" lon="6.25605">
        <ele>1067.2</ele>
        <time>2011-06-26T07:04:53Z</time>
      </trkpt>
      <trkpt lat="44.05005" lon="6.25611">
        <ele>1064.8</ele>
        <time>2011-06-26T07:04:55Z</time>
      </trkpt>
      <trkpt lat="44.05" lon="6.25614">
        <ele>1063.84</ele>
        <time>2011-06-26T07:04:56Z</time>
      </trkpt>
      <trkpt lat="44.04989" lon="6.25621">
        <ele>1062.39</ele>
        <time>2011-06-26T07:04:58Z</time>
      </trkpt>
      <trkpt lat="44.04983" lon="6.25624">
        <ele>1062.39</ele>
        <time>2011-06-26T07:04:59Z</time>
      </trkpt>
      <trkpt lat="44.04978" lon="6.25628">
        <ele>1061.43</ele>
        <time>2011-06-26T07:05:00Z</time>
      </trkpt>
      <trkpt lat="44.04962" lon="6.25645">
        <ele>1059.03</ele>
        <time>2011-06-26T07:05:03Z</time>
      </trkpt>
      <trkpt lat="44.04959" lon="6.25651">
        <ele>1058.07</ele>
        <time>2011-06-26T07:05:04Z</time>
      </trkpt>
      <trkpt lat="44.04955" lon="6.25657">
        <ele>1057.59</ele>
        <time>2011-06-26T07:05:05Z</time>
      </trkpt>
      <trkpt lat="44.04947" lon="6.25668">
        <ele>1055.67</ele>
        <time>2011-06-26T07:05:07Z</time>
      </trkpt>
      <trkpt lat="44.04944" lon="6.25673">
        <ele>1053.74</ele>
        <time>2011-06-26T07:05:08Z</time>
      </trkpt>
      <trkpt lat="44.04941" lon="6.25679">
        <ele>1052.78</ele>
        <time>2011-06-26T07:05:09Z</time>
      </trkpt>
      <trkpt lat="44.04939" lon="6.25686">
        <ele>1051.82</ele>
        <time>2011-06-26T07:05:10Z</time>
      </trkpt>
      <trkpt lat="44.04936" lon="6.25694">
        <ele>1051.34</ele>
        <time>2011-06-26T07:05:11Z</time>
      </trkpt>
      <trkpt lat="44.04933" lon="6.25702">
        <ele>1050.86</ele>
        <time>2011-06-26T07:05:12Z</time>
      </trkpt>
      <trkpt lat="44.04929" lon="6.25708">
        <ele>1049.9</ele>
        <time>2011-06-26T07:05:13Z</time>
      </trkpt>
      <trkpt lat="44.04924" lon="6.25715">
        <ele>1049.9</ele>
        <time>2011-06-26T07:05:14Z</time>
      </trkpt>
      <trkpt lat="44.04871" lon="6.25768">
        <ele>1047.49</ele>
        <time>2011-06-26T07:05:23Z</time>
      </trkpt>
      <trkpt lat="44.04865" lon="6.25773">
        <ele>1047.49</ele>
        <time>2011-06-26T07:05:24Z</time>
      </trkpt>
      <trkpt lat="44.0486" lon="6.25778">
        <ele>1047.01</ele>
        <time>2011-06-26T07:05:25Z</time>
      </trkpt>
      <trkpt lat="44.0485" lon="6.25788">
        <ele>1046.05</ele>
        <time>2011-06-26T07:05:27Z</time>
      </trkpt>
      <trkpt lat="44.04844" lon="6.25792">
        <ele>1046.05</ele>
        <time>2011-06-26T07:05:28Z</time>
      </trkpt>
      <trkpt lat="44.04834" lon="6.25796">
        <ele>1043.65</ele>
        <time>2011-06-26T07:05:30Z</time>
      </trkpt>
      <trkpt lat="44.0483" lon="6.25801">
        <ele>1043.65</ele>
        <time>2011-06-26T07:05:31Z</time>
      </trkpt>
      <trkpt lat="44.04829" lon="6.25807">
        <ele>1043.17</ele>
        <time>2011-06-26T07:05:32Z</time>
      </trkpt>
      <trkpt lat="44.04828" lon="6.25813">
        <ele>1042.69</ele>
        <time>2011-06-26T07:05:33Z</time>
      </trkpt>
      <trkpt lat="44.04829" lon="6.2582">
        <ele>1043.17</ele>
        <time>2011-06-26T07:05:34Z</time>
      </trkpt>
      <trkpt lat="44.0483" lon="6.25844">
        <ele>1042.21</ele>
        <time>2011-06-26T07:05:37Z</time>
      </trkpt>
      <trkpt lat="44.04829" lon="6.25853">
        <ele>1040.76</ele>
        <time>2011-06-26T07:05:38Z</time>
      </trkpt>
      <trkpt lat="44.04828" lon="6.25863">
        <ele>1040.76</ele>
        <time>2011-06-26T07:05:39Z</time>
      </trkpt>
      <trkpt lat="44.04822" lon="6.25895">
        <ele>1037.4</ele>
        <time>2011-06-26T07:05:42Z</time>
      </trkpt>
      <trkpt lat="44.04814" lon="6.25915">
        <ele>1033.55</ele>
        <time>2011-06-26T07:05:44Z</time>
      </trkpt>
      <trkpt lat="44.0481" lon="6.25923">
        <ele>1032.59</ele>
        <time>2011-06-26T07:05:45Z</time>
      </trkpt>
      <trkpt lat="44.04804" lon="6.25931">
        <ele>1030.67</ele>
        <time>2011-06-26T07:05:46Z</time>
      </trkpt>
      <trkpt lat="44.04798" lon="6.2594">
        <ele>1028.75</ele>
        <time>2011-06-26T07:05:47Z</time>
      </trkpt>
      <trkpt lat="44.04791" lon="6.2595">
        <ele>1026.83</ele>
        <time>2011-06-26T07:05:48Z</time>
      </trkpt>
      <trkpt lat="44.04782" lon="6.25959">
        <ele>1024.9</ele>
        <time>2011-06-26T07:05:49Z</time>
      </trkpt>
      <trkpt lat="44.04773" lon="6.25965">
        <ele>1024.9</ele>
        <time>2011-06-26T07:05:50Z</time>
      </trkpt>
      <trkpt lat="44.04764" lon="6.25969">
        <ele>1024.42</ele>
        <time>2011-06-26T07:05:51Z</time>
      </trkpt>
      <trkpt lat="44.04754" lon="6.25972">
        <ele>1024.9</ele>
        <time>2011-06-26T07:05:52Z</time>
      </trkpt>
      <trkpt lat="44.04745" lon="6.25973">
        <ele>1023.94</ele>
        <time>2011-06-26T07:05:53Z</time>
      </trkpt>
      <trkpt lat="44.0471" lon="6.25975">
        <ele>1023.94</ele>
        <time>2011-06-26T07:05:57Z</time>
      </trkpt>
      <trkpt lat="44.04705" lon="6.2598">
        <ele>1023.94</ele>
        <time>2011-06-26T07:05:58Z</time>
      </trkpt>
      <trkpt lat="44.04702" lon="6.25987">
        <ele>1022.98</ele>
        <time>2011-06-26T07:05:59Z</time>
      </trkpt>
      <trkpt lat="44.04701" lon="6.25996">
        <ele>1022.5</ele>
        <time>2011-06-26T07:06:00Z</time>
      </trkpt>
      <trkpt lat="44.04701" lon="6.26006">
        <ele>1021.54</ele>
        <time>2011-06-26T07:06:01Z</time>
      </trkpt>
      <trkpt lat="44.047" lon="6.26016">
        <ele>1019.62</ele>
        <time>2011-06-26T07:06:02Z</time>
      </trkpt>
      <trkpt lat="44.04697" lon="6.26025">
        <ele>1019.13</ele>
        <time>2011-06-26T07:06:03Z</time>
      </trkpt>
      <trkpt lat="44.04693" lon="6.26032">
        <ele>1017.21</ele>
        <time>2011-06-26T07:06:04Z</time>
      </trkpt>
      <trkpt lat="44.04688" lon="6.26038">
        <ele>1015.77</ele>
        <time>2011-06-26T07:06:05Z</time>
      </trkpt>
      <trkpt lat="44.04681" lon="6.26043">
        <ele>1015.29</ele>
        <time>2011-06-26T07:06:06Z</time>
      </trkpt>
      <trkpt lat="44.04674" lon="6.26047">
        <ele>1014.33</ele>
        <time>2011-06-26T07:06:07Z</time>
      </trkpt>
      <trkpt lat="44.04666" lon="6.26049">
        <ele>1013.37</ele>
        <time>2011-06-26T07:06:08Z</time>
      </trkpt>
      <trkpt lat="44.04658" lon="6.26049">
        <ele>1012.89</ele>
        <time>2011-06-26T07:06:09Z</time>
      </trkpt>
      <trkpt lat="44.0465" lon="6.2605">
        <ele>1011.44</ele>
        <time>2011-06-26T07:06:10Z</time>
      </trkpt>
      <trkpt lat="44.04642" lon="6.2605">
        <ele>1010.96</ele>
        <time>2011-06-26T07:06:11Z</time>
      </trkpt>
      <trkpt lat="44.04624" lon="6.26051">
        <ele>1007.6</ele>
        <time>2011-06-26T07:06:13Z</time>
      </trkpt>
      <trkpt lat="44.04605" lon="6.2605">
        <ele>1006.16</ele>
        <time>2011-06-26T07:06:15Z</time>
      </trkpt>
      <trkpt lat="44.04592" lon="6.26047">
        <ele>1002.79</ele>
        <time>2011-06-26T07:06:17Z</time>
      </trkpt>
      <trkpt lat="44.04587" lon="6.26047">
        <ele>1002.31</ele>
        <time>2011-06-26T07:06:18Z</time>
      </trkpt>
      <trkpt lat="44.04584" lon="6.2605">
        <ele>1000.87</ele>
        <time>2011-06-26T07:06:19Z</time>
      </trkpt>
      <trkpt lat="44.04583" lon="6.26055">
        <ele>1000.87</ele>
        <time>2011-06-26T07:06:20Z</time>
      </trkpt>
      <trkpt lat="44.04584" lon="6.26061">
        <ele>1000.39</ele>
        <time>2011-06-26T07:06:21Z</time>
      </trkpt>
      <trkpt lat="44.04587" lon="6.26067">
        <ele>999.43</ele>
        <time>2011-06-26T07:06:22Z</time>
      </trkpt>
      <trkpt lat="44.04599" lon="6.26086">
        <ele>996.06</ele>
        <time>2011-06-26T07:06:25Z</time>
      </trkpt>
      <trkpt lat="44.04615" lon="6.26108">
        <ele>993.18</ele>
        <time>2011-06-26T07:06:28Z</time>
      </trkpt>
      <trkpt lat="44.0462" lon="6.26116">
        <ele>992.7</ele>
        <time>2011-06-26T07:06:29Z</time>
      </trkpt>
      <trkpt lat="44.04625" lon="6.26124">
        <ele>991.26</ele>
        <time>2011-06-26T07:06:30Z</time>
      </trkpt>
      <trkpt lat="44.04628" lon="6.26133">
        <ele>990.78</ele>
        <time>2011-06-26T07:06:31Z</time>
      </trkpt>
      <trkpt lat="44.04631" lon="6.26142">
        <ele>990.3</ele>
        <time>2011-06-26T07:06:32Z</time>
      </trkpt>
      <trkpt lat="44.04633" lon="6.26151">
        <ele>989.81</ele>
        <time>2011-06-26T07:06:33Z</time>
      </trkpt>
      <trkpt lat="44.04632" lon="6.2616">
        <ele>988.85</ele>
        <time>2011-06-26T07:06:34Z</time>
      </trkpt>
      <trkpt lat="44.04631" lon="6.26169">
        <ele>988.37</ele>
        <time>2011-06-26T07:06:35Z</time>
      </trkpt>
      <trkpt lat="44.0463" lon="6.26176">
        <ele>987.41</ele>
        <time>2011-06-26T07:06:36Z</time>
      </trkpt>
      <trkpt lat="44.04628" lon="6.26183">
        <ele>985.97</ele>
        <time>2011-06-26T07:06:37Z</time>
      </trkpt>
      <trkpt lat="44.04625" lon="6.2619">
        <ele>985.01</ele>
        <time>2011-06-26T07:06:38Z</time>
      </trkpt>
      <trkpt lat="44.04622" lon="6.26198">
        <ele>983.57</ele>
        <time>2011-06-26T07:06:39Z</time>
      </trkpt>
      <trkpt lat="44.04618" lon="6.26207">
        <ele>983.09</ele>
        <time>2011-06-26T07:06:40Z</time>
      </trkpt>
      <trkpt lat="44.04616" lon="6.26217">
        <ele>981.64</ele>
        <time>2011-06-26T07:06:41Z</time>
      </trkpt>
      <trkpt lat="44.04615" lon="6.26227">
        <ele>978.76</ele>
        <time>2011-06-26T07:06:42Z</time>
      </trkpt>
      <trkpt lat="44.04614" lon="6.2625">
        <ele>975.88</ele>
        <time>2011-06-26T07:06:44Z</time>
      </trkpt>
      <trkpt lat="44.04613" lon="6.26261">
        <ele>974.43</ele>
        <time>2011-06-26T07:06:45Z</time>
      </trkpt>
      <trkpt lat="44.04607" lon="6.26283">
        <ele>970.59</ele>
        <time>2011-06-26T07:06:47Z</time>
      </trkpt>
      <trkpt lat="44.04601" lon="6.263">
        <ele>966.74</ele>
        <time>2011-06-26T07:06:49Z</time>
      </trkpt>
      <trkpt lat="44.04598" lon="6.26307">
        <ele>966.74</ele>
        <time>2011-06-26T07:06:50Z</time>
      </trkpt>
      <trkpt lat="44.04593" lon="6.26312">
        <ele>965.78</ele>
        <time>2011-06-26T07:06:51Z</time>
      </trkpt>
      <trkpt lat="44.04582" lon="6.26321">
        <ele>964.34</ele>
        <time>2011-06-26T07:06:53Z</time>
      </trkpt>
      <trkpt lat="44.0458" lon="6.26327">
        <ele>963.86</ele>
        <time>2011-06-26T07:06:54Z</time>
      </trkpt>
      <trkpt lat="44.0458" lon="6.26333">
        <ele>962.9</ele>
        <time>2011-06-26T07:06:55Z</time>
      </trkpt>
      <trkpt lat="44.04582" lon="6.2634">
        <ele>962.42</ele>
        <time>2011-06-26T07:06:56Z</time>
      </trkpt>
      <trkpt lat="44.04584" lon="6.26348">
        <ele>961.46</ele>
        <time>2011-06-26T07:06:57Z</time>
      </trkpt>
      <trkpt lat="44.04586" lon="6.26356">
        <ele>961.94</ele>
        <time>2011-06-26T07:06:58Z</time>
      </trkpt>
      <trkpt lat="44.04586" lon="6.26365">
        <ele>961.46</ele>
        <time>2011-06-26T07:06:59Z</time>
      </trkpt>
      <trkpt lat="44.04585" lon="6.26373">
        <ele>960.98</ele>
        <time>2011-06-26T07:07:00Z</time>
      </trkpt>
      <trkpt lat="44.04578" lon="6.26428">
        <ele>960.49</ele>
        <time>2011-06-26T07:07:07Z</time>
      </trkpt>
      <trkpt lat="44.04561" lon="6.26486">
        <ele>961.46</ele>
        <time>2011-06-26T07:07:16Z</time>
      </trkpt>
      <trkpt lat="44.0456" lon="6.26492">
        <ele>961.94</ele>
        <time>2011-06-26T07:07:17Z</time>
      </trkpt>
      <trkpt lat="44.0456" lon="6.26497">
        <ele>961.46</ele>
        <time>2011-06-26T07:07:18Z</time>
      </trkpt>
      <trkpt lat="44.04561" lon="6.26514">
        <ele>962.42</ele>
        <time>2011-06-26T07:07:21Z</time>
      </trkpt>
      <trkpt lat="44.04562" lon="6.2652">
        <ele>961.94</ele>
        <time>2011-06-26T07:07:22Z</time>
      </trkpt>
      <trkpt lat="44.04569" lon="6.26564">
        <ele>963.38</ele>
        <time>2011-06-26T07:07:30Z</time>
      </trkpt>
      <trkpt lat="44.0457" lon="6.26573">
        <ele>962.9</ele>
        <time>2011-06-26T07:07:32Z</time>
      </trkpt>
      <trkpt lat="44.04569" lon="6.26576">
        <ele>962.9</ele>
        <time>2011-06-26T07:07:33Z</time>
      </trkpt>
      <trkpt lat="44.04568" lon="6.26577">
        <ele>961.94</ele>
        <time>2011-06-26T07:07:34Z</time>
      </trkpt>
      <trkpt lat="44.04564" lon="6.26582">
        <ele>960.01</ele>
        <time>2011-06-26T07:07:47Z</time>
      </trkpt>
      <trkpt lat="44.04564" lon="6.26582">
        <ele>960.98</ele>
        <time>2011-06-26T07:07:48Z</time>
      </trkpt>
      <trkpt lat="44.04564" lon="6.26582">
        <ele>962.42</ele>
        <time>2011-06-26T07:07:51Z</time>
      </trkpt>
      <trkpt lat="44.0456" lon="6.26582">
        <ele>961.94</ele>
        <time>2011-06-26T07:08:00Z</time>
      </trkpt>
      <trkpt lat="44.04532" lon="6.26589">
        <ele>960.49</ele>
        <time>2011-06-26T07:08:07Z</time>
      </trkpt>
      <trkpt lat="44.04515" lon="6.26597">
        <ele>959.05</ele>
        <time>2011-06-26T07:08:10Z</time>
      </trkpt>
      <trkpt lat="44.04481" lon="6.26607">
        <ele>959.05</ele>
        <time>2011-06-26T07:08:16Z</time>
      </trkpt>
      <trkpt lat="44.04476" lon="6.2661">
        <ele>958.09</ele>
        <time>2011-06-26T07:08:17Z</time>
      </trkpt>
      <trkpt lat="44.04471" lon="6.26613">
        <ele>958.57</ele>
        <time>2011-06-26T07:08:18Z</time>
      </trkpt>
      <trkpt lat="44.04467" lon="6.26617">
        <ele>958.09</ele>
        <time>2011-06-26T07:08:19Z</time>
      </trkpt>
      <trkpt lat="44.04463" lon="6.26622">
        <ele>959.05</ele>
        <time>2011-06-26T07:08:20Z</time>
      </trkpt>
      <trkpt lat="44.0446" lon="6.26627">
        <ele>959.05</ele>
        <time>2011-06-26T07:08:21Z</time>
      </trkpt>
      <trkpt lat="44.04427" lon="6.26683">
        <ele>960.49</ele>
        <time>2011-06-26T07:08:34Z</time>
      </trkpt>
      <trkpt lat="44.04408" lon="6.26739">
        <ele>961.94</ele>
        <time>2011-06-26T07:08:46Z</time>
      </trkpt>
      <trkpt lat="44.04382" lon="6.26768">
        <ele>962.9</ele>
        <time>2011-06-26T07:08:55Z</time>
      </trkpt>
      <trkpt lat="44.04376" lon="6.26778">
        <ele>964.34</ele>
        <time>2011-06-26T07:08:58Z</time>
      </trkpt>
      <trkpt lat="44.0437" lon="6.26788">
        <ele>965.78</ele>
        <time>2011-06-26T07:09:03Z</time>
      </trkpt>
      <trkpt lat="44.0435" lon="6.26818">
        <ele>969.15</ele>
        <time>2011-06-26T07:09:18Z</time>
      </trkpt>
      <trkpt lat="44.04335" lon="6.26841">
        <ele>970.59</ele>
        <time>2011-06-26T07:09:29Z</time>
      </trkpt>
      <trkpt lat="44.04335" lon="6.26844">
        <ele>970.11</ele>
        <time>2011-06-26T07:09:30Z</time>
      </trkpt>
      <trkpt lat="44.04335" lon="6.26847">
        <ele>969.63</ele>
        <time>2011-06-26T07:09:31Z</time>
      </trkpt>
      <trkpt lat="44.04335" lon="6.26861">
        <ele>967.7</ele>
        <time>2011-06-26T07:09:34Z</time>
      </trkpt>
      <trkpt lat="44.0433" lon="6.26887">
        <ele>964.82</ele>
        <time>2011-06-26T07:09:38Z</time>
      </trkpt>
      <trkpt lat="44.04325" lon="6.26914">
        <ele>961.46</ele>
        <time>2011-06-26T07:09:42Z</time>
      </trkpt>
      <trkpt lat="44.04325" lon="6.2692">
        <ele>960.98</ele>
        <time>2011-06-26T07:09:43Z</time>
      </trkpt>
      <trkpt lat="44.04325" lon="6.26926">
        <ele>960.49</ele>
        <time>2011-06-26T07:09:44Z</time>
      </trkpt>
      <trkpt lat="44.04325" lon="6.26941">
        <ele>959.53</ele>
        <time>2011-06-26T07:09:46Z</time>
      </trkpt>
      <trkpt lat="44.04312" lon="6.2701">
        <ele>958.09</ele>
        <time>2011-06-26T07:09:55Z</time>
      </trkpt>
      <trkpt lat="44.04308" lon="6.27017">
        <ele>958.57</ele>
        <time>2011-06-26T07:09:56Z</time>
      </trkpt>
      <trkpt lat="44.0427" lon="6.2708">
        <ele>959.53</ele>
        <time>2011-06-26T07:10:09Z</time>
      </trkpt>
      <trkpt lat="44.04262" lon="6.2712">
        <ele>958.57</ele>
        <time>2011-06-26T07:10:20Z</time>
      </trkpt>
      <trkpt lat="44.04268" lon="6.27179">
        <ele>957.13</ele>
        <time>2011-06-26T07:10:30Z</time>
      </trkpt>
      <trkpt lat="44.04276" lon="6.27187">
        <ele>960.01</ele>
        <time>2011-06-26T07:10:41Z</time>
      </trkpt>
      <trkpt lat="44.04269" lon="6.27192">
        <ele>962.9</ele>
        <time>2011-06-26T07:10:51Z</time>
      </trkpt>
      <trkpt lat="44.04256" lon="6.27201">
        <ele>966.26</ele>
        <time>2011-06-26T07:11:06Z</time>
      </trkpt>
      <trkpt lat="44.04243" lon="6.2721">
        <ele>969.63</ele>
        <time>2011-06-26T07:11:22Z</time>
      </trkpt>
      <trkpt lat="44.04239" lon="6.27215">
        <ele>971.07</ele>
        <time>2011-06-26T07:11:28Z</time>
      </trkpt>
      <trkpt lat="44.04227" lon="6.27218">
        <ele>973.95</ele>
        <time>2011-06-26T07:11:43Z</time>
      </trkpt>
      <trkpt lat="44.04222" lon="6.27222">
        <ele>974.43</ele>
        <time>2011-06-26T07:11:47Z</time>
      </trkpt>
      <trkpt lat="44.04221" lon="6.2723">
        <ele>975.88</ele>
        <time>2011-06-26T07:11:52Z</time>
      </trkpt>
      <trkpt lat="44.04228" lon="6.27235">
        <ele>976.84</ele>
        <time>2011-06-26T07:12:00Z</time>
      </trkpt>
      <trkpt lat="44.0423" lon="6.27235">
        <ele>977.32</ele>
        <time>2011-06-26T07:12:02Z</time>
      </trkpt>
      <trkpt lat="44.04241" lon="6.27242">
        <ele>979.72</ele>
        <time>2011-06-26T07:12:16Z</time>
      </trkpt>
      <trkpt lat="44.04243" lon="6.27253">
        <ele>982.12</ele>
        <time>2011-06-26T07:12:29Z</time>
      </trkpt>
      <trkpt lat="44.04239" lon="6.27259">
        <ele>983.09</ele>
        <time>2011-06-26T07:12:34Z</time>
      </trkpt>
      <trkpt lat="44.04238" lon="6.2728">
        <ele>985.01</ele>
        <time>2011-06-26T07:12:49Z</time>
      </trkpt>
      <trkpt lat="44.04234" lon="6.27306">
        <ele>985.97</ele>
        <time>2011-06-26T07:13:02Z</time>
      </trkpt>
      <trkpt lat="44.04227" lon="6.27343">
        <ele>987.89</ele>
        <time>2011-06-26T07:13:16Z</time>
      </trkpt>
      <trkpt lat="44.04222" lon="6.27381">
        <ele>990.78</ele>
        <time>2011-06-26T07:13:30Z</time>
      </trkpt>
      <trkpt lat="44.04218" lon="6.27434">
        <ele>991.26</ele>
        <time>2011-06-26T07:13:45Z</time>
      </trkpt>
      <trkpt lat="44.04215" lon="6.27478">
        <ele>991.74</ele>
        <time>2011-06-26T07:13:57Z</time>
      </trkpt>
      <trkpt lat="44.04215" lon="6.27511">
        <ele>989.33</ele>
        <time>2011-06-26T07:14:04Z</time>
      </trkpt>
      <trkpt lat="44.04213" lon="6.27518">
        <ele>988.85</ele>
        <time>2011-06-26T07:14:05Z</time>
      </trkpt>
      <trkpt lat="44.0421" lon="6.27524">
        <ele>988.85</ele>
        <time>2011-06-26T07:14:06Z</time>
      </trkpt>
      <trkpt lat="44.04188" lon="6.27577">
        <ele>989.81</ele>
        <time>2011-06-26T07:14:18Z</time>
      </trkpt>
      <trkpt lat="44.04169" lon="6.27624">
        <ele>986.45</ele>
        <time>2011-06-26T07:14:25Z</time>
      </trkpt>
      <trkpt lat="44.04166" lon="6.27633">
        <ele>986.45</ele>
        <time>2011-06-26T07:14:26Z</time>
      </trkpt>
      <trkpt lat="44.04151" lon="6.27676">
        <ele>983.09</ele>
        <time>2011-06-26T07:14:31Z</time>
      </trkpt>
      <trkpt lat="44.04148" lon="6.27682">
        <ele>983.57</ele>
        <time>2011-06-26T07:14:32Z</time>
      </trkpt>
      <trkpt lat="44.04145" lon="6.27688">
        <ele>982.6</ele>
        <time>2011-06-26T07:14:33Z</time>
      </trkpt>
      <trkpt lat="44.04144" lon="6.27691">
        <ele>981.64</ele>
        <time>2011-06-26T07:14:34Z</time>
      </trkpt>
      <trkpt lat="44.04144" lon="6.27693">
        <ele>981.16</ele>
        <time>2011-06-26T07:14:35Z</time>
      </trkpt>
      <trkpt lat="44.04145" lon="6.27693">
        <ele>981.16</ele>
        <time>2011-06-26T07:14:36Z</time>
      </trkpt>
      <trkpt lat="44.04148" lon="6.27691">
        <ele>980.68</ele>
        <time>2011-06-26T07:14:37Z</time>
      </trkpt>
      <trkpt lat="44.04151" lon="6.27689">
        <ele>980.2</ele>
        <time>2011-06-26T07:14:38Z</time>
      </trkpt>
      <trkpt lat="44.04154" lon="6.27686">
        <ele>980.2</ele>
        <time>2011-06-26T07:14:39Z</time>
      </trkpt>
      <trkpt lat="44.04158" lon="6.27683">
        <ele>979.72</ele>
        <time>2011-06-26T07:14:40Z</time>
      </trkpt>
      <trkpt lat="44.04163" lon="6.2768">
        <ele>979.72</ele>
        <time>2011-06-26T07:14:41Z</time>
      </trkpt>
      <trkpt lat="44.04168" lon="6.27677">
        <ele>978.28</ele>
        <time>2011-06-26T07:14:42Z</time>
      </trkpt>
      <trkpt lat="44.04179" lon="6.2767">
        <ele>977.32</ele>
        <time>2011-06-26T07:14:44Z</time>
      </trkpt>
      <trkpt lat="44.04206" lon="6.27651">
        <ele>974.43</ele>
        <time>2011-06-26T07:14:48Z</time>
      </trkpt>
      <trkpt lat="44.04234" lon="6.27631">
        <ele>971.07</ele>
        <time>2011-06-26T07:14:52Z</time>
      </trkpt>
      <trkpt lat="44.04248" lon="6.27624">
        <ele>970.59</ele>
        <time>2011-06-26T07:14:54Z</time>
      </trkpt>
      <trkpt lat="44.04274" lon="6.27615">
        <ele>967.22</ele>
        <time>2011-06-26T07:14:58Z</time>
      </trkpt>
      <trkpt lat="44.0428" lon="6.2761">
        <ele>965.78</ele>
        <time>2011-06-26T07:14:59Z</time>
      </trkpt>
      <trkpt lat="44.04286" lon="6.27605">
        <ele>964.82</ele>
        <time>2011-06-26T07:15:00Z</time>
      </trkpt>
      <trkpt lat="44.04293" lon="6.27601">
        <ele>963.86</ele>
        <time>2011-06-26T07:15:01Z</time>
      </trkpt>
      <trkpt lat="44.04299" lon="6.27597">
        <ele>962.42</ele>
        <time>2011-06-26T07:15:02Z</time>
      </trkpt>
      <trkpt lat="44.04305" lon="6.27593">
        <ele>961.46</ele>
        <time>2011-06-26T07:15:03Z</time>
      </trkpt>
      <trkpt lat="44.04311" lon="6.27589">
        <ele>960.98</ele>
        <time>2011-06-26T07:15:04Z</time>
      </trkpt>
      <trkpt lat="44.04318" lon="6.27586">
        <ele>959.53</ele>
        <time>2011-06-26T07:15:05Z</time>
      </trkpt>
      <trkpt lat="44.04338" lon="6.27574">
        <ele>955.21</ele>
        <time>2011-06-26T07:15:08Z</time>
      </trkpt>
      <trkpt lat="44.04343" lon="6.27567">
        <ele>954.73</ele>
        <time>2011-06-26T07:15:09Z</time>
      </trkpt>
      <trkpt lat="44.04362" lon="6.27536">
        <ele>951.36</ele>
        <time>2011-06-26T07:15:13Z</time>
      </trkpt>
      <trkpt lat="44.04391" lon="6.27488">
        <ele>948</ele>
        <time>2011-06-26T07:15:19Z</time>
      </trkpt>
      <trkpt lat="44.04395" lon="6.27482">
        <ele>947.04</ele>
        <time>2011-06-26T07:15:20Z</time>
      </trkpt>
      <trkpt lat="44.04406" lon="6.27461">
        <ele>944.63</ele>
        <time>2011-06-26T07:15:23Z</time>
      </trkpt>
      <trkpt lat="44.0441" lon="6.27454">
        <ele>943.67</ele>
        <time>2011-06-26T07:15:24Z</time>
      </trkpt>
      <trkpt lat="44.04414" lon="6.27447">
        <ele>943.19</ele>
        <time>2011-06-26T07:15:25Z</time>
      </trkpt>
      <trkpt lat="44.04424" lon="6.27431">
        <ele>940.79</ele>
        <time>2011-06-26T07:15:28Z</time>
      </trkpt>
      <trkpt lat="44.04427" lon="6.27427">
        <ele>940.31</ele>
        <time>2011-06-26T07:15:29Z</time>
      </trkpt>
      <trkpt lat="44.0443" lon="6.27426">
        <ele>939.83</ele>
        <time>2011-06-26T07:15:30Z</time>
      </trkpt>
      <trkpt lat="44.04432" lon="6.27426">
        <ele>939.35</ele>
        <time>2011-06-26T07:15:31Z</time>
      </trkpt>
      <trkpt lat="44.04435" lon="6.27425">
        <ele>938.38</ele>
        <time>2011-06-26T07:15:32Z</time>
      </trkpt>
      <trkpt lat="44.04438" lon="6.27423">
        <ele>937.9</ele>
        <time>2011-06-26T07:15:33Z</time>
      </trkpt>
      <trkpt lat="44.04442" lon="6.2742">
        <ele>936.94</ele>
        <time>2011-06-26T07:15:34Z</time>
      </trkpt>
      <trkpt lat="44.04447" lon="6.27417">
        <ele>935.98</ele>
        <time>2011-06-26T07:15:35Z</time>
      </trkpt>
      <trkpt lat="44.04453" lon="6.27414">
        <ele>935.5</ele>
        <time>2011-06-26T07:15:36Z</time>
      </trkpt>
      <trkpt lat="44.04459" lon="6.27412">
        <ele>935.02</ele>
        <time>2011-06-26T07:15:37Z</time>
      </trkpt>
      <trkpt lat="44.04474" lon="6.27404">
        <ele>932.14</ele>
        <time>2011-06-26T07:15:41Z</time>
      </trkpt>
      <trkpt lat="44.04492" lon="6.27386">
        <ele>931.65</ele>
        <time>2011-06-26T07:15:48Z</time>
      </trkpt>
      <trkpt lat="44.045" lon="6.27376">
        <ele>929.73</ele>
        <time>2011-06-26T07:15:50Z</time>
      </trkpt>
      <trkpt lat="44.04504" lon="6.2737">
        <ele>929.25</ele>
        <time>2011-06-26T07:15:51Z</time>
      </trkpt>
      <trkpt lat="44.04523" lon="6.27345">
        <ele>925.41</ele>
        <time>2011-06-26T07:15:55Z</time>
      </trkpt>
      <trkpt lat="44.04535" lon="6.27331">
        <ele>923.48</ele>
        <time>2011-06-26T07:15:57Z</time>
      </trkpt>
      <trkpt lat="44.04547" lon="6.27325">
        <ele>920.6</ele>
        <time>2011-06-26T07:15:59Z</time>
      </trkpt>
      <trkpt lat="44.04553" lon="6.27324">
        <ele>919.64</ele>
        <time>2011-06-26T07:16:00Z</time>
      </trkpt>
      <trkpt lat="44.04558" lon="6.27323">
        <ele>918.2</ele>
        <time>2011-06-26T07:16:01Z</time>
      </trkpt>
      <trkpt lat="44.04563" lon="6.27323">
        <ele>916.75</ele>
        <time>2011-06-26T07:16:02Z</time>
      </trkpt>
      <trkpt lat="44.04569" lon="6.27324">
        <ele>915.79</ele>
        <time>2011-06-26T07:16:03Z</time>
      </trkpt>
      <trkpt lat="44.04574" lon="6.27326">
        <ele>914.35</ele>
        <time>2011-06-26T07:16:04Z</time>
      </trkpt>
      <trkpt lat="44.04585" lon="6.27329">
        <ele>912.91</ele>
        <time>2011-06-26T07:16:06Z</time>
      </trkpt>
      <trkpt lat="44.0459" lon="6.27329">
        <ele>911.47</ele>
        <time>2011-06-26T07:16:07Z</time>
      </trkpt>
      <trkpt lat="44.04595" lon="6.27334">
        <ele>910.99</ele>
        <time>2011-06-26T07:16:09Z</time>
      </trkpt>
      <trkpt lat="44.04604" lon="6.27369">
        <ele>909.06</ele>
        <time>2011-06-26T07:16:18Z</time>
      </trkpt>
      <trkpt lat="44.04614" lon="6.2737">
        <ele>904.74</ele>
        <time>2011-06-26T07:16:21Z</time>
      </trkpt>
      <trkpt lat="44.04616" lon="6.27369">
        <ele>903.78</ele>
        <time>2011-06-26T07:16:22Z</time>
      </trkpt>
      <trkpt lat="44.04624" lon="6.27368">
        <ele>900.89</ele>
        <time>2011-06-26T07:16:27Z</time>
      </trkpt>
      <trkpt lat="44.04632" lon="6.27368">
        <ele>898.49</ele>
        <time>2011-06-26T07:16:33Z</time>
      </trkpt>
      <trkpt lat="44.04638" lon="6.27371">
        <ele>896.57</ele>
        <time>2011-06-26T07:16:35Z</time>
      </trkpt>
      <trkpt lat="44.04643" lon="6.27373">
        <ele>895.12</ele>
        <time>2011-06-26T07:16:36Z</time>
      </trkpt>
      <trkpt lat="44.04647" lon="6.27374">
        <ele>894.64</ele>
        <time>2011-06-26T07:16:37Z</time>
      </trkpt>
      <trkpt lat="44.0465" lon="6.27376">
        <ele>895.12</ele>
        <time>2011-06-26T07:16:38Z</time>
      </trkpt>
      <trkpt lat="44.04653" lon="6.27378">
        <ele>894.64</ele>
        <time>2011-06-26T07:16:39Z</time>
      </trkpt>
      <trkpt lat="44.04656" lon="6.27379">
        <ele>895.12</ele>
        <time>2011-06-26T07:16:40Z</time>
      </trkpt>
      <trkpt lat="44.04668" lon="6.27366">
        <ele>895.12</ele>
        <time>2011-06-26T07:16:47Z</time>
      </trkpt>
      <trkpt lat="44.04676" lon="6.27344">
        <ele>894.16</ele>
        <time>2011-06-26T07:16:51Z</time>
      </trkpt>
      <trkpt lat="44.04679" lon="6.27337">
        <ele>894.16</ele>
        <time>2011-06-26T07:16:52Z</time>
      </trkpt>
      <trkpt lat="44.04689" lon="6.27318">
        <ele>893.2</ele>
        <time>2011-06-26T07:16:55Z</time>
      </trkpt>
      <trkpt lat="44.04693" lon="6.27312">
        <ele>892.72</ele>
        <time>2011-06-26T07:16:56Z</time>
      </trkpt>
      <trkpt lat="44.04697" lon="6.27306">
        <ele>892.24</ele>
        <time>2011-06-26T07:16:57Z</time>
      </trkpt>
      <trkpt lat="44.04708" lon="6.27294">
        <ele>890.8</ele>
        <time>2011-06-26T07:17:00Z</time>
      </trkpt>
      <trkpt lat="44.04712" lon="6.27295">
        <ele>890.32</ele>
        <time>2011-06-26T07:17:01Z</time>
      </trkpt>
      <trkpt lat="44.04716" lon="6.27296">
        <ele>889.36</ele>
        <time>2011-06-26T07:17:02Z</time>
      </trkpt>
      <trkpt lat="44.0472" lon="6.27294">
        <ele>888.88</ele>
        <time>2011-06-26T07:17:03Z</time>
      </trkpt>
      <trkpt lat="44.04725" lon="6.2729">
        <ele>887.43</ele>
        <time>2011-06-26T07:17:04Z</time>
      </trkpt>
      <trkpt lat="44.0473" lon="6.27285">
        <ele>885.99</ele>
        <time>2011-06-26T07:17:05Z</time>
      </trkpt>
      <trkpt lat="44.04735" lon="6.27282">
        <ele>884.07</ele>
        <time>2011-06-26T07:17:06Z</time>
      </trkpt>
      <trkpt lat="44.04741" lon="6.27277">
        <ele>881.67</ele>
        <time>2011-06-26T07:17:07Z</time>
      </trkpt>
      <trkpt lat="44.04748" lon="6.27273">
        <ele>880.22</ele>
        <time>2011-06-26T07:17:08Z</time>
      </trkpt>
      <trkpt lat="44.04767" lon="6.27263">
        <ele>876.38</ele>
        <time>2011-06-26T07:17:11Z</time>
      </trkpt>
      <trkpt lat="44.04773" lon="6.27262">
        <ele>874.94</ele>
        <time>2011-06-26T07:17:12Z</time>
      </trkpt>
      <trkpt lat="44.0478" lon="6.27261">
        <ele>873.98</ele>
        <time>2011-06-26T07:17:13Z</time>
      </trkpt>
      <trkpt lat="44.0479" lon="6.27259">
        <ele>872.05</ele>
        <time>2011-06-26T07:17:15Z</time>
      </trkpt>
      <trkpt lat="44.04799" lon="6.27261">
        <ele>870.61</ele>
        <time>2011-06-26T07:17:17Z</time>
      </trkpt>
      <trkpt lat="44.04803" lon="6.27264">
        <ele>869.65</ele>
        <time>2011-06-26T07:17:18Z</time>
      </trkpt>
      <trkpt lat="44.04807" lon="6.27269">
        <ele>868.69</ele>
        <time>2011-06-26T07:17:19Z</time>
      </trkpt>
      <trkpt lat="44.04811" lon="6.27274">
        <ele>868.69</ele>
        <time>2011-06-26T07:17:20Z</time>
      </trkpt>
      <trkpt lat="44.04815" lon="6.27281">
        <ele>867.73</ele>
        <time>2011-06-26T07:17:21Z</time>
      </trkpt>
      <trkpt lat="44.04825" lon="6.27294">
        <ele>867.25</ele>
        <time>2011-06-26T07:17:23Z</time>
      </trkpt>
      <trkpt lat="44.04832" lon="6.27298">
        <ele>867.25</ele>
        <time>2011-06-26T07:17:24Z</time>
      </trkpt>
      <trkpt lat="44.04839" lon="6.27299">
        <ele>866.29</ele>
        <time>2011-06-26T07:17:25Z</time>
      </trkpt>
      <trkpt lat="44.04845" lon="6.27298">
        <ele>866.29</ele>
        <time>2011-06-26T07:17:26Z</time>
      </trkpt>
      <trkpt lat="44.04853" lon="6.27294">
        <ele>862.92</ele>
        <time>2011-06-26T07:17:27Z</time>
      </trkpt>
      <trkpt lat="44.0486" lon="6.27289">
        <ele>867.25</ele>
        <time>2011-06-26T07:17:28Z</time>
      </trkpt>
      <trkpt lat="44.04875" lon="6.27277">
        <ele>864.36</ele>
        <time>2011-06-26T07:17:30Z</time>
      </trkpt>
      <trkpt lat="44.04883" lon="6.27273">
        <ele>863.88</ele>
        <time>2011-06-26T07:17:31Z</time>
      </trkpt>
      <trkpt lat="44.04892" lon="6.27272">
        <ele>862.92</ele>
        <time>2011-06-26T07:17:32Z</time>
      </trkpt>
      <trkpt lat="44.04901" lon="6.27272">
        <ele>859.08</ele>
        <time>2011-06-26T07:17:33Z</time>
      </trkpt>
      <trkpt lat="44.0491" lon="6.27275">
        <ele>862.92</ele>
        <time>2011-06-26T07:17:34Z</time>
      </trkpt>
      <trkpt lat="44.0492" lon="6.27277">
        <ele>862.92</ele>
        <time>2011-06-26T07:17:35Z</time>
      </trkpt>
      <trkpt lat="44.04929" lon="6.27276">
        <ele>860.52</ele>
        <time>2011-06-26T07:17:36Z</time>
      </trkpt>
      <trkpt lat="44.04938" lon="6.27274">
        <ele>861.48</ele>
        <time>2011-06-26T07:17:37Z</time>
      </trkpt>
      <trkpt lat="44.04976" lon="6.27263">
        <ele>859.08</ele>
        <time>2011-06-26T07:17:41Z</time>
      </trkpt>
      <trkpt lat="44.04985" lon="6.27258">
        <ele>858.59</ele>
        <time>2011-06-26T07:17:42Z</time>
      </trkpt>
      <trkpt lat="44.0502" lon="6.27236">
        <ele>856.67</ele>
        <time>2011-06-26T07:17:46Z</time>
      </trkpt>
      <trkpt lat="44.05028" lon="6.27234">
        <ele>856.19</ele>
        <time>2011-06-26T07:17:47Z</time>
      </trkpt>
      <trkpt lat="44.05034" lon="6.27234">
        <ele>855.71</ele>
        <time>2011-06-26T07:17:48Z</time>
      </trkpt>
      <trkpt lat="44.0504" lon="6.27237">
        <ele>856.67</ele>
        <time>2011-06-26T07:17:49Z</time>
      </trkpt>
      <trkpt lat="44.05043" lon="6.27239">
        <ele>857.15</ele>
        <time>2011-06-26T07:17:50Z</time>
      </trkpt>
      <trkpt lat="44.05045" lon="6.27241">
        <ele>857.63</ele>
        <time>2011-06-26T07:17:51Z</time>
      </trkpt>
      <trkpt lat="44.05047" lon="6.27242">
        <ele>858.59</ele>
        <time>2011-06-26T07:17:52Z</time>
      </trkpt>
      <trkpt lat="44.0505" lon="6.27242">
        <ele>858.11</ele>
        <time>2011-06-26T07:17:53Z</time>
      </trkpt>
      <trkpt lat="44.05053" lon="6.27243">
        <ele>858.11</ele>
        <time>2011-06-26T07:17:54Z</time>
      </trkpt>
      <trkpt lat="44.05083" lon="6.27235">
        <ele>858.59</ele>
        <time>2011-06-26T07:18:04Z</time>
      </trkpt>
      <trkpt lat="44.05088" lon="6.27236">
        <ele>859.08</ele>
        <time>2011-06-26T07:18:06Z</time>
      </trkpt>
      <trkpt lat="44.051" lon="6.27243">
        <ele>860.04</ele>
        <time>2011-06-26T07:18:15Z</time>
      </trkpt>
      <trkpt lat="44.05101" lon="6.27246">
        <ele>861.96</ele>
        <time>2011-06-26T07:18:21Z</time>
      </trkpt>
      <trkpt lat="44.05102" lon="6.2725">
        <ele>862.92</ele>
        <time>2011-06-26T07:18:24Z</time>
      </trkpt>
      <trkpt lat="44.05115" lon="6.27257">
        <ele>864.84</ele>
        <time>2011-06-26T07:18:38Z</time>
      </trkpt>
      <trkpt lat="44.05122" lon="6.27258">
        <ele>865.32</ele>
        <time>2011-06-26T07:18:44Z</time>
      </trkpt>
      <trkpt lat="44.05124" lon="6.27258">
        <ele>865.32</ele>
        <time>2011-06-26T07:18:45Z</time>
      </trkpt>
      <trkpt lat="44.05147" lon="6.2726">
        <ele>867.25</ele>
        <time>2011-06-26T07:18:58Z</time>
      </trkpt>
      <trkpt lat="44.05166" lon="6.27256">
        <ele>866.29</ele>
        <time>2011-06-26T07:19:03Z</time>
      </trkpt>
      <trkpt lat="44.0517" lon="6.27258">
        <ele>866.29</ele>
        <time>2011-06-26T07:19:04Z</time>
      </trkpt>
      <trkpt lat="44.05196" lon="6.27255">
        <ele>862.44</ele>
        <time>2011-06-26T07:19:10Z</time>
      </trkpt>
      <trkpt lat="44.0521" lon="6.2725">
        <ele>861</ele>
        <time>2011-06-26T07:19:13Z</time>
      </trkpt>
      <trkpt lat="44.0522" lon="6.27245">
        <ele>860.04</ele>
        <time>2011-06-26T07:19:15Z</time>
      </trkpt>
      <trkpt lat="44.05237" lon="6.27239">
        <ele>857.63</ele>
        <time>2011-06-26T07:19:20Z</time>
      </trkpt>
      <trkpt lat="44.0526" lon="6.27221">
        <ele>854.75</ele>
        <time>2011-06-26T07:19:27Z</time>
      </trkpt>
      <trkpt lat="44.05275" lon="6.27215">
        <ele>851.38</ele>
        <time>2011-06-26T07:19:35Z</time>
      </trkpt>
      <trkpt lat="44.05279" lon="6.27216">
        <ele>849.46</ele>
        <time>2011-06-26T07:19:37Z</time>
      </trkpt>
      <trkpt lat="44.05287" lon="6.27224">
        <ele>844.66</ele>
        <time>2011-06-26T07:19:40Z</time>
      </trkpt>
      <trkpt lat="44.05294" lon="6.27228">
        <ele>842.73</ele>
        <time>2011-06-26T07:19:42Z</time>
      </trkpt>
      <trkpt lat="44.05311" lon="6.27234">
        <ele>837.93</ele>
        <time>2011-06-26T07:19:46Z</time>
      </trkpt>
      <trkpt lat="44.05324" lon="6.27238">
        <ele>836</ele>
        <time>2011-06-26T07:19:49Z</time>
      </trkpt>
      <trkpt lat="44.05326" lon="6.27246">
        <ele>833.6</ele>
        <time>2011-06-26T07:19:53Z</time>
      </trkpt>
      <trkpt lat="44.05323" lon="6.27256">
        <ele>830.72</ele>
        <time>2011-06-26T07:20:01Z</time>
      </trkpt>
      <trkpt lat="44.05326" lon="6.27267">
        <ele>825.43</ele>
        <time>2011-06-26T07:20:04Z</time>
      </trkpt>
      <trkpt lat="44.05329" lon="6.2727">
        <ele>825.43</ele>
        <time>2011-06-26T07:20:05Z</time>
      </trkpt>
      <trkpt lat="44.05334" lon="6.27277">
        <ele>822.06</ele>
        <time>2011-06-26T07:20:07Z</time>
      </trkpt>
      <trkpt lat="44.05338" lon="6.27287">
        <ele>817.74</ele>
        <time>2011-06-26T07:20:09Z</time>
      </trkpt>
      <trkpt lat="44.05338" lon="6.27296">
        <ele>814.85</ele>
        <time>2011-06-26T07:20:12Z</time>
      </trkpt>
      <trkpt lat="44.05338" lon="6.27299">
        <ele>814.85</ele>
        <time>2011-06-26T07:20:13Z</time>
      </trkpt>
      <trkpt lat="44.0534" lon="6.27298">
        <ele>815.34</ele>
        <time>2011-06-26T07:20:18Z</time>
      </trkpt>
      <trkpt lat="44.05368" lon="6.27282">
        <ele>811.49</ele>
        <time>2011-06-26T07:20:27Z</time>
      </trkpt>
      <trkpt lat="44.05381" lon="6.27275">
        <ele>810.05</ele>
        <time>2011-06-26T07:20:29Z</time>
      </trkpt>
      <trkpt lat="44.05404" lon="6.27263">
        <ele>806.68</ele>
        <time>2011-06-26T07:20:32Z</time>
      </trkpt>
      <trkpt lat="44.05414" lon="6.27257">
        <ele>806.2</ele>
        <time>2011-06-26T07:20:33Z</time>
      </trkpt>
      <trkpt lat="44.05422" lon="6.27256">
        <ele>805.72</ele>
        <time>2011-06-26T07:20:34Z</time>
      </trkpt>
      <trkpt lat="44.05429" lon="6.27256">
        <ele>804.76</ele>
        <time>2011-06-26T07:20:35Z</time>
      </trkpt>
      <trkpt lat="44.05433" lon="6.27259">
        <ele>803.8</ele>
        <time>2011-06-26T07:20:36Z</time>
      </trkpt>
      <trkpt lat="44.05431" lon="6.27262">
        <ele>802.84</ele>
        <time>2011-06-26T07:20:37Z</time>
      </trkpt>
      <trkpt lat="44.05428" lon="6.27268">
        <ele>801.88</ele>
        <time>2011-06-26T07:20:38Z</time>
      </trkpt>
      <trkpt lat="44.05424" lon="6.27277">
        <ele>801.4</ele>
        <time>2011-06-26T07:20:39Z</time>
      </trkpt>
      <trkpt lat="44.05424" lon="6.27287">
        <ele>800.92</ele>
        <time>2011-06-26T07:20:40Z</time>
      </trkpt>
      <trkpt lat="44.05426" lon="6.27298">
        <ele>799.95</ele>
        <time>2011-06-26T07:20:41Z</time>
      </trkpt>
      <trkpt lat="44.05431" lon="6.27309">
        <ele>798.99</ele>
        <time>2011-06-26T07:20:42Z</time>
      </trkpt>
      <trkpt lat="44.05437" lon="6.27318">
        <ele>798.03</ele>
        <time>2011-06-26T07:20:43Z</time>
      </trkpt>
      <trkpt lat="44.05443" lon="6.27326">
        <ele>797.07</ele>
        <time>2011-06-26T07:20:44Z</time>
      </trkpt>
      <trkpt lat="44.0545" lon="6.27333">
        <ele>796.11</ele>
        <time>2011-06-26T07:20:45Z</time>
      </trkpt>
      <trkpt lat="44.05458" lon="6.27337">
        <ele>795.15</ele>
        <time>2011-06-26T07:20:46Z</time>
      </trkpt>
      <trkpt lat="44.05468" lon="6.27343">
        <ele>794.67</ele>
        <time>2011-06-26T07:20:47Z</time>
      </trkpt>
      <trkpt lat="44.0549" lon="6.27349">
        <ele>793.71</ele>
        <time>2011-06-26T07:20:49Z</time>
      </trkpt>
      <trkpt lat="44.05501" lon="6.2735">
        <ele>793.22</ele>
        <time>2011-06-26T07:20:50Z</time>
      </trkpt>
      <trkpt lat="44.05524" lon="6.27351">
        <ele>791.78</ele>
        <time>2011-06-26T07:20:52Z</time>
      </trkpt>
      <trkpt lat="44.05544" lon="6.27358">
        <ele>790.82</ele>
        <time>2011-06-26T07:20:54Z</time>
      </trkpt>
      <trkpt lat="44.05571" lon="6.27373">
        <ele>788.9</ele>
        <time>2011-06-26T07:20:57Z</time>
      </trkpt>
      <trkpt lat="44.05578" lon="6.27374">
        <ele>788.42</ele>
        <time>2011-06-26T07:20:58Z</time>
      </trkpt>
      <trkpt lat="44.05586" lon="6.27373">
        <ele>787.94</ele>
        <time>2011-06-26T07:20:59Z</time>
      </trkpt>
      <trkpt lat="44.05594" lon="6.27371">
        <ele>787.46</ele>
        <time>2011-06-26T07:21:00Z</time>
      </trkpt>
      <trkpt lat="44.05604" lon="6.27364">
        <ele>786.98</ele>
        <time>2011-06-26T07:21:01Z</time>
      </trkpt>
      <trkpt lat="44.05614" lon="6.2736">
        <ele>786.02</ele>
        <time>2011-06-26T07:21:02Z</time>
      </trkpt>
      <trkpt lat="44.05625" lon="6.27358">
        <ele>785.53</ele>
        <time>2011-06-26T07:21:03Z</time>
      </trkpt>
      <trkpt lat="44.05636" lon="6.27359">
        <ele>784.57</ele>
        <time>2011-06-26T07:21:04Z</time>
      </trkpt>
      <trkpt lat="44.05645" lon="6.27362">
        <ele>784.09</ele>
        <time>2011-06-26T07:21:05Z</time>
      </trkpt>
      <trkpt lat="44.05654" lon="6.27366">
        <ele>783.13</ele>
        <time>2011-06-26T07:21:06Z</time>
      </trkpt>
      <trkpt lat="44.05661" lon="6.27372">
        <ele>781.69</ele>
        <time>2011-06-26T07:21:07Z</time>
      </trkpt>
      <trkpt lat="44.05676" lon="6.2738">
        <ele>780.73</ele>
        <time>2011-06-26T07:21:09Z</time>
      </trkpt>
      <trkpt lat="44.05683" lon="6.27379">
        <ele>779.29</ele>
        <time>2011-06-26T07:21:10Z</time>
      </trkpt>
      <trkpt lat="44.05689" lon="6.27378">
        <ele>777.36</ele>
        <time>2011-06-26T07:21:11Z</time>
      </trkpt>
      <trkpt lat="44.05703" lon="6.27369">
        <ele>774.48</ele>
        <time>2011-06-26T07:21:13Z</time>
      </trkpt>
      <trkpt lat="44.05715" lon="6.27362">
        <ele>773.04</ele>
        <time>2011-06-26T07:21:14Z</time>
      </trkpt>
      <trkpt lat="44.05735" lon="6.27359">
        <ele>771.6</ele>
        <time>2011-06-26T07:21:16Z</time>
      </trkpt>
      <trkpt lat="44.05743" lon="6.2736">
        <ele>770.63</ele>
        <time>2011-06-26T07:21:17Z</time>
      </trkpt>
      <trkpt lat="44.05748" lon="6.27365">
        <ele>769.67</ele>
        <time>2011-06-26T07:21:18Z</time>
      </trkpt>
      <trkpt lat="44.0575" lon="6.27374">
        <ele>769.19</ele>
        <time>2011-06-26T07:21:19Z</time>
      </trkpt>
      <trkpt lat="44.05749" lon="6.27384">
        <ele>768.23</ele>
        <time>2011-06-26T07:21:20Z</time>
      </trkpt>
      <trkpt lat="44.05749" lon="6.27395">
        <ele>767.75</ele>
        <time>2011-06-26T07:21:21Z</time>
      </trkpt>
      <trkpt lat="44.0575" lon="6.27407">
        <ele>767.27</ele>
        <time>2011-06-26T07:21:22Z</time>
      </trkpt>
      <trkpt lat="44.05753" lon="6.27417">
        <ele>766.79</ele>
        <time>2011-06-26T07:21:23Z</time>
      </trkpt>
      <trkpt lat="44.05758" lon="6.27427">
        <ele>766.31</ele>
        <time>2011-06-26T07:21:24Z</time>
      </trkpt>
      <trkpt lat="44.05763" lon="6.27437">
        <ele>765.83</ele>
        <time>2011-06-26T07:21:25Z</time>
      </trkpt>
      <trkpt lat="44.05777" lon="6.2747">
        <ele>763.9</ele>
        <time>2011-06-26T07:21:28Z</time>
      </trkpt>
      <trkpt lat="44.0579" lon="6.27484">
        <ele>762.94</ele>
        <time>2011-06-26T07:21:30Z</time>
      </trkpt>
      <trkpt lat="44.05796" lon="6.27486">
        <ele>762.46</ele>
        <time>2011-06-26T07:21:31Z</time>
      </trkpt>
      <trkpt lat="44.05802" lon="6.27487">
        <ele>762.46</ele>
        <time>2011-06-26T07:21:32Z</time>
      </trkpt>
      <trkpt lat="44.05809" lon="6.27486">
        <ele>761.98</ele>
        <time>2011-06-26T07:21:33Z</time>
      </trkpt>
      <trkpt lat="44.05816" lon="6.27484">
        <ele>761.5</ele>
        <time>2011-06-26T07:21:34Z</time>
      </trkpt>
      <trkpt lat="44.05824" lon="6.27483">
        <ele>761.02</ele>
        <time>2011-06-26T07:21:35Z</time>
      </trkpt>
      <trkpt lat="44.05833" lon="6.27485">
        <ele>760.06</ele>
        <time>2011-06-26T07:21:36Z</time>
      </trkpt>
      <trkpt lat="44.0584" lon="6.27492">
        <ele>759.1</ele>
        <time>2011-06-26T07:21:37Z</time>
      </trkpt>
      <trkpt lat="44.05846" lon="6.27501">
        <ele>759.1</ele>
        <time>2011-06-26T07:21:38Z</time>
      </trkpt>
      <trkpt lat="44.05864" lon="6.27534">
        <ele>755.73</ele>
        <time>2011-06-26T07:21:41Z</time>
      </trkpt>
      <trkpt lat="44.05877" lon="6.27556">
        <ele>753.81</ele>
        <time>2011-06-26T07:21:43Z</time>
      </trkpt>
      <trkpt lat="44.05881" lon="6.27565">
        <ele>753.33</ele>
        <time>2011-06-26T07:21:44Z</time>
      </trkpt>
      <trkpt lat="44.05882" lon="6.27575">
        <ele>752.37</ele>
        <time>2011-06-26T07:21:45Z</time>
      </trkpt>
      <trkpt lat="44.0588" lon="6.27583">
        <ele>751.89</ele>
        <time>2011-06-26T07:21:46Z</time>
      </trkpt>
      <trkpt lat="44.05875" lon="6.27592">
        <ele>751.89</ele>
        <time>2011-06-26T07:21:47Z</time>
      </trkpt>
      <trkpt lat="44.05871" lon="6.276">
        <ele>751.41</ele>
        <time>2011-06-26T07:21:48Z</time>
      </trkpt>
      <trkpt lat="44.05868" lon="6.27609">
        <ele>751.41</ele>
        <time>2011-06-26T07:21:49Z</time>
      </trkpt>
      <trkpt lat="44.05869" lon="6.27617">
        <ele>750.93</ele>
        <time>2011-06-26T07:21:50Z</time>
      </trkpt>
      <trkpt lat="44.05872" lon="6.27622">
        <ele>750.45</ele>
        <time>2011-06-26T07:21:51Z</time>
      </trkpt>
      <trkpt lat="44.05875" lon="6.27627">
        <ele>750.45</ele>
        <time>2011-06-26T07:21:52Z</time>
      </trkpt>
      <trkpt lat="44.05878" lon="6.2763">
        <ele>749.97</ele>
        <time>2011-06-26T07:21:53Z</time>
      </trkpt>
      <trkpt lat="44.05882" lon="6.27634">
        <ele>749.49</ele>
        <time>2011-06-26T07:21:54Z</time>
      </trkpt>
      <trkpt lat="44.05888" lon="6.27637">
        <ele>749.49</ele>
        <time>2011-06-26T07:21:55Z</time>
      </trkpt>
      <trkpt lat="44.05897" lon="6.27634">
        <ele>748.52</ele>
        <time>2011-06-26T07:21:56Z</time>
      </trkpt>
      <trkpt lat="44.05905" lon="6.27636">
        <ele>748.04</ele>
        <time>2011-06-26T07:21:57Z</time>
      </trkpt>
      <trkpt lat="44.05913" lon="6.2764">
        <ele>748.04</ele>
        <time>2011-06-26T07:21:58Z</time>
      </trkpt>
      <trkpt lat="44.05921" lon="6.27646">
        <ele>748.04</ele>
        <time>2011-06-26T07:21:59Z</time>
      </trkpt>
      <trkpt lat="44.0593" lon="6.27652">
        <ele>747.56</ele>
        <time>2011-06-26T07:22:00Z</time>
      </trkpt>
      <trkpt lat="44.05955" lon="6.27672">
        <ele>744.2</ele>
        <time>2011-06-26T07:22:03Z</time>
      </trkpt>
      <trkpt lat="44.06011" lon="6.27735">
        <ele>741.31</ele>
        <time>2011-06-26T07:22:10Z</time>
      </trkpt>
      <trkpt lat="44.0602" lon="6.27742">
        <ele>740.83</ele>
        <time>2011-06-26T07:22:11Z</time>
      </trkpt>
      <trkpt lat="44.06031" lon="6.27746">
        <ele>739.87</ele>
        <time>2011-06-26T07:22:12Z</time>
      </trkpt>
      <trkpt lat="44.06042" lon="6.27749">
        <ele>739.39</ele>
        <time>2011-06-26T07:22:13Z</time>
      </trkpt>
      <trkpt lat="44.06053" lon="6.27751">
        <ele>738.91</ele>
        <time>2011-06-26T07:22:14Z</time>
      </trkpt>
      <trkpt lat="44.06065" lon="6.27751">
        <ele>738.91</ele>
        <time>2011-06-26T07:22:15Z</time>
      </trkpt>
      <trkpt lat="44.06076" lon="6.27753">
        <ele>738.91</ele>
        <time>2011-06-26T07:22:16Z</time>
      </trkpt>
      <trkpt lat="44.06085" lon="6.27757">
        <ele>738.43</ele>
        <time>2011-06-26T07:22:17Z</time>
      </trkpt>
      <trkpt lat="44.06122" lon="6.27772">
        <ele>737.47</ele>
        <time>2011-06-26T07:22:21Z</time>
      </trkpt>
      <trkpt lat="44.0613" lon="6.27777">
        <ele>736.51</ele>
        <time>2011-06-26T07:22:22Z</time>
      </trkpt>
      <trkpt lat="44.06136" lon="6.27784">
        <ele>736.51</ele>
        <time>2011-06-26T07:22:23Z</time>
      </trkpt>
      <trkpt lat="44.06141" lon="6.27793">
        <ele>736.03</ele>
        <time>2011-06-26T07:22:24Z</time>
      </trkpt>
      <trkpt lat="44.06143" lon="6.27803">
        <ele>736.03</ele>
        <time>2011-06-26T07:22:25Z</time>
      </trkpt>
      <trkpt lat="44.06143" lon="6.27813">
        <ele>736.03</ele>
        <time>2011-06-26T07:22:26Z</time>
      </trkpt>
      <trkpt lat="44.06141" lon="6.27822">
        <ele>736.03</ele>
        <time>2011-06-26T07:22:27Z</time>
      </trkpt>
      <trkpt lat="44.06138" lon="6.2783">
        <ele>736.03</ele>
        <time>2011-06-26T07:22:28Z</time>
      </trkpt>
      <trkpt lat="44.06133" lon="6.27837">
        <ele>736.03</ele>
        <time>2011-06-26T07:22:29Z</time>
      </trkpt>
      <trkpt lat="44.06128" lon="6.27843">
        <ele>736.51</ele>
        <time>2011-06-26T07:22:30Z</time>
      </trkpt>
      <trkpt lat="44.06123" lon="6.27849">
        <ele>736.51</ele>
        <time>2011-06-26T07:22:31Z</time>
      </trkpt>
      <trkpt lat="44.06093" lon="6.27881">
        <ele>736.51</ele>
        <time>2011-06-26T07:22:36Z</time>
      </trkpt>
      <trkpt lat="44.06089" lon="6.2789">
        <ele>736.51</ele>
        <time>2011-06-26T07:22:37Z</time>
      </trkpt>
      <trkpt lat="44.06087" lon="6.279">
        <ele>736.51</ele>
        <time>2011-06-26T07:22:38Z</time>
      </trkpt>
      <trkpt lat="44.06086" lon="6.27911">
        <ele>736.51</ele>
        <time>2011-06-26T07:22:39Z</time>
      </trkpt>
      <trkpt lat="44.06088" lon="6.27921">
        <ele>736.51</ele>
        <time>2011-06-26T07:22:40Z</time>
      </trkpt>
      <trkpt lat="44.0609" lon="6.27931">
        <ele>736.99</ele>
        <time>2011-06-26T07:22:41Z</time>
      </trkpt>
      <trkpt lat="44.06093" lon="6.27939">
        <ele>736.99</ele>
        <time>2011-06-26T07:22:42Z</time>
      </trkpt>
      <trkpt lat="44.06096" lon="6.27947">
        <ele>736.99</ele>
        <time>2011-06-26T07:22:43Z</time>
      </trkpt>
      <trkpt lat="44.06102" lon="6.27953">
        <ele>736.51</ele>
        <time>2011-06-26T07:22:44Z</time>
      </trkpt>
      <trkpt lat="44.06107" lon="6.2796">
        <ele>736.99</ele>
        <time>2011-06-26T07:22:45Z</time>
      </trkpt>
      <trkpt lat="44.06136" lon="6.27998">
        <ele>735.55</ele>
        <time>2011-06-26T07:22:51Z</time>
      </trkpt>
      <trkpt lat="44.06138" lon="6.28004">
        <ele>735.55</ele>
        <time>2011-06-26T07:22:52Z</time>
      </trkpt>
      <trkpt lat="44.06137" lon="6.2801">
        <ele>735.55</ele>
        <time>2011-06-26T07:22:53Z</time>
      </trkpt>
      <trkpt lat="44.06135" lon="6.28015">
        <ele>735.55</ele>
        <time>2011-06-26T07:22:54Z</time>
      </trkpt>
      <trkpt lat="44.06133" lon="6.2802">
        <ele>736.03</ele>
        <time>2011-06-26T07:22:55Z</time>
      </trkpt>
      <trkpt lat="44.0613" lon="6.28025">
        <ele>736.51</ele>
        <time>2011-06-26T07:22:56Z</time>
      </trkpt>
      <trkpt lat="44.06126" lon="6.28031">
        <ele>736.99</ele>
        <time>2011-06-26T07:22:57Z</time>
      </trkpt>
      <trkpt lat="44.06071" lon="6.28118">
        <ele>739.87</ele>
        <time>2011-06-26T07:23:13Z</time>
      </trkpt>
      <trkpt lat="44.06036" lon="6.28184">
        <ele>743.24</ele>
        <time>2011-06-26T07:23:26Z</time>
      </trkpt>
      <trkpt lat="44.06006" lon="6.2824">
        <ele>746.12</ele>
        <time>2011-06-26T07:23:38Z</time>
      </trkpt>
      <trkpt lat="44.05978" lon="6.28292">
        <ele>748.52</ele>
        <time>2011-06-26T07:23:52Z</time>
      </trkpt>
      <trkpt lat="44.05949" lon="6.28347">
        <ele>751.41</ele>
        <time>2011-06-26T07:24:06Z</time>
      </trkpt>
      <trkpt lat="44.05934" lon="6.28402">
        <ele>753.81</ele>
        <time>2011-06-26T07:24:17Z</time>
      </trkpt>
      <trkpt lat="44.05933" lon="6.28407">
        <ele>753.81</ele>
        <time>2011-06-26T07:24:18Z</time>
      </trkpt>
      <trkpt lat="44.05931" lon="6.28412">
        <ele>754.29</ele>
        <time>2011-06-26T07:24:19Z</time>
      </trkpt>
      <trkpt lat="44.05928" lon="6.28416">
        <ele>753.81</ele>
        <time>2011-06-26T07:24:20Z</time>
      </trkpt>
      <trkpt lat="44.05869" lon="6.28478">
        <ele>756.69</ele>
        <time>2011-06-26T07:24:36Z</time>
      </trkpt>
      <trkpt lat="44.05854" lon="6.28498">
        <ele>756.69</ele>
        <time>2011-06-26T07:24:40Z</time>
      </trkpt>
      <trkpt lat="44.05803" lon="6.28543">
        <ele>756.21</ele>
        <time>2011-06-26T07:24:50Z</time>
      </trkpt>
      <trkpt lat="44.05798" lon="6.28549">
        <ele>756.21</ele>
        <time>2011-06-26T07:24:51Z</time>
      </trkpt>
      <trkpt lat="44.05751" lon="6.28632">
        <ele>757.66</ele>
        <time>2011-06-26T07:25:04Z</time>
      </trkpt>
      <trkpt lat="44.05726" lon="6.2868">
        <ele>759.1</ele>
        <time>2011-06-26T07:25:12Z</time>
      </trkpt>
      <trkpt lat="44.05708" lon="6.28775">
        <ele>761.98</ele>
        <time>2011-06-26T07:25:26Z</time>
      </trkpt>
      <trkpt lat="44.05705" lon="6.28795">
        <ele>762.94</ele>
        <time>2011-06-26T07:25:29Z</time>
      </trkpt>
      <trkpt lat="44.05698" lon="6.2884">
        <ele>764.87</ele>
        <time>2011-06-26T07:25:36Z</time>
      </trkpt>
      <trkpt lat="44.05679" lon="6.28902">
        <ele>766.79</ele>
        <time>2011-06-26T07:25:47Z</time>
      </trkpt>
      <trkpt lat="44.05676" lon="6.28906">
        <ele>766.79</ele>
        <time>2011-06-26T07:25:48Z</time>
      </trkpt>
      <trkpt lat="44.05674" lon="6.2891">
        <ele>766.79</ele>
        <time>2011-06-26T07:25:49Z</time>
      </trkpt>
      <trkpt lat="44.05672" lon="6.28912">
        <ele>767.27</ele>
        <time>2011-06-26T07:25:50Z</time>
      </trkpt>
      <trkpt lat="44.05671" lon="6.28913">
        <ele>766.79</ele>
        <time>2011-06-26T07:25:51Z</time>
      </trkpt>
      <trkpt lat="44.05669" lon="6.28915">
        <ele>765.83</ele>
        <time>2011-06-26T07:25:52Z</time>
      </trkpt>
      <trkpt lat="44.05667" lon="6.28918">
        <ele>765.35</ele>
        <time>2011-06-26T07:25:53Z</time>
      </trkpt>
      <trkpt lat="44.05664" lon="6.2892">
        <ele>764.87</ele>
        <time>2011-06-26T07:25:54Z</time>
      </trkpt>
      <trkpt lat="44.05663" lon="6.28923">
        <ele>764.87</ele>
        <time>2011-06-26T07:25:55Z</time>
      </trkpt>
      <trkpt lat="44.05661" lon="6.28925">
        <ele>765.35</ele>
        <time>2011-06-26T07:25:56Z</time>
      </trkpt>
      <trkpt lat="44.05659" lon="6.28928">
        <ele>765.35</ele>
        <time>2011-06-26T07:25:57Z</time>
      </trkpt>
      <trkpt lat="44.05657" lon="6.28929">
        <ele>765.35</ele>
        <time>2011-06-26T07:25:59Z</time>
      </trkpt>
      <trkpt lat="44.05655" lon="6.28932">
        <ele>763.9</ele>
        <time>2011-06-26T07:26:06Z</time>
      </trkpt>
      <trkpt lat="44.05654" lon="6.28938">
        <ele>764.87</ele>
        <time>2011-06-26T07:26:12Z</time>
      </trkpt>
      <trkpt lat="44.05651" lon="6.28952">
        <ele>765.83</ele>
        <time>2011-06-26T07:26:22Z</time>
      </trkpt>
      <trkpt lat="44.05648" lon="6.28957">
        <ele>766.31</ele>
        <time>2011-06-26T07:26:25Z</time>
      </trkpt>
      <trkpt lat="44.05647" lon="6.28958">
        <ele>766.31</ele>
        <time>2011-06-26T07:26:26Z</time>
      </trkpt>
      <trkpt lat="44.05646" lon="6.28958">
        <ele>766.31</ele>
        <time>2011-06-26T07:26:27Z</time>
      </trkpt>
      <trkpt lat="44.05644" lon="6.2896">
        <ele>766.31</ele>
        <time>2011-06-26T07:26:28Z</time>
      </trkpt>
      <trkpt lat="44.05638" lon="6.28968">
        <ele>767.75</ele>
        <time>2011-06-26T07:26:36Z</time>
      </trkpt>
      <trkpt lat="44.05631" lon="6.28969">
        <ele>768.71</ele>
        <time>2011-06-26T07:26:41Z</time>
      </trkpt>
      <trkpt lat="44.0563" lon="6.28968">
        <ele>769.19</ele>
        <time>2011-06-26T07:26:42Z</time>
      </trkpt>
      <trkpt lat="44.05629" lon="6.28967">
        <ele>769.19</ele>
        <time>2011-06-26T07:26:43Z</time>
      </trkpt>
      <trkpt lat="44.05628" lon="6.28965">
        <ele>769.19</ele>
        <time>2011-06-26T07:26:44Z</time>
      </trkpt>
      <trkpt lat="44.05628" lon="6.28963">
        <ele>769.19</ele>
        <time>2011-06-26T07:26:45Z</time>
      </trkpt>
      <trkpt lat="44.05628" lon="6.28961">
        <ele>769.67</ele>
        <time>2011-06-26T07:26:46Z</time>
      </trkpt>
      <trkpt lat="44.05629" lon="6.2896">
        <ele>769.67</ele>
        <time>2011-06-26T07:26:47Z</time>
      </trkpt>
      <trkpt lat="44.0563" lon="6.28958">
        <ele>769.67</ele>
        <time>2011-06-26T07:26:48Z</time>
      </trkpt>
      <trkpt lat="44.05633" lon="6.28956">
        <ele>769.67</ele>
        <time>2011-06-26T07:26:49Z</time>
      </trkpt>
      <trkpt lat="44.05635" lon="6.28954">
        <ele>769.19</ele>
        <time>2011-06-26T07:26:50Z</time>
      </trkpt>
      <trkpt lat="44.05638" lon="6.28953">
        <ele>769.19</ele>
        <time>2011-06-26T07:26:51Z</time>
      </trkpt>
      <trkpt lat="44.05669" lon="6.28934">
        <ele>769.19</ele>
        <time>2011-06-26T07:27:02Z</time>
      </trkpt>
      <trkpt lat="44.05671" lon="6.28935">
        <ele>769.67</ele>
        <time>2011-06-26T07:27:03Z</time>
      </trkpt>
      <trkpt lat="44.05675" lon="6.28944">
        <ele>771.6</ele>
        <time>2011-06-26T07:27:14Z</time>
      </trkpt>
      <trkpt lat="44.05682" lon="6.28942">
        <ele>774.48</ele>
        <time>2011-06-26T07:27:25Z</time>
      </trkpt>
      <trkpt lat="44.05682" lon="6.28939">
        <ele>774.48</ele>
        <time>2011-06-26T07:27:28Z</time>
      </trkpt>
      <trkpt lat="44.05682" lon="6.28937">
        <ele>774.96</ele>
        <time>2011-06-26T07:27:29Z</time>
      </trkpt>
      <trkpt lat="44.05682" lon="6.28935">
        <ele>774.48</ele>
        <time>2011-06-26T07:27:30Z</time>
      </trkpt>
      <trkpt lat="44.05682" lon="6.28933">
        <ele>774.48</ele>
        <time>2011-06-26T07:27:31Z</time>
      </trkpt>
      <trkpt lat="44.05682" lon="6.28931">
        <ele>774.48</ele>
        <time>2011-06-26T07:27:32Z</time>
      </trkpt>
      <trkpt lat="44.05683" lon="6.28929">
        <ele>774</ele>
        <time>2011-06-26T07:27:33Z</time>
      </trkpt>
      <trkpt lat="44.05684" lon="6.28925">
        <ele>774</ele>
        <time>2011-06-26T07:27:34Z</time>
      </trkpt>
      <trkpt lat="44.05686" lon="6.28923">
        <ele>774.48</ele>
        <time>2011-06-26T07:27:35Z</time>
      </trkpt>
      <trkpt lat="44.05687" lon="6.28921">
        <ele>774.48</ele>
        <time>2011-06-26T07:27:36Z</time>
      </trkpt>
      <trkpt lat="44.05689" lon="6.28919">
        <ele>774.48</ele>
        <time>2011-06-26T07:27:37Z</time>
      </trkpt>
      <trkpt lat="44.05713" lon="6.2888">
        <ele>775.92</ele>
        <time>2011-06-26T07:27:50Z</time>
      </trkpt>
      <trkpt lat="44.05724" lon="6.28869">
        <ele>777.84</ele>
        <time>2011-06-26T07:28:01Z</time>
      </trkpt>
      <trkpt lat="44.05733" lon="6.2887">
        <ele>781.21</ele>
        <time>2011-06-26T07:28:14Z</time>
      </trkpt>
      <trkpt lat="44.05736" lon="6.28866">
        <ele>781.69</ele>
        <time>2011-06-26T07:28:17Z</time>
      </trkpt>
      <trkpt lat="44.05737" lon="6.28864">
        <ele>781.21</ele>
        <time>2011-06-26T07:28:18Z</time>
      </trkpt>
      <trkpt lat="44.05738" lon="6.28863">
        <ele>781.69</ele>
        <time>2011-06-26T07:28:19Z</time>
      </trkpt>
      <trkpt lat="44.0574" lon="6.28863">
        <ele>782.17</ele>
        <time>2011-06-26T07:28:21Z</time>
      </trkpt>
      <trkpt lat="44.05751" lon="6.28864">
        <ele>785.05</ele>
        <time>2011-06-26T07:28:32Z</time>
      </trkpt>
      <trkpt lat="44.05763" lon="6.28861">
        <ele>787.94</ele>
        <time>2011-06-26T07:28:46Z</time>
      </trkpt>
      <trkpt lat="44.05779" lon="6.28859">
        <ele>790.82</ele>
        <time>2011-06-26T07:29:02Z</time>
      </trkpt>
      <trkpt lat="44.05787" lon="6.28857">
        <ele>794.19</ele>
        <time>2011-06-26T07:29:15Z</time>
      </trkpt>
      <trkpt lat="44.05795" lon="6.28855">
        <ele>797.55</ele>
        <time>2011-06-26T07:29:28Z</time>
      </trkpt>
      <trkpt lat="44.058" lon="6.28847">
        <ele>799.47</ele>
        <time>2011-06-26T07:29:38Z</time>
      </trkpt>
      <trkpt lat="44.0581" lon="6.28832">
        <ele>801.88</ele>
        <time>2011-06-26T07:29:53Z</time>
      </trkpt>
      <trkpt lat="44.05819" lon="6.28828">
        <ele>804.76</ele>
        <time>2011-06-26T07:30:08Z</time>
      </trkpt>
      <trkpt lat="44.05826" lon="6.28825">
        <ele>807.16</ele>
        <time>2011-06-26T07:30:20Z</time>
      </trkpt>
      <trkpt lat="44.05829" lon="6.28824">
        <ele>809.09</ele>
        <time>2011-06-26T07:30:26Z</time>
      </trkpt>
      <trkpt lat="44.05837" lon="6.28828">
        <ele>811.97</ele>
        <time>2011-06-26T07:30:40Z</time>
      </trkpt>
      <trkpt lat="44.05846" lon="6.28825">
        <ele>815.34</ele>
        <time>2011-06-26T07:30:52Z</time>
      </trkpt>
      <trkpt lat="44.05848" lon="6.28822">
        <ele>815.82</ele>
        <time>2011-06-26T07:30:56Z</time>
      </trkpt>
      <trkpt lat="44.05857" lon="6.28808">
        <ele>819.18</ele>
        <time>2011-06-26T07:31:14Z</time>
      </trkpt>
      <trkpt lat="44.05863" lon="6.28801">
        <ele>822.06</ele>
        <time>2011-06-26T07:31:28Z</time>
      </trkpt>
      <trkpt lat="44.05866" lon="6.28798">
        <ele>822.06</ele>
        <time>2011-06-26T07:31:38Z</time>
      </trkpt>
      <trkpt lat="44.05883" lon="6.28788">
        <ele>818.22</ele>
        <time>2011-06-26T07:31:43Z</time>
      </trkpt>
      <trkpt lat="44.05888" lon="6.28785">
        <ele>818.22</ele>
        <time>2011-06-26T07:31:44Z</time>
      </trkpt>
      <trkpt lat="44.0592" lon="6.28769">
        <ele>821.1</ele>
        <time>2011-06-26T07:31:56Z</time>
      </trkpt>
      <trkpt lat="44.05927" lon="6.28765">
        <ele>824.47</ele>
        <time>2011-06-26T07:32:08Z</time>
      </trkpt>
      <trkpt lat="44.05928" lon="6.28758">
        <ele>823.51</ele>
        <time>2011-06-26T07:32:16Z</time>
      </trkpt>
      <trkpt lat="44.05933" lon="6.2875">
        <ele>824.47</ele>
        <time>2011-06-26T07:32:19Z</time>
      </trkpt>
      <trkpt lat="44.0594" lon="6.28742">
        <ele>826.87</ele>
        <time>2011-06-26T07:32:25Z</time>
      </trkpt>
      <trkpt lat="44.05958" lon="6.28715">
        <ele>828.31</ele>
        <time>2011-06-26T07:32:38Z</time>
      </trkpt>
      <trkpt lat="44.05961" lon="6.28703">
        <ele>827.35</ele>
        <time>2011-06-26T07:32:42Z</time>
      </trkpt>
      <trkpt lat="44.05966" lon="6.28696">
        <ele>827.83</ele>
        <time>2011-06-26T07:32:54Z</time>
      </trkpt>
      <trkpt lat="44.05967" lon="6.28687">
        <ele>830.72</ele>
        <time>2011-06-26T07:33:06Z</time>
      </trkpt>
      <trkpt lat="44.05968" lon="6.28675">
        <ele>834.08</ele>
        <time>2011-06-26T07:33:19Z</time>
      </trkpt>
      <trkpt lat="44.05981" lon="6.2866">
        <ele>836.48</ele>
        <time>2011-06-26T07:33:34Z</time>
      </trkpt>
      <trkpt lat="44.05988" lon="6.28646">
        <ele>839.37</ele>
        <time>2011-06-26T07:33:46Z</time>
      </trkpt>
      <trkpt lat="44.05995" lon="6.28634">
        <ele>840.81</ele>
        <time>2011-06-26T07:34:00Z</time>
      </trkpt>
      <trkpt lat="44.05997" lon="6.28631">
        <ele>841.29</ele>
        <time>2011-06-26T07:34:12Z</time>
      </trkpt>
      <trkpt lat="44.05998" lon="6.2863">
        <ele>841.77</ele>
        <time>2011-06-26T07:34:15Z</time>
      </trkpt>
      <trkpt lat="44.0602" lon="6.28618">
        <ele>840.81</ele>
        <time>2011-06-26T07:34:27Z</time>
      </trkpt>
      <trkpt lat="44.06024" lon="6.28618">
        <ele>840.33</ele>
        <time>2011-06-26T07:34:28Z</time>
      </trkpt>
      <trkpt lat="44.06036" lon="6.28627">
        <ele>836.48</ele>
        <time>2011-06-26T07:34:32Z</time>
      </trkpt>
      <trkpt lat="44.06052" lon="6.28637">
        <ele>833.12</ele>
        <time>2011-06-26T07:34:36Z</time>
      </trkpt>
      <trkpt lat="44.061" lon="6.2867">
        <ele>833.12</ele>
        <time>2011-06-26T07:34:47Z</time>
      </trkpt>
      <trkpt lat="44.06135" lon="6.28694">
        <ele>834.08</ele>
        <time>2011-06-26T07:35:00Z</time>
      </trkpt>
      <trkpt lat="44.06134" lon="6.28657">
        <ele>834.08</ele>
        <time>2011-06-26T07:35:12Z</time>
      </trkpt>
      <trkpt lat="44.06139" lon="6.28646">
        <ele>836</ele>
        <time>2011-06-26T07:35:18Z</time>
      </trkpt>
      <trkpt lat="44.06148" lon="6.28629">
        <ele>838.41</ele>
        <time>2011-06-26T07:35:26Z</time>
      </trkpt>
      <trkpt lat="44.06151" lon="6.28617">
        <ele>840.81</ele>
        <time>2011-06-26T07:35:33Z</time>
      </trkpt>
      <trkpt lat="44.06156" lon="6.28611">
        <ele>841.77</ele>
        <time>2011-06-26T07:35:39Z</time>
      </trkpt>
      <trkpt lat="44.06168" lon="6.28606">
        <ele>844.66</ele>
        <time>2011-06-26T07:35:48Z</time>
      </trkpt>
      <trkpt lat="44.06178" lon="6.28588">
        <ele>848.02</ele>
        <time>2011-06-26T07:36:01Z</time>
      </trkpt>
      <trkpt lat="44.06182" lon="6.28576">
        <ele>849.46</ele>
        <time>2011-06-26T07:36:08Z</time>
      </trkpt>
      <trkpt lat="44.06201" lon="6.28566">
        <ele>851.87</ele>
        <time>2011-06-26T07:36:22Z</time>
      </trkpt>
      <trkpt lat="44.06215" lon="6.2855">
        <ele>855.23</ele>
        <time>2011-06-26T07:36:34Z</time>
      </trkpt>
      <trkpt lat="44.06223" lon="6.28511">
        <ele>856.19</ele>
        <time>2011-06-26T07:36:48Z</time>
      </trkpt>
      <trkpt lat="44.06225" lon="6.28479">
        <ele>859.08</ele>
        <time>2011-06-26T07:37:02Z</time>
      </trkpt>
      <trkpt lat="44.06234" lon="6.28462">
        <ele>861.96</ele>
        <time>2011-06-26T07:37:12Z</time>
      </trkpt>
      <trkpt lat="44.06242" lon="6.28457">
        <ele>863.88</ele>
        <time>2011-06-26T07:37:18Z</time>
      </trkpt>
      <trkpt lat="44.06264" lon="6.28464">
        <ele>867.25</ele>
        <time>2011-06-26T07:37:33Z</time>
      </trkpt>
      <trkpt lat="44.06288" lon="6.28485">
        <ele>868.21</ele>
        <time>2011-06-26T07:37:47Z</time>
      </trkpt>
      <trkpt lat="44.06302" lon="6.28492">
        <ele>869.17</ele>
        <time>2011-06-26T07:37:53Z</time>
      </trkpt>
      <trkpt lat="44.06311" lon="6.28485">
        <ele>869.17</ele>
        <time>2011-06-26T07:37:57Z</time>
      </trkpt>
      <trkpt lat="44.06351" lon="6.28493">
        <ele>865.8</ele>
        <time>2011-06-26T07:38:08Z</time>
      </trkpt>
      <trkpt lat="44.06385" lon="6.28488">
        <ele>867.25</ele>
        <time>2011-06-26T07:38:20Z</time>
      </trkpt>
      <trkpt lat="44.06398" lon="6.2845">
        <ele>867.25</ele>
        <time>2011-06-26T07:38:29Z</time>
      </trkpt>
      <trkpt lat="44.06395" lon="6.28419">
        <ele>870.61</ele>
        <time>2011-06-26T07:38:39Z</time>
      </trkpt>
      <trkpt lat="44.06393" lon="6.28402">
        <ele>873.01</ele>
        <time>2011-06-26T07:38:47Z</time>
      </trkpt>
      <trkpt lat="44.06394" lon="6.28392">
        <ele>874.94</ele>
        <time>2011-06-26T07:38:53Z</time>
      </trkpt>
      <trkpt lat="44.06393" lon="6.28383">
        <ele>876.38</ele>
        <time>2011-06-26T07:38:58Z</time>
      </trkpt>
      <trkpt lat="44.06393" lon="6.28377">
        <ele>877.34</ele>
        <time>2011-06-26T07:39:01Z</time>
      </trkpt>
      <trkpt lat="44.0641" lon="6.28371">
        <ele>879.74</ele>
        <time>2011-06-26T07:39:15Z</time>
      </trkpt>
      <trkpt lat="44.06442" lon="6.28361">
        <ele>880.71</ele>
        <time>2011-06-26T07:39:27Z</time>
      </trkpt>
      <trkpt lat="44.06472" lon="6.28351">
        <ele>882.63</ele>
        <time>2011-06-26T07:39:38Z</time>
      </trkpt>
      <trkpt lat="44.06497" lon="6.28333">
        <ele>885.03</ele>
        <time>2011-06-26T07:39:52Z</time>
      </trkpt>
      <trkpt lat="44.06502" lon="6.28332">
        <ele>886.47</ele>
        <time>2011-06-26T07:39:56Z</time>
      </trkpt>
      <trkpt lat="44.06519" lon="6.28337">
        <ele>886.95</ele>
        <time>2011-06-26T07:40:04Z</time>
      </trkpt>
      <trkpt lat="44.06541" lon="6.28387">
        <ele>887.43</ele>
        <time>2011-06-26T07:40:18Z</time>
      </trkpt>
      <trkpt lat="44.0658" lon="6.28417">
        <ele>884.55</ele>
        <time>2011-06-26T07:40:31Z</time>
      </trkpt>
      <trkpt lat="44.06606" lon="6.28448">
        <ele>887.43</ele>
        <time>2011-06-26T07:40:40Z</time>
      </trkpt>
      <trkpt lat="44.06645" lon="6.28432">
        <ele>884.55</ele>
        <time>2011-06-26T07:40:51Z</time>
      </trkpt>
      <trkpt lat="44.06673" lon="6.28382">
        <ele>886.95</ele>
        <time>2011-06-26T07:41:02Z</time>
      </trkpt>
      <trkpt lat="44.067" lon="6.28365">
        <ele>890.32</ele>
        <time>2011-06-26T07:41:15Z</time>
      </trkpt>
      <trkpt lat="44.06704" lon="6.28361">
        <ele>891.28</ele>
        <time>2011-06-26T07:41:17Z</time>
      </trkpt>
      <trkpt lat="44.06715" lon="6.28331">
        <ele>894.16</ele>
        <time>2011-06-26T07:41:30Z</time>
      </trkpt>
      <trkpt lat="44.06738" lon="6.2832">
        <ele>897.05</ele>
        <time>2011-06-26T07:41:44Z</time>
      </trkpt>
      <trkpt lat="44.06739" lon="6.28319">
        <ele>897.05</ele>
        <time>2011-06-26T07:41:45Z</time>
      </trkpt>
      <trkpt lat="44.06745" lon="6.28264">
        <ele>896.57</ele>
        <time>2011-06-26T07:41:58Z</time>
      </trkpt>
      <trkpt lat="44.06771" lon="6.28258">
        <ele>894.64</ele>
        <time>2011-06-26T07:42:08Z</time>
      </trkpt>
      <trkpt lat="44.06781" lon="6.28259">
        <ele>893.68</ele>
        <time>2011-06-26T07:42:11Z</time>
      </trkpt>
      <trkpt lat="44.06826" lon="6.28275">
        <ele>890.32</ele>
        <time>2011-06-26T07:42:21Z</time>
      </trkpt>
      <trkpt lat="44.06878" lon="6.28318">
        <ele>886.95</ele>
        <time>2011-06-26T07:42:31Z</time>
      </trkpt>
      <trkpt lat="44.06894" lon="6.28331">
        <ele>883.11</ele>
        <time>2011-06-26T07:42:34Z</time>
      </trkpt>
      <trkpt lat="44.06906" lon="6.2834">
        <ele>882.63</ele>
        <time>2011-06-26T07:42:36Z</time>
      </trkpt>
      <trkpt lat="44.06929" lon="6.28349">
        <ele>883.11</ele>
        <time>2011-06-26T07:42:40Z</time>
      </trkpt>
      <trkpt lat="44.06943" lon="6.28372">
        <ele>880.71</ele>
        <time>2011-06-26T07:42:44Z</time>
      </trkpt>
      <trkpt lat="44.0695" lon="6.28381">
        <ele>881.19</ele>
        <time>2011-06-26T07:42:46Z</time>
      </trkpt>
      <trkpt lat="44.06975" lon="6.28395">
        <ele>881.19</ele>
        <time>2011-06-26T07:42:54Z</time>
      </trkpt>
      <trkpt lat="44.06977" lon="6.2839">
        <ele>880.71</ele>
        <time>2011-06-26T07:42:55Z</time>
      </trkpt>
      <trkpt lat="44.06998" lon="6.2836">
        <ele>880.71</ele>
        <time>2011-06-26T07:43:04Z</time>
      </trkpt>
      <trkpt lat="44.07009" lon="6.28354">
        <ele>882.15</ele>
        <time>2011-06-26T07:43:08Z</time>
      </trkpt>
      <trkpt lat="44.07022" lon="6.28344">
        <ele>883.11</ele>
        <time>2011-06-26T07:43:14Z</time>
      </trkpt>
      <trkpt lat="44.07035" lon="6.2832">
        <ele>880.71</ele>
        <time>2011-06-26T07:43:19Z</time>
      </trkpt>
      <trkpt lat="44.07049" lon="6.28305">
        <ele>878.78</ele>
        <time>2011-06-26T07:43:23Z</time>
      </trkpt>
      <trkpt lat="44.07055" lon="6.283">
        <ele>880.22</ele>
        <time>2011-06-26T07:43:26Z</time>
      </trkpt>
      <trkpt lat="44.07059" lon="6.28289">
        <ele>882.15</ele>
        <time>2011-06-26T07:43:31Z</time>
      </trkpt>
      <trkpt lat="44.07069" lon="6.28276">
        <ele>885.51</ele>
        <time>2011-06-26T07:43:40Z</time>
      </trkpt>
      <trkpt lat="44.07075" lon="6.28272">
        <ele>886.47</ele>
        <time>2011-06-26T07:43:44Z</time>
      </trkpt>
      <trkpt lat="44.07105" lon="6.28268">
        <ele>885.51</ele>
        <time>2011-06-26T07:43:54Z</time>
      </trkpt>
      <trkpt lat="44.07129" lon="6.28304">
        <ele>885.51</ele>
        <time>2011-06-26T07:44:04Z</time>
      </trkpt>
      <trkpt lat="44.07179" lon="6.28298">
        <ele>884.55</ele>
        <time>2011-06-26T07:44:15Z</time>
      </trkpt>
      <trkpt lat="44.07218" lon="6.2829">
        <ele>886.95</ele>
        <time>2011-06-26T07:44:27Z</time>
      </trkpt>
      <trkpt lat="44.07261" lon="6.28254">
        <ele>886.95</ele>
        <time>2011-06-26T07:44:39Z</time>
      </trkpt>
      <trkpt lat="44.07281" lon="6.28241">
        <ele>889.84</ele>
        <time>2011-06-26T07:44:48Z</time>
      </trkpt>
      <trkpt lat="44.07299" lon="6.28241">
        <ele>892.24</ele>
        <time>2011-06-26T07:45:00Z</time>
      </trkpt>
      <trkpt lat="44.07337" lon="6.28235">
        <ele>889.84</ele>
        <time>2011-06-26T07:45:12Z</time>
      </trkpt>
      <trkpt lat="44.07342" lon="6.28235">
        <ele>889.84</ele>
        <time>2011-06-26T07:45:13Z</time>
      </trkpt>
      <trkpt lat="44.07355" lon="6.28228">
        <ele>887.91</ele>
        <time>2011-06-26T07:45:16Z</time>
      </trkpt>
      <trkpt lat="44.07399" lon="6.28223">
        <ele>886.47</ele>
        <time>2011-06-26T07:45:28Z</time>
      </trkpt>
      <trkpt lat="44.07443" lon="6.28259">
        <ele>883.59</ele>
        <time>2011-06-26T07:45:40Z</time>
      </trkpt>
      <trkpt lat="44.07493" lon="6.28257">
        <ele>882.15</ele>
        <time>2011-06-26T07:45:52Z</time>
      </trkpt>
      <trkpt lat="44.07515" lon="6.2826">
        <ele>881.19</ele>
        <time>2011-06-26T07:45:57Z</time>
      </trkpt>
      <trkpt lat="44.07524" lon="6.28265">
        <ele>880.22</ele>
        <time>2011-06-26T07:45:59Z</time>
      </trkpt>
      <trkpt lat="44.07544" lon="6.28268">
        <ele>879.74</ele>
        <time>2011-06-26T07:46:03Z</time>
      </trkpt>
      <trkpt lat="44.07578" lon="6.28259">
        <ele>878.3</ele>
        <time>2011-06-26T07:46:09Z</time>
      </trkpt>
      <trkpt lat="44.07612" lon="6.28241">
        <ele>877.82</ele>
        <time>2011-06-26T07:46:16Z</time>
      </trkpt>
      <trkpt lat="44.07629" lon="6.28252">
        <ele>876.86</ele>
        <time>2011-06-26T07:46:20Z</time>
      </trkpt>
      <trkpt lat="44.07637" lon="6.28261">
        <ele>876.38</ele>
        <time>2011-06-26T07:46:22Z</time>
      </trkpt>
      <trkpt lat="44.0766" lon="6.28274">
        <ele>875.9</ele>
        <time>2011-06-26T07:46:27Z</time>
      </trkpt>
      <trkpt lat="44.07682" lon="6.28269">
        <ele>874.46</ele>
        <time>2011-06-26T07:46:32Z</time>
      </trkpt>
      <trkpt lat="44.07721" lon="6.28253">
        <ele>873.01</ele>
        <time>2011-06-26T07:46:38Z</time>
      </trkpt>
      <trkpt lat="44.0774" lon="6.28244">
        <ele>874.46</ele>
        <time>2011-06-26T07:46:41Z</time>
      </trkpt>
      <trkpt lat="44.07772" lon="6.28207">
        <ele>877.34</ele>
        <time>2011-06-26T07:46:51Z</time>
      </trkpt>
      <trkpt lat="44.07778" lon="6.28189">
        <ele>878.78</ele>
        <time>2011-06-26T07:46:55Z</time>
      </trkpt>
      <trkpt lat="44.07811" lon="6.28145">
        <ele>880.22</ele>
        <time>2011-06-26T07:47:08Z</time>
      </trkpt>
      <trkpt lat="44.0782" lon="6.28137">
        <ele>880.71</ele>
        <time>2011-06-26T07:47:12Z</time>
      </trkpt>
      <trkpt lat="44.07828" lon="6.28139">
        <ele>879.74</ele>
        <time>2011-06-26T07:47:14Z</time>
      </trkpt>
      <trkpt lat="44.07858" lon="6.28144">
        <ele>876.38</ele>
        <time>2011-06-26T07:47:19Z</time>
      </trkpt>
      <trkpt lat="44.07907" lon="6.28165">
        <ele>873.01</ele>
        <time>2011-06-26T07:47:27Z</time>
      </trkpt>
      <trkpt lat="44.07937" lon="6.28164">
        <ele>871.57</ele>
        <time>2011-06-26T07:47:32Z</time>
      </trkpt>
      <trkpt lat="44.07957" lon="6.28152">
        <ele>871.09</ele>
        <time>2011-06-26T07:47:36Z</time>
      </trkpt>
      <trkpt lat="44.07975" lon="6.28149">
        <ele>872.05</ele>
        <time>2011-06-26T07:47:40Z</time>
      </trkpt>
      <trkpt lat="44.07988" lon="6.28155">
        <ele>872.05</ele>
        <time>2011-06-26T07:47:43Z</time>
      </trkpt>
      <trkpt lat="44.08006" lon="6.28151">
        <ele>873.01</ele>
        <time>2011-06-26T07:47:47Z</time>
      </trkpt>
      <trkpt lat="44.08014" lon="6.28148">
        <ele>874.46</ele>
        <time>2011-06-26T07:47:49Z</time>
      </trkpt>
      <trkpt lat="44.08032" lon="6.2815">
        <ele>873.5</ele>
        <time>2011-06-26T07:47:53Z</time>
      </trkpt>
      <trkpt lat="44.08048" lon="6.28151">
        <ele>873.98</ele>
        <time>2011-06-26T07:47:57Z</time>
      </trkpt>
      <trkpt lat="44.08081" lon="6.28137">
        <ele>874.94</ele>
        <time>2011-06-26T07:48:06Z</time>
      </trkpt>
      <trkpt lat="44.08088" lon="6.28144">
        <ele>877.34</ele>
        <time>2011-06-26T07:48:11Z</time>
      </trkpt>
      <trkpt lat="44.08087" lon="6.28164">
        <ele>878.3</ele>
        <time>2011-06-26T07:48:21Z</time>
      </trkpt>
      <trkpt lat="44.08079" lon="6.28184">
        <ele>881.19</ele>
        <time>2011-06-26T07:48:29Z</time>
      </trkpt>
      <trkpt lat="44.08058" lon="6.28191">
        <ele>883.59</ele>
        <time>2011-06-26T07:48:40Z</time>
      </trkpt>
      <trkpt lat="44.08052" lon="6.28196">
        <ele>884.55</ele>
        <time>2011-06-26T07:48:50Z</time>
      </trkpt>
      <trkpt lat="44.08052" lon="6.28197">
        <ele>885.03</ele>
        <time>2011-06-26T07:48:53Z</time>
      </trkpt>
      <trkpt lat="44.08047" lon="6.28197">
        <ele>886.47</ele>
        <time>2011-06-26T07:48:58Z</time>
      </trkpt>
      <trkpt lat="44.08044" lon="6.282">
        <ele>886.47</ele>
        <time>2011-06-26T07:49:01Z</time>
      </trkpt>
      <trkpt lat="44.08038" lon="6.28203">
        <ele>886.95</ele>
        <time>2011-06-26T07:49:06Z</time>
      </trkpt>
      <trkpt lat="44.08034" lon="6.2821">
        <ele>888.88</ele>
        <time>2011-06-26T07:49:11Z</time>
      </trkpt>
      <trkpt lat="44.08042" lon="6.28218">
        <ele>890.32</ele>
        <time>2011-06-26T07:49:20Z</time>
      </trkpt>
      <trkpt lat="44.08042" lon="6.28225">
        <ele>893.2</ele>
        <time>2011-06-26T07:49:33Z</time>
      </trkpt>
      <trkpt lat="44.0804" lon="6.28225">
        <ele>893.68</ele>
        <time>2011-06-26T07:49:35Z</time>
      </trkpt>
      <trkpt lat="44.08029" lon="6.28229">
        <ele>897.05</ele>
        <time>2011-06-26T07:49:48Z</time>
      </trkpt>
      <trkpt lat="44.08027" lon="6.2823">
        <ele>897.05</ele>
        <time>2011-06-26T07:49:52Z</time>
      </trkpt>
      <trkpt lat="44.08017" lon="6.28228">
        <ele>898.01</ele>
        <time>2011-06-26T07:49:59Z</time>
      </trkpt>
      <trkpt lat="44.08012" lon="6.2823">
        <ele>899.45</ele>
        <time>2011-06-26T07:50:02Z</time>
      </trkpt>
      <trkpt lat="44.0801" lon="6.28235">
        <ele>901.85</ele>
        <time>2011-06-26T07:50:14Z</time>
      </trkpt>
      <trkpt lat="44.08007" lon="6.28238">
        <ele>904.74</ele>
        <time>2011-06-26T07:50:27Z</time>
      </trkpt>
      <trkpt lat="44.08013" lon="6.28246">
        <ele>907.62</ele>
        <time>2011-06-26T07:50:41Z</time>
      </trkpt>
      <trkpt lat="44.08019" lon="6.28253">
        <ele>910.51</ele>
        <time>2011-06-26T07:50:53Z</time>
      </trkpt>
      <trkpt lat="44.0802" lon="6.28257">
        <ele>910.99</ele>
        <time>2011-06-26T07:50:56Z</time>
      </trkpt>
      <trkpt lat="44.08024" lon="6.28261">
        <ele>912.91</ele>
        <time>2011-06-26T07:51:04Z</time>
      </trkpt>
      <trkpt lat="44.08027" lon="6.28265">
        <ele>914.35</ele>
        <time>2011-06-26T07:51:08Z</time>
      </trkpt>
      <trkpt lat="44.08024" lon="6.28268">
        <ele>914.83</ele>
        <time>2011-06-26T07:51:12Z</time>
      </trkpt>
      <trkpt lat="44.08011" lon="6.28271">
        <ele>917.72</ele>
        <time>2011-06-26T07:51:27Z</time>
      </trkpt>
      <trkpt lat="44.08003" lon="6.28279">
        <ele>920.12</ele>
        <time>2011-06-26T07:51:40Z</time>
      </trkpt>
      <trkpt lat="44.08004" lon="6.28285">
        <ele>921.56</ele>
        <time>2011-06-26T07:51:51Z</time>
      </trkpt>
      <trkpt lat="44.07999" lon="6.28288">
        <ele>923.48</ele>
        <time>2011-06-26T07:51:58Z</time>
      </trkpt>
      <trkpt lat="44.07989" lon="6.28296">
        <ele>925.41</ele>
        <time>2011-06-26T07:52:12Z</time>
      </trkpt>
      <trkpt lat="44.0799" lon="6.28297">
        <ele>926.85</ele>
        <time>2011-06-26T07:52:19Z</time>
      </trkpt>
      <trkpt lat="44.08004" lon="6.28298">
        <ele>928.77</ele>
        <time>2011-06-26T07:52:34Z</time>
      </trkpt>
      <trkpt lat="44.08006" lon="6.28298">
        <ele>928.77</ele>
        <time>2011-06-26T07:52:36Z</time>
      </trkpt>
      <trkpt lat="44.08006" lon="6.28302">
        <ele>929.25</ele>
        <time>2011-06-26T07:52:40Z</time>
      </trkpt>
      <trkpt lat="44.07994" lon="6.28313">
        <ele>931.65</ele>
        <time>2011-06-26T07:52:55Z</time>
      </trkpt>
      <trkpt lat="44.07986" lon="6.28323">
        <ele>933.1</ele>
        <time>2011-06-26T07:53:08Z</time>
      </trkpt>
      <trkpt lat="44.07974" lon="6.28366">
        <ele>934.06</ele>
        <time>2011-06-26T07:53:23Z</time>
      </trkpt>
      <trkpt lat="44.07969" lon="6.28409">
        <ele>936.46</ele>
        <time>2011-06-26T07:53:38Z</time>
      </trkpt>
      <trkpt lat="44.07956" lon="6.2847">
        <ele>937.42</ele>
        <time>2011-06-26T07:53:53Z</time>
      </trkpt>
      <trkpt lat="44.07913" lon="6.28506">
        <ele>937.9</ele>
        <time>2011-06-26T07:54:07Z</time>
      </trkpt>
      <trkpt lat="44.07869" lon="6.28524">
        <ele>936.46</ele>
        <time>2011-06-26T07:54:20Z</time>
      </trkpt>
      <trkpt lat="44.07846" lon="6.28541">
        <ele>934.06</ele>
        <time>2011-06-26T07:54:26Z</time>
      </trkpt>
      <trkpt lat="44.07808" lon="6.28593">
        <ele>936.46</ele>
        <time>2011-06-26T07:54:39Z</time>
      </trkpt>
      <trkpt lat="44.0779" lon="6.28637">
        <ele>935.5</ele>
        <time>2011-06-26T07:54:48Z</time>
      </trkpt>
      <trkpt lat="44.07781" lon="6.28652">
        <ele>935.98</ele>
        <time>2011-06-26T07:54:51Z</time>
      </trkpt>
      <trkpt lat="44.07756" lon="6.28708">
        <ele>938.86</ele>
        <time>2011-06-26T07:55:02Z</time>
      </trkpt>
      <trkpt lat="44.07743" lon="6.28709">
        <ele>942.23</ele>
        <time>2011-06-26T07:55:11Z</time>
      </trkpt>
      <trkpt lat="44.07724" lon="6.28704">
        <ele>945.11</ele>
        <time>2011-06-26T07:55:23Z</time>
      </trkpt>
      <trkpt lat="44.0771" lon="6.28698">
        <ele>948.48</ele>
        <time>2011-06-26T07:55:33Z</time>
      </trkpt>
      <trkpt lat="44.07705" lon="6.28695">
        <ele>948.96</ele>
        <time>2011-06-26T07:55:37Z</time>
      </trkpt>
      <trkpt lat="44.07675" lon="6.28697">
        <ele>950.88</ele>
        <time>2011-06-26T07:55:50Z</time>
      </trkpt>
      <trkpt lat="44.07661" lon="6.28691">
        <ele>953.77</ele>
        <time>2011-06-26T07:56:01Z</time>
      </trkpt>
      <trkpt lat="44.07653" lon="6.28679">
        <ele>957.13</ele>
        <time>2011-06-26T07:56:13Z</time>
      </trkpt>
      <trkpt lat="44.07648" lon="6.28677">
        <ele>958.57</ele>
        <time>2011-06-26T07:56:18Z</time>
      </trkpt>
      <trkpt lat="44.07626" lon="6.28682">
        <ele>960.98</ele>
        <time>2011-06-26T07:56:33Z</time>
      </trkpt>
      <trkpt lat="44.07602" lon="6.28695">
        <ele>961.94</ele>
        <time>2011-06-26T07:56:46Z</time>
      </trkpt>
      <trkpt lat="44.07573" lon="6.28711">
        <ele>964.34</ele>
        <time>2011-06-26T07:57:00Z</time>
      </trkpt>
      <trkpt lat="44.07549" lon="6.28721">
        <ele>966.74</ele>
        <time>2011-06-26T07:57:12Z</time>
      </trkpt>
      <trkpt lat="44.0751" lon="6.28748">
        <ele>967.22</ele>
        <time>2011-06-26T07:57:26Z</time>
      </trkpt>
      <trkpt lat="44.0749" lon="6.28789">
        <ele>965.3</ele>
        <time>2011-06-26T07:57:36Z</time>
      </trkpt>
      <trkpt lat="44.07481" lon="6.2881">
        <ele>963.86</ele>
        <time>2011-06-26T07:57:39Z</time>
      </trkpt>
      <trkpt lat="44.07474" lon="6.28822">
        <ele>963.86</ele>
        <time>2011-06-26T07:57:41Z</time>
      </trkpt>
      <trkpt lat="44.07458" lon="6.28837">
        <ele>962.9</ele>
        <time>2011-06-26T07:57:45Z</time>
      </trkpt>
      <trkpt lat="44.07418" lon="6.2884">
        <ele>966.26</ele>
        <time>2011-06-26T07:57:56Z</time>
      </trkpt>
      <trkpt lat="44.07384" lon="6.28834">
        <ele>968.67</ele>
        <time>2011-06-26T07:58:09Z</time>
      </trkpt>
      <trkpt lat="44.07344" lon="6.28852">
        <ele>969.15</ele>
        <time>2011-06-26T07:58:21Z</time>
      </trkpt>
      <trkpt lat="44.07308" lon="6.28859">
        <ele>969.63</ele>
        <time>2011-06-26T07:58:30Z</time>
      </trkpt>
      <trkpt lat="44.07257" lon="6.28874">
        <ele>969.15</ele>
        <time>2011-06-26T07:58:42Z</time>
      </trkpt>
      <trkpt lat="44.07219" lon="6.28905">
        <ele>971.55</ele>
        <time>2011-06-26T07:58:55Z</time>
      </trkpt>
      <trkpt lat="44.07181" lon="6.28908">
        <ele>973.47</ele>
        <time>2011-06-26T07:59:06Z</time>
      </trkpt>
      <trkpt lat="44.07144" lon="6.28893">
        <ele>975.88</ele>
        <time>2011-06-26T07:59:19Z</time>
      </trkpt>
      <trkpt lat="44.07108" lon="6.28926">
        <ele>972.99</ele>
        <time>2011-06-26T07:59:32Z</time>
      </trkpt>
      <trkpt lat="44.07088" lon="6.28959">
        <ele>969.63</ele>
        <time>2011-06-26T07:59:38Z</time>
      </trkpt>
      <trkpt lat="44.07073" lon="6.28991">
        <ele>968.18</ele>
        <time>2011-06-26T07:59:42Z</time>
      </trkpt>
      <trkpt lat="44.07061" lon="6.29006">
        <ele>966.26</ele>
        <time>2011-06-26T07:59:45Z</time>
      </trkpt>
      <trkpt lat="44.0705" lon="6.29035">
        <ele>964.82</ele>
        <time>2011-06-26T07:59:50Z</time>
      </trkpt>
      <trkpt lat="44.07055" lon="6.29076">
        <ele>966.26</ele>
        <time>2011-06-26T07:59:57Z</time>
      </trkpt>
      <trkpt lat="44.07048" lon="6.29098">
        <ele>964.82</ele>
        <time>2011-06-26T08:00:02Z</time>
      </trkpt>
      <trkpt lat="44.07041" lon="6.29105">
        <ele>964.34</ele>
        <time>2011-06-26T08:00:04Z</time>
      </trkpt>
      <trkpt lat="44.07025" lon="6.29118">
        <ele>961.94</ele>
        <time>2011-06-26T08:00:08Z</time>
      </trkpt>
      <trkpt lat="44.07013" lon="6.29129">
        <ele>960.49</ele>
        <time>2011-06-26T08:00:12Z</time>
      </trkpt>
      <trkpt lat="44.06978" lon="6.2916">
        <ele>957.61</ele>
        <time>2011-06-26T08:00:20Z</time>
      </trkpt>
      <trkpt lat="44.06965" lon="6.29164">
        <ele>957.13</ele>
        <time>2011-06-26T08:00:22Z</time>
      </trkpt>
      <trkpt lat="44.06954" lon="6.2916">
        <ele>956.17</ele>
        <time>2011-06-26T08:00:24Z</time>
      </trkpt>
      <trkpt lat="44.06932" lon="6.29153">
        <ele>954.73</ele>
        <time>2011-06-26T08:00:29Z</time>
      </trkpt>
      <trkpt lat="44.06916" lon="6.29184">
        <ele>953.28</ele>
        <time>2011-06-26T08:00:36Z</time>
      </trkpt>
      <trkpt lat="44.069" lon="6.29201">
        <ele>950.4</ele>
        <time>2011-06-26T08:00:40Z</time>
      </trkpt>
      <trkpt lat="44.06882" lon="6.2921">
        <ele>948</ele>
        <time>2011-06-26T08:00:45Z</time>
      </trkpt>
      <trkpt lat="44.06872" lon="6.29217">
        <ele>948</ele>
        <time>2011-06-26T08:00:49Z</time>
      </trkpt>
      <trkpt lat="44.06866" lon="6.29219">
        <ele>947.52</ele>
        <time>2011-06-26T08:00:51Z</time>
      </trkpt>
      <trkpt lat="44.06851" lon="6.29234">
        <ele>946.56</ele>
        <time>2011-06-26T08:00:57Z</time>
      </trkpt>
      <trkpt lat="44.06815" lon="6.29252">
        <ele>943.19</ele>
        <time>2011-06-26T08:01:04Z</time>
      </trkpt>
      <trkpt lat="44.06803" lon="6.29252">
        <ele>942.71</ele>
        <time>2011-06-26T08:01:06Z</time>
      </trkpt>
      <trkpt lat="44.06782" lon="6.29257">
        <ele>940.31</ele>
        <time>2011-06-26T08:01:12Z</time>
      </trkpt>
      <trkpt lat="44.06769" lon="6.2926">
        <ele>939.35</ele>
        <time>2011-06-26T08:01:15Z</time>
      </trkpt>
      <trkpt lat="44.06753" lon="6.29271">
        <ele>936.94</ele>
        <time>2011-06-26T08:01:20Z</time>
      </trkpt>
      <trkpt lat="44.06749" lon="6.29274">
        <ele>936.94</ele>
        <time>2011-06-26T08:01:21Z</time>
      </trkpt>
      <trkpt lat="44.06739" lon="6.29281">
        <ele>936.94</ele>
        <time>2011-06-26T08:01:23Z</time>
      </trkpt>
      <trkpt lat="44.06718" lon="6.29303">
        <ele>934.54</ele>
        <time>2011-06-26T08:01:27Z</time>
      </trkpt>
      <trkpt lat="44.06702" lon="6.2932">
        <ele>930.21</ele>
        <time>2011-06-26T08:01:31Z</time>
      </trkpt>
      <trkpt lat="44.06705" lon="6.29357">
        <ele>931.17</ele>
        <time>2011-06-26T08:01:38Z</time>
      </trkpt>
      <trkpt lat="44.06694" lon="6.29378">
        <ele>928.77</ele>
        <time>2011-06-26T08:01:42Z</time>
      </trkpt>
      <trkpt lat="44.06684" lon="6.29389">
        <ele>927.33</ele>
        <time>2011-06-26T08:01:44Z</time>
      </trkpt>
      <trkpt lat="44.06674" lon="6.29401">
        <ele>926.37</ele>
        <time>2011-06-26T08:01:46Z</time>
      </trkpt>
      <trkpt lat="44.06656" lon="6.29423">
        <ele>923.48</ele>
        <time>2011-06-26T08:01:50Z</time>
      </trkpt>
      <trkpt lat="44.0665" lon="6.29436">
        <ele>922.52</ele>
        <time>2011-06-26T08:01:52Z</time>
      </trkpt>
      <trkpt lat="44.06641" lon="6.29458">
        <ele>921.08</ele>
        <time>2011-06-26T08:01:55Z</time>
      </trkpt>
      <trkpt lat="44.06639" lon="6.29466">
        <ele>921.08</ele>
        <time>2011-06-26T08:01:56Z</time>
      </trkpt>
      <trkpt lat="44.06636" lon="6.29474">
        <ele>920.6</ele>
        <time>2011-06-26T08:01:57Z</time>
      </trkpt>
      <trkpt lat="44.06632" lon="6.29499">
        <ele>919.64</ele>
        <time>2011-06-26T08:02:03Z</time>
      </trkpt>
      <trkpt lat="44.0663" lon="6.29509">
        <ele>918.68</ele>
        <time>2011-06-26T08:02:07Z</time>
      </trkpt>
      <trkpt lat="44.06628" lon="6.29516">
        <ele>919.64</ele>
        <time>2011-06-26T08:02:10Z</time>
      </trkpt>
      <trkpt lat="44.06624" lon="6.29525">
        <ele>919.16</ele>
        <time>2011-06-26T08:02:13Z</time>
      </trkpt>
      <trkpt lat="44.06611" lon="6.2956">
        <ele>919.64</ele>
        <time>2011-06-26T08:02:22Z</time>
      </trkpt>
      <trkpt lat="44.06605" lon="6.29569">
        <ele>918.68</ele>
        <time>2011-06-26T08:02:24Z</time>
      </trkpt>
      <trkpt lat="44.06597" lon="6.29588">
        <ele>918.68</ele>
        <time>2011-06-26T08:02:28Z</time>
      </trkpt>
      <trkpt lat="44.06588" lon="6.29608">
        <ele>919.16</ele>
        <time>2011-06-26T08:02:33Z</time>
      </trkpt>
      <trkpt lat="44.06572" lon="6.29649">
        <ele>918.68</ele>
        <time>2011-06-26T08:02:42Z</time>
      </trkpt>
      <trkpt lat="44.06566" lon="6.2967">
        <ele>920.12</ele>
        <time>2011-06-26T08:02:48Z</time>
      </trkpt>
      <trkpt lat="44.06553" lon="6.29705">
        <ele>920.12</ele>
        <time>2011-06-26T08:02:56Z</time>
      </trkpt>
      <trkpt lat="44.06546" lon="6.29731">
        <ele>923</ele>
        <time>2011-06-26T08:03:06Z</time>
      </trkpt>
      <trkpt lat="44.06541" lon="6.29737">
        <ele>923.96</ele>
        <time>2011-06-26T08:03:10Z</time>
      </trkpt>
      <trkpt lat="44.0654" lon="6.29756">
        <ele>924.93</ele>
        <time>2011-06-26T08:03:21Z</time>
      </trkpt>
      <trkpt lat="44.06539" lon="6.29759">
        <ele>925.89</ele>
        <time>2011-06-26T08:03:23Z</time>
      </trkpt>
      <trkpt lat="44.06538" lon="6.29763">
        <ele>925.89</ele>
        <time>2011-06-26T08:03:25Z</time>
      </trkpt>
      <trkpt lat="44.06526" lon="6.2977">
        <ele>926.85</ele>
        <time>2011-06-26T08:03:33Z</time>
      </trkpt>
      <trkpt lat="44.06518" lon="6.29783">
        <ele>927.81</ele>
        <time>2011-06-26T08:03:39Z</time>
      </trkpt>
      <trkpt lat="44.06511" lon="6.29812">
        <ele>930.69</ele>
        <time>2011-06-26T08:03:52Z</time>
      </trkpt>
      <trkpt lat="44.06511" lon="6.29822">
        <ele>932.14</ele>
        <time>2011-06-26T08:03:57Z</time>
      </trkpt>
      <trkpt lat="44.06507" lon="6.29829">
        <ele>932.14</ele>
        <time>2011-06-26T08:04:01Z</time>
      </trkpt>
      <trkpt lat="44.06494" lon="6.29863">
        <ele>935.02</ele>
        <time>2011-06-26T08:04:16Z</time>
      </trkpt>
      <trkpt lat="44.06486" lon="6.29896">
        <ele>936.46</ele>
        <time>2011-06-26T08:04:29Z</time>
      </trkpt>
      <trkpt lat="44.06486" lon="6.29901">
        <ele>936.46</ele>
        <time>2011-06-26T08:04:32Z</time>
      </trkpt>
      <trkpt lat="44.06493" lon="6.29916">
        <ele>935.5</ele>
        <time>2011-06-26T08:04:43Z</time>
      </trkpt>
      <trkpt lat="44.06492" lon="6.29919">
        <ele>935.5</ele>
        <time>2011-06-26T08:04:46Z</time>
      </trkpt>
      <trkpt lat="44.06492" lon="6.29931">
        <ele>936.46</ele>
        <time>2011-06-26T08:04:58Z</time>
      </trkpt>
      <trkpt lat="44.06484" lon="6.29949">
        <ele>938.86</ele>
        <time>2011-06-26T08:05:12Z</time>
      </trkpt>
      <trkpt lat="44.06478" lon="6.29989">
        <ele>938.38</ele>
        <time>2011-06-26T08:05:23Z</time>
      </trkpt>
      <trkpt lat="44.06483" lon="6.30006">
        <ele>937.42</ele>
        <time>2011-06-26T08:05:27Z</time>
      </trkpt>
      <trkpt lat="44.06492" lon="6.30049">
        <ele>937.9</ele>
        <time>2011-06-26T08:05:41Z</time>
      </trkpt>
      <trkpt lat="44.06495" lon="6.30071">
        <ele>937.9</ele>
        <time>2011-06-26T08:05:52Z</time>
      </trkpt>
      <trkpt lat="44.06495" lon="6.30072">
        <ele>938.38</ele>
        <time>2011-06-26T08:05:54Z</time>
      </trkpt>
      <trkpt lat="44.06501" lon="6.30079">
        <ele>939.83</ele>
        <time>2011-06-26T08:06:01Z</time>
      </trkpt>
      <trkpt lat="44.06499" lon="6.30088">
        <ele>940.79</ele>
        <time>2011-06-26T08:06:06Z</time>
      </trkpt>
      <trkpt lat="44.06494" lon="6.30104">
        <ele>943.67</ele>
        <time>2011-06-26T08:06:17Z</time>
      </trkpt>
      <trkpt lat="44.06497" lon="6.30112">
        <ele>943.67</ele>
        <time>2011-06-26T08:06:22Z</time>
      </trkpt>
      <trkpt lat="44.06487" lon="6.30148">
        <ele>944.63</ele>
        <time>2011-06-26T08:06:34Z</time>
      </trkpt>
      <trkpt lat="44.06481" lon="6.30173">
        <ele>945.59</ele>
        <time>2011-06-26T08:06:44Z</time>
      </trkpt>
      <trkpt lat="44.06464" lon="6.30227">
        <ele>945.11</ele>
        <time>2011-06-26T08:06:56Z</time>
      </trkpt>
      <trkpt lat="44.0645" lon="6.30254">
        <ele>948</ele>
        <time>2011-06-26T08:07:06Z</time>
      </trkpt>
      <trkpt lat="44.0646" lon="6.30283">
        <ele>949.92</ele>
        <time>2011-06-26T08:07:17Z</time>
      </trkpt>
      <trkpt lat="44.06476" lon="6.30287">
        <ele>952.8</ele>
        <time>2011-06-26T08:07:26Z</time>
      </trkpt>
      <trkpt lat="44.06487" lon="6.303">
        <ele>953.28</ele>
        <time>2011-06-26T08:07:34Z</time>
      </trkpt>
      <trkpt lat="44.06492" lon="6.30316">
        <ele>956.17</ele>
        <time>2011-06-26T08:07:45Z</time>
      </trkpt>
      <trkpt lat="44.06495" lon="6.30312">
        <ele>958.09</ele>
        <time>2011-06-26T08:07:49Z</time>
      </trkpt>
      <trkpt lat="44.06499" lon="6.30312">
        <ele>958.57</ele>
        <time>2011-06-26T08:07:53Z</time>
      </trkpt>
      <trkpt lat="44.06511" lon="6.30314">
        <ele>959.53</ele>
        <time>2011-06-26T08:08:02Z</time>
      </trkpt>
      <trkpt lat="44.06518" lon="6.30312">
        <ele>955.69</ele>
        <time>2011-06-26T08:08:06Z</time>
      </trkpt>
      <trkpt lat="44.06519" lon="6.30311">
        <ele>960.98</ele>
        <time>2011-06-26T08:08:07Z</time>
      </trkpt>
      <trkpt lat="44.06537" lon="6.30291">
        <ele>963.38</ele>
        <time>2011-06-26T08:08:21Z</time>
      </trkpt>
      <trkpt lat="44.06555" lon="6.30279">
        <ele>965.3</ele>
        <time>2011-06-26T08:08:31Z</time>
      </trkpt>
      <trkpt lat="44.06562" lon="6.30282">
        <ele>965.78</ele>
        <time>2011-06-26T08:08:36Z</time>
      </trkpt>
      <trkpt lat="44.06575" lon="6.30265">
        <ele>966.74</ele>
        <time>2011-06-26T08:08:47Z</time>
      </trkpt>
      <trkpt lat="44.06578" lon="6.30268">
        <ele>966.74</ele>
        <time>2011-06-26T08:08:49Z</time>
      </trkpt>
      <trkpt lat="44.06584" lon="6.30293">
        <ele>963.38</ele>
        <time>2011-06-26T08:08:54Z</time>
      </trkpt>
      <trkpt lat="44.06585" lon="6.303">
        <ele>962.9</ele>
        <time>2011-06-26T08:08:55Z</time>
      </trkpt>
      <trkpt lat="44.06608" lon="6.30316">
        <ele>960.49</ele>
        <time>2011-06-26T08:09:01Z</time>
      </trkpt>
      <trkpt lat="44.06624" lon="6.30317">
        <ele>957.61</ele>
        <time>2011-06-26T08:09:04Z</time>
      </trkpt>
      <trkpt lat="44.06635" lon="6.30315">
        <ele>956.65</ele>
        <time>2011-06-26T08:09:06Z</time>
      </trkpt>
      <trkpt lat="44.06651" lon="6.30312">
        <ele>955.21</ele>
        <time>2011-06-26T08:09:09Z</time>
      </trkpt>
      <trkpt lat="44.0666" lon="6.30324">
        <ele>953.77</ele>
        <time>2011-06-26T08:09:12Z</time>
      </trkpt>
      <trkpt lat="44.06663" lon="6.30338">
        <ele>952.8</ele>
        <time>2011-06-26T08:09:14Z</time>
      </trkpt>
      <trkpt lat="44.06654" lon="6.30362">
        <ele>954.73</ele>
        <time>2011-06-26T08:09:21Z</time>
      </trkpt>
      <trkpt lat="44.06614" lon="6.30399">
        <ele>957.13</ele>
        <time>2011-06-26T08:09:36Z</time>
      </trkpt>
      <trkpt lat="44.06595" lon="6.30431">
        <ele>960.98</ele>
        <time>2011-06-26T08:09:46Z</time>
      </trkpt>
      <trkpt lat="44.066" lon="6.30485">
        <ele>962.9</ele>
        <time>2011-06-26T08:09:59Z</time>
      </trkpt>
      <trkpt lat="44.06603" lon="6.30524">
        <ele>965.78</ele>
        <time>2011-06-26T08:10:09Z</time>
      </trkpt>
      <trkpt lat="44.06599" lon="6.3054">
        <ele>966.74</ele>
        <time>2011-06-26T08:10:14Z</time>
      </trkpt>
      <trkpt lat="44.06582" lon="6.30577">
        <ele>970.11</ele>
        <time>2011-06-26T08:10:27Z</time>
      </trkpt>
      <trkpt lat="44.06565" lon="6.3061">
        <ele>973.47</ele>
        <time>2011-06-26T08:10:40Z</time>
      </trkpt>
      <trkpt lat="44.06554" lon="6.30621">
        <ele>974.91</ele>
        <time>2011-06-26T08:10:46Z</time>
      </trkpt>
      <trkpt lat="44.06523" lon="6.30638">
        <ele>977.32</ele>
        <time>2011-06-26T08:11:01Z</time>
      </trkpt>
      <trkpt lat="44.06522" lon="6.3064">
        <ele>978.28</ele>
        <time>2011-06-26T08:11:02Z</time>
      </trkpt>
      <trkpt lat="44.06525" lon="6.30651">
        <ele>979.24</ele>
        <time>2011-06-26T08:11:06Z</time>
      </trkpt>
      <trkpt lat="44.06527" lon="6.30652">
        <ele>979.24</ele>
        <time>2011-06-26T08:11:07Z</time>
      </trkpt>
      <trkpt lat="44.06561" lon="6.30662">
        <ele>981.64</ele>
        <time>2011-06-26T08:11:22Z</time>
      </trkpt>
      <trkpt lat="44.06592" lon="6.30683">
        <ele>984.53</ele>
        <time>2011-06-26T08:11:38Z</time>
      </trkpt>
      <trkpt lat="44.06587" lon="6.30696">
        <ele>985.97</ele>
        <time>2011-06-26T08:11:44Z</time>
      </trkpt>
      <trkpt lat="44.06577" lon="6.30692">
        <ele>986.45</ele>
        <time>2011-06-26T08:11:48Z</time>
      </trkpt>
      <trkpt lat="44.06536" lon="6.30689">
        <ele>989.81</ele>
        <time>2011-06-26T08:12:03Z</time>
      </trkpt>
      <trkpt lat="44.0652" lon="6.307">
        <ele>993.18</ele>
        <time>2011-06-26T08:12:12Z</time>
      </trkpt>
      <trkpt lat="44.065" lon="6.30736">
        <ele>996.06</ele>
        <time>2011-06-26T08:12:27Z</time>
      </trkpt>
      <trkpt lat="44.06494" lon="6.30773">
        <ele>998.95</ele>
        <time>2011-06-26T08:12:41Z</time>
      </trkpt>
      <trkpt lat="44.06471" lon="6.30785">
        <ele>1001.83</ele>
        <time>2011-06-26T08:12:54Z</time>
      </trkpt>
      <trkpt lat="44.06441" lon="6.30804">
        <ele>1005.2</ele>
        <time>2011-06-26T08:13:10Z</time>
      </trkpt>
      <trkpt lat="44.06426" lon="6.30838">
        <ele>1008.08</ele>
        <time>2011-06-26T08:13:24Z</time>
      </trkpt>
      <trkpt lat="44.06411" lon="6.30873">
        <ele>1011.44</ele>
        <time>2011-06-26T08:13:38Z</time>
      </trkpt>
      <trkpt lat="44.06425" lon="6.30901">
        <ele>1014.33</ele>
        <time>2011-06-26T08:13:51Z</time>
      </trkpt>
      <trkpt lat="44.06442" lon="6.30913">
        <ele>1017.21</ele>
        <time>2011-06-26T08:14:01Z</time>
      </trkpt>
      <trkpt lat="44.06468" lon="6.30945">
        <ele>1020.58</ele>
        <time>2011-06-26T08:14:18Z</time>
      </trkpt>
      <trkpt lat="44.06498" lon="6.30954">
        <ele>1023.46</ele>
        <time>2011-06-26T08:14:33Z</time>
      </trkpt>
      <trkpt lat="44.06532" lon="6.30951">
        <ele>1025.86</ele>
        <time>2011-06-26T08:14:49Z</time>
      </trkpt>
      <trkpt lat="44.0657" lon="6.30957">
        <ele>1025.86</ele>
        <time>2011-06-26T08:15:03Z</time>
      </trkpt>
      <trkpt lat="44.06587" lon="6.30974">
        <ele>1024.42</ele>
        <time>2011-06-26T08:15:15Z</time>
      </trkpt>
      <trkpt lat="44.06589" lon="6.30972">
        <ele>1024.42</ele>
        <time>2011-06-26T08:15:35Z</time>
      </trkpt>
      <trkpt lat="44.06587" lon="6.30973">
        <ele>1023.94</ele>
        <time>2011-06-26T08:17:54Z</time>
      </trkpt>
      <trkpt lat="44.06588" lon="6.30972">
        <ele>1023.94</ele>
        <time>2011-06-26T08:20:08Z</time>
      </trkpt>
      <trkpt lat="44.06599" lon="6.30988">
        <ele>1023.94</ele>
        <time>2011-06-26T08:21:15Z</time>
      </trkpt>
      <trkpt lat="44.06638" lon="6.31026">
        <ele>1022.98</ele>
        <time>2011-06-26T08:21:27Z</time>
      </trkpt>
      <trkpt lat="44.06689" lon="6.31073">
        <ele>1024.42</ele>
        <time>2011-06-26T08:21:41Z</time>
      </trkpt>
      <trkpt lat="44.06706" lon="6.31099">
        <ele>1022.5</ele>
        <time>2011-06-26T08:21:46Z</time>
      </trkpt>
      <trkpt lat="44.0671" lon="6.31105">
        <ele>1022.5</ele>
        <time>2011-06-26T08:21:47Z</time>
      </trkpt>
      <trkpt lat="44.06724" lon="6.31124">
        <ele>1021.54</ele>
        <time>2011-06-26T08:21:50Z</time>
      </trkpt>
      <trkpt lat="44.06727" lon="6.31133">
        <ele>1021.54</ele>
        <time>2011-06-26T08:21:51Z</time>
      </trkpt>
      <trkpt lat="44.06737" lon="6.31161">
        <ele>1020.1</ele>
        <time>2011-06-26T08:21:54Z</time>
      </trkpt>
      <trkpt lat="44.06742" lon="6.31169">
        <ele>1020.1</ele>
        <time>2011-06-26T08:21:55Z</time>
      </trkpt>
      <trkpt lat="44.06748" lon="6.31175">
        <ele>1020.1</ele>
        <time>2011-06-26T08:21:56Z</time>
      </trkpt>
      <trkpt lat="44.06755" lon="6.31177">
        <ele>1020.1</ele>
        <time>2011-06-26T08:21:57Z</time>
      </trkpt>
      <trkpt lat="44.06762" lon="6.31178">
        <ele>1020.58</ele>
        <time>2011-06-26T08:21:58Z</time>
      </trkpt>
      <trkpt lat="44.06768" lon="6.31178">
        <ele>1021.06</ele>
        <time>2011-06-26T08:21:59Z</time>
      </trkpt>
      <trkpt lat="44.06811" lon="6.31162">
        <ele>1023.46</ele>
        <time>2011-06-26T08:22:10Z</time>
      </trkpt>
      <trkpt lat="44.06815" lon="6.31117">
        <ele>1025.86</ele>
        <time>2011-06-26T08:22:20Z</time>
      </trkpt>
      <trkpt lat="44.06823" lon="6.31104">
        <ele>1027.31</ele>
        <time>2011-06-26T08:22:25Z</time>
      </trkpt>
      <trkpt lat="44.06825" lon="6.31104">
        <ele>1027.31</ele>
        <time>2011-06-26T08:22:26Z</time>
      </trkpt>
      <trkpt lat="44.06828" lon="6.31106">
        <ele>1027.31</ele>
        <time>2011-06-26T08:22:27Z</time>
      </trkpt>
      <trkpt lat="44.06829" lon="6.31107">
        <ele>1027.79</ele>
        <time>2011-06-26T08:22:28Z</time>
      </trkpt>
      <trkpt lat="44.06832" lon="6.31109">
        <ele>1027.79</ele>
        <time>2011-06-26T08:22:29Z</time>
      </trkpt>
      <trkpt lat="44.06833" lon="6.31111">
        <ele>1027.79</ele>
        <time>2011-06-26T08:22:30Z</time>
      </trkpt>
      <trkpt lat="44.06835" lon="6.31114">
        <ele>1028.27</ele>
        <time>2011-06-26T08:22:31Z</time>
      </trkpt>
      <trkpt lat="44.06837" lon="6.31117">
        <ele>1028.27</ele>
        <time>2011-06-26T08:22:32Z</time>
      </trkpt>
      <trkpt lat="44.06858" lon="6.31172">
        <ele>1031.15</ele>
        <time>2011-06-26T08:22:48Z</time>
      </trkpt>
      <trkpt lat="44.06888" lon="6.31196">
        <ele>1034.04</ele>
        <time>2011-06-26T08:23:01Z</time>
      </trkpt>
      <trkpt lat="44.0689" lon="6.31198">
        <ele>1034.04</ele>
        <time>2011-06-26T08:23:02Z</time>
      </trkpt>
      <trkpt lat="44.06928" lon="6.31204">
        <ele>1036.44</ele>
        <time>2011-06-26T08:23:17Z</time>
      </trkpt>
      <trkpt lat="44.06961" lon="6.31207">
        <ele>1039.8</ele>
        <time>2011-06-26T08:23:30Z</time>
      </trkpt>
      <trkpt lat="44.06984" lon="6.3123">
        <ele>1042.21</ele>
        <time>2011-06-26T08:23:43Z</time>
      </trkpt>
      <trkpt lat="44.06968" lon="6.31268">
        <ele>1044.61</ele>
        <time>2011-06-26T08:23:56Z</time>
      </trkpt>
      <trkpt lat="44.0698" lon="6.31302">
        <ele>1046.53</ele>
        <time>2011-06-26T08:24:07Z</time>
      </trkpt>
      <trkpt lat="44.07007" lon="6.31338">
        <ele>1049.9</ele>
        <time>2011-06-26T08:24:22Z</time>
      </trkpt>
      <trkpt lat="44.07032" lon="6.31375">
        <ele>1052.78</ele>
        <time>2011-06-26T08:24:38Z</time>
      </trkpt>
      <trkpt lat="44.07045" lon="6.31412">
        <ele>1055.67</ele>
        <time>2011-06-26T08:24:51Z</time>
      </trkpt>
      <trkpt lat="44.07063" lon="6.31455">
        <ele>1058.55</ele>
        <time>2011-06-26T08:25:08Z</time>
      </trkpt>
      <trkpt lat="44.07088" lon="6.31476">
        <ele>1062.39</ele>
        <time>2011-06-26T08:25:22Z</time>
      </trkpt>
      <trkpt lat="44.07124" lon="6.31477">
        <ele>1064.8</ele>
        <time>2011-06-26T08:25:38Z</time>
      </trkpt>
      <trkpt lat="44.07161" lon="6.31463">
        <ele>1067.68</ele>
        <time>2011-06-26T08:25:55Z</time>
      </trkpt>
      <trkpt lat="44.07168" lon="6.31465">
        <ele>1068.16</ele>
        <time>2011-06-26T08:25:59Z</time>
      </trkpt>
      <trkpt lat="44.07169" lon="6.31468">
        <ele>1068.16</ele>
        <time>2011-06-26T08:26:00Z</time>
      </trkpt>
      <trkpt lat="44.0717" lon="6.3147">
        <ele>1068.64</ele>
        <time>2011-06-26T08:26:01Z</time>
      </trkpt>
      <trkpt lat="44.0717" lon="6.31474">
        <ele>1068.64</ele>
        <time>2011-06-26T08:26:02Z</time>
      </trkpt>
      <trkpt lat="44.0717" lon="6.31477">
        <ele>1068.64</ele>
        <time>2011-06-26T08:26:03Z</time>
      </trkpt>
      <trkpt lat="44.0717" lon="6.3148">
        <ele>1068.64</ele>
        <time>2011-06-26T08:26:04Z</time>
      </trkpt>
      <trkpt lat="44.0717" lon="6.31483">
        <ele>1069.12</ele>
        <time>2011-06-26T08:26:05Z</time>
      </trkpt>
      <trkpt lat="44.07167" lon="6.31485">
        <ele>1069.12</ele>
        <time>2011-06-26T08:26:06Z</time>
      </trkpt>
      <trkpt lat="44.07165" lon="6.31487">
        <ele>1069.12</ele>
        <time>2011-06-26T08:26:07Z</time>
      </trkpt>
      <trkpt lat="44.07163" lon="6.31489">
        <ele>1069.12</ele>
        <time>2011-06-26T08:26:08Z</time>
      </trkpt>
      <trkpt lat="44.07159" lon="6.31489">
        <ele>1069.6</ele>
        <time>2011-06-26T08:26:09Z</time>
      </trkpt>
      <trkpt lat="44.07156" lon="6.3149">
        <ele>1069.12</ele>
        <time>2011-06-26T08:26:10Z</time>
      </trkpt>
      <trkpt lat="44.07114" lon="6.31518">
        <ele>1072.01</ele>
        <time>2011-06-26T08:26:27Z</time>
      </trkpt>
      <trkpt lat="44.07079" lon="6.31536">
        <ele>1075.37</ele>
        <time>2011-06-26T08:26:42Z</time>
      </trkpt>
      <trkpt lat="44.07042" lon="6.31533">
        <ele>1077.78</ele>
        <time>2011-06-26T08:26:58Z</time>
      </trkpt>
      <trkpt lat="44.07004" lon="6.31535">
        <ele>1081.14</ele>
        <time>2011-06-26T08:27:15Z</time>
      </trkpt>
      <trkpt lat="44.06976" lon="6.31558">
        <ele>1084.5</ele>
        <time>2011-06-26T08:27:30Z</time>
      </trkpt>
      <trkpt lat="44.06943" lon="6.31571">
        <ele>1086.43</ele>
        <time>2011-06-26T08:27:45Z</time>
      </trkpt>
      <trkpt lat="44.06911" lon="6.31561">
        <ele>1088.35</ele>
        <time>2011-06-26T08:27:58Z</time>
      </trkpt>
      <trkpt lat="44.06874" lon="6.31548">
        <ele>1091.23</ele>
        <time>2011-06-26T08:28:14Z</time>
      </trkpt>
      <trkpt lat="44.06859" lon="6.31561">
        <ele>1093.64</ele>
        <time>2011-06-26T08:28:26Z</time>
      </trkpt>
      <trkpt lat="44.06858" lon="6.31598">
        <ele>1096.52</ele>
        <time>2011-06-26T08:28:40Z</time>
      </trkpt>
      <trkpt lat="44.0684" lon="6.31621">
        <ele>1099.4</ele>
        <time>2011-06-26T08:28:54Z</time>
      </trkpt>
      <trkpt lat="44.0681" lon="6.31624">
        <ele>1102.29</ele>
        <time>2011-06-26T08:29:10Z</time>
      </trkpt>
      <trkpt lat="44.06784" lon="6.31652">
        <ele>1105.17</ele>
        <time>2011-06-26T08:29:28Z</time>
      </trkpt>
      <trkpt lat="44.06763" lon="6.31679">
        <ele>1108.06</ele>
        <time>2011-06-26T08:29:43Z</time>
      </trkpt>
      <trkpt lat="44.06745" lon="6.31707">
        <ele>1111.42</ele>
        <time>2011-06-26T08:29:58Z</time>
      </trkpt>
      <trkpt lat="44.06731" lon="6.31736">
        <ele>1114.79</ele>
        <time>2011-06-26T08:30:14Z</time>
      </trkpt>
      <trkpt lat="44.0672" lon="6.31769">
        <ele>1117.67</ele>
        <time>2011-06-26T08:30:30Z</time>
      </trkpt>
      <trkpt lat="44.06714" lon="6.31802">
        <ele>1120.55</ele>
        <time>2011-06-26T08:30:44Z</time>
      </trkpt>
      <trkpt lat="44.06698" lon="6.3183">
        <ele>1122.96</ele>
        <time>2011-06-26T08:31:00Z</time>
      </trkpt>
      <trkpt lat="44.06704" lon="6.31851">
        <ele>1124.88</ele>
        <time>2011-06-26T08:31:10Z</time>
      </trkpt>
      <trkpt lat="44.06734" lon="6.31842">
        <ele>1127.28</ele>
        <time>2011-06-26T08:31:24Z</time>
      </trkpt>
      <trkpt lat="44.06754" lon="6.31819">
        <ele>1130.65</ele>
        <time>2011-06-26T08:31:38Z</time>
      </trkpt>
      <trkpt lat="44.06777" lon="6.31799">
        <ele>1134.01</ele>
        <time>2011-06-26T08:31:53Z</time>
      </trkpt>
      <trkpt lat="44.06805" lon="6.31803">
        <ele>1136.42</ele>
        <time>2011-06-26T08:32:08Z</time>
      </trkpt>
      <trkpt lat="44.06829" lon="6.31816">
        <ele>1139.3</ele>
        <time>2011-06-26T08:32:22Z</time>
      </trkpt>
      <trkpt lat="44.06855" lon="6.31829">
        <ele>1142.18</ele>
        <time>2011-06-26T08:32:37Z</time>
      </trkpt>
      <trkpt lat="44.06854" lon="6.31841">
        <ele>1144.11</ele>
        <time>2011-06-26T08:32:46Z</time>
      </trkpt>
      <trkpt lat="44.06846" lon="6.31843">
        <ele>1144.59</ele>
        <time>2011-06-26T08:32:51Z</time>
      </trkpt>
      <trkpt lat="44.06821" lon="6.31862">
        <ele>1147.47</ele>
        <time>2011-06-26T08:33:07Z</time>
      </trkpt>
      <trkpt lat="44.06806" lon="6.31884">
        <ele>1149.87</ele>
        <time>2011-06-26T08:33:21Z</time>
      </trkpt>
      <trkpt lat="44.06788" lon="6.31907">
        <ele>1152.28</ele>
        <time>2011-06-26T08:33:36Z</time>
      </trkpt>
      <trkpt lat="44.06774" lon="6.3193">
        <ele>1155.16</ele>
        <time>2011-06-26T08:33:50Z</time>
      </trkpt>
      <trkpt lat="44.0676" lon="6.31957">
        <ele>1158.53</ele>
        <time>2011-06-26T08:34:06Z</time>
      </trkpt>
      <trkpt lat="44.06753" lon="6.3196">
        <ele>1159.01</ele>
        <time>2011-06-26T08:34:11Z</time>
      </trkpt>
      <trkpt lat="44.06754" lon="6.3197">
        <ele>1160.93</ele>
        <time>2011-06-26T08:34:20Z</time>
      </trkpt>
      <trkpt lat="44.06778" lon="6.31972">
        <ele>1163.81</ele>
        <time>2011-06-26T08:34:34Z</time>
      </trkpt>
      <trkpt lat="44.06795" lon="6.31992">
        <ele>1166.22</ele>
        <time>2011-06-26T08:34:49Z</time>
      </trkpt>
      <trkpt lat="44.06815" lon="6.32002">
        <ele>1168.62</ele>
        <time>2011-06-26T08:35:04Z</time>
      </trkpt>
      <trkpt lat="44.06835" lon="6.3201">
        <ele>1171.02</ele>
        <time>2011-06-26T08:35:17Z</time>
      </trkpt>
      <trkpt lat="44.0686" lon="6.32007">
        <ele>1173.91</ele>
        <time>2011-06-26T08:35:31Z</time>
      </trkpt>
      <trkpt lat="44.06884" lon="6.32002">
        <ele>1176.31</ele>
        <time>2011-06-26T08:35:45Z</time>
      </trkpt>
      <trkpt lat="44.06908" lon="6.32002">
        <ele>1179.67</ele>
        <time>2011-06-26T08:35:59Z</time>
      </trkpt>
      <trkpt lat="44.06912" lon="6.32005">
        <ele>1180.16</ele>
        <time>2011-06-26T08:36:01Z</time>
      </trkpt>
      <trkpt lat="44.06932" lon="6.32025">
        <ele>1183.52</ele>
        <time>2011-06-26T08:36:16Z</time>
      </trkpt>
      <trkpt lat="44.06953" lon="6.32053">
        <ele>1185.44</ele>
        <time>2011-06-26T08:36:30Z</time>
      </trkpt>
      <trkpt lat="44.06971" lon="6.32081">
        <ele>1188.81</ele>
        <time>2011-06-26T08:36:45Z</time>
      </trkpt>
      <trkpt lat="44.0698" lon="6.32108">
        <ele>1191.21</ele>
        <time>2011-06-26T08:36:58Z</time>
      </trkpt>
      <trkpt lat="44.06962" lon="6.3214">
        <ele>1194.09</ele>
        <time>2011-06-26T08:37:14Z</time>
      </trkpt>
      <trkpt lat="44.06934" lon="6.32145">
        <ele>1196.5</ele>
        <time>2011-06-26T08:37:29Z</time>
      </trkpt>
      <trkpt lat="44.06915" lon="6.32135">
        <ele>1199.86</ele>
        <time>2011-06-26T08:37:42Z</time>
      </trkpt>
      <trkpt lat="44.06907" lon="6.32127">
        <ele>1200.82</ele>
        <time>2011-06-26T08:37:48Z</time>
      </trkpt>
      <trkpt lat="44.06887" lon="6.32118">
        <ele>1201.3</ele>
        <time>2011-06-26T08:37:59Z</time>
      </trkpt>
      <trkpt lat="44.06852" lon="6.32134">
        <ele>1204.67</ele>
        <time>2011-06-26T08:38:15Z</time>
      </trkpt>
      <trkpt lat="44.06829" lon="6.32161">
        <ele>1208.03</ele>
        <time>2011-06-26T08:38:31Z</time>
      </trkpt>
      <trkpt lat="44.06815" lon="6.32186">
        <ele>1210.92</ele>
        <time>2011-06-26T08:38:46Z</time>
      </trkpt>
      <trkpt lat="44.06816" lon="6.32225">
        <ele>1213.32</ele>
        <time>2011-06-26T08:39:01Z</time>
      </trkpt>
      <trkpt lat="44.06809" lon="6.32235">
        <ele>1216.69</ele>
        <time>2011-06-26T08:39:06Z</time>
      </trkpt>
      <trkpt lat="44.06808" lon="6.32237">
        <ele>1215.24</ele>
        <time>2011-06-26T08:39:07Z</time>
      </trkpt>
      <trkpt lat="44.06797" lon="6.32268">
        <ele>1217.65</ele>
        <time>2011-06-26T08:39:22Z</time>
      </trkpt>
      <trkpt lat="44.06794" lon="6.32293">
        <ele>1221.01</ele>
        <time>2011-06-26T08:39:36Z</time>
      </trkpt>
      <trkpt lat="44.068" lon="6.32326">
        <ele>1223.9</ele>
        <time>2011-06-26T08:39:51Z</time>
      </trkpt>
      <trkpt lat="44.06806" lon="6.32355">
        <ele>1226.3</ele>
        <time>2011-06-26T08:40:05Z</time>
      </trkpt>
      <trkpt lat="44.06808" lon="6.32389">
        <ele>1229.18</ele>
        <time>2011-06-26T08:40:21Z</time>
      </trkpt>
      <trkpt lat="44.06802" lon="6.32422">
        <ele>1232.07</ele>
        <time>2011-06-26T08:40:36Z</time>
      </trkpt>
      <trkpt lat="44.06792" lon="6.32447">
        <ele>1235.43</ele>
        <time>2011-06-26T08:40:50Z</time>
      </trkpt>
      <trkpt lat="44.06807" lon="6.32463">
        <ele>1237.83</ele>
        <time>2011-06-26T08:41:04Z</time>
      </trkpt>
      <trkpt lat="44.06835" lon="6.32463">
        <ele>1240.24</ele>
        <time>2011-06-26T08:41:21Z</time>
      </trkpt>
      <trkpt lat="44.06859" lon="6.32477">
        <ele>1243.12</ele>
        <time>2011-06-26T08:41:36Z</time>
      </trkpt>
      <trkpt lat="44.0688" lon="6.32505">
        <ele>1245.53</ele>
        <time>2011-06-26T08:41:51Z</time>
      </trkpt>
      <trkpt lat="44.06902" lon="6.32518">
        <ele>1248.89</ele>
        <time>2011-06-26T08:42:05Z</time>
      </trkpt>
      <trkpt lat="44.06927" lon="6.32517">
        <ele>1251.29</ele>
        <time>2011-06-26T08:42:20Z</time>
      </trkpt>
      <trkpt lat="44.06956" lon="6.32517">
        <ele>1254.18</ele>
        <time>2011-06-26T08:42:35Z</time>
      </trkpt>
      <trkpt lat="44.06972" lon="6.3254">
        <ele>1256.58</ele>
        <time>2011-06-26T08:42:48Z</time>
      </trkpt>
      <trkpt lat="44.06982" lon="6.3258">
        <ele>1258.98</ele>
        <time>2011-06-26T08:43:04Z</time>
      </trkpt>
      <trkpt lat="44.06987" lon="6.32614">
        <ele>1261.39</ele>
        <time>2011-06-26T08:43:18Z</time>
      </trkpt>
      <trkpt lat="44.07004" lon="6.3265">
        <ele>1263.79</ele>
        <time>2011-06-26T08:43:34Z</time>
      </trkpt>
      <trkpt lat="44.07035" lon="6.32665">
        <ele>1265.71</ele>
        <time>2011-06-26T08:43:49Z</time>
      </trkpt>
      <trkpt lat="44.0708" lon="6.3266">
        <ele>1267.16</ele>
        <time>2011-06-26T08:44:07Z</time>
      </trkpt>
      <trkpt lat="44.07119" lon="6.32682">
        <ele>1268.6</ele>
        <time>2011-06-26T08:44:21Z</time>
      </trkpt>
      <trkpt lat="44.07145" lon="6.32714">
        <ele>1271</ele>
        <time>2011-06-26T08:44:36Z</time>
      </trkpt>
      <trkpt lat="44.07173" lon="6.3274">
        <ele>1273.88</ele>
        <time>2011-06-26T08:44:52Z</time>
      </trkpt>
      <trkpt lat="44.07193" lon="6.32756">
        <ele>1276.77</ele>
        <time>2011-06-26T08:45:04Z</time>
      </trkpt>
      <trkpt lat="44.07213" lon="6.32782">
        <ele>1279.65</ele>
        <time>2011-06-26T08:45:19Z</time>
      </trkpt>
      <trkpt lat="44.07234" lon="6.32801">
        <ele>1282.54</ele>
        <time>2011-06-26T08:45:34Z</time>
      </trkpt>
      <trkpt lat="44.07259" lon="6.32825">
        <ele>1285.9</ele>
        <time>2011-06-26T08:45:50Z</time>
      </trkpt>
      <trkpt lat="44.07287" lon="6.32837">
        <ele>1287.34</ele>
        <time>2011-06-26T08:46:05Z</time>
      </trkpt>
      <trkpt lat="44.0732" lon="6.32846">
        <ele>1288.78</ele>
        <time>2011-06-26T08:46:20Z</time>
      </trkpt>
      <trkpt lat="44.07352" lon="6.32868">
        <ele>1291.19</ele>
        <time>2011-06-26T08:46:35Z</time>
      </trkpt>
      <trkpt lat="44.07373" lon="6.32892">
        <ele>1294.55</ele>
        <time>2011-06-26T08:46:50Z</time>
      </trkpt>
      <trkpt lat="44.07387" lon="6.32924">
        <ele>1297.44</ele>
        <time>2011-06-26T08:47:05Z</time>
      </trkpt>
      <trkpt lat="44.07408" lon="6.32935">
        <ele>1300.8</ele>
        <time>2011-06-26T08:47:19Z</time>
      </trkpt>
      <trkpt lat="44.07428" lon="6.32956">
        <ele>1302.72</ele>
        <time>2011-06-26T08:47:35Z</time>
      </trkpt>
      <trkpt lat="44.07445" lon="6.32985">
        <ele>1306.57</ele>
        <time>2011-06-26T08:47:49Z</time>
      </trkpt>
      <trkpt lat="44.07465" lon="6.33011">
        <ele>1308.97</ele>
        <time>2011-06-26T08:48:05Z</time>
      </trkpt>
      <trkpt lat="44.07481" lon="6.33036">
        <ele>1311.38</ele>
        <time>2011-06-26T08:48:19Z</time>
      </trkpt>
      <trkpt lat="44.075" lon="6.33062">
        <ele>1314.26</ele>
        <time>2011-06-26T08:48:34Z</time>
      </trkpt>
      <trkpt lat="44.07524" lon="6.33077">
        <ele>1315.22</ele>
        <time>2011-06-26T08:48:49Z</time>
      </trkpt>
      <trkpt lat="44.07545" lon="6.33086">
        <ele>1317.62</ele>
        <time>2011-06-26T08:49:01Z</time>
      </trkpt>
      <trkpt lat="44.0757" lon="6.33107">
        <ele>1320.03</ele>
        <time>2011-06-26T08:49:16Z</time>
      </trkpt>
      <trkpt lat="44.07577" lon="6.33126">
        <ele>1321.95</ele>
        <time>2011-06-26T08:49:30Z</time>
      </trkpt>
      <trkpt lat="44.07574" lon="6.3312">
        <ele>1323.39</ele>
        <time>2011-06-26T08:49:34Z</time>
      </trkpt>
      <trkpt lat="44.0757" lon="6.33115">
        <ele>1323.87</ele>
        <time>2011-06-26T08:49:38Z</time>
      </trkpt>
      <trkpt lat="44.07541" lon="6.33106">
        <ele>1327.24</ele>
        <time>2011-06-26T08:49:55Z</time>
      </trkpt>
      <trkpt lat="44.07519" lon="6.33104">
        <ele>1329.64</ele>
        <time>2011-06-26T08:50:09Z</time>
      </trkpt>
      <trkpt lat="44.07511" lon="6.33101">
        <ele>1330.6</ele>
        <time>2011-06-26T08:50:15Z</time>
      </trkpt>
      <trkpt lat="44.07505" lon="6.33102">
        <ele>1331.56</ele>
        <time>2011-06-26T08:50:19Z</time>
      </trkpt>
      <trkpt lat="44.07484" lon="6.33105">
        <ele>1334.45</ele>
        <time>2011-06-26T08:50:35Z</time>
      </trkpt>
      <trkpt lat="44.0748" lon="6.33106">
        <ele>1334.93</ele>
        <time>2011-06-26T08:50:38Z</time>
      </trkpt>
      <trkpt lat="44.07463" lon="6.33092">
        <ele>1336.85</ele>
        <time>2011-06-26T08:50:52Z</time>
      </trkpt>
      <trkpt lat="44.0745" lon="6.33087">
        <ele>1338.77</ele>
        <time>2011-06-26T08:51:03Z</time>
      </trkpt>
      <trkpt lat="44.07435" lon="6.33069">
        <ele>1340.7</ele>
        <time>2011-06-26T08:51:17Z</time>
      </trkpt>
      <trkpt lat="44.07417" lon="6.33053">
        <ele>1343.58</ele>
        <time>2011-06-26T08:51:32Z</time>
      </trkpt>
      <trkpt lat="44.0741" lon="6.33055">
        <ele>1345.5</ele>
        <time>2011-06-26T08:51:44Z</time>
      </trkpt>
      <trkpt lat="44.07427" lon="6.33082">
        <ele>1347.91</ele>
        <time>2011-06-26T08:51:58Z</time>
      </trkpt>
      <trkpt lat="44.07437" lon="6.33106">
        <ele>1349.83</ele>
        <time>2011-06-26T08:52:09Z</time>
      </trkpt>
      <trkpt lat="44.07454" lon="6.33126">
        <ele>1352.71</ele>
        <time>2011-06-26T08:52:23Z</time>
      </trkpt>
      <trkpt lat="44.07472" lon="6.33151">
        <ele>1355.6</ele>
        <time>2011-06-26T08:52:39Z</time>
      </trkpt>
      <trkpt lat="44.07488" lon="6.33164">
        <ele>1357.52</ele>
        <time>2011-06-26T08:52:52Z</time>
      </trkpt>
      <trkpt lat="44.075" lon="6.33175">
        <ele>1358.96</ele>
        <time>2011-06-26T08:53:01Z</time>
      </trkpt>
      <trkpt lat="44.07519" lon="6.33195">
        <ele>1361.84</ele>
        <time>2011-06-26T08:53:16Z</time>
      </trkpt>
      <trkpt lat="44.07532" lon="6.3322">
        <ele>1364.25</ele>
        <time>2011-06-26T08:53:31Z</time>
      </trkpt>
      <trkpt lat="44.0755" lon="6.33238">
        <ele>1367.61</ele>
        <time>2011-06-26T08:53:44Z</time>
      </trkpt>
      <trkpt lat="44.07569" lon="6.33253">
        <ele>1369.54</ele>
        <time>2011-06-26T08:53:58Z</time>
      </trkpt>
      <trkpt lat="44.0759" lon="6.3327">
        <ele>1372.9</ele>
        <time>2011-06-26T08:54:12Z</time>
      </trkpt>
      <trkpt lat="44.07599" lon="6.33279">
        <ele>1373.86</ele>
        <time>2011-06-26T08:54:19Z</time>
      </trkpt>
      <trkpt lat="44.07619" lon="6.333">
        <ele>1375.78</ele>
        <time>2011-06-26T08:54:35Z</time>
      </trkpt>
      <trkpt lat="44.07637" lon="6.33317">
        <ele>1378.67</ele>
        <time>2011-06-26T08:54:48Z</time>
      </trkpt>
      <trkpt lat="44.07657" lon="6.33337">
        <ele>1382.03</ele>
        <time>2011-06-26T08:55:04Z</time>
      </trkpt>
      <trkpt lat="44.07677" lon="6.33357">
        <ele>1385.4</ele>
        <time>2011-06-26T08:55:19Z</time>
      </trkpt>
      <trkpt lat="44.077" lon="6.33369">
        <ele>1388.28</ele>
        <time>2011-06-26T08:55:34Z</time>
      </trkpt>
      <trkpt lat="44.07725" lon="6.33385">
        <ele>1391.17</ele>
        <time>2011-06-26T08:55:51Z</time>
      </trkpt>
      <trkpt lat="44.07744" lon="6.33398">
        <ele>1394.05</ele>
        <time>2011-06-26T08:56:05Z</time>
      </trkpt>
      <trkpt lat="44.07767" lon="6.33415">
        <ele>1396.93</ele>
        <time>2011-06-26T08:56:21Z</time>
      </trkpt>
      <trkpt lat="44.07792" lon="6.33433">
        <ele>1399.34</ele>
        <time>2011-06-26T08:56:37Z</time>
      </trkpt>
      <trkpt lat="44.07812" lon="6.33442">
        <ele>1402.7</ele>
        <time>2011-06-26T08:56:51Z</time>
      </trkpt>
      <trkpt lat="44.07835" lon="6.33454">
        <ele>1404.62</ele>
        <time>2011-06-26T08:57:06Z</time>
      </trkpt>
      <trkpt lat="44.07856" lon="6.33465">
        <ele>1407.99</ele>
        <time>2011-06-26T08:57:19Z</time>
      </trkpt>
      <trkpt lat="44.07875" lon="6.33477">
        <ele>1409.91</ele>
        <time>2011-06-26T08:57:32Z</time>
      </trkpt>
      <trkpt lat="44.07897" lon="6.33479">
        <ele>1411.35</ele>
        <time>2011-06-26T08:57:49Z</time>
      </trkpt>
      <trkpt lat="44.07919" lon="6.33489">
        <ele>1414.24</ele>
        <time>2011-06-26T08:58:04Z</time>
      </trkpt>
      <trkpt lat="44.07943" lon="6.33498">
        <ele>1417.6</ele>
        <time>2011-06-26T08:58:18Z</time>
      </trkpt>
      <trkpt lat="44.07969" lon="6.33505">
        <ele>1420.97</ele>
        <time>2011-06-26T08:58:33Z</time>
      </trkpt>
      <trkpt lat="44.07986" lon="6.33512">
        <ele>1422.41</ele>
        <time>2011-06-26T08:58:47Z</time>
      </trkpt>
      <trkpt lat="44.08008" lon="6.33517">
        <ele>1424.81</ele>
        <time>2011-06-26T08:59:02Z</time>
      </trkpt>
      <trkpt lat="44.08029" lon="6.33522">
        <ele>1426.73</ele>
        <time>2011-06-26T08:59:14Z</time>
      </trkpt>
      <trkpt lat="44.08033" lon="6.33526">
        <ele>1428.18</ele>
        <time>2011-06-26T08:59:18Z</time>
      </trkpt>
      <trkpt lat="44.08033" lon="6.33529">
        <ele>1428.66</ele>
        <time>2011-06-26T08:59:20Z</time>
      </trkpt>
      <trkpt lat="44.08011" lon="6.33534">
        <ele>1432.02</ele>
        <time>2011-06-26T08:59:36Z</time>
      </trkpt>
      <trkpt lat="44.07994" lon="6.33543">
        <ele>1435.39</ele>
        <time>2011-06-26T08:59:49Z</time>
      </trkpt>
      <trkpt lat="44.07989" lon="6.33543">
        <ele>1435.87</ele>
        <time>2011-06-26T08:59:55Z</time>
      </trkpt>
      <trkpt lat="44.07976" lon="6.33546">
        <ele>1438.27</ele>
        <time>2011-06-26T09:00:08Z</time>
      </trkpt>
      <trkpt lat="44.07958" lon="6.3355">
        <ele>1441.63</ele>
        <time>2011-06-26T09:00:26Z</time>
      </trkpt>
      <trkpt lat="44.07942" lon="6.33561">
        <ele>1444.52</ele>
        <time>2011-06-26T09:00:41Z</time>
      </trkpt>
      <trkpt lat="44.07923" lon="6.33569">
        <ele>1447.88</ele>
        <time>2011-06-26T09:00:59Z</time>
      </trkpt>
      <trkpt lat="44.07909" lon="6.33576">
        <ele>1450.77</ele>
        <time>2011-06-26T09:01:15Z</time>
      </trkpt>
      <trkpt lat="44.07903" lon="6.33574">
        <ele>1451.73</ele>
        <time>2011-06-26T09:01:20Z</time>
      </trkpt>
      <trkpt lat="44.07891" lon="6.33575">
        <ele>1454.13</ele>
        <time>2011-06-26T09:01:36Z</time>
      </trkpt>
      <trkpt lat="44.079" lon="6.33579">
        <ele>1456.53</ele>
        <time>2011-06-26T09:01:49Z</time>
      </trkpt>
      <trkpt lat="44.07913" lon="6.33591">
        <ele>1458.94</ele>
        <time>2011-06-26T09:02:05Z</time>
      </trkpt>
      <trkpt lat="44.07916" lon="6.33593">
        <ele>1459.42</ele>
        <time>2011-06-26T09:02:09Z</time>
      </trkpt>
      <trkpt lat="44.07934" lon="6.33602">
        <ele>1462.3</ele>
        <time>2011-06-26T09:02:25Z</time>
      </trkpt>
      <trkpt lat="44.0795" lon="6.33608">
        <ele>1465.19</ele>
        <time>2011-06-26T09:02:42Z</time>
      </trkpt>
      <trkpt lat="44.07961" lon="6.33611">
        <ele>1466.63</ele>
        <time>2011-06-26T09:03:04Z</time>
      </trkpt>
      <trkpt lat="44.07976" lon="6.33617">
        <ele>1468.55</ele>
        <time>2011-06-26T09:03:21Z</time>
      </trkpt>
      <trkpt lat="44.07994" lon="6.33622">
        <ele>1470.95</ele>
        <time>2011-06-26T09:03:37Z</time>
      </trkpt>
      <trkpt lat="44.0801" lon="6.33624">
        <ele>1474.32</ele>
        <time>2011-06-26T09:03:54Z</time>
      </trkpt>
      <trkpt lat="44.08029" lon="6.33632">
        <ele>1477.2</ele>
        <time>2011-06-26T09:04:12Z</time>
      </trkpt>
      <trkpt lat="44.08039" lon="6.33644">
        <ele>1479.61</ele>
        <time>2011-06-26T09:04:27Z</time>
      </trkpt>
      <trkpt lat="44.08048" lon="6.33653">
        <ele>1481.53</ele>
        <time>2011-06-26T09:04:42Z</time>
      </trkpt>
      <trkpt lat="44.08053" lon="6.33659">
        <ele>1483.93</ele>
        <time>2011-06-26T09:04:58Z</time>
      </trkpt>
      <trkpt lat="44.08051" lon="6.33659">
        <ele>1483.93</ele>
        <time>2011-06-26T09:05:09Z</time>
      </trkpt>
      <trkpt lat="44.0803" lon="6.33653">
        <ele>1486.34</ele>
        <time>2011-06-26T09:05:25Z</time>
      </trkpt>
      <trkpt lat="44.08013" lon="6.33651">
        <ele>1489.7</ele>
        <time>2011-06-26T09:05:39Z</time>
      </trkpt>
      <trkpt lat="44.08007" lon="6.33651">
        <ele>1490.66</ele>
        <time>2011-06-26T09:05:52Z</time>
      </trkpt>
      <trkpt lat="44.07994" lon="6.33657">
        <ele>1492.1</ele>
        <time>2011-06-26T09:06:06Z</time>
      </trkpt>
      <trkpt lat="44.07993" lon="6.33658">
        <ele>1492.1</ele>
        <time>2011-06-26T09:06:07Z</time>
      </trkpt>
      <trkpt lat="44.07974" lon="6.33659">
        <ele>1493.06</ele>
        <time>2011-06-26T09:06:20Z</time>
      </trkpt>
      <trkpt lat="44.07939" lon="6.33666">
        <ele>1494.99</ele>
        <time>2011-06-26T09:06:39Z</time>
      </trkpt>
      <trkpt lat="44.07913" lon="6.33669">
        <ele>1497.39</ele>
        <time>2011-06-26T09:06:54Z</time>
      </trkpt>
      <trkpt lat="44.07889" lon="6.33667">
        <ele>1499.31</ele>
        <time>2011-06-26T09:07:09Z</time>
      </trkpt>
      <trkpt lat="44.07867" lon="6.33662">
        <ele>1500.76</ele>
        <time>2011-06-26T09:07:24Z</time>
      </trkpt>
      <trkpt lat="44.07852" lon="6.33663">
        <ele>1501.72</ele>
        <time>2011-06-26T09:07:38Z</time>
      </trkpt>
      <trkpt lat="44.07836" lon="6.3366">
        <ele>1502.68</ele>
        <time>2011-06-26T09:07:51Z</time>
      </trkpt>
      <trkpt lat="44.07831" lon="6.33658">
        <ele>1503.64</ele>
        <time>2011-06-26T09:07:56Z</time>
      </trkpt>
      <trkpt lat="44.07815" lon="6.33658">
        <ele>1504.6</ele>
        <time>2011-06-26T09:08:12Z</time>
      </trkpt>
      <trkpt lat="44.07811" lon="6.33659">
        <ele>1507</ele>
        <time>2011-06-26T09:08:25Z</time>
      </trkpt>
      <trkpt lat="44.07824" lon="6.33667">
        <ele>1507.97</ele>
        <time>2011-06-26T09:08:38Z</time>
      </trkpt>
      <trkpt lat="44.07827" lon="6.33672">
        <ele>1508.45</ele>
        <time>2011-06-26T09:08:41Z</time>
      </trkpt>
      <trkpt lat="44.07836" lon="6.33681">
        <ele>1510.37</ele>
        <time>2011-06-26T09:08:56Z</time>
      </trkpt>
      <trkpt lat="44.07848" lon="6.33684">
        <ele>1512.29</ele>
        <time>2011-06-26T09:09:12Z</time>
      </trkpt>
      <trkpt lat="44.07853" lon="6.33685">
        <ele>1512.77</ele>
        <time>2011-06-26T09:09:16Z</time>
      </trkpt>
      <trkpt lat="44.07861" lon="6.33688">
        <ele>1513.73</ele>
        <time>2011-06-26T09:09:24Z</time>
      </trkpt>
      <trkpt lat="44.07871" lon="6.33695">
        <ele>1515.18</ele>
        <time>2011-06-26T09:09:41Z</time>
      </trkpt>
      <trkpt lat="44.07881" lon="6.337">
        <ele>1517.1</ele>
        <time>2011-06-26T09:09:56Z</time>
      </trkpt>
      <trkpt lat="44.07888" lon="6.33703">
        <ele>1518.06</ele>
        <time>2011-06-26T09:10:10Z</time>
      </trkpt>
      <trkpt lat="44.07909" lon="6.33715">
        <ele>1520.46</ele>
        <time>2011-06-26T09:10:24Z</time>
      </trkpt>
      <trkpt lat="44.07915" lon="6.3372">
        <ele>1521.42</ele>
        <time>2011-06-26T09:10:29Z</time>
      </trkpt>
      <trkpt lat="44.07931" lon="6.33728">
        <ele>1524.31</ele>
        <time>2011-06-26T09:10:42Z</time>
      </trkpt>
      <trkpt lat="44.07947" lon="6.33735">
        <ele>1526.71</ele>
        <time>2011-06-26T09:10:55Z</time>
      </trkpt>
      <trkpt lat="44.0797" lon="6.33741">
        <ele>1529.11</ele>
        <time>2011-06-26T09:11:12Z</time>
      </trkpt>
      <trkpt lat="44.07985" lon="6.33745">
        <ele>1532.48</ele>
        <time>2011-06-26T09:11:26Z</time>
      </trkpt>
      <trkpt lat="44.0799" lon="6.33748">
        <ele>1532.96</ele>
        <time>2011-06-26T09:11:30Z</time>
      </trkpt>
      <trkpt lat="44.08002" lon="6.33757">
        <ele>1535.36</ele>
        <time>2011-06-26T09:11:45Z</time>
      </trkpt>
      <trkpt lat="44.08011" lon="6.33761">
        <ele>1536.8</ele>
        <time>2011-06-26T09:11:53Z</time>
      </trkpt>
      <trkpt lat="44.08023" lon="6.33762">
        <ele>1538.73</ele>
        <time>2011-06-26T09:12:09Z</time>
      </trkpt>
      <trkpt lat="44.08026" lon="6.33762">
        <ele>1540.17</ele>
        <time>2011-06-26T09:12:21Z</time>
      </trkpt>
      <trkpt lat="44.08025" lon="6.33767">
        <ele>1542.57</ele>
        <time>2011-06-26T09:12:35Z</time>
      </trkpt>
      <trkpt lat="44.08012" lon="6.33772">
        <ele>1544.5</ele>
        <time>2011-06-26T09:12:51Z</time>
      </trkpt>
      <trkpt lat="44.08003" lon="6.33771">
        <ele>1544.98</ele>
        <time>2011-06-26T09:13:07Z</time>
      </trkpt>
      <trkpt lat="44.07989" lon="6.33773">
        <ele>1547.86</ele>
        <time>2011-06-26T09:13:23Z</time>
      </trkpt>
      <trkpt lat="44.07981" lon="6.33775">
        <ele>1549.3</ele>
        <time>2011-06-26T09:13:40Z</time>
      </trkpt>
      <trkpt lat="44.07977" lon="6.33778">
        <ele>1549.78</ele>
        <time>2011-06-26T09:13:44Z</time>
      </trkpt>
      <trkpt lat="44.07964" lon="6.33783">
        <ele>1552.67</ele>
        <time>2011-06-26T09:13:59Z</time>
      </trkpt>
      <trkpt lat="44.07942" lon="6.33788">
        <ele>1556.03</ele>
        <time>2011-06-26T09:14:14Z</time>
      </trkpt>
      <trkpt lat="44.07933" lon="6.33792">
        <ele>1558.43</ele>
        <time>2011-06-26T09:14:25Z</time>
      </trkpt>
      <trkpt lat="44.07925" lon="6.33796">
        <ele>1560.84</ele>
        <time>2011-06-26T09:14:37Z</time>
      </trkpt>
      <trkpt lat="44.07914" lon="6.33799">
        <ele>1563.24</ele>
        <time>2011-06-26T09:14:51Z</time>
      </trkpt>
      <trkpt lat="44.07912" lon="6.33798">
        <ele>1562.76</ele>
        <time>2011-06-26T09:14:53Z</time>
      </trkpt>
      <trkpt lat="44.07909" lon="6.33798">
        <ele>1564.68</ele>
        <time>2011-06-26T09:15:02Z</time>
      </trkpt>
      <trkpt lat="44.07898" lon="6.33797">
        <ele>1566.12</ele>
        <time>2011-06-26T09:15:13Z</time>
      </trkpt>
      <trkpt lat="44.07885" lon="6.33799">
        <ele>1568.53</ele>
        <time>2011-06-26T09:15:27Z</time>
      </trkpt>
      <trkpt lat="44.07873" lon="6.33806">
        <ele>1570.93</ele>
        <time>2011-06-26T09:15:40Z</time>
      </trkpt>
      <trkpt lat="44.07864" lon="6.3381">
        <ele>1572.85</ele>
        <time>2011-06-26T09:15:53Z</time>
      </trkpt>
      <trkpt lat="44.07868" lon="6.33816">
        <ele>1576.22</ele>
        <time>2011-06-26T09:16:06Z</time>
      </trkpt>
      <trkpt lat="44.07868" lon="6.33816">
        <ele>1576.22</ele>
        <time>2011-06-26T09:16:07Z</time>
      </trkpt>
      <trkpt lat="44.07869" lon="6.33821">
        <ele>1577.66</ele>
        <time>2011-06-26T09:16:20Z</time>
      </trkpt>
      <trkpt lat="44.07868" lon="6.33823">
        <ele>1581.03</ele>
        <time>2011-06-26T09:16:36Z</time>
      </trkpt>
      <trkpt lat="44.07866" lon="6.33826">
        <ele>1583.43</ele>
        <time>2011-06-26T09:16:51Z</time>
      </trkpt>
      <trkpt lat="44.07871" lon="6.33827">
        <ele>1585.35</ele>
        <time>2011-06-26T09:17:04Z</time>
      </trkpt>
      <trkpt lat="44.07874" lon="6.33826">
        <ele>1586.31</ele>
        <time>2011-06-26T09:17:10Z</time>
      </trkpt>
      <trkpt lat="44.07878" lon="6.33826">
        <ele>1586.31</ele>
        <time>2011-06-26T09:17:13Z</time>
      </trkpt>
      <trkpt lat="44.07887" lon="6.33828">
        <ele>1587.75</ele>
        <time>2011-06-26T09:17:23Z</time>
      </trkpt>
      <trkpt lat="44.07897" lon="6.33827">
        <ele>1589.68</ele>
        <time>2011-06-26T09:17:40Z</time>
      </trkpt>
      <trkpt lat="44.07906" lon="6.33833">
        <ele>1591.12</ele>
        <time>2011-06-26T09:17:54Z</time>
      </trkpt>
      <trkpt lat="44.07899" lon="6.33833">
        <ele>1593.52</ele>
        <time>2011-06-26T09:18:09Z</time>
      </trkpt>
      <trkpt lat="44.07893" lon="6.33836">
        <ele>1595.45</ele>
        <time>2011-06-26T09:18:18Z</time>
      </trkpt>
      <trkpt lat="44.07891" lon="6.33838">
        <ele>1595.45</ele>
        <time>2011-06-26T09:18:20Z</time>
      </trkpt>
      <trkpt lat="44.07887" lon="6.33841">
        <ele>1595.93</ele>
        <time>2011-06-26T09:18:25Z</time>
      </trkpt>
      <trkpt lat="44.07877" lon="6.33843">
        <ele>1598.33</ele>
        <time>2011-06-26T09:18:40Z</time>
      </trkpt>
      <trkpt lat="44.07881" lon="6.33847">
        <ele>1600.25</ele>
        <time>2011-06-26T09:18:53Z</time>
      </trkpt>
      <trkpt lat="44.0789" lon="6.33851">
        <ele>1603.14</ele>
        <time>2011-06-26T09:19:07Z</time>
      </trkpt>
      <trkpt lat="44.07899" lon="6.3385">
        <ele>1605.06</ele>
        <time>2011-06-26T09:19:21Z</time>
      </trkpt>
      <trkpt lat="44.07902" lon="6.3385">
        <ele>1607.94</ele>
        <time>2011-06-26T09:19:35Z</time>
      </trkpt>
      <trkpt lat="44.07903" lon="6.33849">
        <ele>1608.42</ele>
        <time>2011-06-26T09:19:36Z</time>
      </trkpt>
      <trkpt lat="44.07904" lon="6.33848">
        <ele>1609.38</ele>
        <time>2011-06-26T09:19:42Z</time>
      </trkpt>
      <trkpt lat="44.07909" lon="6.33851">
        <ele>1610.83</ele>
        <time>2011-06-26T09:19:55Z</time>
      </trkpt>
      <trkpt lat="44.07909" lon="6.33851">
        <ele>1612.27</ele>
        <time>2011-06-26T09:20:01Z</time>
      </trkpt>
      <trkpt lat="44.07913" lon="6.33852">
        <ele>1614.67</ele>
        <time>2011-06-26T09:20:21Z</time>
      </trkpt>
      <trkpt lat="44.07915" lon="6.33854">
        <ele>1616.59</ele>
        <time>2011-06-26T09:20:35Z</time>
      </trkpt>
      <trkpt lat="44.07915" lon="6.33854">
        <ele>1617.07</ele>
        <time>2011-06-26T09:20:45Z</time>
      </trkpt>
      <trkpt lat="44.07924" lon="6.33858">
        <ele>1619.48</ele>
        <time>2011-06-26T09:21:01Z</time>
      </trkpt>
      <trkpt lat="44.07928" lon="6.33859">
        <ele>1620.44</ele>
        <time>2011-06-26T09:21:04Z</time>
      </trkpt>
      <trkpt lat="44.07931" lon="6.3386">
        <ele>1620.92</ele>
        <time>2011-06-26T09:21:06Z</time>
      </trkpt>
      <trkpt lat="44.07944" lon="6.33862">
        <ele>1623.32</ele>
        <time>2011-06-26T09:21:20Z</time>
      </trkpt>
      <trkpt lat="44.07955" lon="6.33865">
        <ele>1625.73</ele>
        <time>2011-06-26T09:21:34Z</time>
      </trkpt>
      <trkpt lat="44.07959" lon="6.33865">
        <ele>1628.13</ele>
        <time>2011-06-26T09:21:49Z</time>
      </trkpt>
      <trkpt lat="44.07967" lon="6.33864">
        <ele>1629.09</ele>
        <time>2011-06-26T09:21:57Z</time>
      </trkpt>
      <trkpt lat="44.07967" lon="6.3387">
        <ele>1630.53</ele>
        <time>2011-06-26T09:22:09Z</time>
      </trkpt>
      <trkpt lat="44.07974" lon="6.33872">
        <ele>1633.9</ele>
        <time>2011-06-26T09:22:23Z</time>
      </trkpt>
      <trkpt lat="44.07983" lon="6.33874">
        <ele>1635.82</ele>
        <time>2011-06-26T09:22:36Z</time>
      </trkpt>
      <trkpt lat="44.07988" lon="6.33876">
        <ele>1637.26</ele>
        <time>2011-06-26T09:22:52Z</time>
      </trkpt>
      <trkpt lat="44.07991" lon="6.33877">
        <ele>1637.26</ele>
        <time>2011-06-26T09:23:12Z</time>
      </trkpt>
      <trkpt lat="44.08005" lon="6.33874">
        <ele>1635.34</ele>
        <time>2011-06-26T09:23:19Z</time>
      </trkpt>
      <trkpt lat="44.08019" lon="6.3387">
        <ele>1632.46</ele>
        <time>2011-06-26T09:23:25Z</time>
      </trkpt>
      <trkpt lat="44.0803" lon="6.33869">
        <ele>1629.57</ele>
        <time>2011-06-26T09:23:30Z</time>
      </trkpt>
      <trkpt lat="44.08052" lon="6.33872">
        <ele>1630.53</ele>
        <time>2011-06-26T09:23:43Z</time>
      </trkpt>
      <trkpt lat="44.08059" lon="6.33876">
        <ele>1633.9</ele>
        <time>2011-06-26T09:23:48Z</time>
      </trkpt>
      <trkpt lat="44.08082" lon="6.3389">
        <ele>1634.86</ele>
        <time>2011-06-26T09:24:00Z</time>
      </trkpt>
      <trkpt lat="44.08104" lon="6.33904">
        <ele>1636.3</ele>
        <time>2011-06-26T09:24:14Z</time>
      </trkpt>
      <trkpt lat="44.08115" lon="6.33913">
        <ele>1638.22</ele>
        <time>2011-06-26T09:24:27Z</time>
      </trkpt>
      <trkpt lat="44.08115" lon="6.33913">
        <ele>1637.74</ele>
        <time>2011-06-26T09:25:08Z</time>
      </trkpt>
      <trkpt lat="44.08115" lon="6.33913">
        <ele>1637.74</ele>
        <time>2011-06-26T09:25:11Z</time>
      </trkpt>
      <trkpt lat="44.08098" lon="6.33932">
        <ele>1633.9</ele>
        <time>2011-06-26T09:25:18Z</time>
      </trkpt>
      <trkpt lat="44.08092" lon="6.3394">
        <ele>1633.42</ele>
        <time>2011-06-26T09:25:20Z</time>
      </trkpt>
      <trkpt lat="44.08099" lon="6.33947">
        <ele>1630.05</ele>
        <time>2011-06-26T09:25:24Z</time>
      </trkpt>
      <trkpt lat="44.08103" lon="6.33948">
        <ele>1629.57</ele>
        <time>2011-06-26T09:25:25Z</time>
      </trkpt>
      <trkpt lat="44.08109" lon="6.33951">
        <ele>1628.13</ele>
        <time>2011-06-26T09:25:27Z</time>
      </trkpt>
      <trkpt lat="44.08129" lon="6.3395">
        <ele>1626.21</ele>
        <time>2011-06-26T09:25:31Z</time>
      </trkpt>
      <trkpt lat="44.08151" lon="6.33954">
        <ele>1621.88</ele>
        <time>2011-06-26T09:25:35Z</time>
      </trkpt>
      <trkpt lat="44.08174" lon="6.3396">
        <ele>1619</ele>
        <time>2011-06-26T09:25:40Z</time>
      </trkpt>
      <trkpt lat="44.08194" lon="6.33966">
        <ele>1615.63</ele>
        <time>2011-06-26T09:25:46Z</time>
      </trkpt>
      <trkpt lat="44.08214" lon="6.33976">
        <ele>1612.75</ele>
        <time>2011-06-26T09:25:51Z</time>
      </trkpt>
      <trkpt lat="44.08242" lon="6.33992">
        <ele>1609.38</ele>
        <time>2011-06-26T09:25:58Z</time>
      </trkpt>
      <trkpt lat="44.08245" lon="6.33996">
        <ele>1609.38</ele>
        <time>2011-06-26T09:25:59Z</time>
      </trkpt>
      <trkpt lat="44.08227" lon="6.34003">
        <ele>1605.54</ele>
        <time>2011-06-26T09:26:06Z</time>
      </trkpt>
      <trkpt lat="44.0821" lon="6.34011">
        <ele>1602.66</ele>
        <time>2011-06-26T09:26:09Z</time>
      </trkpt>
      <trkpt lat="44.08194" lon="6.34022">
        <ele>1599.29</ele>
        <time>2011-06-26T09:26:13Z</time>
      </trkpt>
      <trkpt lat="44.08194" lon="6.34023">
        <ele>1599.77</ele>
        <time>2011-06-26T09:26:14Z</time>
      </trkpt>
      <trkpt lat="44.08199" lon="6.34028">
        <ele>1597.85</ele>
        <time>2011-06-26T09:26:17Z</time>
      </trkpt>
      <trkpt lat="44.08201" lon="6.3403">
        <ele>1596.41</ele>
        <time>2011-06-26T09:26:18Z</time>
      </trkpt>
      <trkpt lat="44.08214" lon="6.34045">
        <ele>1593.04</ele>
        <time>2011-06-26T09:26:22Z</time>
      </trkpt>
      <trkpt lat="44.08234" lon="6.34055">
        <ele>1590.16</ele>
        <time>2011-06-26T09:26:27Z</time>
      </trkpt>
      <trkpt lat="44.08244" lon="6.34073">
        <ele>1586.79</ele>
        <time>2011-06-26T09:26:31Z</time>
      </trkpt>
      <trkpt lat="44.0825" lon="6.3408">
        <ele>1583.91</ele>
        <time>2011-06-26T09:26:33Z</time>
      </trkpt>
      <trkpt lat="44.08254" lon="6.34085">
        <ele>1583.91</ele>
        <time>2011-06-26T09:26:34Z</time>
      </trkpt>
      <trkpt lat="44.08265" lon="6.34104">
        <ele>1580.06</ele>
        <time>2011-06-26T09:26:38Z</time>
      </trkpt>
      <trkpt lat="44.08268" lon="6.34106">
        <ele>1580.54</ele>
        <time>2011-06-26T09:26:39Z</time>
      </trkpt>
      <trkpt lat="44.08306" lon="6.34104">
        <ele>1581.03</ele>
        <time>2011-06-26T09:26:51Z</time>
      </trkpt>
      <trkpt lat="44.08357" lon="6.34107">
        <ele>1581.51</ele>
        <time>2011-06-26T09:27:05Z</time>
      </trkpt>
      <trkpt lat="44.08396" lon="6.34109">
        <ele>1581.99</ele>
        <time>2011-06-26T09:27:17Z</time>
      </trkpt>
      <trkpt lat="44.08424" lon="6.34112">
        <ele>1582.47</ele>
        <time>2011-06-26T09:27:28Z</time>
      </trkpt>
      <trkpt lat="44.08447" lon="6.34118">
        <ele>1582.47</ele>
        <time>2011-06-26T09:27:40Z</time>
      </trkpt>
      <trkpt lat="44.08467" lon="6.34117">
        <ele>1582.47</ele>
        <time>2011-06-26T09:27:52Z</time>
      </trkpt>
      <trkpt lat="44.08484" lon="6.34113">
        <ele>1583.43</ele>
        <time>2011-06-26T09:28:04Z</time>
      </trkpt>
      <trkpt lat="44.08505" lon="6.34113">
        <ele>1583.91</ele>
        <time>2011-06-26T09:28:18Z</time>
      </trkpt>
      <trkpt lat="44.0853" lon="6.34114">
        <ele>1583.91</ele>
        <time>2011-06-26T09:28:32Z</time>
      </trkpt>
      <trkpt lat="44.08557" lon="6.34114">
        <ele>1584.39</ele>
        <time>2011-06-26T09:28:44Z</time>
      </trkpt>
      <trkpt lat="44.08578" lon="6.34114">
        <ele>1585.83</ele>
        <time>2011-06-26T09:28:57Z</time>
      </trkpt>
      <trkpt lat="44.08594" lon="6.34116">
        <ele>1586.31</ele>
        <time>2011-06-26T09:29:12Z</time>
      </trkpt>
      <trkpt lat="44.08604" lon="6.34115">
        <ele>1586.79</ele>
        <time>2011-06-26T09:29:23Z</time>
      </trkpt>
      <trkpt lat="44.08637" lon="6.34121">
        <ele>1587.75</ele>
        <time>2011-06-26T09:29:36Z</time>
      </trkpt>
      <trkpt lat="44.08679" lon="6.34121">
        <ele>1588.72</ele>
        <time>2011-06-26T09:29:51Z</time>
      </trkpt>
      <trkpt lat="44.08712" lon="6.34115">
        <ele>1590.64</ele>
        <time>2011-06-26T09:30:04Z</time>
      </trkpt>
      <trkpt lat="44.08743" lon="6.34112">
        <ele>1591.12</ele>
        <time>2011-06-26T09:30:16Z</time>
      </trkpt>
      <trkpt lat="44.08788" lon="6.34107">
        <ele>1592.56</ele>
        <time>2011-06-26T09:30:32Z</time>
      </trkpt>
      <trkpt lat="44.08829" lon="6.34105">
        <ele>1593.04</ele>
        <time>2011-06-26T09:30:47Z</time>
      </trkpt>
      <trkpt lat="44.08837" lon="6.34104">
        <ele>1594</ele>
        <time>2011-06-26T09:31:00Z</time>
      </trkpt>
      <trkpt lat="44.0886" lon="6.341">
        <ele>1594.48</ele>
        <time>2011-06-26T09:31:11Z</time>
      </trkpt>
      <trkpt lat="44.08895" lon="6.34096">
        <ele>1595.93</ele>
        <time>2011-06-26T09:31:24Z</time>
      </trkpt>
      <trkpt lat="44.08927" lon="6.34093">
        <ele>1596.41</ele>
        <time>2011-06-26T09:31:35Z</time>
      </trkpt>
      <trkpt lat="44.0897" lon="6.3409">
        <ele>1595.93</ele>
        <time>2011-06-26T09:31:48Z</time>
      </trkpt>
      <trkpt lat="44.09026" lon="6.3409">
        <ele>1594.96</ele>
        <time>2011-06-26T09:32:03Z</time>
      </trkpt>
      <trkpt lat="44.09072" lon="6.34091">
        <ele>1594</ele>
        <time>2011-06-26T09:32:16Z</time>
      </trkpt>
      <trkpt lat="44.09111" lon="6.34085">
        <ele>1595.45</ele>
        <time>2011-06-26T09:32:29Z</time>
      </trkpt>
      <trkpt lat="44.09143" lon="6.34091">
        <ele>1595.93</ele>
        <time>2011-06-26T09:32:41Z</time>
      </trkpt>
      <trkpt lat="44.09173" lon="6.34097">
        <ele>1595.93</ele>
        <time>2011-06-26T09:32:54Z</time>
      </trkpt>
      <trkpt lat="44.09191" lon="6.34096">
        <ele>1596.89</ele>
        <time>2011-06-26T09:33:03Z</time>
      </trkpt>
      <trkpt lat="44.09193" lon="6.34096">
        <ele>1596.89</ele>
        <time>2011-06-26T09:33:04Z</time>
      </trkpt>
      <trkpt lat="44.09195" lon="6.34096">
        <ele>1596.89</ele>
        <time>2011-06-26T09:33:05Z</time>
      </trkpt>
      <trkpt lat="44.09197" lon="6.34096">
        <ele>1597.37</ele>
        <time>2011-06-26T09:33:06Z</time>
      </trkpt>
      <trkpt lat="44.09199" lon="6.34097">
        <ele>1597.37</ele>
        <time>2011-06-26T09:33:07Z</time>
      </trkpt>
      <trkpt lat="44.09233" lon="6.34104">
        <ele>1597.85</ele>
        <time>2011-06-26T09:33:20Z</time>
      </trkpt>
      <trkpt lat="44.09277" lon="6.34114">
        <ele>1596.89</ele>
        <time>2011-06-26T09:33:33Z</time>
      </trkpt>
      <trkpt lat="44.09327" lon="6.34132">
        <ele>1596.41</ele>
        <time>2011-06-26T09:33:47Z</time>
      </trkpt>
      <trkpt lat="44.09364" lon="6.34156">
        <ele>1595.93</ele>
        <time>2011-06-26T09:34:00Z</time>
      </trkpt>
      <trkpt lat="44.09409" lon="6.3418">
        <ele>1593.04</ele>
        <time>2011-06-26T09:34:13Z</time>
      </trkpt>
      <trkpt lat="44.09421" lon="6.34189">
        <ele>1593.04</ele>
        <time>2011-06-26T09:34:16Z</time>
      </trkpt>
      <trkpt lat="44.09425" lon="6.34192">
        <ele>1592.56</ele>
        <time>2011-06-26T09:34:17Z</time>
      </trkpt>
      <trkpt lat="44.09429" lon="6.34196">
        <ele>1592.08</ele>
        <time>2011-06-26T09:34:18Z</time>
      </trkpt>
      <trkpt lat="44.09433" lon="6.34199">
        <ele>1592.08</ele>
        <time>2011-06-26T09:34:19Z</time>
      </trkpt>
      <trkpt lat="44.09437" lon="6.34202">
        <ele>1591.6</ele>
        <time>2011-06-26T09:34:20Z</time>
      </trkpt>
      <trkpt lat="44.09441" lon="6.34204">
        <ele>1591.6</ele>
        <time>2011-06-26T09:34:21Z</time>
      </trkpt>
      <trkpt lat="44.0948" lon="6.34228">
        <ele>1590.16</ele>
        <time>2011-06-26T09:34:35Z</time>
      </trkpt>
      <trkpt lat="44.09515" lon="6.34256">
        <ele>1589.68</ele>
        <time>2011-06-26T09:34:51Z</time>
      </trkpt>
      <trkpt lat="44.09546" lon="6.3428">
        <ele>1588.72</ele>
        <time>2011-06-26T09:35:04Z</time>
      </trkpt>
      <trkpt lat="44.09569" lon="6.34323">
        <ele>1587.75</ele>
        <time>2011-06-26T09:35:16Z</time>
      </trkpt>
      <trkpt lat="44.0956" lon="6.34357">
        <ele>1585.83</ele>
        <time>2011-06-26T09:35:23Z</time>
      </trkpt>
      <trkpt lat="44.09541" lon="6.34394">
        <ele>1584.39</ele>
        <time>2011-06-26T09:35:29Z</time>
      </trkpt>
      <trkpt lat="44.0953" lon="6.34427">
        <ele>1582.95</ele>
        <time>2011-06-26T09:35:34Z</time>
      </trkpt>
      <trkpt lat="44.09512" lon="6.34498">
        <ele>1580.06</ele>
        <time>2011-06-26T09:35:44Z</time>
      </trkpt>
      <trkpt lat="44.09499" lon="6.34553">
        <ele>1576.7</ele>
        <time>2011-06-26T09:35:51Z</time>
      </trkpt>
      <trkpt lat="44.0949" lon="6.34581">
        <ele>1573.33</ele>
        <time>2011-06-26T09:35:55Z</time>
      </trkpt>
      <trkpt lat="44.09484" lon="6.34601">
        <ele>1570.45</ele>
        <time>2011-06-26T09:35:58Z</time>
      </trkpt>
      <trkpt lat="44.09478" lon="6.34618">
        <ele>1568.05</ele>
        <time>2011-06-26T09:36:01Z</time>
      </trkpt>
      <trkpt lat="44.09472" lon="6.34637">
        <ele>1565.16</ele>
        <time>2011-06-26T09:36:04Z</time>
      </trkpt>
      <trkpt lat="44.09464" lon="6.34659">
        <ele>1561.8</ele>
        <time>2011-06-26T09:36:08Z</time>
      </trkpt>
      <trkpt lat="44.09458" lon="6.34687">
        <ele>1558.43</ele>
        <time>2011-06-26T09:36:13Z</time>
      </trkpt>
      <trkpt lat="44.09456" lon="6.34693">
        <ele>1557.95</ele>
        <time>2011-06-26T09:36:14Z</time>
      </trkpt>
      <trkpt lat="44.09447" lon="6.34717">
        <ele>1554.59</ele>
        <time>2011-06-26T09:36:18Z</time>
      </trkpt>
      <trkpt lat="44.09444" lon="6.34724">
        <ele>1554.11</ele>
        <time>2011-06-26T09:36:19Z</time>
      </trkpt>
      <trkpt lat="44.09441" lon="6.34731">
        <ele>1553.63</ele>
        <time>2011-06-26T09:36:20Z</time>
      </trkpt>
      <trkpt lat="44.0944" lon="6.34737">
        <ele>1552.19</ele>
        <time>2011-06-26T09:36:21Z</time>
      </trkpt>
      <trkpt lat="44.09438" lon="6.34744">
        <ele>1552.19</ele>
        <time>2011-06-26T09:36:22Z</time>
      </trkpt>
      <trkpt lat="44.0943" lon="6.34767">
        <ele>1548.82</ele>
        <time>2011-06-26T09:36:26Z</time>
      </trkpt>
      <trkpt lat="44.09427" lon="6.3478">
        <ele>1547.38</ele>
        <time>2011-06-26T09:36:28Z</time>
      </trkpt>
      <trkpt lat="44.09424" lon="6.34798">
        <ele>1544.98</ele>
        <time>2011-06-26T09:36:31Z</time>
      </trkpt>
      <trkpt lat="44.09422" lon="6.34804">
        <ele>1544.98</ele>
        <time>2011-06-26T09:36:32Z</time>
      </trkpt>
      <trkpt lat="44.09422" lon="6.34811">
        <ele>1544.01</ele>
        <time>2011-06-26T09:36:33Z</time>
      </trkpt>
      <trkpt lat="44.09421" lon="6.34818">
        <ele>1544.01</ele>
        <time>2011-06-26T09:36:34Z</time>
      </trkpt>
      <trkpt lat="44.09425" lon="6.34842">
        <ele>1541.13</ele>
        <time>2011-06-26T09:36:39Z</time>
      </trkpt>
      <trkpt lat="44.09425" lon="6.34848">
        <ele>1541.13</ele>
        <time>2011-06-26T09:36:40Z</time>
      </trkpt>
      <trkpt lat="44.09425" lon="6.34853">
        <ele>1541.13</ele>
        <time>2011-06-26T09:36:41Z</time>
      </trkpt>
      <trkpt lat="44.09424" lon="6.34858">
        <ele>1540.65</ele>
        <time>2011-06-26T09:36:42Z</time>
      </trkpt>
      <trkpt lat="44.09423" lon="6.34864">
        <ele>1540.17</ele>
        <time>2011-06-26T09:36:43Z</time>
      </trkpt>
      <trkpt lat="44.09421" lon="6.34877">
        <ele>1539.21</ele>
        <time>2011-06-26T09:36:45Z</time>
      </trkpt>
      <trkpt lat="44.0942" lon="6.34891">
        <ele>1537.77</ele>
        <time>2011-06-26T09:36:47Z</time>
      </trkpt>
      <trkpt lat="44.09421" lon="6.34897">
        <ele>1537.29</ele>
        <time>2011-06-26T09:36:48Z</time>
      </trkpt>
      <trkpt lat="44.09421" lon="6.34902">
        <ele>1536.32</ele>
        <time>2011-06-26T09:36:49Z</time>
      </trkpt>
      <trkpt lat="44.09421" lon="6.34909">
        <ele>1535.36</ele>
        <time>2011-06-26T09:36:50Z</time>
      </trkpt>
      <trkpt lat="44.09422" lon="6.34914">
        <ele>1534.88</ele>
        <time>2011-06-26T09:36:51Z</time>
      </trkpt>
      <trkpt lat="44.09422" lon="6.3492">
        <ele>1533.92</ele>
        <time>2011-06-26T09:36:52Z</time>
      </trkpt>
      <trkpt lat="44.09425" lon="6.34941">
        <ele>1532</ele>
        <time>2011-06-26T09:36:57Z</time>
      </trkpt>
      <trkpt lat="44.09432" lon="6.34949">
        <ele>1530.56</ele>
        <time>2011-06-26T09:37:01Z</time>
      </trkpt>
      <trkpt lat="44.09433" lon="6.34951">
        <ele>1530.08</ele>
        <time>2011-06-26T09:37:02Z</time>
      </trkpt>
      <trkpt lat="44.09432" lon="6.34954">
        <ele>1530.08</ele>
        <time>2011-06-26T09:37:03Z</time>
      </trkpt>
      <trkpt lat="44.09427" lon="6.34978">
        <ele>1526.71</ele>
        <time>2011-06-26T09:37:08Z</time>
      </trkpt>
      <trkpt lat="44.09424" lon="6.34985">
        <ele>1526.23</ele>
        <time>2011-06-26T09:37:09Z</time>
      </trkpt>
      <trkpt lat="44.09422" lon="6.34992">
        <ele>1525.27</ele>
        <time>2011-06-26T09:37:10Z</time>
      </trkpt>
      <trkpt lat="44.09421" lon="6.34999">
        <ele>1524.31</ele>
        <time>2011-06-26T09:37:11Z</time>
      </trkpt>
      <trkpt lat="44.0942" lon="6.35007">
        <ele>1523.83</ele>
        <time>2011-06-26T09:37:12Z</time>
      </trkpt>
      <trkpt lat="44.0942" lon="6.35015">
        <ele>1522.87</ele>
        <time>2011-06-26T09:37:13Z</time>
      </trkpt>
      <trkpt lat="44.0942" lon="6.35022">
        <ele>1522.39</ele>
        <time>2011-06-26T09:37:14Z</time>
      </trkpt>
      <trkpt lat="44.0942" lon="6.35044">
        <ele>1520.46</ele>
        <time>2011-06-26T09:37:18Z</time>
      </trkpt>
      <trkpt lat="44.09419" lon="6.3505">
        <ele>1519.5</ele>
        <time>2011-06-26T09:37:19Z</time>
      </trkpt>
      <trkpt lat="44.09417" lon="6.35057">
        <ele>1519.02</ele>
        <time>2011-06-26T09:37:20Z</time>
      </trkpt>
      <trkpt lat="44.09415" lon="6.35062">
        <ele>1518.54</ele>
        <time>2011-06-26T09:37:21Z</time>
      </trkpt>
      <trkpt lat="44.09413" lon="6.35066">
        <ele>1518.06</ele>
        <time>2011-06-26T09:37:22Z</time>
      </trkpt>
      <trkpt lat="44.09411" lon="6.35071">
        <ele>1517.58</ele>
        <time>2011-06-26T09:37:23Z</time>
      </trkpt>
      <trkpt lat="44.09409" lon="6.35075">
        <ele>1516.62</ele>
        <time>2011-06-26T09:37:24Z</time>
      </trkpt>
      <trkpt lat="44.09407" lon="6.35078">
        <ele>1516.14</ele>
        <time>2011-06-26T09:37:25Z</time>
      </trkpt>
      <trkpt lat="44.09406" lon="6.35083">
        <ele>1515.66</ele>
        <time>2011-06-26T09:37:26Z</time>
      </trkpt>
      <trkpt lat="44.09405" lon="6.35088">
        <ele>1515.18</ele>
        <time>2011-06-26T09:37:27Z</time>
      </trkpt>
      <trkpt lat="44.09404" lon="6.35095">
        <ele>1514.69</ele>
        <time>2011-06-26T09:37:28Z</time>
      </trkpt>
      <trkpt lat="44.09404" lon="6.35102">
        <ele>1513.73</ele>
        <time>2011-06-26T09:37:29Z</time>
      </trkpt>
      <trkpt lat="44.09404" lon="6.35108">
        <ele>1513.25</ele>
        <time>2011-06-26T09:37:30Z</time>
      </trkpt>
      <trkpt lat="44.09406" lon="6.35146">
        <ele>1510.37</ele>
        <time>2011-06-26T09:37:39Z</time>
      </trkpt>
      <trkpt lat="44.09407" lon="6.35198">
        <ele>1506.52</ele>
        <time>2011-06-26T09:37:46Z</time>
      </trkpt>
      <trkpt lat="44.09407" lon="6.35207">
        <ele>1506.04</ele>
        <time>2011-06-26T09:37:47Z</time>
      </trkpt>
      <trkpt lat="44.09405" lon="6.35216">
        <ele>1505.08</ele>
        <time>2011-06-26T09:37:48Z</time>
      </trkpt>
      <trkpt lat="44.09404" lon="6.35224">
        <ele>1504.6</ele>
        <time>2011-06-26T09:37:49Z</time>
      </trkpt>
      <trkpt lat="44.09402" lon="6.3526">
        <ele>1501.24</ele>
        <time>2011-06-26T09:37:53Z</time>
      </trkpt>
      <trkpt lat="44.09402" lon="6.35268">
        <ele>1500.27</ele>
        <time>2011-06-26T09:37:54Z</time>
      </trkpt>
      <trkpt lat="44.09403" lon="6.35275">
        <ele>1499.79</ele>
        <time>2011-06-26T09:37:55Z</time>
      </trkpt>
      <trkpt lat="44.09404" lon="6.35282">
        <ele>1499.31</ele>
        <time>2011-06-26T09:37:56Z</time>
      </trkpt>
      <trkpt lat="44.09406" lon="6.35289">
        <ele>1498.83</ele>
        <time>2011-06-26T09:37:57Z</time>
      </trkpt>
      <trkpt lat="44.09408" lon="6.35295">
        <ele>1498.35</ele>
        <time>2011-06-26T09:37:58Z</time>
      </trkpt>
      <trkpt lat="44.0941" lon="6.35301">
        <ele>1497.87</ele>
        <time>2011-06-26T09:37:59Z</time>
      </trkpt>
      <trkpt lat="44.09419" lon="6.35328">
        <ele>1495.95</ele>
        <time>2011-06-26T09:38:03Z</time>
      </trkpt>
      <trkpt lat="44.09421" lon="6.35335">
        <ele>1495.47</ele>
        <time>2011-06-26T09:38:04Z</time>
      </trkpt>
      <trkpt lat="44.09422" lon="6.35344">
        <ele>1494.99</ele>
        <time>2011-06-26T09:38:05Z</time>
      </trkpt>
      <trkpt lat="44.09423" lon="6.35357">
        <ele>1494.51</ele>
        <time>2011-06-26T09:38:07Z</time>
      </trkpt>
      <trkpt lat="44.09423" lon="6.35363">
        <ele>1494.03</ele>
        <time>2011-06-26T09:38:08Z</time>
      </trkpt>
      <trkpt lat="44.09421" lon="6.35366">
        <ele>1493.55</ele>
        <time>2011-06-26T09:38:09Z</time>
      </trkpt>
      <trkpt lat="44.09418" lon="6.35369">
        <ele>1493.55</ele>
        <time>2011-06-26T09:38:10Z</time>
      </trkpt>
      <trkpt lat="44.09414" lon="6.35373">
        <ele>1493.55</ele>
        <time>2011-06-26T09:38:11Z</time>
      </trkpt>
      <trkpt lat="44.09411" lon="6.35377">
        <ele>1493.06</ele>
        <time>2011-06-26T09:38:12Z</time>
      </trkpt>
      <trkpt lat="44.09408" lon="6.35382">
        <ele>1493.06</ele>
        <time>2011-06-26T09:38:13Z</time>
      </trkpt>
      <trkpt lat="44.09405" lon="6.35388">
        <ele>1492.58</ele>
        <time>2011-06-26T09:38:14Z</time>
      </trkpt>
      <trkpt lat="44.09389" lon="6.35417">
        <ele>1490.66</ele>
        <time>2011-06-26T09:38:19Z</time>
      </trkpt>
      <trkpt lat="44.09359" lon="6.35503">
        <ele>1488.26</ele>
        <time>2011-06-26T09:38:31Z</time>
      </trkpt>
      <trkpt lat="44.09354" lon="6.35514">
        <ele>1487.78</ele>
        <time>2011-06-26T09:38:33Z</time>
      </trkpt>
      <trkpt lat="44.09341" lon="6.35541">
        <ele>1486.82</ele>
        <time>2011-06-26T09:38:38Z</time>
      </trkpt>
      <trkpt lat="44.09327" lon="6.35561">
        <ele>1486.34</ele>
        <time>2011-06-26T09:38:42Z</time>
      </trkpt>
      <trkpt lat="44.09323" lon="6.35567">
        <ele>1485.85</ele>
        <time>2011-06-26T09:38:43Z</time>
      </trkpt>
      <trkpt lat="44.09319" lon="6.35573">
        <ele>1485.37</ele>
        <time>2011-06-26T09:38:44Z</time>
      </trkpt>
      <trkpt lat="44.09315" lon="6.3558">
        <ele>1485.37</ele>
        <time>2011-06-26T09:38:45Z</time>
      </trkpt>
      <trkpt lat="44.09311" lon="6.35586">
        <ele>1484.89</ele>
        <time>2011-06-26T09:38:46Z</time>
      </trkpt>
      <trkpt lat="44.09308" lon="6.35593">
        <ele>1484.89</ele>
        <time>2011-06-26T09:38:47Z</time>
      </trkpt>
      <trkpt lat="44.09305" lon="6.356">
        <ele>1484.89</ele>
        <time>2011-06-26T09:38:48Z</time>
      </trkpt>
      <trkpt lat="44.09295" lon="6.3562">
        <ele>1483.93</ele>
        <time>2011-06-26T09:38:51Z</time>
      </trkpt>
      <trkpt lat="44.09291" lon="6.35627">
        <ele>1483.93</ele>
        <time>2011-06-26T09:38:52Z</time>
      </trkpt>
      <trkpt lat="44.09283" lon="6.35639">
        <ele>1482.97</ele>
        <time>2011-06-26T09:38:54Z</time>
      </trkpt>
      <trkpt lat="44.09277" lon="6.35653">
        <ele>1482.97</ele>
        <time>2011-06-26T09:38:56Z</time>
      </trkpt>
      <trkpt lat="44.09262" lon="6.35698">
        <ele>1481.05</ele>
        <time>2011-06-26T09:39:02Z</time>
      </trkpt>
      <trkpt lat="44.0923" lon="6.35786">
        <ele>1478.16</ele>
        <time>2011-06-26T09:39:12Z</time>
      </trkpt>
      <trkpt lat="44.09222" lon="6.35803">
        <ele>1476.72</ele>
        <time>2011-06-26T09:39:14Z</time>
      </trkpt>
      <trkpt lat="44.09208" lon="6.35847">
        <ele>1475.28</ele>
        <time>2011-06-26T09:39:19Z</time>
      </trkpt>
      <trkpt lat="44.09207" lon="6.35857">
        <ele>1474.8</ele>
        <time>2011-06-26T09:39:20Z</time>
      </trkpt>
      <trkpt lat="44.09207" lon="6.35866">
        <ele>1474.32</ele>
        <time>2011-06-26T09:39:21Z</time>
      </trkpt>
      <trkpt lat="44.09207" lon="6.35875">
        <ele>1474.32</ele>
        <time>2011-06-26T09:39:22Z</time>
      </trkpt>
      <trkpt lat="44.09207" lon="6.35883">
        <ele>1473.84</ele>
        <time>2011-06-26T09:39:23Z</time>
      </trkpt>
      <trkpt lat="44.09207" lon="6.35894">
        <ele>1472.88</ele>
        <time>2011-06-26T09:39:24Z</time>
      </trkpt>
      <trkpt lat="44.09206" lon="6.35914">
        <ele>1471.92</ele>
        <time>2011-06-26T09:39:26Z</time>
      </trkpt>
      <trkpt lat="44.09206" lon="6.35933">
        <ele>1471.44</ele>
        <time>2011-06-26T09:39:28Z</time>
      </trkpt>
      <trkpt lat="44.09204" lon="6.35941">
        <ele>1470.95</ele>
        <time>2011-06-26T09:39:29Z</time>
      </trkpt>
      <trkpt lat="44.09202" lon="6.35949">
        <ele>1470.95</ele>
        <time>2011-06-26T09:39:30Z</time>
      </trkpt>
      <trkpt lat="44.09195" lon="6.35963">
        <ele>1469.51</ele>
        <time>2011-06-26T09:39:32Z</time>
      </trkpt>
      <trkpt lat="44.0919" lon="6.3597">
        <ele>1469.51</ele>
        <time>2011-06-26T09:39:33Z</time>
      </trkpt>
      <trkpt lat="44.09187" lon="6.35976">
        <ele>1468.55</ele>
        <time>2011-06-26T09:39:34Z</time>
      </trkpt>
      <trkpt lat="44.09185" lon="6.35983">
        <ele>1467.59</ele>
        <time>2011-06-26T09:39:35Z</time>
      </trkpt>
      <trkpt lat="44.09184" lon="6.3599">
        <ele>1467.59</ele>
        <time>2011-06-26T09:39:36Z</time>
      </trkpt>
      <trkpt lat="44.09183" lon="6.35997">
        <ele>1467.11</ele>
        <time>2011-06-26T09:39:37Z</time>
      </trkpt>
      <trkpt lat="44.09182" lon="6.36005">
        <ele>1467.11</ele>
        <time>2011-06-26T09:39:38Z</time>
      </trkpt>
      <trkpt lat="44.09165" lon="6.36069">
        <ele>1463.74</ele>
        <time>2011-06-26T09:39:46Z</time>
      </trkpt>
      <trkpt lat="44.09164" lon="6.36077">
        <ele>1463.74</ele>
        <time>2011-06-26T09:39:47Z</time>
      </trkpt>
      <trkpt lat="44.09164" lon="6.36085">
        <ele>1463.74</ele>
        <time>2011-06-26T09:39:48Z</time>
      </trkpt>
      <trkpt lat="44.09164" lon="6.36091">
        <ele>1464.23</ele>
        <time>2011-06-26T09:39:49Z</time>
      </trkpt>
      <trkpt lat="44.09166" lon="6.36096">
        <ele>1464.23</ele>
        <time>2011-06-26T09:39:50Z</time>
      </trkpt>
      <trkpt lat="44.09168" lon="6.361">
        <ele>1464.71</ele>
        <time>2011-06-26T09:39:51Z</time>
      </trkpt>
      <trkpt lat="44.09169" lon="6.36103">
        <ele>1465.19</ele>
        <time>2011-06-26T09:39:52Z</time>
      </trkpt>
      <trkpt lat="44.09171" lon="6.36107">
        <ele>1465.19</ele>
        <time>2011-06-26T09:39:53Z</time>
      </trkpt>
      <trkpt lat="44.09172" lon="6.3611">
        <ele>1465.67</ele>
        <time>2011-06-26T09:39:54Z</time>
      </trkpt>
      <trkpt lat="44.09172" lon="6.36114">
        <ele>1466.15</ele>
        <time>2011-06-26T09:39:55Z</time>
      </trkpt>
      <trkpt lat="44.09173" lon="6.36117">
        <ele>1466.63</ele>
        <time>2011-06-26T09:39:56Z</time>
      </trkpt>
      <trkpt lat="44.09174" lon="6.3612">
        <ele>1466.63</ele>
        <time>2011-06-26T09:39:57Z</time>
      </trkpt>
      <trkpt lat="44.09174" lon="6.36123">
        <ele>1466.63</ele>
        <time>2011-06-26T09:39:58Z</time>
      </trkpt>
      <trkpt lat="44.09175" lon="6.36126">
        <ele>1467.11</ele>
        <time>2011-06-26T09:39:59Z</time>
      </trkpt>
      <trkpt lat="44.09176" lon="6.36129">
        <ele>1467.11</ele>
        <time>2011-06-26T09:40:00Z</time>
      </trkpt>
      <trkpt lat="44.09181" lon="6.36165">
        <ele>1470.47</ele>
        <time>2011-06-26T09:40:13Z</time>
      </trkpt>
      <trkpt lat="44.09173" lon="6.36202">
        <ele>1473.84</ele>
        <time>2011-06-26T09:40:27Z</time>
      </trkpt>
      <trkpt lat="44.09174" lon="6.36245">
        <ele>1475.76</ele>
        <time>2011-06-26T09:40:41Z</time>
      </trkpt>
      <trkpt lat="44.09176" lon="6.36254">
        <ele>1479.61</ele>
        <time>2011-06-26T09:40:44Z</time>
      </trkpt>
      <trkpt lat="44.09176" lon="6.36257">
        <ele>1474.8</ele>
        <time>2011-06-26T09:40:45Z</time>
      </trkpt>
      <trkpt lat="44.09177" lon="6.3626">
        <ele>1478.16</ele>
        <time>2011-06-26T09:40:46Z</time>
      </trkpt>
      <trkpt lat="44.09188" lon="6.36295">
        <ele>1480.09</ele>
        <time>2011-06-26T09:40:59Z</time>
      </trkpt>
      <trkpt lat="44.09204" lon="6.36333">
        <ele>1482.97</ele>
        <time>2011-06-26T09:41:15Z</time>
      </trkpt>
      <trkpt lat="44.09225" lon="6.36361">
        <ele>1485.85</ele>
        <time>2011-06-26T09:41:31Z</time>
      </trkpt>
      <trkpt lat="44.09239" lon="6.36394">
        <ele>1489.22</ele>
        <time>2011-06-26T09:41:46Z</time>
      </trkpt>
      <trkpt lat="44.09241" lon="6.36429">
        <ele>1492.1</ele>
        <time>2011-06-26T09:42:00Z</time>
      </trkpt>
      <trkpt lat="44.09249" lon="6.36469">
        <ele>1494.99</ele>
        <time>2011-06-26T09:42:16Z</time>
      </trkpt>
      <trkpt lat="44.09254" lon="6.365">
        <ele>1498.35</ele>
        <time>2011-06-26T09:42:29Z</time>
      </trkpt>
      <trkpt lat="44.09263" lon="6.36536">
        <ele>1501.24</ele>
        <time>2011-06-26T09:42:45Z</time>
      </trkpt>
      <trkpt lat="44.09266" lon="6.36564">
        <ele>1504.6</ele>
        <time>2011-06-26T09:42:57Z</time>
      </trkpt>
      <trkpt lat="44.09267" lon="6.36598">
        <ele>1507</ele>
        <time>2011-06-26T09:43:12Z</time>
      </trkpt>
      <trkpt lat="44.09264" lon="6.36633">
        <ele>1509.41</ele>
        <time>2011-06-26T09:43:27Z</time>
      </trkpt>
      <trkpt lat="44.0926" lon="6.3667">
        <ele>1511.81</ele>
        <time>2011-06-26T09:43:43Z</time>
      </trkpt>
      <trkpt lat="44.09265" lon="6.36673">
        <ele>1512.29</ele>
        <time>2011-06-26T09:43:46Z</time>
      </trkpt>
      <trkpt lat="44.09267" lon="6.36673">
        <ele>1512.77</ele>
        <time>2011-06-26T09:43:47Z</time>
      </trkpt>
      <trkpt lat="44.09269" lon="6.36672">
        <ele>1513.25</ele>
        <time>2011-06-26T09:43:48Z</time>
      </trkpt>
      <trkpt lat="44.09295" lon="6.36644">
        <ele>1513.73</ele>
        <time>2011-06-26T09:44:02Z</time>
      </trkpt>
      <trkpt lat="44.0932" lon="6.36612">
        <ele>1515.66</ele>
        <time>2011-06-26T09:44:17Z</time>
      </trkpt>
      <trkpt lat="44.09352" lon="6.36572">
        <ele>1518.06</ele>
        <time>2011-06-26T09:44:34Z</time>
      </trkpt>
      <trkpt lat="44.09382" lon="6.36541">
        <ele>1519.98</ele>
        <time>2011-06-26T09:44:50Z</time>
      </trkpt>
      <trkpt lat="44.09408" lon="6.36515">
        <ele>1521.42</ele>
        <time>2011-06-26T09:45:03Z</time>
      </trkpt>
      <trkpt lat="44.09409" lon="6.36513">
        <ele>1518.06</ele>
        <time>2011-06-26T09:45:04Z</time>
      </trkpt>
      <trkpt lat="44.09411" lon="6.36511">
        <ele>1521.42</ele>
        <time>2011-06-26T09:45:05Z</time>
      </trkpt>
      <trkpt lat="44.09439" lon="6.36477">
        <ele>1523.35</ele>
        <time>2011-06-26T09:45:20Z</time>
      </trkpt>
      <trkpt lat="44.0947" lon="6.36434">
        <ele>1525.27</ele>
        <time>2011-06-26T09:45:38Z</time>
      </trkpt>
      <trkpt lat="44.09494" lon="6.36401">
        <ele>1528.15</ele>
        <time>2011-06-26T09:45:53Z</time>
      </trkpt>
      <trkpt lat="44.09525" lon="6.36365">
        <ele>1530.56</ele>
        <time>2011-06-26T09:46:10Z</time>
      </trkpt>
      <trkpt lat="44.09532" lon="6.36323">
        <ele>1532</ele>
        <time>2011-06-26T09:46:23Z</time>
      </trkpt>
      <trkpt lat="44.09558" lon="6.36298">
        <ele>1533.92</ele>
        <time>2011-06-26T09:46:37Z</time>
      </trkpt>
      <trkpt lat="44.09591" lon="6.36295">
        <ele>1535.84</ele>
        <time>2011-06-26T09:46:51Z</time>
      </trkpt>
      <trkpt lat="44.09625" lon="6.36285">
        <ele>1538.25</ele>
        <time>2011-06-26T09:47:06Z</time>
      </trkpt>
      <trkpt lat="44.09651" lon="6.36259">
        <ele>1540.65</ele>
        <time>2011-06-26T09:47:21Z</time>
      </trkpt>
      <trkpt lat="44.09683" lon="6.36239">
        <ele>1542.09</ele>
        <time>2011-06-26T09:47:35Z</time>
      </trkpt>
      <trkpt lat="44.09708" lon="6.36203">
        <ele>1545.46</ele>
        <time>2011-06-26T09:47:51Z</time>
      </trkpt>
      <trkpt lat="44.09736" lon="6.36196">
        <ele>1547.38</ele>
        <time>2011-06-26T09:48:04Z</time>
      </trkpt>
      <trkpt lat="44.09761" lon="6.36163">
        <ele>1550.26</ele>
        <time>2011-06-26T09:48:19Z</time>
      </trkpt>
      <trkpt lat="44.09785" lon="6.36136">
        <ele>1553.63</ele>
        <time>2011-06-26T09:48:33Z</time>
      </trkpt>
      <trkpt lat="44.09817" lon="6.36119">
        <ele>1555.55</ele>
        <time>2011-06-26T09:48:48Z</time>
      </trkpt>
      <trkpt lat="44.09846" lon="6.36096">
        <ele>1558.92</ele>
        <time>2011-06-26T09:49:03Z</time>
      </trkpt>
      <trkpt lat="44.09872" lon="6.36075">
        <ele>1561.32</ele>
        <time>2011-06-26T09:49:18Z</time>
      </trkpt>
      <trkpt lat="44.09902" lon="6.36051">
        <ele>1564.68</ele>
        <time>2011-06-26T09:49:35Z</time>
      </trkpt>
      <trkpt lat="44.0993" lon="6.36036">
        <ele>1567.57</ele>
        <time>2011-06-26T09:49:50Z</time>
      </trkpt>
      <trkpt lat="44.09958" lon="6.36037">
        <ele>1570.93</ele>
        <time>2011-06-26T09:50:04Z</time>
      </trkpt>
      <trkpt lat="44.09983" lon="6.3602">
        <ele>1573.33</ele>
        <time>2011-06-26T09:50:18Z</time>
      </trkpt>
      <trkpt lat="44.10008" lon="6.35976">
        <ele>1575.74</ele>
        <time>2011-06-26T09:50:36Z</time>
      </trkpt>
      <trkpt lat="44.10032" lon="6.35944">
        <ele>1578.62</ele>
        <time>2011-06-26T09:50:51Z</time>
      </trkpt>
      <trkpt lat="44.10061" lon="6.35922">
        <ele>1581.51</ele>
        <time>2011-06-26T09:51:06Z</time>
      </trkpt>
      <trkpt lat="44.10079" lon="6.35896">
        <ele>1584.87</ele>
        <time>2011-06-26T09:51:19Z</time>
      </trkpt>
      <trkpt lat="44.10099" lon="6.35876">
        <ele>1588.24</ele>
        <time>2011-06-26T09:51:33Z</time>
      </trkpt>
      <trkpt lat="44.10121" lon="6.35877">
        <ele>1590.16</ele>
        <time>2011-06-26T09:51:46Z</time>
      </trkpt>
      <trkpt lat="44.10147" lon="6.35868">
        <ele>1593.04</ele>
        <time>2011-06-26T09:52:01Z</time>
      </trkpt>
      <trkpt lat="44.10172" lon="6.35856">
        <ele>1596.41</ele>
        <time>2011-06-26T09:52:16Z</time>
      </trkpt>
      <trkpt lat="44.10194" lon="6.35844">
        <ele>1599.77</ele>
        <time>2011-06-26T09:52:29Z</time>
      </trkpt>
      <trkpt lat="44.1021" lon="6.35824">
        <ele>1602.17</ele>
        <time>2011-06-26T09:52:43Z</time>
      </trkpt>
      <trkpt lat="44.10235" lon="6.35823">
        <ele>1605.54</ele>
        <time>2011-06-26T09:52:58Z</time>
      </trkpt>
      <trkpt lat="44.10267" lon="6.35827">
        <ele>1607.94</ele>
        <time>2011-06-26T09:53:16Z</time>
      </trkpt>
      <trkpt lat="44.10292" lon="6.35821">
        <ele>1611.31</ele>
        <time>2011-06-26T09:53:31Z</time>
      </trkpt>
      <trkpt lat="44.10311" lon="6.35807">
        <ele>1614.19</ele>
        <time>2011-06-26T09:53:44Z</time>
      </trkpt>
      <trkpt lat="44.10333" lon="6.35795">
        <ele>1616.11</ele>
        <time>2011-06-26T09:53:58Z</time>
      </trkpt>
      <trkpt lat="44.10356" lon="6.35782">
        <ele>1619.48</ele>
        <time>2011-06-26T09:54:13Z</time>
      </trkpt>
      <trkpt lat="44.1038" lon="6.35762">
        <ele>1621.88</ele>
        <time>2011-06-26T09:54:28Z</time>
      </trkpt>
      <trkpt lat="44.10401" lon="6.35747">
        <ele>1624.77</ele>
        <time>2011-06-26T09:54:42Z</time>
      </trkpt>
      <trkpt lat="44.10423" lon="6.35729">
        <ele>1628.13</ele>
        <time>2011-06-26T09:54:57Z</time>
      </trkpt>
      <trkpt lat="44.10451" lon="6.35704">
        <ele>1631.01</ele>
        <time>2011-06-26T09:55:14Z</time>
      </trkpt>
      <trkpt lat="44.10475" lon="6.35713">
        <ele>1631.98</ele>
        <time>2011-06-26T09:55:26Z</time>
      </trkpt>
      <trkpt lat="44.10508" lon="6.35742">
        <ele>1632.46</ele>
        <time>2011-06-26T09:55:42Z</time>
      </trkpt>
      <trkpt lat="44.10541" lon="6.35779">
        <ele>1632.46</ele>
        <time>2011-06-26T09:55:57Z</time>
      </trkpt>
      <trkpt lat="44.10578" lon="6.35825">
        <ele>1631.49</ele>
        <time>2011-06-26T09:56:11Z</time>
      </trkpt>
      <trkpt lat="44.10615" lon="6.35843">
        <ele>1629.57</ele>
        <time>2011-06-26T09:56:23Z</time>
      </trkpt>
      <trkpt lat="44.10636" lon="6.35835">
        <ele>1626.21</ele>
        <time>2011-06-26T09:56:28Z</time>
      </trkpt>
      <trkpt lat="44.10649" lon="6.35829">
        <ele>1622.84</ele>
        <time>2011-06-26T09:56:32Z</time>
      </trkpt>
      <trkpt lat="44.1066" lon="6.35832">
        <ele>1619.48</ele>
        <time>2011-06-26T09:56:35Z</time>
      </trkpt>
      <trkpt lat="44.10671" lon="6.35838">
        <ele>1616.11</ele>
        <time>2011-06-26T09:56:38Z</time>
      </trkpt>
      <trkpt lat="44.10683" lon="6.3584">
        <ele>1612.27</ele>
        <time>2011-06-26T09:56:42Z</time>
      </trkpt>
      <trkpt lat="44.10695" lon="6.35837">
        <ele>1608.9</ele>
        <time>2011-06-26T09:56:46Z</time>
      </trkpt>
      <trkpt lat="44.10698" lon="6.35836">
        <ele>1608.42</ele>
        <time>2011-06-26T09:56:47Z</time>
      </trkpt>
      <trkpt lat="44.10718" lon="6.35818">
        <ele>1605.54</ele>
        <time>2011-06-26T09:56:55Z</time>
      </trkpt>
      <trkpt lat="44.10732" lon="6.35795">
        <ele>1602.17</ele>
        <time>2011-06-26T09:57:01Z</time>
      </trkpt>
      <trkpt lat="44.10735" lon="6.35792">
        <ele>1602.17</ele>
        <time>2011-06-26T09:57:02Z</time>
      </trkpt>
      <trkpt lat="44.10746" lon="6.35778">
        <ele>1598.33</ele>
        <time>2011-06-26T09:57:05Z</time>
      </trkpt>
      <trkpt lat="44.10768" lon="6.35746">
        <ele>1595.45</ele>
        <time>2011-06-26T09:57:10Z</time>
      </trkpt>
      <trkpt lat="44.10785" lon="6.35716">
        <ele>1592.08</ele>
        <time>2011-06-26T09:57:14Z</time>
      </trkpt>
      <trkpt lat="44.10807" lon="6.35685">
        <ele>1588.72</ele>
        <time>2011-06-26T09:57:21Z</time>
      </trkpt>
      <trkpt lat="44.1081" lon="6.35682">
        <ele>1588.24</ele>
        <time>2011-06-26T09:57:22Z</time>
      </trkpt>
      <trkpt lat="44.10816" lon="6.35672">
        <ele>1586.79</ele>
        <time>2011-06-26T09:57:25Z</time>
      </trkpt>
      <trkpt lat="44.10819" lon="6.35669">
        <ele>1586.31</ele>
        <time>2011-06-26T09:57:26Z</time>
      </trkpt>
      <trkpt lat="44.1082" lon="6.35671">
        <ele>1586.31</ele>
        <time>2011-06-26T09:57:27Z</time>
      </trkpt>
      <trkpt lat="44.1082" lon="6.35675">
        <ele>1585.83</ele>
        <time>2011-06-26T09:57:28Z</time>
      </trkpt>
      <trkpt lat="44.10821" lon="6.35679">
        <ele>1584.87</ele>
        <time>2011-06-26T09:57:29Z</time>
      </trkpt>
      <trkpt lat="44.10823" lon="6.35684">
        <ele>1584.87</ele>
        <time>2011-06-26T09:57:30Z</time>
      </trkpt>
      <trkpt lat="44.10825" lon="6.35689">
        <ele>1584.39</ele>
        <time>2011-06-26T09:57:31Z</time>
      </trkpt>
      <trkpt lat="44.10827" lon="6.35693">
        <ele>1583.91</ele>
        <time>2011-06-26T09:57:32Z</time>
      </trkpt>
      <trkpt lat="44.10831" lon="6.35697">
        <ele>1582.95</ele>
        <time>2011-06-26T09:57:33Z</time>
      </trkpt>
      <trkpt lat="44.10837" lon="6.35703">
        <ele>1580.54</ele>
        <time>2011-06-26T09:57:35Z</time>
      </trkpt>
      <trkpt lat="44.10845" lon="6.35708">
        <ele>1579.1</ele>
        <time>2011-06-26T09:57:37Z</time>
      </trkpt>
      <trkpt lat="44.10848" lon="6.35712">
        <ele>1578.14</ele>
        <time>2011-06-26T09:57:38Z</time>
      </trkpt>
      <trkpt lat="44.10851" lon="6.35715">
        <ele>1577.66</ele>
        <time>2011-06-26T09:57:39Z</time>
      </trkpt>
      <trkpt lat="44.10854" lon="6.35716">
        <ele>1576.7</ele>
        <time>2011-06-26T09:57:40Z</time>
      </trkpt>
      <trkpt lat="44.10857" lon="6.35716">
        <ele>1575.74</ele>
        <time>2011-06-26T09:57:41Z</time>
      </trkpt>
      <trkpt lat="44.1086" lon="6.35716">
        <ele>1575.74</ele>
        <time>2011-06-26T09:57:42Z</time>
      </trkpt>
      <trkpt lat="44.10854" lon="6.35704">
        <ele>1572.85</ele>
        <time>2011-06-26T09:57:49Z</time>
      </trkpt>
      <trkpt lat="44.1085" lon="6.35697">
        <ele>1570.93</ele>
        <time>2011-06-26T09:57:51Z</time>
      </trkpt>
      <trkpt lat="44.10847" lon="6.35693">
        <ele>1569.97</ele>
        <time>2011-06-26T09:57:52Z</time>
      </trkpt>
      <trkpt lat="44.10837" lon="6.35681">
        <ele>1567.09</ele>
        <time>2011-06-26T09:57:56Z</time>
      </trkpt>
      <trkpt lat="44.10839" lon="6.35673">
        <ele>1564.2</ele>
        <time>2011-06-26T09:58:05Z</time>
      </trkpt>
      <trkpt lat="44.1084" lon="6.35675">
        <ele>1564.2</ele>
        <time>2011-06-26T09:58:07Z</time>
      </trkpt>
      <trkpt lat="44.10842" lon="6.35678">
        <ele>1563.72</ele>
        <time>2011-06-26T09:58:08Z</time>
      </trkpt>
      <trkpt lat="44.10843" lon="6.35681">
        <ele>1563.24</ele>
        <time>2011-06-26T09:58:09Z</time>
      </trkpt>
      <trkpt lat="44.10846" lon="6.35682">
        <ele>1563.24</ele>
        <time>2011-06-26T09:58:10Z</time>
      </trkpt>
      <trkpt lat="44.10848" lon="6.35684">
        <ele>1562.76</ele>
        <time>2011-06-26T09:58:11Z</time>
      </trkpt>
      <trkpt lat="44.10851" lon="6.35686">
        <ele>1562.76</ele>
        <time>2011-06-26T09:58:12Z</time>
      </trkpt>
      <trkpt lat="44.10854" lon="6.35689">
        <ele>1562.28</ele>
        <time>2011-06-26T09:58:13Z</time>
      </trkpt>
      <trkpt lat="44.10873" lon="6.35696">
        <ele>1559.4</ele>
        <time>2011-06-26T09:58:19Z</time>
      </trkpt>
      <trkpt lat="44.10886" lon="6.35692">
        <ele>1556.03</ele>
        <time>2011-06-26T09:58:23Z</time>
      </trkpt>
      <trkpt lat="44.10898" lon="6.35691">
        <ele>1552.67</ele>
        <time>2011-06-26T09:58:27Z</time>
      </trkpt>
      <trkpt lat="44.109" lon="6.35691">
        <ele>1552.67</ele>
        <time>2011-06-26T09:58:28Z</time>
      </trkpt>
      <trkpt lat="44.1091" lon="6.35686">
        <ele>1549.3</ele>
        <time>2011-06-26T09:58:34Z</time>
      </trkpt>
      <trkpt lat="44.1091" lon="6.35685">
        <ele>1548.82</ele>
        <time>2011-06-26T09:58:35Z</time>
      </trkpt>
      <trkpt lat="44.10905" lon="6.35686">
        <ele>1546.42</ele>
        <time>2011-06-26T09:58:39Z</time>
      </trkpt>
      <trkpt lat="44.10903" lon="6.35684">
        <ele>1545.46</ele>
        <time>2011-06-26T09:58:40Z</time>
      </trkpt>
      <trkpt lat="44.10901" lon="6.3568">
        <ele>1545.46</ele>
        <time>2011-06-26T09:58:41Z</time>
      </trkpt>
      <trkpt lat="44.10893" lon="6.35673">
        <ele>1544.5</ele>
        <time>2011-06-26T09:58:42Z</time>
      </trkpt>
      <trkpt lat="44.10889" lon="6.35668">
        <ele>1544.01</ele>
        <time>2011-06-26T09:58:43Z</time>
      </trkpt>
      <trkpt lat="44.10886" lon="6.35663">
        <ele>1543.05</ele>
        <time>2011-06-26T09:58:44Z</time>
      </trkpt>
      <trkpt lat="44.10867" lon="6.35654">
        <ele>1539.69</ele>
        <time>2011-06-26T09:58:50Z</time>
      </trkpt>
      <trkpt lat="44.10865" lon="6.35651">
        <ele>1539.21</ele>
        <time>2011-06-26T09:58:51Z</time>
      </trkpt>
      <trkpt lat="44.10855" lon="6.35636">
        <ele>1536.8</ele>
        <time>2011-06-26T09:58:57Z</time>
      </trkpt>
      <trkpt lat="44.10859" lon="6.35636">
        <ele>1535.84</ele>
        <time>2011-06-26T09:58:59Z</time>
      </trkpt>
      <trkpt lat="44.10885" lon="6.35635">
        <ele>1532.48</ele>
        <time>2011-06-26T09:59:08Z</time>
      </trkpt>
      <trkpt lat="44.10889" lon="6.3563">
        <ele>1530.56</ele>
        <time>2011-06-26T09:59:13Z</time>
      </trkpt>
      <trkpt lat="44.10884" lon="6.35628">
        <ele>1529.59</ele>
        <time>2011-06-26T09:59:16Z</time>
      </trkpt>
      <trkpt lat="44.10846" lon="6.35611">
        <ele>1526.23</ele>
        <time>2011-06-26T09:59:27Z</time>
      </trkpt>
      <trkpt lat="44.10841" lon="6.35607">
        <ele>1521.9</ele>
        <time>2011-06-26T09:59:31Z</time>
      </trkpt>
      <trkpt lat="44.10842" lon="6.35605">
        <ele>1520.46</ele>
        <time>2011-06-26T09:59:33Z</time>
      </trkpt>
      <trkpt lat="44.10881" lon="6.35662">
        <ele>1642.07</ele>
        <time>2011-06-26T10:11:31Z</time>
      </trkpt>
      <trkpt lat="44.10881" lon="6.35662">
        <ele>1200.34</ele>
        <time>2011-06-26T10:11:32Z</time>
      </trkpt>
      <trkpt lat="44.10881" lon="6.35662">
        <ele>1200.34</ele>
        <time>2011-06-26T10:11:33Z</time>
      </trkpt>
      <trkpt lat="44.10881" lon="6.35662">
        <ele>1201.79</ele>
        <time>2011-06-26T10:11:43Z</time>
      </trkpt>
      <trkpt lat="44.10473" lon="6.3383">
        <ele>1205.15</ele>
        <time>2011-06-26T10:11:55Z</time>
      </trkpt>
      <trkpt lat="44.10472" lon="6.33828">
        <ele>1204.19</ele>
        <time>2011-06-26T10:11:56Z</time>
      </trkpt>
      <trkpt lat="44.10466" lon="6.33819">
        <ele>1206.11</ele>
        <time>2011-06-26T10:12:07Z</time>
      </trkpt>
      <trkpt lat="44.10465" lon="6.33818">
        <ele>1205.63</ele>
        <time>2011-06-26T10:12:09Z</time>
      </trkpt>
      <trkpt lat="44.10459" lon="6.33812">
        <ele>1206.59</ele>
        <time>2011-06-26T10:12:14Z</time>
      </trkpt>
      <trkpt lat="44.1045" lon="6.33804">
        <ele>1209.48</ele>
        <time>2011-06-26T10:12:27Z</time>
      </trkpt>
      <trkpt lat="44.10438" lon="6.33801">
        <ele>1211.4</ele>
        <time>2011-06-26T10:12:40Z</time>
      </trkpt>
      <trkpt lat="44.10431" lon="6.33798">
        <ele>1212.84</ele>
        <time>2011-06-26T10:12:46Z</time>
      </trkpt>
      <trkpt lat="44.10416" lon="6.33789">
        <ele>1215.72</ele>
        <time>2011-06-26T10:13:03Z</time>
      </trkpt>
      <trkpt lat="44.10409" lon="6.33788">
        <ele>1217.65</ele>
        <time>2011-06-26T10:13:12Z</time>
      </trkpt>
      <trkpt lat="44.10399" lon="6.33787">
        <ele>1220.53</ele>
        <time>2011-06-26T10:13:27Z</time>
      </trkpt>
      <trkpt lat="44.10399" lon="6.33787">
        <ele>1216.69</ele>
        <time>2011-06-26T10:13:29Z</time>
      </trkpt>
      <trkpt lat="44.10399" lon="6.33787">
        <ele>1220.53</ele>
        <time>2011-06-26T10:13:30Z</time>
      </trkpt>
      <trkpt lat="44.10399" lon="6.33785">
        <ele>1218.61</ele>
        <time>2011-06-26T10:13:57Z</time>
      </trkpt>
      <trkpt lat="44.10388" lon="6.33763">
        <ele>1220.05</ele>
        <time>2011-06-26T10:14:14Z</time>
      </trkpt>
      <trkpt lat="44.10379" lon="6.33753">
        <ele>1223.9</ele>
        <time>2011-06-26T10:14:25Z</time>
      </trkpt>
      <trkpt lat="44.10367" lon="6.33743">
        <ele>1225.34</ele>
        <time>2011-06-26T10:14:37Z</time>
      </trkpt>
      <trkpt lat="44.1036" lon="6.33737">
        <ele>1227.74</ele>
        <time>2011-06-26T10:14:49Z</time>
      </trkpt>
      <trkpt lat="44.10357" lon="6.33733">
        <ele>1229.18</ele>
        <time>2011-06-26T10:14:57Z</time>
      </trkpt>
      <trkpt lat="44.10354" lon="6.33716">
        <ele>1230.62</ele>
        <time>2011-06-26T10:15:10Z</time>
      </trkpt>
      <trkpt lat="44.10354" lon="6.33714">
        <ele>1231.11</ele>
        <time>2011-06-26T10:15:11Z</time>
      </trkpt>
      <trkpt lat="44.10347" lon="6.33702">
        <ele>1233.03</ele>
        <time>2011-06-26T10:15:23Z</time>
      </trkpt>
      <trkpt lat="44.10335" lon="6.33694">
        <ele>1234.95</ele>
        <time>2011-06-26T10:15:37Z</time>
      </trkpt>
      <trkpt lat="44.10333" lon="6.33682">
        <ele>1236.39</ele>
        <time>2011-06-26T10:15:46Z</time>
      </trkpt>
      <trkpt lat="44.1033" lon="6.33672">
        <ele>1237.35</ele>
        <time>2011-06-26T10:15:57Z</time>
      </trkpt>
      <trkpt lat="44.10322" lon="6.33666">
        <ele>1237.35</ele>
        <time>2011-06-26T10:16:08Z</time>
      </trkpt>
      <trkpt lat="44.10312" lon="6.33642">
        <ele>1239.28</ele>
        <time>2011-06-26T10:16:23Z</time>
      </trkpt>
      <trkpt lat="44.10308" lon="6.33619">
        <ele>1242.64</ele>
        <time>2011-06-26T10:16:35Z</time>
      </trkpt>
      <trkpt lat="44.10308" lon="6.33618">
        <ele>1242.16</ele>
        <time>2011-06-26T10:16:36Z</time>
      </trkpt>
      <trkpt lat="44.10314" lon="6.33613">
        <ele>1244.56</ele>
        <time>2011-06-26T10:16:48Z</time>
      </trkpt>
      <trkpt lat="44.10305" lon="6.33597">
        <ele>1246.01</ele>
        <time>2011-06-26T10:17:02Z</time>
      </trkpt>
      <trkpt lat="44.1031" lon="6.33594">
        <ele>1248.89</ele>
        <time>2011-06-26T10:17:17Z</time>
      </trkpt>
      <trkpt lat="44.10311" lon="6.33584">
        <ele>1251.29</ele>
        <time>2011-06-26T10:17:31Z</time>
      </trkpt>
      <trkpt lat="44.10313" lon="6.33582">
        <ele>1252.25</ele>
        <time>2011-06-26T10:17:34Z</time>
      </trkpt>
      <trkpt lat="44.10325" lon="6.3357">
        <ele>1253.22</ele>
        <time>2011-06-26T10:17:46Z</time>
      </trkpt>
      <trkpt lat="44.10328" lon="6.3357">
        <ele>1253.7</ele>
        <time>2011-06-26T10:17:49Z</time>
      </trkpt>
      <trkpt lat="44.10329" lon="6.33563">
        <ele>1255.62</ele>
        <time>2011-06-26T10:17:57Z</time>
      </trkpt>
      <trkpt lat="44.10315" lon="6.33557">
        <ele>1258.5</ele>
        <time>2011-06-26T10:18:14Z</time>
      </trkpt>
      <trkpt lat="44.10314" lon="6.33556">
        <ele>1259.46</ele>
        <time>2011-06-26T10:18:20Z</time>
      </trkpt>
      <trkpt lat="44.10314" lon="6.33551">
        <ele>1261.87</ele>
        <time>2011-06-26T10:18:32Z</time>
      </trkpt>
      <trkpt lat="44.10324" lon="6.33546">
        <ele>1262.35</ele>
        <time>2011-06-26T10:18:45Z</time>
      </trkpt>
      <trkpt lat="44.10324" lon="6.33541">
        <ele>1263.31</ele>
        <time>2011-06-26T10:18:50Z</time>
      </trkpt>
      <trkpt lat="44.10304" lon="6.33538">
        <ele>1265.23</ele>
        <time>2011-06-26T10:19:05Z</time>
      </trkpt>
      <trkpt lat="44.10298" lon="6.33525">
        <ele>1268.12</ele>
        <time>2011-06-26T10:19:16Z</time>
      </trkpt>
      <trkpt lat="44.1029" lon="6.33508">
        <ele>1269.56</ele>
        <time>2011-06-26T10:19:32Z</time>
      </trkpt>
      <trkpt lat="44.1029" lon="6.33507">
        <ele>1269.56</ele>
        <time>2011-06-26T10:19:34Z</time>
      </trkpt>
      <trkpt lat="44.10291" lon="6.33471">
        <ele>1265.71</ele>
        <time>2011-06-26T10:19:44Z</time>
      </trkpt>
      <trkpt lat="44.10299" lon="6.33447">
        <ele>1264.27</ele>
        <time>2011-06-26T10:19:52Z</time>
      </trkpt>
      <trkpt lat="44.10309" lon="6.33429">
        <ele>1259.94</ele>
        <time>2011-06-26T10:20:00Z</time>
      </trkpt>
      <trkpt lat="44.10319" lon="6.33421">
        <ele>1256.58</ele>
        <time>2011-06-26T10:20:03Z</time>
      </trkpt>
      <trkpt lat="44.10344" lon="6.33399">
        <ele>1253.22</ele>
        <time>2011-06-26T10:20:08Z</time>
      </trkpt>
      <trkpt lat="44.10349" lon="6.33387">
        <ele>1250.81</ele>
        <time>2011-06-26T10:20:10Z</time>
      </trkpt>
      <trkpt lat="44.10343" lon="6.3336">
        <ele>1247.93</ele>
        <time>2011-06-26T10:20:15Z</time>
      </trkpt>
      <trkpt lat="44.10342" lon="6.33353">
        <ele>1246.49</ele>
        <time>2011-06-26T10:20:17Z</time>
      </trkpt>
      <trkpt lat="44.1033" lon="6.33333">
        <ele>1242.64</ele>
        <time>2011-06-26T10:20:20Z</time>
      </trkpt>
      <trkpt lat="44.10353" lon="6.33302">
        <ele>1239.28</ele>
        <time>2011-06-26T10:20:28Z</time>
      </trkpt>
      <trkpt lat="44.10364" lon="6.333">
        <ele>1238.32</ele>
        <time>2011-06-26T10:20:29Z</time>
      </trkpt>
      <trkpt lat="44.10372" lon="6.33298">
        <ele>1237.83</ele>
        <time>2011-06-26T10:20:30Z</time>
      </trkpt>
      <trkpt lat="44.10381" lon="6.33297">
        <ele>1237.35</ele>
        <time>2011-06-26T10:20:31Z</time>
      </trkpt>
      <trkpt lat="44.10388" lon="6.33294">
        <ele>1236.39</ele>
        <time>2011-06-26T10:20:32Z</time>
      </trkpt>
      <trkpt lat="44.10396" lon="6.3329">
        <ele>1236.39</ele>
        <time>2011-06-26T10:20:33Z</time>
      </trkpt>
      <trkpt lat="44.10403" lon="6.33285">
        <ele>1235.43</ele>
        <time>2011-06-26T10:20:34Z</time>
      </trkpt>
      <trkpt lat="44.10419" lon="6.33274">
        <ele>1233.99</ele>
        <time>2011-06-26T10:20:36Z</time>
      </trkpt>
      <trkpt lat="44.10427" lon="6.33271">
        <ele>1232.55</ele>
        <time>2011-06-26T10:20:37Z</time>
      </trkpt>
      <trkpt lat="44.10436" lon="6.33271">
        <ele>1232.55</ele>
        <time>2011-06-26T10:20:38Z</time>
      </trkpt>
      <trkpt lat="44.10453" lon="6.3327">
        <ele>1230.14</ele>
        <time>2011-06-26T10:20:40Z</time>
      </trkpt>
      <trkpt lat="44.10461" lon="6.33267">
        <ele>1228.7</ele>
        <time>2011-06-26T10:20:41Z</time>
      </trkpt>
      <trkpt lat="44.10468" lon="6.33261">
        <ele>1228.22</ele>
        <time>2011-06-26T10:20:42Z</time>
      </trkpt>
      <trkpt lat="44.10474" lon="6.33253">
        <ele>1227.74</ele>
        <time>2011-06-26T10:20:43Z</time>
      </trkpt>
      <trkpt lat="44.10478" lon="6.33245">
        <ele>1227.74</ele>
        <time>2011-06-26T10:20:44Z</time>
      </trkpt>
      <trkpt lat="44.10482" lon="6.33236">
        <ele>1226.78</ele>
        <time>2011-06-26T10:20:45Z</time>
      </trkpt>
      <trkpt lat="44.10486" lon="6.33227">
        <ele>1226.3</ele>
        <time>2011-06-26T10:20:46Z</time>
      </trkpt>
      <trkpt lat="44.1049" lon="6.33218">
        <ele>1224.86</ele>
        <time>2011-06-26T10:20:47Z</time>
      </trkpt>
      <trkpt lat="44.10493" lon="6.33208">
        <ele>1224.86</ele>
        <time>2011-06-26T10:20:48Z</time>
      </trkpt>
      <trkpt lat="44.10495" lon="6.33197">
        <ele>1223.9</ele>
        <time>2011-06-26T10:20:49Z</time>
      </trkpt>
      <trkpt lat="44.10498" lon="6.33149">
        <ele>1220.53</ele>
        <time>2011-06-26T10:20:53Z</time>
      </trkpt>
      <trkpt lat="44.10506" lon="6.33045">
        <ele>1217.17</ele>
        <time>2011-06-26T10:21:01Z</time>
      </trkpt>
      <trkpt lat="44.10508" lon="6.33019">
        <ele>1215.72</ele>
        <time>2011-06-26T10:21:03Z</time>
      </trkpt>
      <trkpt lat="44.10511" lon="6.33006">
        <ele>1215.72</ele>
        <time>2011-06-26T10:21:04Z</time>
      </trkpt>
      <trkpt lat="44.10514" lon="6.32994">
        <ele>1214.76</ele>
        <time>2011-06-26T10:21:05Z</time>
      </trkpt>
      <trkpt lat="44.10517" lon="6.32983">
        <ele>1214.28</ele>
        <time>2011-06-26T10:21:06Z</time>
      </trkpt>
      <trkpt lat="44.10521" lon="6.32973">
        <ele>1214.28</ele>
        <time>2011-06-26T10:21:07Z</time>
      </trkpt>
      <trkpt lat="44.10535" lon="6.32948">
        <ele>1213.32</ele>
        <time>2011-06-26T10:21:10Z</time>
      </trkpt>
      <trkpt lat="44.1054" lon="6.32943">
        <ele>1212.36</ele>
        <time>2011-06-26T10:21:11Z</time>
      </trkpt>
      <trkpt lat="44.10546" lon="6.32938">
        <ele>1211.88</ele>
        <time>2011-06-26T10:21:12Z</time>
      </trkpt>
      <trkpt lat="44.10551" lon="6.32934">
        <ele>1211.4</ele>
        <time>2011-06-26T10:21:13Z</time>
      </trkpt>
      <trkpt lat="44.10555" lon="6.3293">
        <ele>1211.4</ele>
        <time>2011-06-26T10:21:14Z</time>
      </trkpt>
      <trkpt lat="44.10558" lon="6.32926">
        <ele>1210.44</ele>
        <time>2011-06-26T10:21:15Z</time>
      </trkpt>
      <trkpt lat="44.10561" lon="6.32922">
        <ele>1209.96</ele>
        <time>2011-06-26T10:21:16Z</time>
      </trkpt>
      <trkpt lat="44.10562" lon="6.32916">
        <ele>1209</ele>
        <time>2011-06-26T10:21:17Z</time>
      </trkpt>
      <trkpt lat="44.10561" lon="6.32911">
        <ele>1208.03</ele>
        <time>2011-06-26T10:21:18Z</time>
      </trkpt>
      <trkpt lat="44.1056" lon="6.32905">
        <ele>1207.07</ele>
        <time>2011-06-26T10:21:19Z</time>
      </trkpt>
      <trkpt lat="44.10553" lon="6.32884">
        <ele>1203.23</ele>
        <time>2011-06-26T10:21:23Z</time>
      </trkpt>
      <trkpt lat="44.10543" lon="6.32868">
        <ele>1200.82</ele>
        <time>2011-06-26T10:21:26Z</time>
      </trkpt>
      <trkpt lat="44.10535" lon="6.32861">
        <ele>1199.86</ele>
        <time>2011-06-26T10:21:30Z</time>
      </trkpt>
      <trkpt lat="44.1053" lon="6.32864">
        <ele>1199.86</ele>
        <time>2011-06-26T10:21:33Z</time>
      </trkpt>
      <trkpt lat="44.10522" lon="6.32866">
        <ele>1199.38</ele>
        <time>2011-06-26T10:21:37Z</time>
      </trkpt>
      <trkpt lat="44.1052" lon="6.32864">
        <ele>1199.38</ele>
        <time>2011-06-26T10:21:38Z</time>
      </trkpt>
      <trkpt lat="44.10516" lon="6.32862">
        <ele>1199.38</ele>
        <time>2011-06-26T10:21:39Z</time>
      </trkpt>
      <trkpt lat="44.10514" lon="6.3286">
        <ele>1198.9</ele>
        <time>2011-06-26T10:21:40Z</time>
      </trkpt>
      <trkpt lat="44.10512" lon="6.32858">
        <ele>1198.42</ele>
        <time>2011-06-26T10:21:41Z</time>
      </trkpt>
      <trkpt lat="44.10508" lon="6.32852">
        <ele>1197.46</ele>
        <time>2011-06-26T10:21:43Z</time>
      </trkpt>
      <trkpt lat="44.10507" lon="6.32848">
        <ele>1196.02</ele>
        <time>2011-06-26T10:21:44Z</time>
      </trkpt>
      <trkpt lat="44.10507" lon="6.32844">
        <ele>1195.06</ele>
        <time>2011-06-26T10:21:45Z</time>
      </trkpt>
      <trkpt lat="44.10507" lon="6.32839">
        <ele>1193.61</ele>
        <time>2011-06-26T10:21:46Z</time>
      </trkpt>
      <trkpt lat="44.10508" lon="6.32823">
        <ele>1190.73</ele>
        <time>2011-06-26T10:21:49Z</time>
      </trkpt>
      <trkpt lat="44.10508" lon="6.32816">
        <ele>1190.25</ele>
        <time>2011-06-26T10:21:50Z</time>
      </trkpt>
      <trkpt lat="44.10507" lon="6.32807">
        <ele>1188.33</ele>
        <time>2011-06-26T10:21:51Z</time>
      </trkpt>
      <trkpt lat="44.10507" lon="6.32799">
        <ele>1187.37</ele>
        <time>2011-06-26T10:21:52Z</time>
      </trkpt>
      <trkpt lat="44.10511" lon="6.32769">
        <ele>1184.48</ele>
        <time>2011-06-26T10:21:56Z</time>
      </trkpt>
      <trkpt lat="44.10513" lon="6.32763">
        <ele>1183.52</ele>
        <time>2011-06-26T10:21:57Z</time>
      </trkpt>
      <trkpt lat="44.10514" lon="6.32758">
        <ele>1183.04</ele>
        <time>2011-06-26T10:21:58Z</time>
      </trkpt>
      <trkpt lat="44.10516" lon="6.32753">
        <ele>1182.56</ele>
        <time>2011-06-26T10:21:59Z</time>
      </trkpt>
      <trkpt lat="44.10518" lon="6.32748">
        <ele>1182.08</ele>
        <time>2011-06-26T10:22:00Z</time>
      </trkpt>
      <trkpt lat="44.10522" lon="6.32738">
        <ele>1180.64</ele>
        <time>2011-06-26T10:22:02Z</time>
      </trkpt>
      <trkpt lat="44.10531" lon="6.32716">
        <ele>1179.67</ele>
        <time>2011-06-26T10:22:06Z</time>
      </trkpt>
      <trkpt lat="44.10534" lon="6.32711">
        <ele>1179.19</ele>
        <time>2011-06-26T10:22:07Z</time>
      </trkpt>
      <trkpt lat="44.10537" lon="6.32708">
        <ele>1179.19</ele>
        <time>2011-06-26T10:22:08Z</time>
      </trkpt>
      <trkpt lat="44.10538" lon="6.32703">
        <ele>1178.71</ele>
        <time>2011-06-26T10:22:09Z</time>
      </trkpt>
      <trkpt lat="44.10539" lon="6.32698">
        <ele>1177.75</ele>
        <time>2011-06-26T10:22:10Z</time>
      </trkpt>
      <trkpt lat="44.10542" lon="6.32693">
        <ele>1177.27</ele>
        <time>2011-06-26T10:22:11Z</time>
      </trkpt>
      <trkpt lat="44.10544" lon="6.32689">
        <ele>1176.79</ele>
        <time>2011-06-26T10:22:12Z</time>
      </trkpt>
      <trkpt lat="44.10547" lon="6.32684">
        <ele>1176.79</ele>
        <time>2011-06-26T10:22:13Z</time>
      </trkpt>
      <trkpt lat="44.10548" lon="6.32678">
        <ele>1176.31</ele>
        <time>2011-06-26T10:22:14Z</time>
      </trkpt>
      <trkpt lat="44.10552" lon="6.32661">
        <ele>1175.83</ele>
        <time>2011-06-26T10:22:17Z</time>
      </trkpt>
      <trkpt lat="44.10551" lon="6.32654">
        <ele>1175.83</ele>
        <time>2011-06-26T10:22:18Z</time>
      </trkpt>
      <trkpt lat="44.1055" lon="6.32648">
        <ele>1174.87</ele>
        <time>2011-06-26T10:22:19Z</time>
      </trkpt>
      <trkpt lat="44.10548" lon="6.32642">
        <ele>1174.39</ele>
        <time>2011-06-26T10:22:20Z</time>
      </trkpt>
      <trkpt lat="44.10546" lon="6.32634">
        <ele>1173.91</ele>
        <time>2011-06-26T10:22:21Z</time>
      </trkpt>
      <trkpt lat="44.10545" lon="6.32628">
        <ele>1172.95</ele>
        <time>2011-06-26T10:22:22Z</time>
      </trkpt>
      <trkpt lat="44.10546" lon="6.32624">
        <ele>1172.47</ele>
        <time>2011-06-26T10:22:23Z</time>
      </trkpt>
      <trkpt lat="44.1055" lon="6.32603">
        <ele>1171.98</ele>
        <time>2011-06-26T10:22:28Z</time>
      </trkpt>
      <trkpt lat="44.10546" lon="6.32581">
        <ele>1170.06</ele>
        <time>2011-06-26T10:22:32Z</time>
      </trkpt>
      <trkpt lat="44.1054" lon="6.32555">
        <ele>1166.7</ele>
        <time>2011-06-26T10:22:36Z</time>
      </trkpt>
      <trkpt lat="44.10537" lon="6.3255">
        <ele>1166.22</ele>
        <time>2011-06-26T10:22:37Z</time>
      </trkpt>
      <trkpt lat="44.10532" lon="6.32544">
        <ele>1165.26</ele>
        <time>2011-06-26T10:22:39Z</time>
      </trkpt>
      <trkpt lat="44.10536" lon="6.32514">
        <ele>1162.37</ele>
        <time>2011-06-26T10:22:46Z</time>
      </trkpt>
      <trkpt lat="44.10538" lon="6.3248">
        <ele>1159.97</ele>
        <time>2011-06-26T10:22:54Z</time>
      </trkpt>
      <trkpt lat="44.10528" lon="6.32461">
        <ele>1160.45</ele>
        <time>2011-06-26T10:23:01Z</time>
      </trkpt>
      <trkpt lat="44.10525" lon="6.32456">
        <ele>1160.45</ele>
        <time>2011-06-26T10:23:11Z</time>
      </trkpt>
      <trkpt lat="44.10519" lon="6.3244">
        <ele>1157.56</ele>
        <time>2011-06-26T10:23:15Z</time>
      </trkpt>
      <trkpt lat="44.10508" lon="6.32426">
        <ele>1154.68</ele>
        <time>2011-06-26T10:23:19Z</time>
      </trkpt>
      <trkpt lat="44.10509" lon="6.32409">
        <ele>1150.35</ele>
        <time>2011-06-26T10:23:25Z</time>
      </trkpt>
      <trkpt lat="44.10508" lon="6.32404">
        <ele>1149.39</ele>
        <time>2011-06-26T10:23:26Z</time>
      </trkpt>
      <trkpt lat="44.10503" lon="6.32393">
        <ele>1145.07</ele>
        <time>2011-06-26T10:23:30Z</time>
      </trkpt>
      <trkpt lat="44.10494" lon="6.32391">
        <ele>1141.22</ele>
        <time>2011-06-26T10:23:33Z</time>
      </trkpt>
      <trkpt lat="44.10485" lon="6.32388">
        <ele>1139.3</ele>
        <time>2011-06-26T10:23:36Z</time>
      </trkpt>
      <trkpt lat="44.10477" lon="6.3237">
        <ele>1135.94</ele>
        <time>2011-06-26T10:23:42Z</time>
      </trkpt>
      <trkpt lat="44.10469" lon="6.32343">
        <ele>1133.05</ele>
        <time>2011-06-26T10:23:48Z</time>
      </trkpt>
      <trkpt lat="44.1046" lon="6.3232">
        <ele>1131.13</ele>
        <time>2011-06-26T10:23:52Z</time>
      </trkpt>
      <trkpt lat="44.10457" lon="6.32309">
        <ele>1129.69</ele>
        <time>2011-06-26T10:23:54Z</time>
      </trkpt>
      <trkpt lat="44.1044" lon="6.3227">
        <ele>1127.28</ele>
        <time>2011-06-26T10:24:06Z</time>
      </trkpt>
      <trkpt lat="44.10432" lon="6.32261">
        <ele>1123.92</ele>
        <time>2011-06-26T10:24:10Z</time>
      </trkpt>
      <trkpt lat="44.10424" lon="6.32254">
        <ele>1120.07</ele>
        <time>2011-06-26T10:24:14Z</time>
      </trkpt>
      <trkpt lat="44.10418" lon="6.3225">
        <ele>1116.23</ele>
        <time>2011-06-26T10:24:16Z</time>
      </trkpt>
      <trkpt lat="44.10409" lon="6.32247">
        <ele>1114.31</ele>
        <time>2011-06-26T10:24:19Z</time>
      </trkpt>
      <trkpt lat="44.10394" lon="6.32257">
        <ele>1112.86</ele>
        <time>2011-06-26T10:24:22Z</time>
      </trkpt>
      <trkpt lat="44.10385" lon="6.32256">
        <ele>1111.42</ele>
        <time>2011-06-26T10:24:24Z</time>
      </trkpt>
      <trkpt lat="44.10374" lon="6.32248">
        <ele>1107.58</ele>
        <time>2011-06-26T10:24:27Z</time>
      </trkpt>
      <trkpt lat="44.10372" lon="6.32244">
        <ele>1106.13</ele>
        <time>2011-06-26T10:24:28Z</time>
      </trkpt>
      <trkpt lat="44.10366" lon="6.32234">
        <ele>1106.13</ele>
        <time>2011-06-26T10:24:31Z</time>
      </trkpt>
      <trkpt lat="44.10323" lon="6.32245">
        <ele>1105.65</ele>
        <time>2011-06-26T10:24:41Z</time>
      </trkpt>
      <trkpt lat="44.1032" lon="6.32244">
        <ele>1105.17</ele>
        <time>2011-06-26T10:24:47Z</time>
      </trkpt>
      <trkpt lat="44.10317" lon="6.32243">
        <ele>1103.25</ele>
        <time>2011-06-26T10:24:50Z</time>
      </trkpt>
      <trkpt lat="44.10315" lon="6.32243">
        <ele>1103.25</ele>
        <time>2011-06-26T10:24:51Z</time>
      </trkpt>
      <trkpt lat="44.10307" lon="6.32246">
        <ele>1101.33</ele>
        <time>2011-06-26T10:24:56Z</time>
      </trkpt>
      <trkpt lat="44.10291" lon="6.3224">
        <ele>1099.89</ele>
        <time>2011-06-26T10:25:06Z</time>
      </trkpt>
      <trkpt lat="44.10281" lon="6.32231">
        <ele>1097.96</ele>
        <time>2011-06-26T10:25:19Z</time>
      </trkpt>
      <trkpt lat="44.10281" lon="6.32222">
        <ele>1095.56</ele>
        <time>2011-06-26T10:25:23Z</time>
      </trkpt>
      <trkpt lat="44.10278" lon="6.3222">
        <ele>1093.16</ele>
        <time>2011-06-26T10:25:26Z</time>
      </trkpt>
      <trkpt lat="44.10264" lon="6.3222">
        <ele>1092.68</ele>
        <time>2011-06-26T10:25:32Z</time>
      </trkpt>
      <trkpt lat="44.10262" lon="6.32217">
        <ele>1091.71</ele>
        <time>2011-06-26T10:25:39Z</time>
      </trkpt>
      <trkpt lat="44.1026" lon="6.32212">
        <ele>1090.75</ele>
        <time>2011-06-26T10:25:41Z</time>
      </trkpt>
      <trkpt lat="44.10251" lon="6.32199">
        <ele>1089.31</ele>
        <time>2011-06-26T10:25:52Z</time>
      </trkpt>
      <trkpt lat="44.10251" lon="6.32199">
        <ele>1089.31</ele>
        <time>2011-06-26T10:25:56Z</time>
      </trkpt>
      <trkpt lat="44.10248" lon="6.32178">
        <ele>1087.39</ele>
        <time>2011-06-26T10:26:02Z</time>
      </trkpt>
      <trkpt lat="44.10241" lon="6.32155">
        <ele>1088.35</ele>
        <time>2011-06-26T10:26:07Z</time>
      </trkpt>
      <trkpt lat="44.10216" lon="6.32136">
        <ele>1088.35</ele>
        <time>2011-06-26T10:26:19Z</time>
      </trkpt>
      <trkpt lat="44.10216" lon="6.3212">
        <ele>1084.5</ele>
        <time>2011-06-26T10:26:22Z</time>
      </trkpt>
      <trkpt lat="44.10213" lon="6.32102">
        <ele>1081.14</ele>
        <time>2011-06-26T10:26:25Z</time>
      </trkpt>
      <trkpt lat="44.1021" lon="6.32095">
        <ele>1081.62</ele>
        <time>2011-06-26T10:26:26Z</time>
      </trkpt>
      <trkpt lat="44.10203" lon="6.32079">
        <ele>1084.99</ele>
        <time>2011-06-26T10:26:29Z</time>
      </trkpt>
      <trkpt lat="44.10203" lon="6.32075">
        <ele>1084.99</ele>
        <time>2011-06-26T10:26:30Z</time>
      </trkpt>
      <trkpt lat="44.10194" lon="6.32069">
        <ele>1081.14</ele>
        <time>2011-06-26T10:26:36Z</time>
      </trkpt>
      <trkpt lat="44.10193" lon="6.32067">
        <ele>1080.66</ele>
        <time>2011-06-26T10:26:38Z</time>
      </trkpt>
      <trkpt lat="44.10192" lon="6.32067">
        <ele>1080.18</ele>
        <time>2011-06-26T10:26:39Z</time>
      </trkpt>
      <trkpt lat="44.10185" lon="6.32066">
        <ele>1075.85</ele>
        <time>2011-06-26T10:26:43Z</time>
      </trkpt>
      <trkpt lat="44.10181" lon="6.32066">
        <ele>1075.37</ele>
        <time>2011-06-26T10:26:45Z</time>
      </trkpt>
      <trkpt lat="44.10173" lon="6.32064">
        <ele>1073.93</ele>
        <time>2011-06-26T10:26:48Z</time>
      </trkpt>
      <trkpt lat="44.10164" lon="6.32065">
        <ele>1075.37</ele>
        <time>2011-06-26T10:26:52Z</time>
      </trkpt>
      <trkpt lat="44.10147" lon="6.32062">
        <ele>1075.85</ele>
        <time>2011-06-26T10:27:01Z</time>
      </trkpt>
      <trkpt lat="44.10146" lon="6.32061">
        <ele>1077.78</ele>
        <time>2011-06-26T10:27:17Z</time>
      </trkpt>
      <trkpt lat="44.10144" lon="6.32059">
        <ele>1077.78</ele>
        <time>2011-06-26T10:27:23Z</time>
      </trkpt>
      <trkpt lat="44.10142" lon="6.32051">
        <ele>1075.85</ele>
        <time>2011-06-26T10:27:27Z</time>
      </trkpt>
      <trkpt lat="44.10138" lon="6.32041">
        <ele>1072.97</ele>
        <time>2011-06-26T10:27:31Z</time>
      </trkpt>
      <trkpt lat="44.10134" lon="6.32033">
        <ele>1069.6</ele>
        <time>2011-06-26T10:27:34Z</time>
      </trkpt>
      <trkpt lat="44.10135" lon="6.32015">
        <ele>1066.24</ele>
        <time>2011-06-26T10:27:39Z</time>
      </trkpt>
      <trkpt lat="44.10136" lon="6.32">
        <ele>1062.87</ele>
        <time>2011-06-26T10:27:43Z</time>
      </trkpt>
      <trkpt lat="44.10137" lon="6.31976">
        <ele>1059.51</ele>
        <time>2011-06-26T10:27:49Z</time>
      </trkpt>
      <trkpt lat="44.1014" lon="6.31963">
        <ele>1056.63</ele>
        <time>2011-06-26T10:27:52Z</time>
      </trkpt>
      <trkpt lat="44.10143" lon="6.31951">
        <ele>1053.26</ele>
        <time>2011-06-26T10:27:55Z</time>
      </trkpt>
      <trkpt lat="44.10149" lon="6.31938">
        <ele>1049.42</ele>
        <time>2011-06-26T10:27:59Z</time>
      </trkpt>
      <trkpt lat="44.10153" lon="6.31931">
        <ele>1046.05</ele>
        <time>2011-06-26T10:28:01Z</time>
      </trkpt>
      <trkpt lat="44.10158" lon="6.31921">
        <ele>1042.69</ele>
        <time>2011-06-26T10:28:04Z</time>
      </trkpt>
      <trkpt lat="44.10165" lon="6.31913">
        <ele>1039.32</ele>
        <time>2011-06-26T10:28:08Z</time>
      </trkpt>
      <trkpt lat="44.1017" lon="6.3191">
        <ele>1037.88</ele>
        <time>2011-06-26T10:28:11Z</time>
      </trkpt>
      <trkpt lat="44.10174" lon="6.3191">
        <ele>1034.52</ele>
        <time>2011-06-26T10:28:14Z</time>
      </trkpt>
      <trkpt lat="44.10176" lon="6.31926">
        <ele>1031.15</ele>
        <time>2011-06-26T10:28:18Z</time>
      </trkpt>
      <trkpt lat="44.10183" lon="6.31935">
        <ele>1029.23</ele>
        <time>2011-06-26T10:28:23Z</time>
      </trkpt>
      <trkpt lat="44.10194" lon="6.31932">
        <ele>1026.83</ele>
        <time>2011-06-26T10:28:29Z</time>
      </trkpt>
      <trkpt lat="44.10197" lon="6.31929">
        <ele>1026.34</ele>
        <time>2011-06-26T10:28:31Z</time>
      </trkpt>
      <trkpt lat="44.10217" lon="6.31874">
        <ele>1023.94</ele>
        <time>2011-06-26T10:28:48Z</time>
      </trkpt>
      <trkpt lat="44.10222" lon="6.31868">
        <ele>1019.62</ele>
        <time>2011-06-26T10:28:51Z</time>
      </trkpt>
      <trkpt lat="44.10229" lon="6.31853">
        <ele>1016.73</ele>
        <time>2011-06-26T10:28:56Z</time>
      </trkpt>
      <trkpt lat="44.10231" lon="6.31849">
        <ele>1016.25</ele>
        <time>2011-06-26T10:28:57Z</time>
      </trkpt>
      <trkpt lat="44.10231" lon="6.31843">
        <ele>1016.25</ele>
        <time>2011-06-26T10:29:00Z</time>
      </trkpt>
      <trkpt lat="44.10225" lon="6.31809">
        <ele>1016.73</ele>
        <time>2011-06-26T10:29:12Z</time>
      </trkpt>
      <trkpt lat="44.10221" lon="6.31783">
        <ele>1020.1</ele>
        <time>2011-06-26T10:29:22Z</time>
      </trkpt>
      <trkpt lat="44.10214" lon="6.31759">
        <ele>1020.58</ele>
        <time>2011-06-26T10:29:36Z</time>
      </trkpt>
      <trkpt lat="44.10214" lon="6.31753">
        <ele>1020.58</ele>
        <time>2011-06-26T10:29:48Z</time>
      </trkpt>
      <trkpt lat="44.10213" lon="6.31753">
        <ele>1020.58</ele>
        <time>2011-06-26T10:29:52Z</time>
      </trkpt>
      <trkpt lat="44.10213" lon="6.31752">
        <ele>1020.1</ele>
        <time>2011-06-26T10:30:38Z</time>
      </trkpt>
      <trkpt lat="44.10213" lon="6.31752">
        <ele>1020.58</ele>
        <time>2011-06-26T10:35:11Z</time>
      </trkpt>
      <trkpt lat="44.10212" lon="6.31753">
        <ele>1021.06</ele>
        <time>2011-06-26T10:38:20Z</time>
      </trkpt>
      <trkpt lat="44.10212" lon="6.31753">
        <ele>1020.58</ele>
        <time>2011-06-26T10:40:42Z</time>
      </trkpt>
      <trkpt lat="44.10211" lon="6.31752">
        <ele>1020.1</ele>
        <time>2011-06-26T10:42:40Z</time>
      </trkpt>
      <trkpt lat="44.10212" lon="6.31753">
        <ele>1021.06</ele>
        <time>2011-06-26T10:45:41Z</time>
      </trkpt>
      <trkpt lat="44.10212" lon="6.31753">
        <ele>1021.06</ele>
        <time>2011-06-26T10:48:10Z</time>
      </trkpt>
      <trkpt lat="44.10213" lon="6.31739">
        <ele>1019.62</ele>
        <time>2011-06-26T10:49:14Z</time>
      </trkpt>
      <trkpt lat="44.10226" lon="6.31704">
        <ele>1018.17</ele>
        <time>2011-06-26T10:49:27Z</time>
      </trkpt>
      <trkpt lat="44.10239" lon="6.31673">
        <ele>1015.29</ele>
        <time>2011-06-26T10:49:34Z</time>
      </trkpt>
      <trkpt lat="44.1027" lon="6.31637">
        <ele>1012.89</ele>
        <time>2011-06-26T10:49:46Z</time>
      </trkpt>
      <trkpt lat="44.10273" lon="6.31635">
        <ele>1012.41</ele>
        <time>2011-06-26T10:50:19Z</time>
      </trkpt>
      <trkpt lat="44.10302" lon="6.31618">
        <ele>1010</ele>
        <time>2011-06-26T10:50:29Z</time>
      </trkpt>
      <trkpt lat="44.10311" lon="6.31617">
        <ele>1011.93</ele>
        <time>2011-06-26T10:50:34Z</time>
      </trkpt>
      <trkpt lat="44.10311" lon="6.31594">
        <ele>1008.08</ele>
        <time>2011-06-26T10:50:43Z</time>
      </trkpt>
      <trkpt lat="44.10303" lon="6.3159">
        <ele>1005.2</ele>
        <time>2011-06-26T10:50:47Z</time>
      </trkpt>
      <trkpt lat="44.10299" lon="6.31589">
        <ele>1004.72</ele>
        <time>2011-06-26T10:50:48Z</time>
      </trkpt>
      <trkpt lat="44.10284" lon="6.31574">
        <ele>1001.35</ele>
        <time>2011-06-26T10:50:54Z</time>
      </trkpt>
      <trkpt lat="44.10273" lon="6.31567">
        <ele>999.91</ele>
        <time>2011-06-26T10:50:57Z</time>
      </trkpt>
      <trkpt lat="44.10241" lon="6.31547">
        <ele>999.91</ele>
        <time>2011-06-26T10:51:09Z</time>
      </trkpt>
      <trkpt lat="44.10232" lon="6.31522">
        <ele>997.51</ele>
        <time>2011-06-26T10:51:15Z</time>
      </trkpt>
      <trkpt lat="44.10252" lon="6.3149">
        <ele>994.14</ele>
        <time>2011-06-26T10:51:26Z</time>
      </trkpt>
      <trkpt lat="44.10258" lon="6.31436">
        <ele>992.22</ele>
        <time>2011-06-26T10:51:37Z</time>
      </trkpt>
      <trkpt lat="44.10257" lon="6.31425">
        <ele>991.26</ele>
        <time>2011-06-26T10:51:39Z</time>
      </trkpt>
      <trkpt lat="44.10262" lon="6.31356">
        <ele>989.33</ele>
        <time>2011-06-26T10:51:54Z</time>
      </trkpt>
      <trkpt lat="44.10231" lon="6.31308">
        <ele>985.49</ele>
        <time>2011-06-26T10:52:05Z</time>
      </trkpt>
      <trkpt lat="44.10228" lon="6.31309">
        <ele>985.49</ele>
        <time>2011-06-26T10:52:06Z</time>
      </trkpt>
      <trkpt lat="44.10211" lon="6.31314">
        <ele>982.12</ele>
        <time>2011-06-26T10:52:12Z</time>
      </trkpt>
      <trkpt lat="44.10206" lon="6.31289">
        <ele>979.72</ele>
        <time>2011-06-26T10:52:19Z</time>
      </trkpt>
      <trkpt lat="44.10197" lon="6.31272">
        <ele>977.8</ele>
        <time>2011-06-26T10:52:24Z</time>
      </trkpt>
      <trkpt lat="44.10176" lon="6.31243">
        <ele>974.43</ele>
        <time>2011-06-26T10:52:34Z</time>
      </trkpt>
      <trkpt lat="44.10169" lon="6.31231">
        <ele>972.99</ele>
        <time>2011-06-26T10:52:37Z</time>
      </trkpt>
      <trkpt lat="44.10164" lon="6.31203">
        <ele>970.11</ele>
        <time>2011-06-26T10:52:43Z</time>
      </trkpt>
      <trkpt lat="44.10163" lon="6.3119">
        <ele>967.22</ele>
        <time>2011-06-26T10:52:47Z</time>
      </trkpt>
      <trkpt lat="44.10159" lon="6.31175">
        <ele>963.86</ele>
        <time>2011-06-26T10:52:52Z</time>
      </trkpt>
      <trkpt lat="44.10158" lon="6.31172">
        <ele>963.86</ele>
        <time>2011-06-26T10:52:53Z</time>
      </trkpt>
      <trkpt lat="44.10151" lon="6.3116">
        <ele>960.01</ele>
        <time>2011-06-26T10:52:58Z</time>
      </trkpt>
      <trkpt lat="44.10142" lon="6.31159">
        <ele>959.53</ele>
        <time>2011-06-26T10:53:00Z</time>
      </trkpt>
      <trkpt lat="44.10119" lon="6.31153">
        <ele>956.17</ele>
        <time>2011-06-26T10:53:04Z</time>
      </trkpt>
      <trkpt lat="44.10097" lon="6.31144">
        <ele>953.28</ele>
        <time>2011-06-26T10:53:08Z</time>
      </trkpt>
      <trkpt lat="44.10082" lon="6.31127">
        <ele>949.92</ele>
        <time>2011-06-26T10:53:12Z</time>
      </trkpt>
      <trkpt lat="44.10088" lon="6.31085">
        <ele>947.52</ele>
        <time>2011-06-26T10:53:23Z</time>
      </trkpt>
      <trkpt lat="44.10087" lon="6.31071">
        <ele>943.19</ele>
        <time>2011-06-26T10:53:26Z</time>
      </trkpt>
      <trkpt lat="44.10087" lon="6.31059">
        <ele>942.23</ele>
        <time>2011-06-26T10:53:28Z</time>
      </trkpt>
      <trkpt lat="44.10091" lon="6.31043">
        <ele>941.75</ele>
        <time>2011-06-26T10:53:32Z</time>
      </trkpt>
      <trkpt lat="44.10075" lon="6.31016">
        <ele>937.42</ele>
        <time>2011-06-26T10:53:38Z</time>
      </trkpt>
      <trkpt lat="44.10067" lon="6.31">
        <ele>934.54</ele>
        <time>2011-06-26T10:53:41Z</time>
      </trkpt>
      <trkpt lat="44.10057" lon="6.30986">
        <ele>933.58</ele>
        <time>2011-06-26T10:53:43Z</time>
      </trkpt>
      <trkpt lat="44.10043" lon="6.30963">
        <ele>930.21</ele>
        <time>2011-06-26T10:53:49Z</time>
      </trkpt>
      <trkpt lat="44.10042" lon="6.30961">
        <ele>930.21</ele>
        <time>2011-06-26T10:53:50Z</time>
      </trkpt>
      <trkpt lat="44.10044" lon="6.30964">
        <ele>929.25</ele>
        <time>2011-06-26T10:53:58Z</time>
      </trkpt>
      <trkpt lat="44.10049" lon="6.30963">
        <ele>928.77</ele>
        <time>2011-06-26T10:54:00Z</time>
      </trkpt>
      <trkpt lat="44.10059" lon="6.30971">
        <ele>927.81</ele>
        <time>2011-06-26T10:54:04Z</time>
      </trkpt>
      <trkpt lat="44.10065" lon="6.30977">
        <ele>926.85</ele>
        <time>2011-06-26T10:54:06Z</time>
      </trkpt>
      <trkpt lat="44.1008" lon="6.30975">
        <ele>929.73</ele>
        <time>2011-06-26T10:54:12Z</time>
      </trkpt>
      <trkpt lat="44.10084" lon="6.30974">
        <ele>930.69</ele>
        <time>2011-06-26T10:54:14Z</time>
      </trkpt>
      <trkpt lat="44.10086" lon="6.30975">
        <ele>931.65</ele>
        <time>2011-06-26T10:54:16Z</time>
      </trkpt>
      <trkpt lat="44.10092" lon="6.30984">
        <ele>931.17</ele>
        <time>2011-06-26T10:54:20Z</time>
      </trkpt>
      <trkpt lat="44.10106" lon="6.30994">
        <ele>932.62</ele>
        <time>2011-06-26T10:54:34Z</time>
      </trkpt>
      <trkpt lat="44.10109" lon="6.30997">
        <ele>932.14</ele>
        <time>2011-06-26T10:54:56Z</time>
      </trkpt>
      <trkpt lat="44.1012" lon="6.30991">
        <ele>933.1</ele>
        <time>2011-06-26T10:55:10Z</time>
      </trkpt>
      <trkpt lat="44.10121" lon="6.3099">
        <ele>933.58</ele>
        <time>2011-06-26T10:55:15Z</time>
      </trkpt>
      <trkpt lat="44.10126" lon="6.30978">
        <ele>933.1</ele>
        <time>2011-06-26T10:55:21Z</time>
      </trkpt>
      <trkpt lat="44.10129" lon="6.30976">
        <ele>933.58</ele>
        <time>2011-06-26T10:55:23Z</time>
      </trkpt>
      <trkpt lat="44.10136" lon="6.3095">
        <ele>930.69</ele>
        <time>2011-06-26T10:55:32Z</time>
      </trkpt>
      <trkpt lat="44.10136" lon="6.3094">
        <ele>929.73</ele>
        <time>2011-06-26T10:55:34Z</time>
      </trkpt>
      <trkpt lat="44.10122" lon="6.30904">
        <ele>926.37</ele>
        <time>2011-06-26T10:55:42Z</time>
      </trkpt>
      <trkpt lat="44.10116" lon="6.30877">
        <ele>928.29</ele>
        <time>2011-06-26T10:55:53Z</time>
      </trkpt>
      <trkpt lat="44.10125" lon="6.30861">
        <ele>931.65</ele>
        <time>2011-06-26T10:56:04Z</time>
      </trkpt>
      <trkpt lat="44.10126" lon="6.3086">
        <ele>932.14</ele>
        <time>2011-06-26T10:56:05Z</time>
      </trkpt>
      <trkpt lat="44.1013" lon="6.30856">
        <ele>933.1</ele>
        <time>2011-06-26T10:56:08Z</time>
      </trkpt>
      <trkpt lat="44.10131" lon="6.30853">
        <ele>933.58</ele>
        <time>2011-06-26T10:56:11Z</time>
      </trkpt>
      <trkpt lat="44.10137" lon="6.30848">
        <ele>931.17</ele>
        <time>2011-06-26T10:56:14Z</time>
      </trkpt>
      <trkpt lat="44.1016" lon="6.30815">
        <ele>934.06</ele>
        <time>2011-06-26T10:56:27Z</time>
      </trkpt>
      <trkpt lat="44.1017" lon="6.30792">
        <ele>936.94</ele>
        <time>2011-06-26T10:56:41Z</time>
      </trkpt>
      <trkpt lat="44.10173" lon="6.30781">
        <ele>938.38</ele>
        <time>2011-06-26T10:56:47Z</time>
      </trkpt>
      <trkpt lat="44.10171" lon="6.30748">
        <ele>941.75</ele>
        <time>2011-06-26T10:57:03Z</time>
      </trkpt>
      <trkpt lat="44.10171" lon="6.30723">
        <ele>941.27</ele>
        <time>2011-06-26T10:57:15Z</time>
      </trkpt>
      <trkpt lat="44.1017" lon="6.30692">
        <ele>938.38</ele>
        <time>2011-06-26T10:57:23Z</time>
      </trkpt>
      <trkpt lat="44.10174" lon="6.30674">
        <ele>935.02</ele>
        <time>2011-06-26T10:57:27Z</time>
      </trkpt>
      <trkpt lat="44.10179" lon="6.30653">
        <ele>931.17</ele>
        <time>2011-06-26T10:57:31Z</time>
      </trkpt>
      <trkpt lat="44.10174" lon="6.30634">
        <ele>928.29</ele>
        <time>2011-06-26T10:57:39Z</time>
      </trkpt>
      <trkpt lat="44.10166" lon="6.30626">
        <ele>924.93</ele>
        <time>2011-06-26T10:57:42Z</time>
      </trkpt>
      <trkpt lat="44.10139" lon="6.30618">
        <ele>921.56</ele>
        <time>2011-06-26T10:57:49Z</time>
      </trkpt>
      <trkpt lat="44.10136" lon="6.30617">
        <ele>921.56</ele>
        <time>2011-06-26T10:57:50Z</time>
      </trkpt>
      <trkpt lat="44.10129" lon="6.30618">
        <ele>921.56</ele>
        <time>2011-06-26T10:57:53Z</time>
      </trkpt>
      <trkpt lat="44.10125" lon="6.30615">
        <ele>919.16</ele>
        <time>2011-06-26T10:57:56Z</time>
      </trkpt>
      <trkpt lat="44.10124" lon="6.30615">
        <ele>919.16</ele>
        <time>2011-06-26T10:57:57Z</time>
      </trkpt>
      <trkpt lat="44.10133" lon="6.30605">
        <ele>919.64</ele>
        <time>2011-06-26T10:58:02Z</time>
      </trkpt>
      <trkpt lat="44.10133" lon="6.306">
        <ele>916.75</ele>
        <time>2011-06-26T10:58:09Z</time>
      </trkpt>
      <trkpt lat="44.10129" lon="6.306">
        <ele>916.27</ele>
        <time>2011-06-26T10:58:11Z</time>
      </trkpt>
      <trkpt lat="44.10116" lon="6.30599">
        <ele>913.87</ele>
        <time>2011-06-26T10:58:15Z</time>
      </trkpt>
      <trkpt lat="44.10087" lon="6.30594">
        <ele>910.03</ele>
        <time>2011-06-26T10:58:22Z</time>
      </trkpt>
      <trkpt lat="44.10066" lon="6.30596">
        <ele>906.18</ele>
        <time>2011-06-26T10:58:26Z</time>
      </trkpt>
      <trkpt lat="44.10048" lon="6.30602">
        <ele>902.82</ele>
        <time>2011-06-26T10:58:30Z</time>
      </trkpt>
      <trkpt lat="44.10033" lon="6.30607">
        <ele>899.45</ele>
        <time>2011-06-26T10:58:33Z</time>
      </trkpt>
      <trkpt lat="44.10016" lon="6.30612">
        <ele>896.09</ele>
        <time>2011-06-26T10:58:36Z</time>
      </trkpt>
      <trkpt lat="44.09999" lon="6.30627">
        <ele>896.09</ele>
        <time>2011-06-26T10:58:47Z</time>
      </trkpt>
      <trkpt lat="44.09995" lon="6.30646">
        <ele>898.01</ele>
        <time>2011-06-26T10:58:58Z</time>
      </trkpt>
      <trkpt lat="44.09989" lon="6.30661">
        <ele>898.49</ele>
        <time>2011-06-26T10:59:10Z</time>
      </trkpt>
      <trkpt lat="44.09973" lon="6.30679">
        <ele>896.09</ele>
        <time>2011-06-26T10:59:22Z</time>
      </trkpt>
      <trkpt lat="44.09968" lon="6.30684">
        <ele>894.16</ele>
        <time>2011-06-26T10:59:24Z</time>
      </trkpt>
      <trkpt lat="44.09934" lon="6.3069">
        <ele>890.32</ele>
        <time>2011-06-26T10:59:36Z</time>
      </trkpt>
      <trkpt lat="44.09924" lon="6.30683">
        <ele>889.36</ele>
        <time>2011-06-26T10:59:38Z</time>
      </trkpt>
      <trkpt lat="44.09896" lon="6.30688">
        <ele>886.47</ele>
        <time>2011-06-26T10:59:50Z</time>
      </trkpt>
      <trkpt lat="44.09899" lon="6.30647">
        <ele>885.03</ele>
        <time>2011-06-26T11:00:03Z</time>
      </trkpt>
      <trkpt lat="44.09901" lon="6.30643">
        <ele>885.03</ele>
        <time>2011-06-26T11:00:04Z</time>
      </trkpt>
      <trkpt lat="44.09911" lon="6.30604">
        <ele>885.03</ele>
        <time>2011-06-26T11:00:14Z</time>
      </trkpt>
      <trkpt lat="44.09905" lon="6.30574">
        <ele>886.95</ele>
        <time>2011-06-26T11:00:24Z</time>
      </trkpt>
      <trkpt lat="44.09873" lon="6.30549">
        <ele>890.32</ele>
        <time>2011-06-26T11:00:37Z</time>
      </trkpt>
      <trkpt lat="44.09858" lon="6.30522">
        <ele>891.76</ele>
        <time>2011-06-26T11:00:50Z</time>
      </trkpt>
      <trkpt lat="44.09856" lon="6.30518">
        <ele>893.2</ele>
        <time>2011-06-26T11:01:02Z</time>
      </trkpt>
      <trkpt lat="44.09856" lon="6.30514">
        <ele>893.68</ele>
        <time>2011-06-26T11:01:05Z</time>
      </trkpt>
      <trkpt lat="44.09859" lon="6.30497">
        <ele>896.57</ele>
        <time>2011-06-26T11:01:20Z</time>
      </trkpt>
      <trkpt lat="44.0986" lon="6.30481">
        <ele>899.93</ele>
        <time>2011-06-26T11:01:38Z</time>
      </trkpt>
      <trkpt lat="44.09862" lon="6.30468">
        <ele>903.3</ele>
        <time>2011-06-26T11:01:54Z</time>
      </trkpt>
      <trkpt lat="44.09864" lon="6.30452">
        <ele>906.18</ele>
        <time>2011-06-26T11:02:11Z</time>
      </trkpt>
      <trkpt lat="44.09865" lon="6.30439">
        <ele>908.58</ele>
        <time>2011-06-26T11:02:25Z</time>
      </trkpt>
      <trkpt lat="44.09864" lon="6.30426">
        <ele>911.47</ele>
        <time>2011-06-26T11:02:41Z</time>
      </trkpt>
      <trkpt lat="44.09861" lon="6.30416">
        <ele>913.87</ele>
        <time>2011-06-26T11:02:56Z</time>
      </trkpt>
      <trkpt lat="44.0986" lon="6.30415">
        <ele>913.39</ele>
        <time>2011-06-26T11:03:16Z</time>
      </trkpt>
      <trkpt lat="44.09859" lon="6.30414">
        <ele>913.39</ele>
        <time>2011-06-26T11:03:24Z</time>
      </trkpt>
      <trkpt lat="44.09855" lon="6.30411">
        <ele>911.95</ele>
        <time>2011-06-26T11:03:28Z</time>
      </trkpt>
      <trkpt lat="44.0985" lon="6.30405">
        <ele>908.1</ele>
        <time>2011-06-26T11:03:32Z</time>
      </trkpt>
      <trkpt lat="44.09845" lon="6.30402">
        <ele>907.14</ele>
        <time>2011-06-26T11:03:34Z</time>
      </trkpt>
      <trkpt lat="44.09818" lon="6.30392">
        <ele>903.78</ele>
        <time>2011-06-26T11:03:41Z</time>
      </trkpt>
      <trkpt lat="44.09815" lon="6.30391">
        <ele>903.3</ele>
        <time>2011-06-26T11:03:42Z</time>
      </trkpt>
      <trkpt lat="44.0981" lon="6.30386">
        <ele>901.37</ele>
        <time>2011-06-26T11:03:48Z</time>
      </trkpt>
      <trkpt lat="44.09807" lon="6.30379">
        <ele>898.49</ele>
        <time>2011-06-26T11:03:52Z</time>
      </trkpt>
      <trkpt lat="44.09802" lon="6.30366">
        <ele>894.16</ele>
        <time>2011-06-26T11:03:58Z</time>
      </trkpt>
      <trkpt lat="44.09805" lon="6.30335">
        <ele>889.84</ele>
        <time>2011-06-26T11:04:11Z</time>
      </trkpt>
      <trkpt lat="44.09804" lon="6.30333">
        <ele>888.88</ele>
        <time>2011-06-26T11:04:20Z</time>
      </trkpt>
      <trkpt lat="44.09806" lon="6.3033">
        <ele>889.36</ele>
        <time>2011-06-26T11:04:30Z</time>
      </trkpt>
      <trkpt lat="44.09803" lon="6.30306">
        <ele>886.47</ele>
        <time>2011-06-26T11:04:39Z</time>
      </trkpt>
      <trkpt lat="44.09795" lon="6.30303">
        <ele>885.03</ele>
        <time>2011-06-26T11:04:43Z</time>
      </trkpt>
      <trkpt lat="44.09785" lon="6.3028">
        <ele>881.67</ele>
        <time>2011-06-26T11:04:51Z</time>
      </trkpt>
      <trkpt lat="44.09771" lon="6.30257">
        <ele>879.26</ele>
        <time>2011-06-26T11:05:01Z</time>
      </trkpt>
      <trkpt lat="44.09763" lon="6.30227">
        <ele>878.3</ele>
        <time>2011-06-26T11:05:12Z</time>
      </trkpt>
      <trkpt lat="44.09741" lon="6.30213">
        <ele>874.46</ele>
        <time>2011-06-26T11:05:19Z</time>
      </trkpt>
      <trkpt lat="44.09723" lon="6.30216">
        <ele>871.57</ele>
        <time>2011-06-26T11:05:23Z</time>
      </trkpt>
      <trkpt lat="44.09713" lon="6.30217">
        <ele>870.61</ele>
        <time>2011-06-26T11:05:25Z</time>
      </trkpt>
      <trkpt lat="44.09692" lon="6.30201">
        <ele>868.21</ele>
        <time>2011-06-26T11:05:31Z</time>
      </trkpt>
      <trkpt lat="44.09682" lon="6.30193">
        <ele>867.25</ele>
        <time>2011-06-26T11:05:33Z</time>
      </trkpt>
      <trkpt lat="44.09663" lon="6.30179">
        <ele>863.4</ele>
        <time>2011-06-26T11:05:40Z</time>
      </trkpt>
      <trkpt lat="44.09659" lon="6.30179">
        <ele>863.4</ele>
        <time>2011-06-26T11:05:41Z</time>
      </trkpt>
      <trkpt lat="44.09645" lon="6.30174">
        <ele>860.52</ele>
        <time>2011-06-26T11:05:45Z</time>
      </trkpt>
      <trkpt lat="44.09628" lon="6.3016">
        <ele>857.15</ele>
        <time>2011-06-26T11:05:50Z</time>
      </trkpt>
      <trkpt lat="44.09619" lon="6.30155">
        <ele>856.19</ele>
        <time>2011-06-26T11:05:52Z</time>
      </trkpt>
      <trkpt lat="44.09599" lon="6.30149">
        <ele>852.83</ele>
        <time>2011-06-26T11:05:56Z</time>
      </trkpt>
      <trkpt lat="44.09594" lon="6.30148">
        <ele>851.38</ele>
        <time>2011-06-26T11:05:57Z</time>
      </trkpt>
      <trkpt lat="44.09577" lon="6.30148">
        <ele>848.5</ele>
        <time>2011-06-26T11:06:01Z</time>
      </trkpt>
      <trkpt lat="44.09563" lon="6.30143">
        <ele>844.66</ele>
        <time>2011-06-26T11:06:05Z</time>
      </trkpt>
      <trkpt lat="44.09543" lon="6.30145">
        <ele>840.81</ele>
        <time>2011-06-26T11:06:10Z</time>
      </trkpt>
      <trkpt lat="44.0953" lon="6.30144">
        <ele>839.37</ele>
        <time>2011-06-26T11:06:13Z</time>
      </trkpt>
      <trkpt lat="44.09521" lon="6.30143">
        <ele>838.41</ele>
        <time>2011-06-26T11:06:15Z</time>
      </trkpt>
      <trkpt lat="44.09514" lon="6.30141">
        <ele>837.45</ele>
        <time>2011-06-26T11:06:17Z</time>
      </trkpt>
      <trkpt lat="44.0951" lon="6.30139">
        <ele>836.96</ele>
        <time>2011-06-26T11:06:25Z</time>
      </trkpt>
      <trkpt lat="44.09504" lon="6.30133">
        <ele>835.04</ele>
        <time>2011-06-26T11:06:29Z</time>
      </trkpt>
      <trkpt lat="44.09513" lon="6.3012">
        <ele>831.2</ele>
        <time>2011-06-26T11:06:36Z</time>
      </trkpt>
      <trkpt lat="44.09522" lon="6.30112">
        <ele>827.35</ele>
        <time>2011-06-26T11:06:40Z</time>
      </trkpt>
      <trkpt lat="44.0952" lon="6.30109">
        <ele>826.39</ele>
        <time>2011-06-26T11:06:42Z</time>
      </trkpt>
      <trkpt lat="44.09511" lon="6.30108">
        <ele>823.03</ele>
        <time>2011-06-26T11:06:45Z</time>
      </trkpt>
      <trkpt lat="44.095" lon="6.301">
        <ele>821.58</ele>
        <time>2011-06-26T11:06:48Z</time>
      </trkpt>
      <trkpt lat="44.09495" lon="6.30094">
        <ele>819.66</ele>
        <time>2011-06-26T11:06:50Z</time>
      </trkpt>
      <trkpt lat="44.09487" lon="6.30084">
        <ele>816.78</ele>
        <time>2011-06-26T11:06:54Z</time>
      </trkpt>
      <trkpt lat="44.09492" lon="6.30081">
        <ele>815.82</ele>
        <time>2011-06-26T11:06:58Z</time>
      </trkpt>
      <trkpt lat="44.09509" lon="6.30072">
        <ele>811.97</ele>
        <time>2011-06-26T11:07:05Z</time>
      </trkpt>
      <trkpt lat="44.09508" lon="6.30063">
        <ele>809.09</ele>
        <time>2011-06-26T11:07:09Z</time>
      </trkpt>
      <trkpt lat="44.09498" lon="6.30058">
        <ele>806.68</ele>
        <time>2011-06-26T11:07:12Z</time>
      </trkpt>
      <trkpt lat="44.09483" lon="6.30058">
        <ele>805.24</ele>
        <time>2011-06-26T11:07:15Z</time>
      </trkpt>
      <trkpt lat="44.0947" lon="6.3006">
        <ele>801.88</ele>
        <time>2011-06-26T11:07:18Z</time>
      </trkpt>
      <trkpt lat="44.09466" lon="6.3006">
        <ele>801.4</ele>
        <time>2011-06-26T11:07:19Z</time>
      </trkpt>
      <trkpt lat="44.09452" lon="6.30062">
        <ele>798.99</ele>
        <time>2011-06-26T11:07:22Z</time>
      </trkpt>
      <trkpt lat="44.09427" lon="6.3007">
        <ele>796.59</ele>
        <time>2011-06-26T11:07:26Z</time>
      </trkpt>
      <trkpt lat="44.09415" lon="6.30073">
        <ele>795.15</ele>
        <time>2011-06-26T11:07:28Z</time>
      </trkpt>
      <trkpt lat="44.09401" lon="6.30073">
        <ele>793.22</ele>
        <time>2011-06-26T11:07:31Z</time>
      </trkpt>
      <trkpt lat="44.09397" lon="6.30071">
        <ele>793.22</ele>
        <time>2011-06-26T11:07:32Z</time>
      </trkpt>
      <trkpt lat="44.09381" lon="6.30061">
        <ele>786.5</ele>
        <time>2011-06-26T11:07:37Z</time>
      </trkpt>
      <trkpt lat="44.09378" lon="6.30058">
        <ele>786.98</ele>
        <time>2011-06-26T11:07:38Z</time>
      </trkpt>
      <trkpt lat="44.09366" lon="6.3005">
        <ele>783.61</ele>
        <time>2011-06-26T11:07:42Z</time>
      </trkpt>
      <trkpt lat="44.09363" lon="6.30048">
        <ele>783.13</ele>
        <time>2011-06-26T11:07:43Z</time>
      </trkpt>
      <trkpt lat="44.09355" lon="6.30041">
        <ele>780.25</ele>
        <time>2011-06-26T11:07:47Z</time>
      </trkpt>
      <trkpt lat="44.09351" lon="6.30037">
        <ele>777.84</ele>
        <time>2011-06-26T11:07:49Z</time>
      </trkpt>
      <trkpt lat="44.09343" lon="6.30024">
        <ele>774.48</ele>
        <time>2011-06-26T11:07:54Z</time>
      </trkpt>
      <trkpt lat="44.09334" lon="6.30006">
        <ele>771.11</ele>
        <time>2011-06-26T11:08:01Z</time>
      </trkpt>
      <trkpt lat="44.0932" lon="6.29991">
        <ele>769.19</ele>
        <time>2011-06-26T11:08:15Z</time>
      </trkpt>
      <trkpt lat="44.09319" lon="6.29987">
        <ele>769.19</ele>
        <time>2011-06-26T11:08:20Z</time>
      </trkpt>
      <trkpt lat="44.09319" lon="6.29984">
        <ele>769.67</ele>
        <time>2011-06-26T11:08:22Z</time>
      </trkpt>
      <trkpt lat="44.0932" lon="6.29983">
        <ele>769.67</ele>
        <time>2011-06-26T11:08:31Z</time>
      </trkpt>
      <trkpt lat="44.09322" lon="6.29984">
        <ele>770.15</ele>
        <time>2011-06-26T11:08:32Z</time>
      </trkpt>
      <trkpt lat="44.09351" lon="6.29984">
        <ele>773.04</ele>
        <time>2011-06-26T11:08:46Z</time>
      </trkpt>
      <trkpt lat="44.09351" lon="6.29984">
        <ele>774</ele>
        <time>2011-06-26T11:08:50Z</time>
      </trkpt>
      <trkpt lat="44.09354" lon="6.29961">
        <ele>775.44</ele>
        <time>2011-06-26T11:09:05Z</time>
      </trkpt>
      <trkpt lat="44.09354" lon="6.2996">
        <ele>775.92</ele>
        <time>2011-06-26T11:09:06Z</time>
      </trkpt>
      <trkpt lat="44.09352" lon="6.29951">
        <ele>776.4</ele>
        <time>2011-06-26T11:09:12Z</time>
      </trkpt>
      <trkpt lat="44.09352" lon="6.29948">
        <ele>776.4</ele>
        <time>2011-06-26T11:09:14Z</time>
      </trkpt>
      <trkpt lat="44.09345" lon="6.29923">
        <ele>779.29</ele>
        <time>2011-06-26T11:09:32Z</time>
      </trkpt>
      <trkpt lat="44.09345" lon="6.29917">
        <ele>780.25</ele>
        <time>2011-06-26T11:09:36Z</time>
      </trkpt>
      <trkpt lat="44.09346" lon="6.2991">
        <ele>780.73</ele>
        <time>2011-06-26T11:09:42Z</time>
      </trkpt>
      <trkpt lat="44.09345" lon="6.29899">
        <ele>781.69</ele>
        <time>2011-06-26T11:09:50Z</time>
      </trkpt>
      <trkpt lat="44.09346" lon="6.2989">
        <ele>783.61</ele>
        <time>2011-06-26T11:10:02Z</time>
      </trkpt>
      <trkpt lat="44.09351" lon="6.29898">
        <ele>784.57</ele>
        <time>2011-06-26T11:10:09Z</time>
      </trkpt>
      <trkpt lat="44.09365" lon="6.29909">
        <ele>786.98</ele>
        <time>2011-06-26T11:10:26Z</time>
      </trkpt>
      <trkpt lat="44.09371" lon="6.29918">
        <ele>789.38</ele>
        <time>2011-06-26T11:10:37Z</time>
      </trkpt>
      <trkpt lat="44.09371" lon="6.29922">
        <ele>790.34</ele>
        <time>2011-06-26T11:10:41Z</time>
      </trkpt>
      <trkpt lat="44.09379" lon="6.29927">
        <ele>792.74</ele>
        <time>2011-06-26T11:10:58Z</time>
      </trkpt>
      <trkpt lat="44.09381" lon="6.29912">
        <ele>795.15</ele>
        <time>2011-06-26T11:11:13Z</time>
      </trkpt>
      <trkpt lat="44.09391" lon="6.2992">
        <ele>797.55</ele>
        <time>2011-06-26T11:11:26Z</time>
      </trkpt>
      <trkpt lat="44.09398" lon="6.29919">
        <ele>799.47</ele>
        <time>2011-06-26T11:11:39Z</time>
      </trkpt>
      <trkpt lat="44.09408" lon="6.29918">
        <ele>801.4</ele>
        <time>2011-06-26T11:11:55Z</time>
      </trkpt>
      <trkpt lat="44.09415" lon="6.29912">
        <ele>804.76</ele>
        <time>2011-06-26T11:12:08Z</time>
      </trkpt>
      <trkpt lat="44.09423" lon="6.29905">
        <ele>807.64</ele>
        <time>2011-06-26T11:12:23Z</time>
      </trkpt>
      <trkpt lat="44.09429" lon="6.29899">
        <ele>810.05</ele>
        <time>2011-06-26T11:12:34Z</time>
      </trkpt>
      <trkpt lat="44.09435" lon="6.29887">
        <ele>811.97</ele>
        <time>2011-06-26T11:12:50Z</time>
      </trkpt>
      <trkpt lat="44.09444" lon="6.29877">
        <ele>813.89</ele>
        <time>2011-06-26T11:13:04Z</time>
      </trkpt>
      <trkpt lat="44.09449" lon="6.29863">
        <ele>815.82</ele>
        <time>2011-06-26T11:13:18Z</time>
      </trkpt>
      <trkpt lat="44.09451" lon="6.29848">
        <ele>818.7</ele>
        <time>2011-06-26T11:13:32Z</time>
      </trkpt>
      <trkpt lat="44.09453" lon="6.29835">
        <ele>821.58</ele>
        <time>2011-06-26T11:13:47Z</time>
      </trkpt>
      <trkpt lat="44.09459" lon="6.29824">
        <ele>823.03</ele>
        <time>2011-06-26T11:14:01Z</time>
      </trkpt>
      <trkpt lat="44.09462" lon="6.29817">
        <ele>824.47</ele>
        <time>2011-06-26T11:14:09Z</time>
      </trkpt>
      <trkpt lat="44.09463" lon="6.29798">
        <ele>825.91</ele>
        <time>2011-06-26T11:14:24Z</time>
      </trkpt>
      <trkpt lat="44.09463" lon="6.29788">
        <ele>828.31</ele>
        <time>2011-06-26T11:14:37Z</time>
      </trkpt>
      <trkpt lat="44.09462" lon="6.29777">
        <ele>830.72</ele>
        <time>2011-06-26T11:14:50Z</time>
      </trkpt>
      <trkpt lat="44.09467" lon="6.29766">
        <ele>833.12</ele>
        <time>2011-06-26T11:15:04Z</time>
      </trkpt>
      <trkpt lat="44.09473" lon="6.29756">
        <ele>835.52</ele>
        <time>2011-06-26T11:15:18Z</time>
      </trkpt>
      <trkpt lat="44.09482" lon="6.29746">
        <ele>837.45</ele>
        <time>2011-06-26T11:15:33Z</time>
      </trkpt>
      <trkpt lat="44.09488" lon="6.2973">
        <ele>839.37</ele>
        <time>2011-06-26T11:15:48Z</time>
      </trkpt>
      <trkpt lat="44.09488" lon="6.29714">
        <ele>842.73</ele>
        <time>2011-06-26T11:16:04Z</time>
      </trkpt>
      <trkpt lat="44.09493" lon="6.29699">
        <ele>844.66</ele>
        <time>2011-06-26T11:16:19Z</time>
      </trkpt>
      <trkpt lat="44.09496" lon="6.29694">
        <ele>845.62</ele>
        <time>2011-06-26T11:16:25Z</time>
      </trkpt>
      <trkpt lat="44.09499" lon="6.29691">
        <ele>847.06</ele>
        <time>2011-06-26T11:16:30Z</time>
      </trkpt>
      <trkpt lat="44.09502" lon="6.2968">
        <ele>848.98</ele>
        <time>2011-06-26T11:16:44Z</time>
      </trkpt>
      <trkpt lat="44.09503" lon="6.29672">
        <ele>849.94</ele>
        <time>2011-06-26T11:16:51Z</time>
      </trkpt>
      <trkpt lat="44.09503" lon="6.29668">
        <ele>849.94</ele>
        <time>2011-06-26T11:16:54Z</time>
      </trkpt>
      <trkpt lat="44.09504" lon="6.29654">
        <ele>852.35</ele>
        <time>2011-06-26T11:17:08Z</time>
      </trkpt>
      <trkpt lat="44.09507" lon="6.29644">
        <ele>854.27</ele>
        <time>2011-06-26T11:17:21Z</time>
      </trkpt>
      <trkpt lat="44.09502" lon="6.29632">
        <ele>857.15</ele>
        <time>2011-06-26T11:17:36Z</time>
      </trkpt>
      <trkpt lat="44.09504" lon="6.29617">
        <ele>859.56</ele>
        <time>2011-06-26T11:17:52Z</time>
      </trkpt>
      <trkpt lat="44.09506" lon="6.29606">
        <ele>861</ele>
        <time>2011-06-26T11:18:04Z</time>
      </trkpt>
      <trkpt lat="44.09512" lon="6.29591">
        <ele>863.4</ele>
        <time>2011-06-26T11:18:17Z</time>
      </trkpt>
      <trkpt lat="44.09526" lon="6.29579">
        <ele>864.84</ele>
        <time>2011-06-26T11:18:33Z</time>
      </trkpt>
      <trkpt lat="44.09529" lon="6.29578">
        <ele>865.8</ele>
        <time>2011-06-26T11:18:36Z</time>
      </trkpt>
      <trkpt lat="44.09537" lon="6.29576">
        <ele>866.29</ele>
        <time>2011-06-26T11:18:43Z</time>
      </trkpt>
      <trkpt lat="44.0955" lon="6.29562">
        <ele>868.69</ele>
        <time>2011-06-26T11:19:00Z</time>
      </trkpt>
      <trkpt lat="44.09558" lon="6.29551">
        <ele>870.61</ele>
        <time>2011-06-26T11:19:14Z</time>
      </trkpt>
      <trkpt lat="44.0956" lon="6.29549">
        <ele>871.09</ele>
        <time>2011-06-26T11:19:16Z</time>
      </trkpt>
      <trkpt lat="44.09573" lon="6.29534">
        <ele>873.5</ele>
        <time>2011-06-26T11:19:33Z</time>
      </trkpt>
      <trkpt lat="44.09576" lon="6.2953">
        <ele>873.98</ele>
        <time>2011-06-26T11:19:37Z</time>
      </trkpt>
      <trkpt lat="44.09579" lon="6.29523">
        <ele>875.42</ele>
        <time>2011-06-26T11:19:43Z</time>
      </trkpt>
      <trkpt lat="44.0958" lon="6.29518">
        <ele>875.9</ele>
        <time>2011-06-26T11:19:48Z</time>
      </trkpt>
      <trkpt lat="44.09582" lon="6.29508">
        <ele>877.34</ele>
        <time>2011-06-26T11:19:56Z</time>
      </trkpt>
      <trkpt lat="44.09586" lon="6.29503">
        <ele>878.3</ele>
        <time>2011-06-26T11:20:02Z</time>
      </trkpt>
      <trkpt lat="44.09593" lon="6.29499">
        <ele>878.3</ele>
        <time>2011-06-26T11:20:08Z</time>
      </trkpt>
      <trkpt lat="44.0961" lon="6.29489">
        <ele>878.78</ele>
        <time>2011-06-26T11:20:23Z</time>
      </trkpt>
      <trkpt lat="44.09612" lon="6.29488">
        <ele>879.26</ele>
        <time>2011-06-26T11:20:26Z</time>
      </trkpt>
      <trkpt lat="44.09625" lon="6.2949">
        <ele>881.67</ele>
        <time>2011-06-26T11:20:42Z</time>
      </trkpt>
      <trkpt lat="44.09638" lon="6.29483">
        <ele>883.59</ele>
        <time>2011-06-26T11:20:56Z</time>
      </trkpt>
      <trkpt lat="44.09642" lon="6.29481">
        <ele>884.07</ele>
        <time>2011-06-26T11:21:00Z</time>
      </trkpt>
      <trkpt lat="44.09659" lon="6.29469">
        <ele>886.95</ele>
        <time>2011-06-26T11:21:19Z</time>
      </trkpt>
      <trkpt lat="44.0967" lon="6.29458">
        <ele>889.84</ele>
        <time>2011-06-26T11:21:34Z</time>
      </trkpt>
      <trkpt lat="44.09682" lon="6.29447">
        <ele>891.28</ele>
        <time>2011-06-26T11:21:48Z</time>
      </trkpt>
      <trkpt lat="44.09694" lon="6.29436">
        <ele>892.24</ele>
        <time>2011-06-26T11:22:03Z</time>
      </trkpt>
      <trkpt lat="44.09709" lon="6.29437">
        <ele>893.68</ele>
        <time>2011-06-26T11:22:17Z</time>
      </trkpt>
      <trkpt lat="44.09721" lon="6.29453">
        <ele>895.12</ele>
        <time>2011-06-26T11:22:33Z</time>
      </trkpt>
      <trkpt lat="44.0973" lon="6.29467">
        <ele>897.53</ele>
        <time>2011-06-26T11:22:48Z</time>
      </trkpt>
      <trkpt lat="44.09735" lon="6.29474">
        <ele>898.01</ele>
        <time>2011-06-26T11:22:59Z</time>
      </trkpt>
      <trkpt lat="44.0974" lon="6.29475">
        <ele>898.97</ele>
        <time>2011-06-26T11:23:03Z</time>
      </trkpt>
      <trkpt lat="44.09742" lon="6.29476">
        <ele>898.97</ele>
        <time>2011-06-26T11:23:05Z</time>
      </trkpt>
      <trkpt lat="44.09767" lon="6.29468">
        <ele>899.45</ele>
        <time>2011-06-26T11:23:20Z</time>
      </trkpt>
      <trkpt lat="44.09804" lon="6.29448">
        <ele>898.49</ele>
        <time>2011-06-26T11:23:32Z</time>
      </trkpt>
      <trkpt lat="44.09837" lon="6.29439">
        <ele>898.49</ele>
        <time>2011-06-26T11:23:44Z</time>
      </trkpt>
      <trkpt lat="44.09875" lon="6.29434">
        <ele>898.97</ele>
        <time>2011-06-26T11:23:55Z</time>
      </trkpt>
      <trkpt lat="44.09911" lon="6.29433">
        <ele>898.97</ele>
        <time>2011-06-26T11:24:08Z</time>
      </trkpt>
      <trkpt lat="44.09898" lon="6.29473">
        <ele>899.93</ele>
        <time>2011-06-26T11:24:20Z</time>
      </trkpt>
      <trkpt lat="44.09884" lon="6.29511">
        <ele>901.37</ele>
        <time>2011-06-26T11:24:34Z</time>
      </trkpt>
      <trkpt lat="44.09882" lon="6.29552">
        <ele>904.26</ele>
        <time>2011-06-26T11:24:48Z</time>
      </trkpt>
      <trkpt lat="44.09879" lon="6.29594">
        <ele>904.26</ele>
        <time>2011-06-26T11:25:02Z</time>
      </trkpt>
      <trkpt lat="44.09893" lon="6.29628">
        <ele>905.22</ele>
        <time>2011-06-26T11:25:15Z</time>
      </trkpt>
      <trkpt lat="44.09931" lon="6.29656">
        <ele>907.62</ele>
        <time>2011-06-26T11:25:27Z</time>
      </trkpt>
      <trkpt lat="44.09951" lon="6.29689">
        <ele>909.06</ele>
        <time>2011-06-26T11:25:40Z</time>
      </trkpt>
      <trkpt lat="44.09957" lon="6.29696">
        <ele>909.54</ele>
        <time>2011-06-26T11:25:44Z</time>
      </trkpt>
      <trkpt lat="44.10002" lon="6.2969">
        <ele>909.54</ele>
        <time>2011-06-26T11:25:59Z</time>
      </trkpt>
      <trkpt lat="44.10052" lon="6.29691">
        <ele>907.14</ele>
        <time>2011-06-26T11:26:13Z</time>
      </trkpt>
      <trkpt lat="44.10074" lon="6.29682">
        <ele>904.74</ele>
        <time>2011-06-26T11:26:21Z</time>
      </trkpt>
      <trkpt lat="44.10101" lon="6.29678">
        <ele>904.26</ele>
        <time>2011-06-26T11:26:33Z</time>
      </trkpt>
      <trkpt lat="44.10102" lon="6.29684">
        <ele>904.26</ele>
        <time>2011-06-26T11:26:35Z</time>
      </trkpt>
      <trkpt lat="44.10092" lon="6.29709">
        <ele>907.14</ele>
        <time>2011-06-26T11:26:48Z</time>
      </trkpt>
      <trkpt lat="44.10102" lon="6.29739">
        <ele>909.54</ele>
        <time>2011-06-26T11:27:04Z</time>
      </trkpt>
      <trkpt lat="44.10106" lon="6.29746">
        <ele>910.51</ele>
        <time>2011-06-26T11:27:09Z</time>
      </trkpt>
      <trkpt lat="44.10122" lon="6.29766">
        <ele>912.91</ele>
        <time>2011-06-26T11:27:25Z</time>
      </trkpt>
      <trkpt lat="44.10137" lon="6.29787">
        <ele>914.83</ele>
        <time>2011-06-26T11:27:39Z</time>
      </trkpt>
      <trkpt lat="44.10143" lon="6.29793">
        <ele>915.79</ele>
        <time>2011-06-26T11:27:44Z</time>
      </trkpt>
      <trkpt lat="44.10156" lon="6.29797">
        <ele>918.68</ele>
        <time>2011-06-26T11:27:56Z</time>
      </trkpt>
      <trkpt lat="44.10159" lon="6.298">
        <ele>917.72</ele>
        <time>2011-06-26T11:27:59Z</time>
      </trkpt>
      <trkpt lat="44.10171" lon="6.298">
        <ele>919.16</ele>
        <time>2011-06-26T11:28:08Z</time>
      </trkpt>
      <trkpt lat="44.10196" lon="6.29811">
        <ele>922.04</ele>
        <time>2011-06-26T11:28:25Z</time>
      </trkpt>
      <trkpt lat="44.10216" lon="6.29843">
        <ele>922.04</ele>
        <time>2011-06-26T11:28:38Z</time>
      </trkpt>
      <trkpt lat="44.10224" lon="6.29859">
        <ele>923.96</ele>
        <time>2011-06-26T11:28:47Z</time>
      </trkpt>
      <trkpt lat="44.10234" lon="6.29871">
        <ele>925.41</ele>
        <time>2011-06-26T11:28:55Z</time>
      </trkpt>
      <trkpt lat="44.10251" lon="6.29896">
        <ele>927.33</ele>
        <time>2011-06-26T11:29:10Z</time>
      </trkpt>
      <trkpt lat="44.1027" lon="6.29913">
        <ele>928.77</ele>
        <time>2011-06-26T11:29:23Z</time>
      </trkpt>
      <trkpt lat="44.10297" lon="6.29931">
        <ele>928.29</ele>
        <time>2011-06-26T11:29:35Z</time>
      </trkpt>
      <trkpt lat="44.10323" lon="6.29965">
        <ele>924.93</ele>
        <time>2011-06-26T11:29:46Z</time>
      </trkpt>
      <trkpt lat="44.10326" lon="6.29975">
        <ele>923.96</ele>
        <time>2011-06-26T11:29:48Z</time>
      </trkpt>
      <trkpt lat="44.10349" lon="6.30034">
        <ele>923.48</ele>
        <time>2011-06-26T11:30:02Z</time>
      </trkpt>
      <trkpt lat="44.10358" lon="6.30037">
        <ele>925.89</ele>
        <time>2011-06-26T11:30:13Z</time>
      </trkpt>
      <trkpt lat="44.10361" lon="6.30039">
        <ele>929.25</ele>
        <time>2011-06-26T11:30:26Z</time>
      </trkpt>
      <trkpt lat="44.10371" lon="6.30045">
        <ele>931.65</ele>
        <time>2011-06-26T11:30:47Z</time>
      </trkpt>
      <trkpt lat="44.10373" lon="6.30049">
        <ele>932.62</ele>
        <time>2011-06-26T11:31:29Z</time>
      </trkpt>
      <trkpt lat="44.10374" lon="6.30052">
        <ele>932.62</ele>
        <time>2011-06-26T11:31:31Z</time>
      </trkpt>
      <trkpt lat="44.10385" lon="6.30075">
        <ele>932.14</ele>
        <time>2011-06-26T11:31:45Z</time>
      </trkpt>
      <trkpt lat="44.10412" lon="6.30097">
        <ele>933.58</ele>
        <time>2011-06-26T11:31:58Z</time>
      </trkpt>
      <trkpt lat="44.10427" lon="6.30102">
        <ele>935.02</ele>
        <time>2011-06-26T11:32:12Z</time>
      </trkpt>
      <trkpt lat="44.10459" lon="6.30109">
        <ele>936.46</ele>
        <time>2011-06-26T11:32:28Z</time>
      </trkpt>
      <trkpt lat="44.10489" lon="6.30115">
        <ele>938.38</ele>
        <time>2011-06-26T11:32:42Z</time>
      </trkpt>
      <trkpt lat="44.10514" lon="6.30113">
        <ele>940.79</ele>
        <time>2011-06-26T11:32:55Z</time>
      </trkpt>
      <trkpt lat="44.10526" lon="6.30115">
        <ele>941.75</ele>
        <time>2011-06-26T11:33:02Z</time>
      </trkpt>
      <trkpt lat="44.10541" lon="6.30122">
        <ele>941.75</ele>
        <time>2011-06-26T11:33:09Z</time>
      </trkpt>
      <trkpt lat="44.10567" lon="6.30126">
        <ele>943.67</ele>
        <time>2011-06-26T11:33:23Z</time>
      </trkpt>
      <trkpt lat="44.10575" lon="6.30129">
        <ele>944.15</ele>
        <time>2011-06-26T11:33:35Z</time>
      </trkpt>
      <trkpt lat="44.10585" lon="6.30147">
        <ele>945.11</ele>
        <time>2011-06-26T11:33:48Z</time>
      </trkpt>
      <trkpt lat="44.10593" lon="6.30165">
        <ele>947.52</ele>
        <time>2011-06-26T11:34:02Z</time>
      </trkpt>
      <trkpt lat="44.10595" lon="6.30168">
        <ele>948</ele>
        <time>2011-06-26T11:34:05Z</time>
      </trkpt>
      <trkpt lat="44.10604" lon="6.30183">
        <ele>949.44</ele>
        <time>2011-06-26T11:34:15Z</time>
      </trkpt>
      <trkpt lat="44.10607" lon="6.30184">
        <ele>949.44</ele>
        <time>2011-06-26T11:34:26Z</time>
      </trkpt>
      <trkpt lat="44.10608" lon="6.30184">
        <ele>950.4</ele>
        <time>2011-06-26T11:34:31Z</time>
      </trkpt>
      <trkpt lat="44.10622" lon="6.30174">
        <ele>952.8</ele>
        <time>2011-06-26T11:34:47Z</time>
      </trkpt>
      <trkpt lat="44.10633" lon="6.30166">
        <ele>956.17</ele>
        <time>2011-06-26T11:35:02Z</time>
      </trkpt>
      <trkpt lat="44.10646" lon="6.30166">
        <ele>958.09</ele>
        <time>2011-06-26T11:35:17Z</time>
      </trkpt>
      <trkpt lat="44.10649" lon="6.30172">
        <ele>957.61</ele>
        <time>2011-06-26T11:35:30Z</time>
      </trkpt>
      <trkpt lat="44.10667" lon="6.30199">
        <ele>956.17</ele>
        <time>2011-06-26T11:35:41Z</time>
      </trkpt>
      <trkpt lat="44.10671" lon="6.30208">
        <ele>955.21</ele>
        <time>2011-06-26T11:35:43Z</time>
      </trkpt>
      <trkpt lat="44.10673" lon="6.3021">
        <ele>954.73</ele>
        <time>2011-06-26T11:35:44Z</time>
      </trkpt>
      <trkpt lat="44.10686" lon="6.3023">
        <ele>953.28</ele>
        <time>2011-06-26T11:35:49Z</time>
      </trkpt>
      <trkpt lat="44.10701" lon="6.30257">
        <ele>949.44</ele>
        <time>2011-06-26T11:35:55Z</time>
      </trkpt>
      <trkpt lat="44.10717" lon="6.30284">
        <ele>947.04</ele>
        <time>2011-06-26T11:36:01Z</time>
      </trkpt>
      <trkpt lat="44.10727" lon="6.30316">
        <ele>943.67</ele>
        <time>2011-06-26T11:36:06Z</time>
      </trkpt>
      <trkpt lat="44.10734" lon="6.30347">
        <ele>940.31</ele>
        <time>2011-06-26T11:36:11Z</time>
      </trkpt>
      <trkpt lat="44.10738" lon="6.30378">
        <ele>937.42</ele>
        <time>2011-06-26T11:36:16Z</time>
      </trkpt>
      <trkpt lat="44.10742" lon="6.30399">
        <ele>936.94</ele>
        <time>2011-06-26T11:36:19Z</time>
      </trkpt>
      <trkpt lat="44.10744" lon="6.30441">
        <ele>937.9</ele>
        <time>2011-06-26T11:36:29Z</time>
      </trkpt>
      <trkpt lat="44.10752" lon="6.30482">
        <ele>936.46</ele>
        <time>2011-06-26T11:36:38Z</time>
      </trkpt>
      <trkpt lat="44.10766" lon="6.30534">
        <ele>935.98</ele>
        <time>2011-06-26T11:36:47Z</time>
      </trkpt>
      <trkpt lat="44.10763" lon="6.30557">
        <ele>936.94</ele>
        <time>2011-06-26T11:36:54Z</time>
      </trkpt>
      <trkpt lat="44.10759" lon="6.30578">
        <ele>939.83</ele>
        <time>2011-06-26T11:37:06Z</time>
      </trkpt>
      <trkpt lat="44.10761" lon="6.30594">
        <ele>939.83</ele>
        <time>2011-06-26T11:37:18Z</time>
      </trkpt>
      <trkpt lat="44.1076" lon="6.30602">
        <ele>940.79</ele>
        <time>2011-06-26T11:37:24Z</time>
      </trkpt>
      <trkpt lat="44.10761" lon="6.3061">
        <ele>941.75</ele>
        <time>2011-06-26T11:37:29Z</time>
      </trkpt>
      <trkpt lat="44.10761" lon="6.30618">
        <ele>942.23</ele>
        <time>2011-06-26T11:37:34Z</time>
      </trkpt>
      <trkpt lat="44.1076" lon="6.30622">
        <ele>943.67</ele>
        <time>2011-06-26T11:37:38Z</time>
      </trkpt>
      <trkpt lat="44.10766" lon="6.3064">
        <ele>945.11</ele>
        <time>2011-06-26T11:37:52Z</time>
      </trkpt>
      <trkpt lat="44.10769" lon="6.30657">
        <ele>947.04</ele>
        <time>2011-06-26T11:38:06Z</time>
      </trkpt>
      <trkpt lat="44.10769" lon="6.3067">
        <ele>949.44</ele>
        <time>2011-06-26T11:38:20Z</time>
      </trkpt>
      <trkpt lat="44.10771" lon="6.3068">
        <ele>950.88</ele>
        <time>2011-06-26T11:38:32Z</time>
      </trkpt>
      <trkpt lat="44.10781" lon="6.30693">
        <ele>950.4</ele>
        <time>2011-06-26T11:38:47Z</time>
      </trkpt>
      <trkpt lat="44.10796" lon="6.3072">
        <ele>952.32</ele>
        <time>2011-06-26T11:38:59Z</time>
      </trkpt>
      <trkpt lat="44.10817" lon="6.30738">
        <ele>954.73</ele>
        <time>2011-06-26T11:39:12Z</time>
      </trkpt>
      <trkpt lat="44.10844" lon="6.30751">
        <ele>955.69</ele>
        <time>2011-06-26T11:39:25Z</time>
      </trkpt>
      <trkpt lat="44.1087" lon="6.30768">
        <ele>955.69</ele>
        <time>2011-06-26T11:39:35Z</time>
      </trkpt>
      <trkpt lat="44.10913" lon="6.30815">
        <ele>952.8</ele>
        <time>2011-06-26T11:39:48Z</time>
      </trkpt>
      <trkpt lat="44.10917" lon="6.30819">
        <ele>952.8</ele>
        <time>2011-06-26T11:39:49Z</time>
      </trkpt>
      <trkpt lat="44.10955" lon="6.30867">
        <ele>951.36</ele>
        <time>2011-06-26T11:40:03Z</time>
      </trkpt>
      <trkpt lat="44.10979" lon="6.30893">
        <ele>950.4</ele>
        <time>2011-06-26T11:40:15Z</time>
      </trkpt>
      <trkpt lat="44.10992" lon="6.30913">
        <ele>948.96</ele>
        <time>2011-06-26T11:40:21Z</time>
      </trkpt>
      <trkpt lat="44.10995" lon="6.30914">
        <ele>947.52</ele>
        <time>2011-06-26T11:40:27Z</time>
      </trkpt>
      <trkpt lat="44.11007" lon="6.30921">
        <ele>946.56</ele>
        <time>2011-06-26T11:40:35Z</time>
      </trkpt>
      <trkpt lat="44.11033" lon="6.30954">
        <ele>944.15</ele>
        <time>2011-06-26T11:40:46Z</time>
      </trkpt>
      <trkpt lat="44.11037" lon="6.30956">
        <ele>944.15</ele>
        <time>2011-06-26T11:40:47Z</time>
      </trkpt>
      <trkpt lat="44.11042" lon="6.30959">
        <ele>943.19</ele>
        <time>2011-06-26T11:40:48Z</time>
      </trkpt>
      <trkpt lat="44.11056" lon="6.30963">
        <ele>941.27</ele>
        <time>2011-06-26T11:40:51Z</time>
      </trkpt>
      <trkpt lat="44.11059" lon="6.30964">
        <ele>941.27</ele>
        <time>2011-06-26T11:40:52Z</time>
      </trkpt>
      <trkpt lat="44.11083" lon="6.30973">
        <ele>943.19</ele>
        <time>2011-06-26T11:41:06Z</time>
      </trkpt>
      <trkpt lat="44.11085" lon="6.3097">
        <ele>944.63</ele>
        <time>2011-06-26T11:41:14Z</time>
      </trkpt>
      <trkpt lat="44.11093" lon="6.30968">
        <ele>945.11</ele>
        <time>2011-06-26T11:41:30Z</time>
      </trkpt>
      <trkpt lat="44.11095" lon="6.30967">
        <ele>945.59</ele>
        <time>2011-06-26T11:41:32Z</time>
      </trkpt>
      <trkpt lat="44.11117" lon="6.30971">
        <ele>947.52</ele>
        <time>2011-06-26T11:41:49Z</time>
      </trkpt>
      <trkpt lat="44.11134" lon="6.30972">
        <ele>949.92</ele>
        <time>2011-06-26T11:42:06Z</time>
      </trkpt>
      <trkpt lat="44.11143" lon="6.30973">
        <ele>951.84</ele>
        <time>2011-06-26T11:42:14Z</time>
      </trkpt>
      <trkpt lat="44.11159" lon="6.30992">
        <ele>950.88</ele>
        <time>2011-06-26T11:42:26Z</time>
      </trkpt>
      <trkpt lat="44.11193" lon="6.31041">
        <ele>948</ele>
        <time>2011-06-26T11:42:37Z</time>
      </trkpt>
      <trkpt lat="44.11196" lon="6.31046">
        <ele>947.52</ele>
        <time>2011-06-26T11:42:38Z</time>
      </trkpt>
      <trkpt lat="44.11201" lon="6.3106">
        <ele>946.07</ele>
        <time>2011-06-26T11:42:40Z</time>
      </trkpt>
      <trkpt lat="44.11212" lon="6.31085">
        <ele>944.15</ele>
        <time>2011-06-26T11:42:43Z</time>
      </trkpt>
      <trkpt lat="44.11221" lon="6.31101">
        <ele>941.75</ele>
        <time>2011-06-26T11:42:46Z</time>
      </trkpt>
      <trkpt lat="44.11232" lon="6.31108">
        <ele>943.19</ele>
        <time>2011-06-26T11:42:50Z</time>
      </trkpt>
      <trkpt lat="44.11235" lon="6.31111">
        <ele>943.67</ele>
        <time>2011-06-26T11:42:52Z</time>
      </trkpt>
      <trkpt lat="44.11248" lon="6.31123">
        <ele>946.56</ele>
        <time>2011-06-26T11:43:02Z</time>
      </trkpt>
      <trkpt lat="44.11252" lon="6.31131">
        <ele>948</ele>
        <time>2011-06-26T11:43:14Z</time>
      </trkpt>
      <trkpt lat="44.11262" lon="6.31143">
        <ele>950.4</ele>
        <time>2011-06-26T11:43:28Z</time>
      </trkpt>
      <trkpt lat="44.1127" lon="6.31151">
        <ele>952.32</ele>
        <time>2011-06-26T11:43:42Z</time>
      </trkpt>
      <trkpt lat="44.11272" lon="6.31152">
        <ele>952.32</ele>
        <time>2011-06-26T11:43:47Z</time>
      </trkpt>
      <trkpt lat="44.11288" lon="6.3118">
        <ele>951.84</ele>
        <time>2011-06-26T11:43:57Z</time>
      </trkpt>
      <trkpt lat="44.11299" lon="6.31222">
        <ele>952.32</ele>
        <time>2011-06-26T11:44:10Z</time>
      </trkpt>
      <trkpt lat="44.11323" lon="6.31264">
        <ele>948.48</ele>
        <time>2011-06-26T11:44:21Z</time>
      </trkpt>
      <trkpt lat="44.1133" lon="6.31289">
        <ele>945.59</ele>
        <time>2011-06-26T11:44:26Z</time>
      </trkpt>
      <trkpt lat="44.1133" lon="6.3131">
        <ele>941.75</ele>
        <time>2011-06-26T11:44:29Z</time>
      </trkpt>
      <trkpt lat="44.11341" lon="6.31327">
        <ele>938.86</ele>
        <time>2011-06-26T11:44:33Z</time>
      </trkpt>
      <trkpt lat="44.11362" lon="6.31351">
        <ele>938.38</ele>
        <time>2011-06-26T11:44:36Z</time>
      </trkpt>
      <trkpt lat="44.1137" lon="6.31348">
        <ele>939.35</ele>
        <time>2011-06-26T11:44:43Z</time>
      </trkpt>
      <trkpt lat="44.11387" lon="6.31339">
        <ele>942.71</ele>
        <time>2011-06-26T11:44:59Z</time>
      </trkpt>
      <trkpt lat="44.11388" lon="6.3134">
        <ele>942.71</ele>
        <time>2011-06-26T11:45:05Z</time>
      </trkpt>
      <trkpt lat="44.11395" lon="6.31343">
        <ele>943.19</ele>
        <time>2011-06-26T11:45:10Z</time>
      </trkpt>
      <trkpt lat="44.11406" lon="6.31362">
        <ele>940.79</ele>
        <time>2011-06-26T11:45:22Z</time>
      </trkpt>
      <trkpt lat="44.11411" lon="6.31356">
        <ele>943.19</ele>
        <time>2011-06-26T11:45:37Z</time>
      </trkpt>
      <trkpt lat="44.11417" lon="6.31351">
        <ele>946.56</ele>
        <time>2011-06-26T11:45:48Z</time>
      </trkpt>
      <trkpt lat="44.11421" lon="6.31348">
        <ele>946.56</ele>
        <time>2011-06-26T11:45:56Z</time>
      </trkpt>
      <trkpt lat="44.11436" lon="6.31326">
        <ele>945.11</ele>
        <time>2011-06-26T11:46:08Z</time>
      </trkpt>
      <trkpt lat="44.11454" lon="6.31314">
        <ele>943.19</ele>
        <time>2011-06-26T11:46:14Z</time>
      </trkpt>
      <trkpt lat="44.11487" lon="6.31309">
        <ele>944.15</ele>
        <time>2011-06-26T11:46:24Z</time>
      </trkpt>
      <trkpt lat="44.11497" lon="6.31295">
        <ele>943.67</ele>
        <time>2011-06-26T11:46:32Z</time>
      </trkpt>
      <trkpt lat="44.11514" lon="6.313">
        <ele>946.56</ele>
        <time>2011-06-26T11:46:43Z</time>
      </trkpt>
      <trkpt lat="44.11544" lon="6.31317">
        <ele>947.04</ele>
        <time>2011-06-26T11:46:57Z</time>
      </trkpt>
      <trkpt lat="44.11594" lon="6.3134">
        <ele>945.59</ele>
        <time>2011-06-26T11:47:11Z</time>
      </trkpt>
      <trkpt lat="44.11619" lon="6.31349">
        <ele>946.07</ele>
        <time>2011-06-26T11:47:21Z</time>
      </trkpt>
      <trkpt lat="44.11639" lon="6.31329">
        <ele>948.96</ele>
        <time>2011-06-26T11:47:33Z</time>
      </trkpt>
      <trkpt lat="44.1166" lon="6.31336">
        <ele>951.84</ele>
        <time>2011-06-26T11:47:46Z</time>
      </trkpt>
      <trkpt lat="44.11678" lon="6.31342">
        <ele>954.73</ele>
        <time>2011-06-26T11:47:58Z</time>
      </trkpt>
      <trkpt lat="44.11701" lon="6.31359">
        <ele>956.17</ele>
        <time>2011-06-26T11:48:13Z</time>
      </trkpt>
      <trkpt lat="44.11705" lon="6.31365">
        <ele>956.65</ele>
        <time>2011-06-26T11:48:24Z</time>
      </trkpt>
      <trkpt lat="44.11703" lon="6.31367">
        <ele>956.65</ele>
        <time>2011-06-26T11:48:26Z</time>
      </trkpt>
      <trkpt lat="44.117" lon="6.3137">
        <ele>956.17</ele>
        <time>2011-06-26T11:48:40Z</time>
      </trkpt>
      <trkpt lat="44.117" lon="6.31371">
        <ele>956.65</ele>
        <time>2011-06-26T11:50:31Z</time>
      </trkpt>
      <trkpt lat="44.117" lon="6.31373">
        <ele>957.13</ele>
        <time>2011-06-26T11:52:41Z</time>
      </trkpt>
      <trkpt lat="44.11699" lon="6.31371">
        <ele>957.61</ele>
        <time>2011-06-26T11:56:29Z</time>
      </trkpt>
      <trkpt lat="44.11699" lon="6.31371">
        <ele>957.61</ele>
        <time>2011-06-26T11:57:24Z</time>
      </trkpt>
      <trkpt lat="44.11698" lon="6.31369">
        <ele>957.61</ele>
        <time>2011-06-26T11:59:08Z</time>
      </trkpt>
      <trkpt lat="44.11691" lon="6.31371">
        <ele>957.61</ele>
        <time>2011-06-26T11:59:12Z</time>
      </trkpt>
      <trkpt lat="44.11667" lon="6.31413">
        <ele>958.09</ele>
        <time>2011-06-26T11:59:26Z</time>
      </trkpt>
      <trkpt lat="44.11653" lon="6.31433">
        <ele>953.28</ele>
        <time>2011-06-26T11:59:33Z</time>
      </trkpt>
      <trkpt lat="44.11651" lon="6.31435">
        <ele>958.57</ele>
        <time>2011-06-26T11:59:34Z</time>
      </trkpt>
      <trkpt lat="44.11645" lon="6.31442">
        <ele>962.42</ele>
        <time>2011-06-26T11:59:37Z</time>
      </trkpt>
      <trkpt lat="44.11643" lon="6.31444">
        <ele>959.53</ele>
        <time>2011-06-26T11:59:38Z</time>
      </trkpt>
      <trkpt lat="44.11635" lon="6.31454">
        <ele>963.38</ele>
        <time>2011-06-26T11:59:43Z</time>
      </trkpt>
      <trkpt lat="44.11634" lon="6.31455">
        <ele>960.49</ele>
        <time>2011-06-26T11:59:44Z</time>
      </trkpt>
      <trkpt lat="44.11631" lon="6.31458">
        <ele>959.53</ele>
        <time>2011-06-26T11:59:46Z</time>
      </trkpt>
      <trkpt lat="44.11607" lon="6.31451">
        <ele>959.05</ele>
        <time>2011-06-26T11:59:56Z</time>
      </trkpt>
      <trkpt lat="44.11572" lon="6.31402">
        <ele>960.98</ele>
        <time>2011-06-26T12:00:11Z</time>
      </trkpt>
      <trkpt lat="44.1153" lon="6.31387">
        <ele>961.94</ele>
        <time>2011-06-26T12:00:24Z</time>
      </trkpt>
      <trkpt lat="44.11488" lon="6.31395">
        <ele>962.9</ele>
        <time>2011-06-26T12:00:38Z</time>
      </trkpt>
      <trkpt lat="44.11461" lon="6.31441">
        <ele>963.86</ele>
        <time>2011-06-26T12:00:51Z</time>
      </trkpt>
      <trkpt lat="44.11431" lon="6.31484">
        <ele>965.78</ele>
        <time>2011-06-26T12:01:05Z</time>
      </trkpt>
      <trkpt lat="44.11397" lon="6.31517">
        <ele>968.18</ele>
        <time>2011-06-26T12:01:19Z</time>
      </trkpt>
      <trkpt lat="44.11353" lon="6.31533">
        <ele>968.18</ele>
        <time>2011-06-26T12:01:33Z</time>
      </trkpt>
      <trkpt lat="44.11348" lon="6.31532">
        <ele>967.7</ele>
        <time>2011-06-26T12:01:34Z</time>
      </trkpt>
      <trkpt lat="44.11327" lon="6.31529">
        <ele>966.26</ele>
        <time>2011-06-26T12:01:38Z</time>
      </trkpt>
      <trkpt lat="44.11321" lon="6.3153">
        <ele>966.74</ele>
        <time>2011-06-26T12:01:39Z</time>
      </trkpt>
      <trkpt lat="44.11309" lon="6.31536">
        <ele>965.78</ele>
        <time>2011-06-26T12:01:41Z</time>
      </trkpt>
      <trkpt lat="44.11304" lon="6.31539">
        <ele>965.78</ele>
        <time>2011-06-26T12:01:42Z</time>
      </trkpt>
      <trkpt lat="44.11298" lon="6.3154">
        <ele>965.78</ele>
        <time>2011-06-26T12:01:43Z</time>
      </trkpt>
      <trkpt lat="44.11292" lon="6.31539">
        <ele>965.78</ele>
        <time>2011-06-26T12:01:44Z</time>
      </trkpt>
      <trkpt lat="44.11287" lon="6.31536">
        <ele>965.3</ele>
        <time>2011-06-26T12:01:45Z</time>
      </trkpt>
      <trkpt lat="44.11282" lon="6.31531">
        <ele>965.3</ele>
        <time>2011-06-26T12:01:46Z</time>
      </trkpt>
      <trkpt lat="44.11278" lon="6.31527">
        <ele>965.78</ele>
        <time>2011-06-26T12:01:47Z</time>
      </trkpt>
      <trkpt lat="44.11275" lon="6.31523">
        <ele>965.78</ele>
        <time>2011-06-26T12:01:48Z</time>
      </trkpt>
      <trkpt lat="44.11246" lon="6.31499">
        <ele>968.18</ele>
        <time>2011-06-26T12:02:00Z</time>
      </trkpt>
      <trkpt lat="44.11232" lon="6.31497">
        <ele>967.22</ele>
        <time>2011-06-26T12:02:03Z</time>
      </trkpt>
      <trkpt lat="44.11227" lon="6.31496">
        <ele>966.74</ele>
        <time>2011-06-26T12:02:04Z</time>
      </trkpt>
      <trkpt lat="44.11223" lon="6.31492">
        <ele>966.74</ele>
        <time>2011-06-26T12:02:05Z</time>
      </trkpt>
      <trkpt lat="44.1122" lon="6.31486">
        <ele>966.26</ele>
        <time>2011-06-26T12:02:06Z</time>
      </trkpt>
      <trkpt lat="44.11219" lon="6.31478">
        <ele>966.74</ele>
        <time>2011-06-26T12:02:07Z</time>
      </trkpt>
      <trkpt lat="44.11219" lon="6.3147">
        <ele>966.74</ele>
        <time>2011-06-26T12:02:08Z</time>
      </trkpt>
      <trkpt lat="44.11221" lon="6.31464">
        <ele>967.22</ele>
        <time>2011-06-26T12:02:09Z</time>
      </trkpt>
      <trkpt lat="44.11224" lon="6.3146">
        <ele>966.74</ele>
        <time>2011-06-26T12:02:10Z</time>
      </trkpt>
      <trkpt lat="44.11226" lon="6.31456">
        <ele>967.22</ele>
        <time>2011-06-26T12:02:11Z</time>
      </trkpt>
      <trkpt lat="44.11224" lon="6.31427">
        <ele>969.63</ele>
        <time>2011-06-26T12:02:20Z</time>
      </trkpt>
      <trkpt lat="44.11198" lon="6.31402">
        <ele>972.03</ele>
        <time>2011-06-26T12:02:33Z</time>
      </trkpt>
      <trkpt lat="44.1118" lon="6.3137">
        <ele>974.91</ele>
        <time>2011-06-26T12:02:46Z</time>
      </trkpt>
      <trkpt lat="44.11163" lon="6.31345">
        <ele>977.8</ele>
        <time>2011-06-26T12:02:59Z</time>
      </trkpt>
      <trkpt lat="44.11139" lon="6.31339">
        <ele>980.2</ele>
        <time>2011-06-26T12:03:11Z</time>
      </trkpt>
      <trkpt lat="44.11123" lon="6.31311">
        <ele>982.6</ele>
        <time>2011-06-26T12:03:25Z</time>
      </trkpt>
      <trkpt lat="44.1111" lon="6.31274">
        <ele>984.05</ele>
        <time>2011-06-26T12:03:38Z</time>
      </trkpt>
      <trkpt lat="44.11109" lon="6.31237">
        <ele>987.41</ele>
        <time>2011-06-26T12:03:51Z</time>
      </trkpt>
      <trkpt lat="44.11102" lon="6.312">
        <ele>989.33</ele>
        <time>2011-06-26T12:04:04Z</time>
      </trkpt>
      <trkpt lat="44.11077" lon="6.31199">
        <ele>990.78</ele>
        <time>2011-06-26T12:04:16Z</time>
      </trkpt>
      <trkpt lat="44.11052" lon="6.31226">
        <ele>994.14</ele>
        <time>2011-06-26T12:04:31Z</time>
      </trkpt>
      <trkpt lat="44.11027" lon="6.3124">
        <ele>997.02</ele>
        <time>2011-06-26T12:04:46Z</time>
      </trkpt>
      <trkpt lat="44.10994" lon="6.31251">
        <ele>999.91</ele>
        <time>2011-06-26T12:05:04Z</time>
      </trkpt>
      <trkpt lat="44.10972" lon="6.31233">
        <ele>1002.31</ele>
        <time>2011-06-26T12:05:18Z</time>
      </trkpt>
      <trkpt lat="44.10955" lon="6.31209">
        <ele>1005.2</ele>
        <time>2011-06-26T12:05:31Z</time>
      </trkpt>
      <trkpt lat="44.10935" lon="6.31175">
        <ele>1008.08</ele>
        <time>2011-06-26T12:05:47Z</time>
      </trkpt>
      <trkpt lat="44.10922" lon="6.31143">
        <ele>1010.48</ele>
        <time>2011-06-26T12:06:01Z</time>
      </trkpt>
      <trkpt lat="44.10906" lon="6.31109">
        <ele>1013.37</ele>
        <time>2011-06-26T12:06:16Z</time>
      </trkpt>
      <trkpt lat="44.10887" lon="6.31072">
        <ele>1015.77</ele>
        <time>2011-06-26T12:06:33Z</time>
      </trkpt>
      <trkpt lat="44.10874" lon="6.31038">
        <ele>1018.17</ele>
        <time>2011-06-26T12:06:47Z</time>
      </trkpt>
      <trkpt lat="44.10864" lon="6.31029">
        <ele>1018.65</ele>
        <time>2011-06-26T12:06:52Z</time>
      </trkpt>
      <trkpt lat="44.10862" lon="6.31029">
        <ele>1018.65</ele>
        <time>2011-06-26T12:06:53Z</time>
      </trkpt>
      <trkpt lat="44.1086" lon="6.3103">
        <ele>1018.17</ele>
        <time>2011-06-26T12:06:54Z</time>
      </trkpt>
      <trkpt lat="44.10858" lon="6.31031">
        <ele>1018.17</ele>
        <time>2011-06-26T12:06:55Z</time>
      </trkpt>
      <trkpt lat="44.10856" lon="6.31032">
        <ele>1018.17</ele>
        <time>2011-06-26T12:06:56Z</time>
      </trkpt>
      <trkpt lat="44.10854" lon="6.31034">
        <ele>1018.17</ele>
        <time>2011-06-26T12:06:57Z</time>
      </trkpt>
      <trkpt lat="44.10854" lon="6.31037">
        <ele>1018.17</ele>
        <time>2011-06-26T12:06:58Z</time>
      </trkpt>
      <trkpt lat="44.10853" lon="6.3104">
        <ele>1018.17</ele>
        <time>2011-06-26T12:06:59Z</time>
      </trkpt>
      <trkpt lat="44.10853" lon="6.31043">
        <ele>1018.17</ele>
        <time>2011-06-26T12:07:00Z</time>
      </trkpt>
      <trkpt lat="44.10862" lon="6.31081">
        <ele>1020.58</ele>
        <time>2011-06-26T12:07:14Z</time>
      </trkpt>
      <trkpt lat="44.10862" lon="6.31117">
        <ele>1022.98</ele>
        <time>2011-06-26T12:07:28Z</time>
      </trkpt>
      <trkpt lat="44.10859" lon="6.3115">
        <ele>1025.86</ele>
        <time>2011-06-26T12:07:41Z</time>
      </trkpt>
      <trkpt lat="44.10866" lon="6.31186">
        <ele>1028.75</ele>
        <time>2011-06-26T12:07:56Z</time>
      </trkpt>
      <trkpt lat="44.10877" lon="6.31224">
        <ele>1032.11</ele>
        <time>2011-06-26T12:08:12Z</time>
      </trkpt>
      <trkpt lat="44.10879" lon="6.3127">
        <ele>1035</ele>
        <time>2011-06-26T12:08:29Z</time>
      </trkpt>
      <trkpt lat="44.10879" lon="6.31312">
        <ele>1037.4</ele>
        <time>2011-06-26T12:08:44Z</time>
      </trkpt>
      <trkpt lat="44.10876" lon="6.3136">
        <ele>1040.28</ele>
        <time>2011-06-26T12:09:01Z</time>
      </trkpt>
      <trkpt lat="44.10869" lon="6.31401">
        <ele>1042.69</ele>
        <time>2011-06-26T12:09:17Z</time>
      </trkpt>
      <trkpt lat="44.1087" lon="6.31446">
        <ele>1045.57</ele>
        <time>2011-06-26T12:09:33Z</time>
      </trkpt>
      <trkpt lat="44.10865" lon="6.31494">
        <ele>1048.94</ele>
        <time>2011-06-26T12:09:51Z</time>
      </trkpt>
      <trkpt lat="44.10867" lon="6.3154">
        <ele>1051.82</ele>
        <time>2011-06-26T12:10:08Z</time>
      </trkpt>
      <trkpt lat="44.10876" lon="6.31584">
        <ele>1054.7</ele>
        <time>2011-06-26T12:10:25Z</time>
      </trkpt>
      <trkpt lat="44.10881" lon="6.3162">
        <ele>1057.11</ele>
        <time>2011-06-26T12:10:39Z</time>
      </trkpt>
      <trkpt lat="44.10889" lon="6.31655">
        <ele>1059.99</ele>
        <time>2011-06-26T12:10:53Z</time>
      </trkpt>
      <trkpt lat="44.10899" lon="6.31687">
        <ele>1063.36</ele>
        <time>2011-06-26T12:11:07Z</time>
      </trkpt>
      <trkpt lat="44.10909" lon="6.31721">
        <ele>1065.76</ele>
        <time>2011-06-26T12:11:22Z</time>
      </trkpt>
      <trkpt lat="44.10916" lon="6.31764">
        <ele>1068.64</ele>
        <time>2011-06-26T12:11:38Z</time>
      </trkpt>
      <trkpt lat="44.10911" lon="6.31783">
        <ele>1071.05</ele>
        <time>2011-06-26T12:11:47Z</time>
      </trkpt>
      <trkpt lat="44.1091" lon="6.31785">
        <ele>1070.57</ele>
        <time>2011-06-26T12:12:00Z</time>
      </trkpt>
      <trkpt lat="44.1091" lon="6.31785">
        <ele>1071.05</ele>
        <time>2011-06-26T12:12:06Z</time>
      </trkpt>
      <trkpt lat="44.1091" lon="6.31785">
        <ele>1070.08</ele>
        <time>2011-06-26T12:12:14Z</time>
      </trkpt>
      <trkpt lat="44.1091" lon="6.31785">
        <ele>1072.01</ele>
        <time>2011-06-26T12:12:16Z</time>
      </trkpt>
      <trkpt lat="44.10908" lon="6.31793">
        <ele>1072.01</ele>
        <time>2011-06-26T12:13:16Z</time>
      </trkpt>
      <trkpt lat="44.10901" lon="6.31828">
        <ele>1075.37</ele>
        <time>2011-06-26T12:13:31Z</time>
      </trkpt>
      <trkpt lat="44.10896" lon="6.31861">
        <ele>1078.26</ele>
        <time>2011-06-26T12:13:46Z</time>
      </trkpt>
      <trkpt lat="44.10883" lon="6.31898">
        <ele>1081.14</ele>
        <time>2011-06-26T12:14:04Z</time>
      </trkpt>
      <trkpt lat="44.10876" lon="6.31932">
        <ele>1084.5</ele>
        <time>2011-06-26T12:14:20Z</time>
      </trkpt>
      <trkpt lat="44.10865" lon="6.31964">
        <ele>1087.39</ele>
        <time>2011-06-26T12:14:36Z</time>
      </trkpt>
      <trkpt lat="44.10853" lon="6.31993">
        <ele>1089.79</ele>
        <time>2011-06-26T12:14:51Z</time>
      </trkpt>
      <trkpt lat="44.10846" lon="6.32027">
        <ele>1093.16</ele>
        <time>2011-06-26T12:15:05Z</time>
      </trkpt>
      <trkpt lat="44.10842" lon="6.32064">
        <ele>1095.08</ele>
        <time>2011-06-26T12:15:20Z</time>
      </trkpt>
      <trkpt lat="44.10842" lon="6.32076">
        <ele>1096.52</ele>
        <time>2011-06-26T12:15:25Z</time>
      </trkpt>
      <trkpt lat="44.1086" lon="6.32102">
        <ele>1098.92</ele>
        <time>2011-06-26T12:15:40Z</time>
      </trkpt>
      <trkpt lat="44.10884" lon="6.32101">
        <ele>1099.4</ele>
        <time>2011-06-26T12:15:55Z</time>
      </trkpt>
      <trkpt lat="44.10905" lon="6.32075">
        <ele>1099.4</ele>
        <time>2011-06-26T12:16:11Z</time>
      </trkpt>
      <trkpt lat="44.10905" lon="6.32074">
        <ele>1099.4</ele>
        <time>2011-06-26T12:16:17Z</time>
      </trkpt>
      <trkpt lat="44.10929" lon="6.32058">
        <ele>1098.44</ele>
        <time>2011-06-26T12:16:28Z</time>
      </trkpt>
      <trkpt lat="44.10945" lon="6.32074">
        <ele>1097</ele>
        <time>2011-06-26T12:16:33Z</time>
      </trkpt>
      <trkpt lat="44.10976" lon="6.32098">
        <ele>1094.6</ele>
        <time>2011-06-26T12:16:39Z</time>
      </trkpt>
      <trkpt lat="44.10983" lon="6.32101">
        <ele>1094.6</ele>
        <time>2011-06-26T12:16:40Z</time>
      </trkpt>
      <trkpt lat="44.11022" lon="6.32115">
        <ele>1094.6</ele>
        <time>2011-06-26T12:16:46Z</time>
      </trkpt>
      <trkpt lat="44.11027" lon="6.32114">
        <ele>1094.6</ele>
        <time>2011-06-26T12:16:47Z</time>
      </trkpt>
      <trkpt lat="44.11033" lon="6.32112">
        <ele>1094.12</ele>
        <time>2011-06-26T12:16:48Z</time>
      </trkpt>
      <trkpt lat="44.11049" lon="6.32103">
        <ele>1092.2</ele>
        <time>2011-06-26T12:16:51Z</time>
      </trkpt>
      <trkpt lat="44.11055" lon="6.32104">
        <ele>1092.68</ele>
        <time>2011-06-26T12:16:52Z</time>
      </trkpt>
      <trkpt lat="44.11059" lon="6.32107">
        <ele>1092.2</ele>
        <time>2011-06-26T12:16:53Z</time>
      </trkpt>
      <trkpt lat="44.11061" lon="6.32112">
        <ele>1091.71</ele>
        <time>2011-06-26T12:16:54Z</time>
      </trkpt>
      <trkpt lat="44.11062" lon="6.32119">
        <ele>1091.23</ele>
        <time>2011-06-26T12:16:55Z</time>
      </trkpt>
      <trkpt lat="44.11063" lon="6.32127">
        <ele>1091.23</ele>
        <time>2011-06-26T12:16:56Z</time>
      </trkpt>
      <trkpt lat="44.11062" lon="6.32137">
        <ele>1090.27</ele>
        <time>2011-06-26T12:16:57Z</time>
      </trkpt>
      <trkpt lat="44.11061" lon="6.32145">
        <ele>1089.79</ele>
        <time>2011-06-26T12:16:58Z</time>
      </trkpt>
      <trkpt lat="44.11058" lon="6.32162">
        <ele>1088.35</ele>
        <time>2011-06-26T12:17:00Z</time>
      </trkpt>
      <trkpt lat="44.11057" lon="6.3218">
        <ele>1086.91</ele>
        <time>2011-06-26T12:17:02Z</time>
      </trkpt>
      <trkpt lat="44.11058" lon="6.32188">
        <ele>1086.43</ele>
        <time>2011-06-26T12:17:03Z</time>
      </trkpt>
      <trkpt lat="44.11058" lon="6.32197">
        <ele>1085.95</ele>
        <time>2011-06-26T12:17:04Z</time>
      </trkpt>
      <trkpt lat="44.11058" lon="6.32205">
        <ele>1084.5</ele>
        <time>2011-06-26T12:17:05Z</time>
      </trkpt>
      <trkpt lat="44.11057" lon="6.32214">
        <ele>1084.02</ele>
        <time>2011-06-26T12:17:06Z</time>
      </trkpt>
      <trkpt lat="44.11057" lon="6.32222">
        <ele>1083.54</ele>
        <time>2011-06-26T12:17:07Z</time>
      </trkpt>
      <trkpt lat="44.11058" lon="6.32229">
        <ele>1083.06</ele>
        <time>2011-06-26T12:17:08Z</time>
      </trkpt>
      <trkpt lat="44.11056" lon="6.32235">
        <ele>1082.58</ele>
        <time>2011-06-26T12:17:09Z</time>
      </trkpt>
      <trkpt lat="44.11054" lon="6.32241">
        <ele>1081.62</ele>
        <time>2011-06-26T12:17:10Z</time>
      </trkpt>
      <trkpt lat="44.11052" lon="6.32247">
        <ele>1080.66</ele>
        <time>2011-06-26T12:17:11Z</time>
      </trkpt>
      <trkpt lat="44.11051" lon="6.32263">
        <ele>1080.18</ele>
        <time>2011-06-26T12:17:15Z</time>
      </trkpt>
      <trkpt lat="44.11053" lon="6.32265">
        <ele>1079.7</ele>
        <time>2011-06-26T12:17:16Z</time>
      </trkpt>
      <trkpt lat="44.11079" lon="6.32292">
        <ele>1078.74</ele>
        <time>2011-06-26T12:17:26Z</time>
      </trkpt>
      <trkpt lat="44.11084" lon="6.32294">
        <ele>1078.26</ele>
        <time>2011-06-26T12:17:27Z</time>
      </trkpt>
      <trkpt lat="44.11088" lon="6.32292">
        <ele>1078.26</ele>
        <time>2011-06-26T12:17:28Z</time>
      </trkpt>
      <trkpt lat="44.11092" lon="6.3229">
        <ele>1078.26</ele>
        <time>2011-06-26T12:17:29Z</time>
      </trkpt>
      <trkpt lat="44.11095" lon="6.32288">
        <ele>1078.26</ele>
        <time>2011-06-26T12:17:30Z</time>
      </trkpt>
      <trkpt lat="44.11099" lon="6.32288">
        <ele>1078.74</ele>
        <time>2011-06-26T12:17:31Z</time>
      </trkpt>
      <trkpt lat="44.11101" lon="6.32288">
        <ele>1078.74</ele>
        <time>2011-06-26T12:17:32Z</time>
      </trkpt>
      <trkpt lat="44.11105" lon="6.32289">
        <ele>1078.74</ele>
        <time>2011-06-26T12:17:33Z</time>
      </trkpt>
      <trkpt lat="44.11108" lon="6.3229">
        <ele>1079.22</ele>
        <time>2011-06-26T12:17:34Z</time>
      </trkpt>
      <trkpt lat="44.11111" lon="6.32292">
        <ele>1078.26</ele>
        <time>2011-06-26T12:17:35Z</time>
      </trkpt>
      <trkpt lat="44.11114" lon="6.32295">
        <ele>1078.74</ele>
        <time>2011-06-26T12:17:36Z</time>
      </trkpt>
      <trkpt lat="44.11117" lon="6.32297">
        <ele>1079.22</ele>
        <time>2011-06-26T12:17:37Z</time>
      </trkpt>
      <trkpt lat="44.11119" lon="6.32298">
        <ele>1079.7</ele>
        <time>2011-06-26T12:17:38Z</time>
      </trkpt>
      <trkpt lat="44.11121" lon="6.32299">
        <ele>1080.18</ele>
        <time>2011-06-26T12:17:39Z</time>
      </trkpt>
      <trkpt lat="44.1114" lon="6.32312">
        <ele>1075.85</ele>
        <time>2011-06-26T12:17:47Z</time>
      </trkpt>
      <trkpt lat="44.11143" lon="6.32314">
        <ele>1075.37</ele>
        <time>2011-06-26T12:17:48Z</time>
      </trkpt>
      <trkpt lat="44.11145" lon="6.3232">
        <ele>1074.41</ele>
        <time>2011-06-26T12:17:49Z</time>
      </trkpt>
      <trkpt lat="44.11147" lon="6.32325">
        <ele>1073.93</ele>
        <time>2011-06-26T12:17:50Z</time>
      </trkpt>
      <trkpt lat="44.11149" lon="6.3233">
        <ele>1073.93</ele>
        <time>2011-06-26T12:17:51Z</time>
      </trkpt>
      <trkpt lat="44.1115" lon="6.32334">
        <ele>1073.93</ele>
        <time>2011-06-26T12:17:52Z</time>
      </trkpt>
      <trkpt lat="44.11152" lon="6.32338">
        <ele>1073.93</ele>
        <time>2011-06-26T12:17:53Z</time>
      </trkpt>
      <trkpt lat="44.11154" lon="6.32342">
        <ele>1074.41</ele>
        <time>2011-06-26T12:17:54Z</time>
      </trkpt>
      <trkpt lat="44.11156" lon="6.32355">
        <ele>1073.45</ele>
        <time>2011-06-26T12:17:57Z</time>
      </trkpt>
      <trkpt lat="44.11157" lon="6.32361">
        <ele>1072.49</ele>
        <time>2011-06-26T12:17:58Z</time>
      </trkpt>
      <trkpt lat="44.11159" lon="6.32365">
        <ele>1072.01</ele>
        <time>2011-06-26T12:17:59Z</time>
      </trkpt>
      <trkpt lat="44.11161" lon="6.32366">
        <ele>1072.01</ele>
        <time>2011-06-26T12:18:00Z</time>
      </trkpt>
      <trkpt lat="44.11164" lon="6.32368">
        <ele>1071.53</ele>
        <time>2011-06-26T12:18:01Z</time>
      </trkpt>
      <trkpt lat="44.11171" lon="6.32367">
        <ele>1070.57</ele>
        <time>2011-06-26T12:18:03Z</time>
      </trkpt>
      <trkpt lat="44.11178" lon="6.32366">
        <ele>1071.53</ele>
        <time>2011-06-26T12:18:06Z</time>
      </trkpt>
      <trkpt lat="44.11205" lon="6.32376">
        <ele>1072.49</ele>
        <time>2011-06-26T12:18:18Z</time>
      </trkpt>
      <trkpt lat="44.11207" lon="6.32376">
        <ele>1072.49</ele>
        <time>2011-06-26T12:18:19Z</time>
      </trkpt>
      <trkpt lat="44.11227" lon="6.32372">
        <ele>1072.97</ele>
        <time>2011-06-26T12:18:29Z</time>
      </trkpt>
      <trkpt lat="44.11243" lon="6.32368">
        <ele>1073.45</ele>
        <time>2011-06-26T12:18:36Z</time>
      </trkpt>
      <trkpt lat="44.11249" lon="6.32367">
        <ele>1073.93</ele>
        <time>2011-06-26T12:18:39Z</time>
      </trkpt>
      <trkpt lat="44.11268" lon="6.32362">
        <ele>1073.93</ele>
        <time>2011-06-26T12:18:46Z</time>
      </trkpt>
      <trkpt lat="44.11294" lon="6.32345">
        <ele>1075.37</ele>
        <time>2011-06-26T12:18:58Z</time>
      </trkpt>
      <trkpt lat="44.1132" lon="6.32336">
        <ele>1076.33</ele>
        <time>2011-06-26T12:19:09Z</time>
      </trkpt>
      <trkpt lat="44.11329" lon="6.32327">
        <ele>1077.29</ele>
        <time>2011-06-26T12:19:15Z</time>
      </trkpt>
      <trkpt lat="44.11341" lon="6.32327">
        <ele>1077.29</ele>
        <time>2011-06-26T12:19:22Z</time>
      </trkpt>
      <trkpt lat="44.11344" lon="6.32323">
        <ele>1077.78</ele>
        <time>2011-06-26T12:19:24Z</time>
      </trkpt>
      <trkpt lat="44.11345" lon="6.32312">
        <ele>1078.26</ele>
        <time>2011-06-26T12:19:28Z</time>
      </trkpt>
      <trkpt lat="44.11357" lon="6.32309">
        <ele>1080.18</ele>
        <time>2011-06-26T12:19:37Z</time>
      </trkpt>
      <trkpt lat="44.11374" lon="6.32308">
        <ele>1083.54</ele>
        <time>2011-06-26T12:19:48Z</time>
      </trkpt>
      <trkpt lat="44.11389" lon="6.32308">
        <ele>1080.18</ele>
        <time>2011-06-26T12:19:58Z</time>
      </trkpt>
      <trkpt lat="44.11401" lon="6.32331">
        <ele>1075.85</ele>
        <time>2011-06-26T12:20:07Z</time>
      </trkpt>
      <trkpt lat="44.11398" lon="6.32345">
        <ele>1072.01</ele>
        <time>2011-06-26T12:20:10Z</time>
      </trkpt>
      <trkpt lat="44.11394" lon="6.32355">
        <ele>1070.57</ele>
        <time>2011-06-26T12:20:13Z</time>
      </trkpt>
      <trkpt lat="44.11394" lon="6.3237">
        <ele>1067.68</ele>
        <time>2011-06-26T12:20:19Z</time>
      </trkpt>
      <trkpt lat="44.11403" lon="6.32382">
        <ele>1065.28</ele>
        <time>2011-06-26T12:20:23Z</time>
      </trkpt>
      <trkpt lat="44.11417" lon="6.32387">
        <ele>1062.39</ele>
        <time>2011-06-26T12:20:29Z</time>
      </trkpt>
      <trkpt lat="44.11427" lon="6.32399">
        <ele>1059.03</ele>
        <time>2011-06-26T12:20:33Z</time>
      </trkpt>
      <trkpt lat="44.11429" lon="6.32404">
        <ele>1058.55</ele>
        <time>2011-06-26T12:20:34Z</time>
      </trkpt>
      <trkpt lat="44.11454" lon="6.3243">
        <ele>1059.51</ele>
        <time>2011-06-26T12:20:47Z</time>
      </trkpt>
      <trkpt lat="44.11456" lon="6.32432">
        <ele>1059.03</ele>
        <time>2011-06-26T12:20:48Z</time>
      </trkpt>
      <trkpt lat="44.11483" lon="6.32447">
        <ele>1056.63</ele>
        <time>2011-06-26T12:20:59Z</time>
      </trkpt>
      <trkpt lat="44.11485" lon="6.32453">
        <ele>1054.22</ele>
        <time>2011-06-26T12:21:03Z</time>
      </trkpt>
      <trkpt lat="44.11486" lon="6.32453">
        <ele>1053.26</ele>
        <time>2011-06-26T12:21:05Z</time>
      </trkpt>
      <trkpt lat="44.11489" lon="6.32451">
        <ele>1051.34</ele>
        <time>2011-06-26T12:21:09Z</time>
      </trkpt>
      <trkpt lat="44.11494" lon="6.3245">
        <ele>1045.09</ele>
        <time>2011-06-26T12:21:13Z</time>
      </trkpt>
      <trkpt lat="44.11501" lon="6.32449">
        <ele>1042.69</ele>
        <time>2011-06-26T12:21:17Z</time>
      </trkpt>
      <trkpt lat="44.11503" lon="6.32452">
        <ele>1043.17</ele>
        <time>2011-06-26T12:21:18Z</time>
      </trkpt>
      <trkpt lat="44.11514" lon="6.3246">
        <ele>1041.25</ele>
        <time>2011-06-26T12:21:26Z</time>
      </trkpt>
      <trkpt lat="44.1152" lon="6.32454">
        <ele>1037.88</ele>
        <time>2011-06-26T12:21:30Z</time>
      </trkpt>
      <trkpt lat="44.11523" lon="6.3245">
        <ele>1034.52</ele>
        <time>2011-06-26T12:21:33Z</time>
      </trkpt>
      <trkpt lat="44.11528" lon="6.32446">
        <ele>1033.55</ele>
        <time>2011-06-26T12:21:35Z</time>
      </trkpt>
      <trkpt lat="44.11559" lon="6.32436">
        <ele>1035.48</ele>
        <time>2011-06-26T12:21:47Z</time>
      </trkpt>
      <trkpt lat="44.11565" lon="6.32427">
        <ele>1031.15</ele>
        <time>2011-06-26T12:21:51Z</time>
      </trkpt>
      <trkpt lat="44.1157" lon="6.32417">
        <ele>1029.23</ele>
        <time>2011-06-26T12:21:54Z</time>
      </trkpt>
      <trkpt lat="44.11578" lon="6.32403">
        <ele>1027.31</ele>
        <time>2011-06-26T12:21:57Z</time>
      </trkpt>
      <trkpt lat="44.11585" lon="6.32395">
        <ele>1023.94</ele>
        <time>2011-06-26T12:22:00Z</time>
      </trkpt>
      <trkpt lat="44.11588" lon="6.32392">
        <ele>1023.46</ele>
        <time>2011-06-26T12:22:01Z</time>
      </trkpt>
      <trkpt lat="44.11612" lon="6.32412">
        <ele>1023.94</ele>
        <time>2011-06-26T12:22:10Z</time>
      </trkpt>
      <trkpt lat="44.11627" lon="6.32417">
        <ele>1023.94</ele>
        <time>2011-06-26T12:22:16Z</time>
      </trkpt>
      <trkpt lat="44.11648" lon="6.32424">
        <ele>1024.42</ele>
        <time>2011-06-26T12:22:26Z</time>
      </trkpt>
      <trkpt lat="44.11655" lon="6.32427">
        <ele>1024.9</ele>
        <time>2011-06-26T12:22:31Z</time>
      </trkpt>
      <trkpt lat="44.11661" lon="6.32416">
        <ele>1019.13</ele>
        <time>2011-06-26T12:22:35Z</time>
      </trkpt>
      <trkpt lat="44.11664" lon="6.32402">
        <ele>1017.21</ele>
        <time>2011-06-26T12:22:38Z</time>
      </trkpt>
      <trkpt lat="44.11666" lon="6.32377">
        <ele>1015.29</ele>
        <time>2011-06-26T12:22:43Z</time>
      </trkpt>
      <trkpt lat="44.11695" lon="6.32346">
        <ele>1015.29</ele>
        <time>2011-06-26T12:22:55Z</time>
      </trkpt>
      <trkpt lat="44.11728" lon="6.32331">
        <ele>1011.93</ele>
        <time>2011-06-26T12:23:03Z</time>
      </trkpt>
      <trkpt lat="44.11761" lon="6.32323">
        <ele>1010.48</ele>
        <time>2011-06-26T12:23:13Z</time>
      </trkpt>
      <trkpt lat="44.11772" lon="6.32309">
        <ele>1007.12</ele>
        <time>2011-06-26T12:23:18Z</time>
      </trkpt>
      <trkpt lat="44.11771" lon="6.32294">
        <ele>1003.27</ele>
        <time>2011-06-26T12:23:23Z</time>
      </trkpt>
      <trkpt lat="44.11775" lon="6.32291">
        <ele>1001.35</ele>
        <time>2011-06-26T12:23:25Z</time>
      </trkpt>
      <trkpt lat="44.11777" lon="6.32288">
        <ele>1001.35</ele>
        <time>2011-06-26T12:23:26Z</time>
      </trkpt>
      <trkpt lat="44.11814" lon="6.3229">
        <ele>1003.27</ele>
        <time>2011-06-26T12:23:41Z</time>
      </trkpt>
      <trkpt lat="44.1182" lon="6.32288">
        <ele>1003.27</ele>
        <time>2011-06-26T12:23:44Z</time>
      </trkpt>
      <trkpt lat="44.11825" lon="6.32274">
        <ele>1001.35</ele>
        <time>2011-06-26T12:23:49Z</time>
      </trkpt>
      <trkpt lat="44.11839" lon="6.32247">
        <ele>1001.35</ele>
        <time>2011-06-26T12:23:58Z</time>
      </trkpt>
      <trkpt lat="44.11861" lon="6.32222">
        <ele>1001.83</ele>
        <time>2011-06-26T12:24:09Z</time>
      </trkpt>
      <trkpt lat="44.11876" lon="6.32211">
        <ele>1005.2</ele>
        <time>2011-06-26T12:24:21Z</time>
      </trkpt>
      <trkpt lat="44.11893" lon="6.32198">
        <ele>1007.12</ele>
        <time>2011-06-26T12:24:32Z</time>
      </trkpt>
      <trkpt lat="44.11889" lon="6.32189">
        <ele>1007.6</ele>
        <time>2011-06-26T12:24:36Z</time>
      </trkpt>
      <trkpt lat="44.11873" lon="6.3216">
        <ele>1006.16</ele>
        <time>2011-06-26T12:24:49Z</time>
      </trkpt>
      <trkpt lat="44.11867" lon="6.32142">
        <ele>1008.56</ele>
        <time>2011-06-26T12:24:58Z</time>
      </trkpt>
      <trkpt lat="44.11876" lon="6.32131">
        <ele>1005.2</ele>
        <time>2011-06-26T12:25:05Z</time>
      </trkpt>
      <trkpt lat="44.11877" lon="6.3213">
        <ele>1005.2</ele>
        <time>2011-06-26T12:25:06Z</time>
      </trkpt>
      <trkpt lat="44.11882" lon="6.32132">
        <ele>1003.75</ele>
        <time>2011-06-26T12:25:10Z</time>
      </trkpt>
      <trkpt lat="44.11891" lon="6.32137">
        <ele>1000.39</ele>
        <time>2011-06-26T12:25:14Z</time>
      </trkpt>
      <trkpt lat="44.11901" lon="6.32138">
        <ele>996.06</ele>
        <time>2011-06-26T12:25:17Z</time>
      </trkpt>
      <trkpt lat="44.11923" lon="6.32132">
        <ele>992.7</ele>
        <time>2011-06-26T12:25:25Z</time>
      </trkpt>
      <trkpt lat="44.11929" lon="6.32126">
        <ele>989.33</ele>
        <time>2011-06-26T12:25:28Z</time>
      </trkpt>
      <trkpt lat="44.11939" lon="6.32118">
        <ele>985.97</ele>
        <time>2011-06-26T12:25:31Z</time>
      </trkpt>
      <trkpt lat="44.1195" lon="6.32111">
        <ele>982.12</ele>
        <time>2011-06-26T12:25:35Z</time>
      </trkpt>
      <trkpt lat="44.11956" lon="6.32105">
        <ele>977.8</ele>
        <time>2011-06-26T12:25:37Z</time>
      </trkpt>
      <trkpt lat="44.11962" lon="6.32092">
        <ele>974.43</ele>
        <time>2011-06-26T12:25:40Z</time>
      </trkpt>
      <trkpt lat="44.11965" lon="6.32088">
        <ele>974.43</ele>
        <time>2011-06-26T12:25:41Z</time>
      </trkpt>
      <trkpt lat="44.11995" lon="6.32102">
        <ele>974.43</ele>
        <time>2011-06-26T12:25:54Z</time>
      </trkpt>
      <trkpt lat="44.12004" lon="6.32108">
        <ele>977.32</ele>
        <time>2011-06-26T12:26:00Z</time>
      </trkpt>
      <trkpt lat="44.1203" lon="6.32124">
        <ele>974.43</ele>
        <time>2011-06-26T12:26:12Z</time>
      </trkpt>
      <trkpt lat="44.12035" lon="6.32132">
        <ele>972.99</ele>
        <time>2011-06-26T12:26:14Z</time>
      </trkpt>
      <trkpt lat="44.12041" lon="6.32147">
        <ele>970.11</ele>
        <time>2011-06-26T12:26:18Z</time>
      </trkpt>
      <trkpt lat="44.1205" lon="6.32153">
        <ele>966.74</ele>
        <time>2011-06-26T12:26:22Z</time>
      </trkpt>
      <trkpt lat="44.12061" lon="6.32158">
        <ele>962.9</ele>
        <time>2011-06-26T12:26:26Z</time>
      </trkpt>
      <trkpt lat="44.12112" lon="6.3218">
        <ele>961.46</ele>
        <time>2011-06-26T12:26:39Z</time>
      </trkpt>
      <trkpt lat="44.1214" lon="6.32193">
        <ele>962.42</ele>
        <time>2011-06-26T12:26:50Z</time>
      </trkpt>
      <trkpt lat="44.12151" lon="6.32205">
        <ele>960.49</ele>
        <time>2011-06-26T12:26:55Z</time>
      </trkpt>
      <trkpt lat="44.12158" lon="6.32206">
        <ele>960.49</ele>
        <time>2011-06-26T12:26:58Z</time>
      </trkpt>
      <trkpt lat="44.12172" lon="6.32186">
        <ele>960.98</ele>
        <time>2011-06-26T12:27:07Z</time>
      </trkpt>
      <trkpt lat="44.12172" lon="6.32182">
        <ele>960.98</ele>
        <time>2011-06-26T12:27:09Z</time>
      </trkpt>
      <trkpt lat="44.1217" lon="6.32174">
        <ele>961.46</ele>
        <time>2011-06-26T12:27:12Z</time>
      </trkpt>
      <trkpt lat="44.12172" lon="6.32164">
        <ele>962.42</ele>
        <time>2011-06-26T12:27:17Z</time>
      </trkpt>
      <trkpt lat="44.12194" lon="6.3215">
        <ele>963.86</ele>
        <time>2011-06-26T12:27:31Z</time>
      </trkpt>
      <trkpt lat="44.1221" lon="6.32129">
        <ele>964.34</ele>
        <time>2011-06-26T12:27:43Z</time>
      </trkpt>
      <trkpt lat="44.12211" lon="6.32125">
        <ele>965.3</ele>
        <time>2011-06-26T12:27:45Z</time>
      </trkpt>
      <trkpt lat="44.12215" lon="6.32121">
        <ele>966.26</ele>
        <time>2011-06-26T12:27:48Z</time>
      </trkpt>
      <trkpt lat="44.12232" lon="6.32103">
        <ele>967.7</ele>
        <time>2011-06-26T12:28:02Z</time>
      </trkpt>
      <trkpt lat="44.12248" lon="6.32084">
        <ele>970.59</ele>
        <time>2011-06-26T12:28:16Z</time>
      </trkpt>
      <trkpt lat="44.12252" lon="6.32075">
        <ele>971.55</ele>
        <time>2011-06-26T12:28:28Z</time>
      </trkpt>
      <trkpt lat="44.12258" lon="6.32066">
        <ele>973.95</ele>
        <time>2011-06-26T12:28:45Z</time>
      </trkpt>
      <trkpt lat="44.12264" lon="6.32061">
        <ele>975.88</ele>
        <time>2011-06-26T12:28:57Z</time>
      </trkpt>
      <trkpt lat="44.12272" lon="6.32056">
        <ele>978.28</ele>
        <time>2011-06-26T12:29:12Z</time>
      </trkpt>
      <trkpt lat="44.12279" lon="6.32055">
        <ele>980.2</ele>
        <time>2011-06-26T12:29:26Z</time>
      </trkpt>
      <trkpt lat="44.12288" lon="6.32057">
        <ele>983.09</ele>
        <time>2011-06-26T12:29:41Z</time>
      </trkpt>
      <trkpt lat="44.12298" lon="6.3206">
        <ele>985.01</ele>
        <time>2011-06-26T12:29:56Z</time>
      </trkpt>
      <trkpt lat="44.12299" lon="6.32062">
        <ele>985.01</ele>
        <time>2011-06-26T12:30:11Z</time>
      </trkpt>
      <trkpt lat="44.12299" lon="6.32062">
        <ele>985.49</ele>
        <time>2011-06-26T12:30:26Z</time>
      </trkpt>
      <trkpt lat="44.12312" lon="6.32068">
        <ele>986.45</ele>
        <time>2011-06-26T12:30:34Z</time>
      </trkpt>
      <trkpt lat="44.12324" lon="6.32095">
        <ele>988.37</ele>
        <time>2011-06-26T12:30:48Z</time>
      </trkpt>
      <trkpt lat="44.12348" lon="6.32106">
        <ele>990.3</ele>
        <time>2011-06-26T12:31:03Z</time>
      </trkpt>
      <trkpt lat="44.12357" lon="6.32109">
        <ele>992.7</ele>
        <time>2011-06-26T12:31:14Z</time>
      </trkpt>
      <trkpt lat="44.12373" lon="6.32112">
        <ele>996.06</ele>
        <time>2011-06-26T12:31:31Z</time>
      </trkpt>
      <trkpt lat="44.12386" lon="6.32109">
        <ele>998.95</ele>
        <time>2011-06-26T12:31:47Z</time>
      </trkpt>
      <trkpt lat="44.124" lon="6.32107">
        <ele>1001.83</ele>
        <time>2011-06-26T12:32:06Z</time>
      </trkpt>
      <trkpt lat="44.12403" lon="6.32108">
        <ele>1002.31</ele>
        <time>2011-06-26T12:32:15Z</time>
      </trkpt>
      <trkpt lat="44.12413" lon="6.3214">
        <ele>1001.35</ele>
        <time>2011-06-26T12:32:27Z</time>
      </trkpt>
      <trkpt lat="44.12414" lon="6.32158">
        <ele>1000.39</ele>
        <time>2011-06-26T12:32:31Z</time>
      </trkpt>
      <trkpt lat="44.12419" lon="6.32176">
        <ele>998.47</ele>
        <time>2011-06-26T12:32:34Z</time>
      </trkpt>
      <trkpt lat="44.1245" lon="6.32223">
        <ele>999.43</ele>
        <time>2011-06-26T12:32:47Z</time>
      </trkpt>
      <trkpt lat="44.12451" lon="6.32223">
        <ele>999.43</ele>
        <time>2011-06-26T12:32:48Z</time>
      </trkpt>
      <trkpt lat="44.12479" lon="6.32215">
        <ele>1000.39</ele>
        <time>2011-06-26T12:33:03Z</time>
      </trkpt>
      <trkpt lat="44.12496" lon="6.32184">
        <ele>997.51</ele>
        <time>2011-06-26T12:33:15Z</time>
      </trkpt>
      <trkpt lat="44.12497" lon="6.32174">
        <ele>996.06</ele>
        <time>2011-06-26T12:33:17Z</time>
      </trkpt>
      <trkpt lat="44.12517" lon="6.32148">
        <ele>997.51</ele>
        <time>2011-06-26T12:33:27Z</time>
      </trkpt>
      <trkpt lat="44.12528" lon="6.32109">
        <ele>994.62</ele>
        <time>2011-06-26T12:33:35Z</time>
      </trkpt>
      <trkpt lat="44.12542" lon="6.32097">
        <ele>997.51</ele>
        <time>2011-06-26T12:33:45Z</time>
      </trkpt>
      <trkpt lat="44.12557" lon="6.32091">
        <ele>1000.39</ele>
        <time>2011-06-26T12:34:00Z</time>
      </trkpt>
      <trkpt lat="44.12567" lon="6.32088">
        <ele>1003.27</ele>
        <time>2011-06-26T12:34:15Z</time>
      </trkpt>
      <trkpt lat="44.1257" lon="6.32085">
        <ele>1003.75</ele>
        <time>2011-06-26T12:34:20Z</time>
      </trkpt>
      <trkpt lat="44.12572" lon="6.32079">
        <ele>1004.23</ele>
        <time>2011-06-26T12:34:25Z</time>
      </trkpt>
      <trkpt lat="44.12583" lon="6.32074">
        <ele>1006.64</ele>
        <time>2011-06-26T12:34:40Z</time>
      </trkpt>
      <trkpt lat="44.12591" lon="6.3209">
        <ele>1007.12</ele>
        <time>2011-06-26T12:34:55Z</time>
      </trkpt>
      <trkpt lat="44.12596" lon="6.32108">
        <ele>1009.04</ele>
        <time>2011-06-26T12:35:11Z</time>
      </trkpt>
      <trkpt lat="44.12596" lon="6.3211">
        <ele>1009.04</ele>
        <time>2011-06-26T12:35:13Z</time>
      </trkpt>
      <trkpt lat="44.12597" lon="6.32123">
        <ele>1010</ele>
        <time>2011-06-26T12:35:30Z</time>
      </trkpt>
      <trkpt lat="44.12598" lon="6.32125">
        <ele>1010</ele>
        <time>2011-06-26T12:35:32Z</time>
      </trkpt>
      <trkpt lat="44.12598" lon="6.32147">
        <ele>1010</ele>
        <time>2011-06-26T12:35:46Z</time>
      </trkpt>
      <trkpt lat="44.12597" lon="6.32159">
        <ele>1010</ele>
        <time>2011-06-26T12:35:59Z</time>
      </trkpt>
      <trkpt lat="44.12597" lon="6.3216">
        <ele>1010</ele>
        <time>2011-06-26T12:36:00Z</time>
      </trkpt>
      <trkpt lat="44.12605" lon="6.32172">
        <ele>1006.16</ele>
        <time>2011-06-26T12:36:05Z</time>
      </trkpt>
      <trkpt lat="44.12612" lon="6.32177">
        <ele>1002.31</ele>
        <time>2011-06-26T12:36:08Z</time>
      </trkpt>
      <trkpt lat="44.12619" lon="6.32178">
        <ele>999.91</ele>
        <time>2011-06-26T12:36:10Z</time>
      </trkpt>
      <trkpt lat="44.12647" lon="6.32171">
        <ele>996.06</ele>
        <time>2011-06-26T12:36:15Z</time>
      </trkpt>
      <trkpt lat="44.12652" lon="6.3217">
        <ele>996.06</ele>
        <time>2011-06-26T12:36:16Z</time>
      </trkpt>
      <trkpt lat="44.1267" lon="6.32183">
        <ele>992.7</ele>
        <time>2011-06-26T12:36:21Z</time>
      </trkpt>
      <trkpt lat="44.12672" lon="6.32186">
        <ele>992.7</ele>
        <time>2011-06-26T12:36:22Z</time>
      </trkpt>
      <trkpt lat="44.12693" lon="6.32187">
        <ele>990.3</ele>
        <time>2011-06-26T12:36:31Z</time>
      </trkpt>
      <trkpt lat="44.12698" lon="6.32187">
        <ele>990.3</ele>
        <time>2011-06-26T12:36:32Z</time>
      </trkpt>
      <trkpt lat="44.12724" lon="6.32175">
        <ele>986.45</ele>
        <time>2011-06-26T12:36:40Z</time>
      </trkpt>
      <trkpt lat="44.12742" lon="6.32175">
        <ele>988.37</ele>
        <time>2011-06-26T12:36:51Z</time>
      </trkpt>
      <trkpt lat="44.12746" lon="6.32178">
        <ele>988.85</ele>
        <time>2011-06-26T12:36:55Z</time>
      </trkpt>
      <trkpt lat="44.1275" lon="6.32178">
        <ele>989.33</ele>
        <time>2011-06-26T12:37:07Z</time>
      </trkpt>
      <trkpt lat="44.12747" lon="6.32178">
        <ele>988.85</ele>
        <time>2011-06-26T12:37:27Z</time>
      </trkpt>
      <trkpt lat="44.12746" lon="6.32178">
        <ele>988.85</ele>
        <time>2011-06-26T12:39:37Z</time>
      </trkpt>
      <trkpt lat="44.12749" lon="6.32178">
        <ele>989.81</ele>
        <time>2011-06-26T12:40:14Z</time>
      </trkpt>
      <trkpt lat="44.1275" lon="6.32178">
        <ele>989.33</ele>
        <time>2011-06-26T12:40:17Z</time>
      </trkpt>
      <trkpt lat="44.12758" lon="6.32179">
        <ele>989.81</ele>
        <time>2011-06-26T12:40:27Z</time>
      </trkpt>
      <trkpt lat="44.12759" lon="6.32178">
        <ele>990.3</ele>
        <time>2011-06-26T12:40:28Z</time>
      </trkpt>
      <trkpt lat="44.12773" lon="6.32164">
        <ele>992.22</ele>
        <time>2011-06-26T12:40:40Z</time>
      </trkpt>
      <trkpt lat="44.12789" lon="6.32159">
        <ele>994.14</ele>
        <time>2011-06-26T12:40:54Z</time>
      </trkpt>
      <trkpt lat="44.12799" lon="6.32159">
        <ele>996.06</ele>
        <time>2011-06-26T12:41:06Z</time>
      </trkpt>
      <trkpt lat="44.12813" lon="6.32157">
        <ele>999.43</ele>
        <time>2011-06-26T12:41:23Z</time>
      </trkpt>
      <trkpt lat="44.12816" lon="6.32157">
        <ele>999.91</ele>
        <time>2011-06-26T12:41:26Z</time>
      </trkpt>
      <trkpt lat="44.12823" lon="6.32149">
        <ele>1001.83</ele>
        <time>2011-06-26T12:41:39Z</time>
      </trkpt>
      <trkpt lat="44.12833" lon="6.32132">
        <ele>1005.2</ele>
        <time>2011-06-26T12:41:59Z</time>
      </trkpt>
      <trkpt lat="44.12838" lon="6.32124">
        <ele>1008.08</ele>
        <time>2011-06-26T12:42:11Z</time>
      </trkpt>
      <trkpt lat="44.12844" lon="6.32125">
        <ele>1009.52</ele>
        <time>2011-06-26T12:42:19Z</time>
      </trkpt>
      <trkpt lat="44.12855" lon="6.32124">
        <ele>1011.93</ele>
        <time>2011-06-26T12:42:34Z</time>
      </trkpt>
      <trkpt lat="44.12855" lon="6.32119">
        <ele>1012.89</ele>
        <time>2011-06-26T12:42:41Z</time>
      </trkpt>
      <trkpt lat="44.12854" lon="6.32113">
        <ele>1013.85</ele>
        <time>2011-06-26T12:42:46Z</time>
      </trkpt>
      <trkpt lat="44.12853" lon="6.32095">
        <ele>1016.73</ele>
        <time>2011-06-26T12:43:02Z</time>
      </trkpt>
      <trkpt lat="44.12852" lon="6.32086">
        <ele>1018.17</ele>
        <time>2011-06-26T12:43:10Z</time>
      </trkpt>
      <trkpt lat="44.12855" lon="6.32072">
        <ele>1020.1</ele>
        <time>2011-06-26T12:43:26Z</time>
      </trkpt>
      <trkpt lat="44.12855" lon="6.32072">
        <ele>1020.58</ele>
        <time>2011-06-26T12:43:27Z</time>
      </trkpt>
      <trkpt lat="44.12868" lon="6.32074">
        <ele>1022.5</ele>
        <time>2011-06-26T12:43:43Z</time>
      </trkpt>
      <trkpt lat="44.1287" lon="6.32064">
        <ele>1025.38</ele>
        <time>2011-06-26T12:43:57Z</time>
      </trkpt>
      <trkpt lat="44.12876" lon="6.32056">
        <ele>1027.31</ele>
        <time>2011-06-26T12:44:14Z</time>
      </trkpt>
      <trkpt lat="44.12889" lon="6.32062">
        <ele>1029.23</ele>
        <time>2011-06-26T12:44:29Z</time>
      </trkpt>
      <trkpt lat="44.12893" lon="6.32059">
        <ele>1030.67</ele>
        <time>2011-06-26T12:44:37Z</time>
      </trkpt>
      <trkpt lat="44.12893" lon="6.32055">
        <ele>1031.15</ele>
        <time>2011-06-26T12:44:40Z</time>
      </trkpt>
      <trkpt lat="44.12895" lon="6.32037">
        <ele>1034.04</ele>
        <time>2011-06-26T12:44:55Z</time>
      </trkpt>
      <trkpt lat="44.12894" lon="6.32034">
        <ele>1034.52</ele>
        <time>2011-06-26T12:44:58Z</time>
      </trkpt>
      <trkpt lat="44.12898" lon="6.32026">
        <ele>1036.92</ele>
        <time>2011-06-26T12:45:13Z</time>
      </trkpt>
      <trkpt lat="44.12905" lon="6.32018">
        <ele>1039.8</ele>
        <time>2011-06-26T12:45:31Z</time>
      </trkpt>
      <trkpt lat="44.12905" lon="6.32017">
        <ele>1039.8</ele>
        <time>2011-06-26T12:45:32Z</time>
      </trkpt>
      <trkpt lat="44.1291" lon="6.32005">
        <ele>1040.28</ele>
        <time>2011-06-26T12:45:48Z</time>
      </trkpt>
      <trkpt lat="44.12907" lon="6.31986">
        <ele>1035.96</ele>
        <time>2011-06-26T12:45:54Z</time>
      </trkpt>
      <trkpt lat="44.12895" lon="6.31948">
        <ele>1032.59</ele>
        <time>2011-06-26T12:46:03Z</time>
      </trkpt>
      <trkpt lat="44.12887" lon="6.31923">
        <ele>1029.23</ele>
        <time>2011-06-26T12:46:10Z</time>
      </trkpt>
      <trkpt lat="44.12887" lon="6.3191">
        <ele>1027.31</ele>
        <time>2011-06-26T12:46:13Z</time>
      </trkpt>
      <trkpt lat="44.12889" lon="6.31905">
        <ele>1027.31</ele>
        <time>2011-06-26T12:46:18Z</time>
      </trkpt>
      <trkpt lat="44.12896" lon="6.31893">
        <ele>1022.5</ele>
        <time>2011-06-26T12:46:24Z</time>
      </trkpt>
      <trkpt lat="44.12896" lon="6.31885">
        <ele>1021.54</ele>
        <time>2011-06-26T12:46:26Z</time>
      </trkpt>
      <trkpt lat="44.12903" lon="6.3187">
        <ele>1018.65</ele>
        <time>2011-06-26T12:46:31Z</time>
      </trkpt>
      <trkpt lat="44.12919" lon="6.31869">
        <ele>1015.29</ele>
        <time>2011-06-26T12:46:36Z</time>
      </trkpt>
      <trkpt lat="44.12933" lon="6.31871">
        <ele>1011.44</ele>
        <time>2011-06-26T12:46:41Z</time>
      </trkpt>
      <trkpt lat="44.1294" lon="6.31866">
        <ele>1010.48</ele>
        <time>2011-06-26T12:46:43Z</time>
      </trkpt>
      <trkpt lat="44.12947" lon="6.3186">
        <ele>1010.48</ele>
        <time>2011-06-26T12:46:46Z</time>
      </trkpt>
      <trkpt lat="44.1295" lon="6.31849">
        <ele>1011.44</ele>
        <time>2011-06-26T12:46:52Z</time>
      </trkpt>
      <trkpt lat="44.12943" lon="6.31812">
        <ele>1013.85</ele>
        <time>2011-06-26T12:47:08Z</time>
      </trkpt>
      <trkpt lat="44.12934" lon="6.318">
        <ele>1013.85</ele>
        <time>2011-06-26T12:47:16Z</time>
      </trkpt>
      <trkpt lat="44.12934" lon="6.31764">
        <ele>1016.73</ele>
        <time>2011-06-26T12:47:33Z</time>
      </trkpt>
      <trkpt lat="44.12933" lon="6.3176">
        <ele>1016.25</ele>
        <time>2011-06-26T12:47:36Z</time>
      </trkpt>
      <trkpt lat="44.12931" lon="6.31725">
        <ele>1018.17</ele>
        <time>2011-06-26T12:47:50Z</time>
      </trkpt>
      <trkpt lat="44.12925" lon="6.31694">
        <ele>1017.21</ele>
        <time>2011-06-26T12:48:02Z</time>
      </trkpt>
      <trkpt lat="44.12921" lon="6.31651">
        <ele>1016.73</ele>
        <time>2011-06-26T12:48:14Z</time>
      </trkpt>
      <trkpt lat="44.12919" lon="6.31643">
        <ele>1015.77</ele>
        <time>2011-06-26T12:48:16Z</time>
      </trkpt>
      <trkpt lat="44.12915" lon="6.31621">
        <ele>1014.81</ele>
        <time>2011-06-26T12:48:20Z</time>
      </trkpt>
      <trkpt lat="44.12919" lon="6.31572">
        <ele>1014.33</ele>
        <time>2011-06-26T12:48:31Z</time>
      </trkpt>
      <trkpt lat="44.12941" lon="6.31536">
        <ele>1011.44</ele>
        <time>2011-06-26T12:48:43Z</time>
      </trkpt>
      <trkpt lat="44.12945" lon="6.31528">
        <ele>1010.96</ele>
        <time>2011-06-26T12:48:45Z</time>
      </trkpt>
      <trkpt lat="44.1295" lon="6.31513">
        <ele>1007.6</ele>
        <time>2011-06-26T12:48:48Z</time>
      </trkpt>
      <trkpt lat="44.12959" lon="6.31488">
        <ele>1003.75</ele>
        <time>2011-06-26T12:48:52Z</time>
      </trkpt>
      <trkpt lat="44.1296" lon="6.31481">
        <ele>1002.79</ele>
        <time>2011-06-26T12:48:53Z</time>
      </trkpt>
      <trkpt lat="44.12964" lon="6.31453">
        <ele>999.91</ele>
        <time>2011-06-26T12:48:57Z</time>
      </trkpt>
      <trkpt lat="44.12964" lon="6.31446">
        <ele>999.43</ele>
        <time>2011-06-26T12:48:58Z</time>
      </trkpt>
      <trkpt lat="44.12965" lon="6.31426">
        <ele>997.02</ele>
        <time>2011-06-26T12:49:01Z</time>
      </trkpt>
      <trkpt lat="44.12967" lon="6.31407">
        <ele>993.66</ele>
        <time>2011-06-26T12:49:05Z</time>
      </trkpt>
      <trkpt lat="44.1297" lon="6.31394">
        <ele>990.3</ele>
        <time>2011-06-26T12:49:08Z</time>
      </trkpt>
      <trkpt lat="44.12978" lon="6.3138">
        <ele>986.45</ele>
        <time>2011-06-26T12:49:11Z</time>
      </trkpt>
      <trkpt lat="44.12987" lon="6.3137">
        <ele>984.53</ele>
        <time>2011-06-26T12:49:13Z</time>
      </trkpt>
      <trkpt lat="44.13002" lon="6.31359">
        <ele>983.09</ele>
        <time>2011-06-26T12:49:16Z</time>
      </trkpt>
      <trkpt lat="44.13016" lon="6.3135">
        <ele>981.64</ele>
        <time>2011-06-26T12:49:19Z</time>
      </trkpt>
      <trkpt lat="44.13025" lon="6.31346">
        <ele>982.12</ele>
        <time>2011-06-26T12:49:21Z</time>
      </trkpt>
      <trkpt lat="44.13036" lon="6.31343">
        <ele>980.68</ele>
        <time>2011-06-26T12:49:24Z</time>
      </trkpt>
      <trkpt lat="44.1304" lon="6.31343">
        <ele>980.2</ele>
        <time>2011-06-26T12:49:26Z</time>
      </trkpt>
      <trkpt lat="44.13047" lon="6.31341">
        <ele>977.32</ele>
        <time>2011-06-26T12:49:30Z</time>
      </trkpt>
      <trkpt lat="44.13057" lon="6.31341">
        <ele>972.51</ele>
        <time>2011-06-26T12:49:34Z</time>
      </trkpt>
      <trkpt lat="44.13065" lon="6.31349">
        <ele>969.15</ele>
        <time>2011-06-26T12:49:38Z</time>
      </trkpt>
      <trkpt lat="44.13074" lon="6.3136">
        <ele>964.82</ele>
        <time>2011-06-26T12:49:42Z</time>
      </trkpt>
      <trkpt lat="44.1308" lon="6.31365">
        <ele>961.46</ele>
        <time>2011-06-26T12:49:44Z</time>
      </trkpt>
      <trkpt lat="44.13086" lon="6.31371">
        <ele>957.61</ele>
        <time>2011-06-26T12:49:46Z</time>
      </trkpt>
      <trkpt lat="44.13093" lon="6.31382">
        <ele>954.25</ele>
        <time>2011-06-26T12:49:49Z</time>
      </trkpt>
      <trkpt lat="44.131" lon="6.31395">
        <ele>950.4</ele>
        <time>2011-06-26T12:49:52Z</time>
      </trkpt>
      <trkpt lat="44.13103" lon="6.31396">
        <ele>948</ele>
        <time>2011-06-26T12:49:55Z</time>
      </trkpt>
      <trkpt lat="44.13105" lon="6.31373">
        <ele>944.15</ele>
        <time>2011-06-26T12:50:00Z</time>
      </trkpt>
      <trkpt lat="44.13107" lon="6.31355">
        <ele>940.31</ele>
        <time>2011-06-26T12:50:04Z</time>
      </trkpt>
      <trkpt lat="44.1311" lon="6.31342">
        <ele>935.98</ele>
        <time>2011-06-26T12:50:08Z</time>
      </trkpt>
      <trkpt lat="44.13111" lon="6.31325">
        <ele>932.62</ele>
        <time>2011-06-26T12:50:12Z</time>
      </trkpt>
      <trkpt lat="44.13111" lon="6.3132">
        <ele>931.65</ele>
        <time>2011-06-26T12:50:14Z</time>
      </trkpt>
      <trkpt lat="44.13114" lon="6.31307">
        <ele>927.81</ele>
        <time>2011-06-26T12:50:17Z</time>
      </trkpt>
      <trkpt lat="44.13115" lon="6.31304">
        <ele>927.33</ele>
        <time>2011-06-26T12:50:18Z</time>
      </trkpt>
      <trkpt lat="44.13116" lon="6.31302">
        <ele>926.37</ele>
        <time>2011-06-26T12:50:19Z</time>
      </trkpt>
      <trkpt lat="44.13117" lon="6.313">
        <ele>925.89</ele>
        <time>2011-06-26T12:50:20Z</time>
      </trkpt>
      <trkpt lat="44.13118" lon="6.31298">
        <ele>924.93</ele>
        <time>2011-06-26T12:50:21Z</time>
      </trkpt>
      <trkpt lat="44.1312" lon="6.31296">
        <ele>923</ele>
        <time>2011-06-26T12:50:22Z</time>
      </trkpt>
      <trkpt lat="44.13121" lon="6.31294">
        <ele>922.52</ele>
        <time>2011-06-26T12:50:23Z</time>
      </trkpt>
      <trkpt lat="44.13122" lon="6.31289">
        <ele>921.56</ele>
        <time>2011-06-26T12:50:24Z</time>
      </trkpt>
      <trkpt lat="44.13124" lon="6.31283">
        <ele>921.08</ele>
        <time>2011-06-26T12:50:25Z</time>
      </trkpt>
      <trkpt lat="44.13126" lon="6.31279">
        <ele>920.12</ele>
        <time>2011-06-26T12:50:26Z</time>
      </trkpt>
      <trkpt lat="44.13128" lon="6.31275">
        <ele>919.64</ele>
        <time>2011-06-26T12:50:27Z</time>
      </trkpt>
      <trkpt lat="44.13129" lon="6.31271">
        <ele>919.16</ele>
        <time>2011-06-26T12:50:28Z</time>
      </trkpt>
      <trkpt lat="44.1313" lon="6.31267">
        <ele>919.16</ele>
        <time>2011-06-26T12:50:29Z</time>
      </trkpt>
      <trkpt lat="44.13131" lon="6.31263">
        <ele>918.2</ele>
        <time>2011-06-26T12:50:30Z</time>
      </trkpt>
      <trkpt lat="44.13131" lon="6.31259">
        <ele>915.79</ele>
        <time>2011-06-26T12:50:31Z</time>
      </trkpt>
      <trkpt lat="44.13132" lon="6.31254">
        <ele>913.87</ele>
        <time>2011-06-26T12:50:32Z</time>
      </trkpt>
      <trkpt lat="44.13129" lon="6.31235">
        <ele>910.03</ele>
        <time>2011-06-26T12:50:36Z</time>
      </trkpt>
      <trkpt lat="44.13126" lon="6.31222">
        <ele>906.66</ele>
        <time>2011-06-26T12:50:40Z</time>
      </trkpt>
      <trkpt lat="44.13111" lon="6.31211">
        <ele>903.3</ele>
        <time>2011-06-26T12:50:46Z</time>
      </trkpt>
      <trkpt lat="44.1309" lon="6.31188">
        <ele>900.89</ele>
        <time>2011-06-26T12:50:51Z</time>
      </trkpt>
      <trkpt lat="44.13061" lon="6.31181">
        <ele>897.53</ele>
        <time>2011-06-26T12:50:56Z</time>
      </trkpt>
      <trkpt lat="44.13036" lon="6.31199">
        <ele>894.16</ele>
        <time>2011-06-26T12:51:01Z</time>
      </trkpt>
      <trkpt lat="44.13009" lon="6.31209">
        <ele>891.28</ele>
        <time>2011-06-26T12:51:05Z</time>
      </trkpt>
      <trkpt lat="44.13003" lon="6.31215">
        <ele>891.28</ele>
        <time>2011-06-26T12:51:06Z</time>
      </trkpt>
      <trkpt lat="44.12998" lon="6.31222">
        <ele>891.28</ele>
        <time>2011-06-26T12:51:07Z</time>
      </trkpt>
      <trkpt lat="44.12993" lon="6.31228">
        <ele>890.8</ele>
        <time>2011-06-26T12:51:08Z</time>
      </trkpt>
      <trkpt lat="44.12988" lon="6.31234">
        <ele>890.32</ele>
        <time>2011-06-26T12:51:09Z</time>
      </trkpt>
      <trkpt lat="44.12984" lon="6.31238">
        <ele>890.8</ele>
        <time>2011-06-26T12:51:10Z</time>
      </trkpt>
      <trkpt lat="44.12974" lon="6.31246">
        <ele>890.32</ele>
        <time>2011-06-26T12:51:12Z</time>
      </trkpt>
      <trkpt lat="44.12969" lon="6.31247">
        <ele>890.8</ele>
        <time>2011-06-26T12:51:13Z</time>
      </trkpt>
      <trkpt lat="44.12934" lon="6.31267">
        <ele>892.24</ele>
        <time>2011-06-26T12:51:24Z</time>
      </trkpt>
      <trkpt lat="44.12906" lon="6.31307">
        <ele>893.68</ele>
        <time>2011-06-26T12:51:37Z</time>
      </trkpt>
      <trkpt lat="44.12878" lon="6.31351">
        <ele>895.12</ele>
        <time>2011-06-26T12:51:51Z</time>
      </trkpt>
      <trkpt lat="44.12865" lon="6.3139">
        <ele>898.49</ele>
        <time>2011-06-26T12:52:04Z</time>
      </trkpt>
      <trkpt lat="44.12842" lon="6.31415">
        <ele>900.89</ele>
        <time>2011-06-26T12:52:18Z</time>
      </trkpt>
      <trkpt lat="44.12815" lon="6.31427">
        <ele>904.26</ele>
        <time>2011-06-26T12:52:32Z</time>
      </trkpt>
      <trkpt lat="44.128" lon="6.31453">
        <ele>907.62</ele>
        <time>2011-06-26T12:52:45Z</time>
      </trkpt>
      <trkpt lat="44.1279" lon="6.31482">
        <ele>910.03</ele>
        <time>2011-06-26T12:52:59Z</time>
      </trkpt>
      <trkpt lat="44.12778" lon="6.31513">
        <ele>912.43</ele>
        <time>2011-06-26T12:53:16Z</time>
      </trkpt>
      <trkpt lat="44.12773" lon="6.31542">
        <ele>915.31</ele>
        <time>2011-06-26T12:53:32Z</time>
      </trkpt>
      <trkpt lat="44.12764" lon="6.31565">
        <ele>916.75</ele>
        <time>2011-06-26T12:53:47Z</time>
      </trkpt>
      <trkpt lat="44.12755" lon="6.31565">
        <ele>917.72</ele>
        <time>2011-06-26T12:53:54Z</time>
      </trkpt>
      <trkpt lat="44.12754" lon="6.31565">
        <ele>917.72</ele>
        <time>2011-06-26T12:53:55Z</time>
      </trkpt>
      <trkpt lat="44.12753" lon="6.31564">
        <ele>917.72</ele>
        <time>2011-06-26T12:53:56Z</time>
      </trkpt>
      <trkpt lat="44.12751" lon="6.31563">
        <ele>918.2</ele>
        <time>2011-06-26T12:53:57Z</time>
      </trkpt>
      <trkpt lat="44.1275" lon="6.31562">
        <ele>918.2</ele>
        <time>2011-06-26T12:53:58Z</time>
      </trkpt>
      <trkpt lat="44.12748" lon="6.31561">
        <ele>918.2</ele>
        <time>2011-06-26T12:53:59Z</time>
      </trkpt>
      <trkpt lat="44.12747" lon="6.3156">
        <ele>918.2</ele>
        <time>2011-06-26T12:54:00Z</time>
      </trkpt>
      <trkpt lat="44.12745" lon="6.31559">
        <ele>918.2</ele>
        <time>2011-06-26T12:54:01Z</time>
      </trkpt>
      <trkpt lat="44.12716" lon="6.31532">
        <ele>919.64</ele>
        <time>2011-06-26T12:54:19Z</time>
      </trkpt>
      <trkpt lat="44.12688" lon="6.31551">
        <ele>920.12</ele>
        <time>2011-06-26T12:54:33Z</time>
      </trkpt>
      <trkpt lat="44.12664" lon="6.316">
        <ele>917.24</ele>
        <time>2011-06-26T12:54:42Z</time>
      </trkpt>
      <trkpt lat="44.12654" lon="6.31613">
        <ele>915.79</ele>
        <time>2011-06-26T12:54:44Z</time>
      </trkpt>
      <trkpt lat="44.12648" lon="6.31619">
        <ele>915.79</ele>
        <time>2011-06-26T12:54:45Z</time>
      </trkpt>
      <trkpt lat="44.12629" lon="6.31635">
        <ele>914.35</ele>
        <time>2011-06-26T12:54:48Z</time>
      </trkpt>
      <trkpt lat="44.12621" lon="6.31639">
        <ele>913.87</ele>
        <time>2011-06-26T12:54:49Z</time>
      </trkpt>
      <trkpt lat="44.12591" lon="6.31653">
        <ele>910.99</ele>
        <time>2011-06-26T12:54:53Z</time>
      </trkpt>
      <trkpt lat="44.12586" lon="6.3166">
        <ele>910.51</ele>
        <time>2011-06-26T12:54:54Z</time>
      </trkpt>
      <trkpt lat="44.12582" lon="6.31668">
        <ele>910.03</ele>
        <time>2011-06-26T12:54:55Z</time>
      </trkpt>
      <trkpt lat="44.12576" lon="6.31682">
        <ele>909.54</ele>
        <time>2011-06-26T12:54:57Z</time>
      </trkpt>
      <trkpt lat="44.12572" lon="6.31686">
        <ele>909.06</ele>
        <time>2011-06-26T12:54:58Z</time>
      </trkpt>
      <trkpt lat="44.12561" lon="6.31675">
        <ele>908.58</ele>
        <time>2011-06-26T12:55:02Z</time>
      </trkpt>
      <trkpt lat="44.12561" lon="6.3167">
        <ele>908.1</ele>
        <time>2011-06-26T12:55:03Z</time>
      </trkpt>
      <trkpt lat="44.12561" lon="6.31664">
        <ele>908.1</ele>
        <time>2011-06-26T12:55:04Z</time>
      </trkpt>
      <trkpt lat="44.12561" lon="6.31657">
        <ele>907.62</ele>
        <time>2011-06-26T12:55:05Z</time>
      </trkpt>
      <trkpt lat="44.12562" lon="6.31651">
        <ele>907.62</ele>
        <time>2011-06-26T12:55:06Z</time>
      </trkpt>
      <trkpt lat="44.12562" lon="6.31643">
        <ele>907.14</ele>
        <time>2011-06-26T12:55:07Z</time>
      </trkpt>
      <trkpt lat="44.12564" lon="6.31635">
        <ele>906.66</ele>
        <time>2011-06-26T12:55:08Z</time>
      </trkpt>
      <trkpt lat="44.12566" lon="6.31627">
        <ele>906.66</ele>
        <time>2011-06-26T12:55:09Z</time>
      </trkpt>
      <trkpt lat="44.1257" lon="6.31619">
        <ele>905.7</ele>
        <time>2011-06-26T12:55:10Z</time>
      </trkpt>
      <trkpt lat="44.12574" lon="6.3161">
        <ele>904.74</ele>
        <time>2011-06-26T12:55:11Z</time>
      </trkpt>
      <trkpt lat="44.12578" lon="6.31602">
        <ele>904.74</ele>
        <time>2011-06-26T12:55:12Z</time>
      </trkpt>
      <trkpt lat="44.12597" lon="6.3157">
        <ele>901.37</ele>
        <time>2011-06-26T12:55:16Z</time>
      </trkpt>
      <trkpt lat="44.12597" lon="6.31561">
        <ele>900.41</ele>
        <time>2011-06-26T12:55:17Z</time>
      </trkpt>
      <trkpt lat="44.12596" lon="6.31552">
        <ele>899.93</ele>
        <time>2011-06-26T12:55:18Z</time>
      </trkpt>
      <trkpt lat="44.12594" lon="6.31543">
        <ele>898.97</ele>
        <time>2011-06-26T12:55:19Z</time>
      </trkpt>
      <trkpt lat="44.12591" lon="6.31535">
        <ele>898.49</ele>
        <time>2011-06-26T12:55:20Z</time>
      </trkpt>
      <trkpt lat="44.12587" lon="6.31526">
        <ele>898.01</ele>
        <time>2011-06-26T12:55:21Z</time>
      </trkpt>
      <trkpt lat="44.12567" lon="6.31481">
        <ele>894.16</ele>
        <time>2011-06-26T12:55:26Z</time>
      </trkpt>
      <trkpt lat="44.12555" lon="6.31456">
        <ele>891.76</ele>
        <time>2011-06-26T12:55:29Z</time>
      </trkpt>
      <trkpt lat="44.12551" lon="6.31451">
        <ele>891.28</ele>
        <time>2011-06-26T12:55:30Z</time>
      </trkpt>
      <trkpt lat="44.12546" lon="6.31448">
        <ele>890.8</ele>
        <time>2011-06-26T12:55:31Z</time>
      </trkpt>
      <trkpt lat="44.12541" lon="6.31447">
        <ele>889.84</ele>
        <time>2011-06-26T12:55:32Z</time>
      </trkpt>
      <trkpt lat="44.12535" lon="6.31447">
        <ele>889.84</ele>
        <time>2011-06-26T12:55:33Z</time>
      </trkpt>
      <trkpt lat="44.12529" lon="6.31447">
        <ele>889.36</ele>
        <time>2011-06-26T12:55:34Z</time>
      </trkpt>
      <trkpt lat="44.12522" lon="6.31447">
        <ele>888.88</ele>
        <time>2011-06-26T12:55:35Z</time>
      </trkpt>
      <trkpt lat="44.12501" lon="6.31446">
        <ele>885.99</ele>
        <time>2011-06-26T12:55:38Z</time>
      </trkpt>
      <trkpt lat="44.12495" lon="6.31447">
        <ele>885.99</ele>
        <time>2011-06-26T12:55:39Z</time>
      </trkpt>
      <trkpt lat="44.12489" lon="6.31449">
        <ele>885.99</ele>
        <time>2011-06-26T12:55:40Z</time>
      </trkpt>
      <trkpt lat="44.12484" lon="6.31449">
        <ele>885.03</ele>
        <time>2011-06-26T12:55:41Z</time>
      </trkpt>
      <trkpt lat="44.12479" lon="6.31448">
        <ele>885.03</ele>
        <time>2011-06-26T12:55:42Z</time>
      </trkpt>
      <trkpt lat="44.12474" lon="6.31444">
        <ele>884.07</ele>
        <time>2011-06-26T12:55:43Z</time>
      </trkpt>
      <trkpt lat="44.12469" lon="6.3144">
        <ele>884.07</ele>
        <time>2011-06-26T12:55:44Z</time>
      </trkpt>
      <trkpt lat="44.12463" lon="6.31436">
        <ele>883.11</ele>
        <time>2011-06-26T12:55:45Z</time>
      </trkpt>
      <trkpt lat="44.12456" lon="6.31432">
        <ele>882.63</ele>
        <time>2011-06-26T12:55:46Z</time>
      </trkpt>
      <trkpt lat="44.12433" lon="6.31421">
        <ele>880.22</ele>
        <time>2011-06-26T12:55:49Z</time>
      </trkpt>
      <trkpt lat="44.12426" lon="6.31414">
        <ele>879.26</ele>
        <time>2011-06-26T12:55:50Z</time>
      </trkpt>
      <trkpt lat="44.12392" lon="6.31375">
        <ele>875.9</ele>
        <time>2011-06-26T12:55:55Z</time>
      </trkpt>
      <trkpt lat="44.12377" lon="6.3136">
        <ele>874.46</ele>
        <time>2011-06-26T12:55:57Z</time>
      </trkpt>
      <trkpt lat="44.1237" lon="6.31355">
        <ele>873.98</ele>
        <time>2011-06-26T12:55:58Z</time>
      </trkpt>
      <trkpt lat="44.12362" lon="6.31351">
        <ele>873.5</ele>
        <time>2011-06-26T12:55:59Z</time>
      </trkpt>
      <trkpt lat="44.12354" lon="6.31349">
        <ele>872.53</ele>
        <time>2011-06-26T12:56:00Z</time>
      </trkpt>
      <trkpt lat="44.12347" lon="6.31347">
        <ele>871.57</ele>
        <time>2011-06-26T12:56:01Z</time>
      </trkpt>
      <trkpt lat="44.12341" lon="6.31345">
        <ele>871.57</ele>
        <time>2011-06-26T12:56:02Z</time>
      </trkpt>
      <trkpt lat="44.12333" lon="6.31343">
        <ele>870.13</ele>
        <time>2011-06-26T12:56:04Z</time>
      </trkpt>
      <trkpt lat="44.1233" lon="6.3134">
        <ele>870.13</ele>
        <time>2011-06-26T12:56:05Z</time>
      </trkpt>
      <trkpt lat="44.12338" lon="6.31317">
        <ele>870.61</ele>
        <time>2011-06-26T12:56:14Z</time>
      </trkpt>
      <trkpt lat="44.12358" lon="6.31314">
        <ele>872.53</ele>
        <time>2011-06-26T12:56:26Z</time>
      </trkpt>
      <trkpt lat="44.12384" lon="6.31304">
        <ele>875.42</ele>
        <time>2011-06-26T12:56:43Z</time>
      </trkpt>
      <trkpt lat="44.12405" lon="6.31296">
        <ele>878.78</ele>
        <time>2011-06-26T12:56:58Z</time>
      </trkpt>
      <trkpt lat="44.12427" lon="6.31289">
        <ele>881.67</ele>
        <time>2011-06-26T12:57:13Z</time>
      </trkpt>
      <trkpt lat="44.12447" lon="6.31282">
        <ele>883.59</ele>
        <time>2011-06-26T12:57:25Z</time>
      </trkpt>
      <trkpt lat="44.12466" lon="6.31262">
        <ele>885.51</ele>
        <time>2011-06-26T12:57:40Z</time>
      </trkpt>
      <trkpt lat="44.12486" lon="6.3124">
        <ele>888.4</ele>
        <time>2011-06-26T12:57:56Z</time>
      </trkpt>
      <trkpt lat="44.12507" lon="6.31221">
        <ele>891.28</ele>
        <time>2011-06-26T12:58:12Z</time>
      </trkpt>
      <trkpt lat="44.12519" lon="6.31198">
        <ele>893.2</ele>
        <time>2011-06-26T12:58:27Z</time>
      </trkpt>
      <trkpt lat="44.12521" lon="6.31168">
        <ele>896.09</ele>
        <time>2011-06-26T12:58:41Z</time>
      </trkpt>
      <trkpt lat="44.12522" lon="6.31162">
        <ele>891.76</ele>
        <time>2011-06-26T12:58:44Z</time>
      </trkpt>
      <trkpt lat="44.12522" lon="6.31159">
        <ele>896.57</ele>
        <time>2011-06-26T12:58:45Z</time>
      </trkpt>
      <trkpt lat="44.12527" lon="6.31121">
        <ele>899.45</ele>
        <time>2011-06-26T12:59:02Z</time>
      </trkpt>
      <trkpt lat="44.1253" lon="6.31089">
        <ele>901.85</ele>
        <time>2011-06-26T12:59:17Z</time>
      </trkpt>
      <trkpt lat="44.1253" lon="6.3105">
        <ele>905.22</ele>
        <time>2011-06-26T12:59:35Z</time>
      </trkpt>
      <trkpt lat="44.12528" lon="6.31017">
        <ele>908.1</ele>
        <time>2011-06-26T12:59:51Z</time>
      </trkpt>
      <trkpt lat="44.12521" lon="6.3098">
        <ele>910.99</ele>
        <time>2011-06-26T13:00:09Z</time>
      </trkpt>
      <trkpt lat="44.12511" lon="6.30949">
        <ele>913.87</ele>
        <time>2011-06-26T13:00:25Z</time>
      </trkpt>
      <trkpt lat="44.12502" lon="6.30914">
        <ele>915.79</ele>
        <time>2011-06-26T13:00:42Z</time>
      </trkpt>
      <trkpt lat="44.12491" lon="6.30881">
        <ele>917.72</ele>
        <time>2011-06-26T13:00:59Z</time>
      </trkpt>
      <trkpt lat="44.12489" lon="6.30873">
        <ele>918.2</ele>
        <time>2011-06-26T13:01:13Z</time>
      </trkpt>
      <trkpt lat="44.12487" lon="6.30871">
        <ele>918.68</ele>
        <time>2011-06-26T13:01:17Z</time>
      </trkpt>
      <trkpt lat="44.12482" lon="6.30868">
        <ele>923.48</ele>
        <time>2011-06-26T13:01:26Z</time>
      </trkpt>
      <trkpt lat="44.12482" lon="6.30868">
        <ele>920.12</ele>
        <time>2011-06-26T13:01:28Z</time>
      </trkpt>
      <trkpt lat="44.12478" lon="6.30864">
        <ele>913.39</ele>
        <time>2011-06-26T13:01:41Z</time>
      </trkpt>
      <trkpt lat="44.12478" lon="6.30863">
        <ele>920.6</ele>
        <time>2011-06-26T13:01:42Z</time>
      </trkpt>
      <trkpt lat="44.1247" lon="6.30856">
        <ele>922.52</ele>
        <time>2011-06-26T13:01:59Z</time>
      </trkpt>
      <trkpt lat="44.1247" lon="6.30855">
        <ele>922.04</ele>
        <time>2011-06-26T13:02:13Z</time>
      </trkpt>
      <trkpt lat="44.1247" lon="6.30828">
        <ele>918.68</ele>
        <time>2011-06-26T13:02:24Z</time>
      </trkpt>
      <trkpt lat="44.1247" lon="6.30824">
        <ele>918.68</ele>
        <time>2011-06-26T13:02:25Z</time>
      </trkpt>
      <trkpt lat="44.12475" lon="6.30804">
        <ele>915.79</ele>
        <time>2011-06-26T13:02:30Z</time>
      </trkpt>
      <trkpt lat="44.12484" lon="6.30784">
        <ele>912.43</ele>
        <time>2011-06-26T13:02:34Z</time>
      </trkpt>
      <trkpt lat="44.12488" lon="6.3077">
        <ele>909.06</ele>
        <time>2011-06-26T13:02:36Z</time>
      </trkpt>
      <trkpt lat="44.12494" lon="6.30747">
        <ele>905.7</ele>
        <time>2011-06-26T13:02:39Z</time>
      </trkpt>
      <trkpt lat="44.12498" lon="6.30738">
        <ele>904.74</ele>
        <time>2011-06-26T13:02:40Z</time>
      </trkpt>
      <trkpt lat="44.12506" lon="6.30707">
        <ele>900.41</ele>
        <time>2011-06-26T13:02:43Z</time>
      </trkpt>
      <trkpt lat="44.12512" lon="6.30691">
        <ele>897.05</ele>
        <time>2011-06-26T13:02:45Z</time>
      </trkpt>
      <trkpt lat="44.12529" lon="6.30669">
        <ele>892.72</ele>
        <time>2011-06-26T13:02:49Z</time>
      </trkpt>
      <trkpt lat="44.12534" lon="6.30667">
        <ele>892.24</ele>
        <time>2011-06-26T13:02:50Z</time>
      </trkpt>
      <trkpt lat="44.12543" lon="6.30662">
        <ele>888.4</ele>
        <time>2011-06-26T13:02:52Z</time>
      </trkpt>
      <trkpt lat="44.12549" lon="6.30626">
        <ele>883.59</ele>
        <time>2011-06-26T13:02:57Z</time>
      </trkpt>
      <trkpt lat="44.12546" lon="6.30616">
        <ele>883.59</ele>
        <time>2011-06-26T13:02:58Z</time>
      </trkpt>
      <trkpt lat="44.12535" lon="6.30603">
        <ele>882.63</ele>
        <time>2011-06-26T13:03:01Z</time>
      </trkpt>
      <trkpt lat="44.12512" lon="6.30594">
        <ele>879.74</ele>
        <time>2011-06-26T13:03:06Z</time>
      </trkpt>
      <trkpt lat="44.12499" lon="6.30581">
        <ele>877.34</ele>
        <time>2011-06-26T13:03:13Z</time>
      </trkpt>
      <trkpt lat="44.12498" lon="6.30577">
        <ele>877.34</ele>
        <time>2011-06-26T13:03:18Z</time>
      </trkpt>
      <trkpt lat="44.12496" lon="6.30572">
        <ele>878.3</ele>
        <time>2011-06-26T13:03:23Z</time>
      </trkpt>
      <trkpt lat="44.12492" lon="6.30567">
        <ele>878.78</ele>
        <time>2011-06-26T13:03:28Z</time>
      </trkpt>
      <trkpt lat="44.12488" lon="6.30556">
        <ele>879.74</ele>
        <time>2011-06-26T13:03:37Z</time>
      </trkpt>
      <trkpt lat="44.12476" lon="6.3055">
        <ele>878.78</ele>
        <time>2011-06-26T13:03:44Z</time>
      </trkpt>
      <trkpt lat="44.12461" lon="6.30552">
        <ele>873.98</ele>
        <time>2011-06-26T13:03:50Z</time>
      </trkpt>
      <trkpt lat="44.12459" lon="6.30551">
        <ele>873.98</ele>
        <time>2011-06-26T13:03:51Z</time>
      </trkpt>
      <trkpt lat="44.12457" lon="6.30542">
        <ele>873.98</ele>
        <time>2011-06-26T13:03:55Z</time>
      </trkpt>
      <trkpt lat="44.12463" lon="6.30503">
        <ele>876.38</ele>
        <time>2011-06-26T13:04:09Z</time>
      </trkpt>
      <trkpt lat="44.12451" lon="6.30465">
        <ele>874.94</ele>
        <time>2011-06-26T13:04:22Z</time>
      </trkpt>
      <trkpt lat="44.12442" lon="6.30461">
        <ele>873.98</ele>
        <time>2011-06-26T13:04:25Z</time>
      </trkpt>
      <trkpt lat="44.1242" lon="6.30468">
        <ele>872.05</ele>
        <time>2011-06-26T13:04:36Z</time>
      </trkpt>
      <trkpt lat="44.12418" lon="6.30468">
        <ele>871.57</ele>
        <time>2011-06-26T13:04:38Z</time>
      </trkpt>
      <trkpt lat="44.12402" lon="6.30448">
        <ele>869.65</ele>
        <time>2011-06-26T13:04:50Z</time>
      </trkpt>
      <trkpt lat="44.12387" lon="6.3042">
        <ele>872.53</ele>
        <time>2011-06-26T13:05:05Z</time>
      </trkpt>
      <trkpt lat="44.12381" lon="6.30406">
        <ele>873.5</ele>
        <time>2011-06-26T13:05:20Z</time>
      </trkpt>
      <trkpt lat="44.12394" lon="6.30396">
        <ele>876.86</ele>
        <time>2011-06-26T13:05:32Z</time>
      </trkpt>
      <trkpt lat="44.12395" lon="6.30394">
        <ele>877.34</ele>
        <time>2011-06-26T13:05:33Z</time>
      </trkpt>
      <trkpt lat="44.12399" lon="6.30383">
        <ele>878.3</ele>
        <time>2011-06-26T13:05:37Z</time>
      </trkpt>
      <trkpt lat="44.12397" lon="6.30358">
        <ele>876.86</ele>
        <time>2011-06-26T13:05:46Z</time>
      </trkpt>
      <trkpt lat="44.12389" lon="6.30342">
        <ele>873.5</ele>
        <time>2011-06-26T13:05:50Z</time>
      </trkpt>
      <trkpt lat="44.12383" lon="6.30324">
        <ele>872.05</ele>
        <time>2011-06-26T13:06:02Z</time>
      </trkpt>
      <trkpt lat="44.12386" lon="6.30325">
        <ele>872.05</ele>
        <time>2011-06-26T13:06:04Z</time>
      </trkpt>
      <trkpt lat="44.124" lon="6.30324">
        <ele>873.98</ele>
        <time>2011-06-26T13:06:19Z</time>
      </trkpt>
      <trkpt lat="44.12401" lon="6.3032">
        <ele>876.38</ele>
        <time>2011-06-26T13:06:35Z</time>
      </trkpt>
      <trkpt lat="44.12412" lon="6.30315">
        <ele>877.82</ele>
        <time>2011-06-26T13:06:48Z</time>
      </trkpt>
      <trkpt lat="44.12421" lon="6.30308">
        <ele>881.19</ele>
        <time>2011-06-26T13:07:04Z</time>
      </trkpt>
      <trkpt lat="44.12422" lon="6.30307">
        <ele>881.67</ele>
        <time>2011-06-26T13:07:05Z</time>
      </trkpt>
      <trkpt lat="44.12434" lon="6.303">
        <ele>882.63</ele>
        <time>2011-06-26T13:07:21Z</time>
      </trkpt>
      <trkpt lat="44.12449" lon="6.30289">
        <ele>884.55</ele>
        <time>2011-06-26T13:07:35Z</time>
      </trkpt>
      <trkpt lat="44.12458" lon="6.30276">
        <ele>885.03</ele>
        <time>2011-06-26T13:07:44Z</time>
      </trkpt>
      <trkpt lat="44.12449" lon="6.3025">
        <ele>884.07</ele>
        <time>2011-06-26T13:07:56Z</time>
      </trkpt>
      <trkpt lat="44.12443" lon="6.30235">
        <ele>882.15</ele>
        <time>2011-06-26T13:08:00Z</time>
      </trkpt>
      <trkpt lat="44.12443" lon="6.30209">
        <ele>878.78</ele>
        <time>2011-06-26T13:08:06Z</time>
      </trkpt>
      <trkpt lat="44.12434" lon="6.30179">
        <ele>875.9</ele>
        <time>2011-06-26T13:08:12Z</time>
      </trkpt>
      <trkpt lat="44.12433" lon="6.30164">
        <ele>872.53</ele>
        <time>2011-06-26T13:08:16Z</time>
      </trkpt>
      <trkpt lat="44.12433" lon="6.30159">
        <ele>869.65</ele>
        <time>2011-06-26T13:08:20Z</time>
      </trkpt>
      <trkpt lat="44.12423" lon="6.30138">
        <ele>867.73</ele>
        <time>2011-06-26T13:08:26Z</time>
      </trkpt>
      <trkpt lat="44.12426" lon="6.30127">
        <ele>870.13</ele>
        <time>2011-06-26T13:08:38Z</time>
      </trkpt>
      <trkpt lat="44.12435" lon="6.30115">
        <ele>873.01</ele>
        <time>2011-06-26T13:08:54Z</time>
      </trkpt>
      <trkpt lat="44.1244" lon="6.30109">
        <ele>873.98</ele>
        <time>2011-06-26T13:09:04Z</time>
      </trkpt>
      <trkpt lat="44.12447" lon="6.30101">
        <ele>871.57</ele>
        <time>2011-06-26T13:09:11Z</time>
      </trkpt>
      <trkpt lat="44.12445" lon="6.30095">
        <ele>869.65</ele>
        <time>2011-06-26T13:09:14Z</time>
      </trkpt>
      <trkpt lat="44.12436" lon="6.30073">
        <ele>868.21</ele>
        <time>2011-06-26T13:09:26Z</time>
      </trkpt>
      <trkpt lat="44.12445" lon="6.30065">
        <ele>865.32</ele>
        <time>2011-06-26T13:09:33Z</time>
      </trkpt>
      <trkpt lat="44.12452" lon="6.30063">
        <ele>865.32</ele>
        <time>2011-06-26T13:09:37Z</time>
      </trkpt>
      <trkpt lat="44.12479" lon="6.30034">
        <ele>864.84</ele>
        <time>2011-06-26T13:09:53Z</time>
      </trkpt>
      <trkpt lat="44.12508" lon="6.30012">
        <ele>863.4</ele>
        <time>2011-06-26T13:10:07Z</time>
      </trkpt>
      <trkpt lat="44.12542" lon="6.30002">
        <ele>862.44</ele>
        <time>2011-06-26T13:10:19Z</time>
      </trkpt>
      <trkpt lat="44.12565" lon="6.3">
        <ele>862.44</ele>
        <time>2011-06-26T13:10:30Z</time>
      </trkpt>
      <trkpt lat="44.12586" lon="6.2996">
        <ele>861</ele>
        <time>2011-06-26T13:10:43Z</time>
      </trkpt>
      <trkpt lat="44.1259" lon="6.29923">
        <ele>857.63</ele>
        <time>2011-06-26T13:10:50Z</time>
      </trkpt>
      <trkpt lat="44.12591" lon="6.29913">
        <ele>856.67</ele>
        <time>2011-06-26T13:10:52Z</time>
      </trkpt>
      <trkpt lat="44.12594" lon="6.29902">
        <ele>853.79</ele>
        <time>2011-06-26T13:10:56Z</time>
      </trkpt>
      <trkpt lat="44.12606" lon="6.29903">
        <ele>850.42</ele>
        <time>2011-06-26T13:11:02Z</time>
      </trkpt>
      <trkpt lat="44.12603" lon="6.29884">
        <ele>847.06</ele>
        <time>2011-06-26T13:11:09Z</time>
      </trkpt>
      <trkpt lat="44.12602" lon="6.29878">
        <ele>846.58</ele>
        <time>2011-06-26T13:11:11Z</time>
      </trkpt>
      <trkpt lat="44.12602" lon="6.29873">
        <ele>844.66</ele>
        <time>2011-06-26T13:11:14Z</time>
      </trkpt>
      <trkpt lat="44.12595" lon="6.29861">
        <ele>841.77</ele>
        <time>2011-06-26T13:11:20Z</time>
      </trkpt>
      <trkpt lat="44.12592" lon="6.29854">
        <ele>840.81</ele>
        <time>2011-06-26T13:11:27Z</time>
      </trkpt>
      <trkpt lat="44.12615" lon="6.29853">
        <ele>836.96</ele>
        <time>2011-06-26T13:11:34Z</time>
      </trkpt>
      <trkpt lat="44.12622" lon="6.29847">
        <ele>834.08</ele>
        <time>2011-06-26T13:11:37Z</time>
      </trkpt>
      <trkpt lat="44.12625" lon="6.29845">
        <ele>834.08</ele>
        <time>2011-06-26T13:11:38Z</time>
      </trkpt>
      <trkpt lat="44.12637" lon="6.29821">
        <ele>833.12</ele>
        <time>2011-06-26T13:11:50Z</time>
      </trkpt>
      <trkpt lat="44.12628" lon="6.29817">
        <ele>833.6</ele>
        <time>2011-06-26T13:12:00Z</time>
      </trkpt>
      <trkpt lat="44.12632" lon="6.29814">
        <ele>835.04</ele>
        <time>2011-06-26T13:12:11Z</time>
      </trkpt>
      <trkpt lat="44.12639" lon="6.29809">
        <ele>836.96</ele>
        <time>2011-06-26T13:12:24Z</time>
      </trkpt>
      <trkpt lat="44.12646" lon="6.2981">
        <ele>835.52</ele>
        <time>2011-06-26T13:12:47Z</time>
      </trkpt>
      <trkpt lat="44.12667" lon="6.29812">
        <ele>834.08</ele>
        <time>2011-06-26T13:12:58Z</time>
      </trkpt>
      <trkpt lat="44.12687" lon="6.29795">
        <ele>836</ele>
        <time>2011-06-26T13:13:17Z</time>
      </trkpt>
      <trkpt lat="44.12699" lon="6.29784">
        <ele>836.48</ele>
        <time>2011-06-26T13:13:32Z</time>
      </trkpt>
      <trkpt lat="44.12705" lon="6.29778">
        <ele>837.45</ele>
        <time>2011-06-26T13:13:48Z</time>
      </trkpt>
      <trkpt lat="44.12706" lon="6.29774">
        <ele>836.96</ele>
        <time>2011-06-26T13:13:50Z</time>
      </trkpt>
      <trkpt lat="44.12701" lon="6.29762">
        <ele>839.37</ele>
        <time>2011-06-26T13:14:02Z</time>
      </trkpt>
      <trkpt lat="44.12692" lon="6.29752">
        <ele>842.25</ele>
        <time>2011-06-26T13:14:17Z</time>
      </trkpt>
      <trkpt lat="44.12684" lon="6.29747">
        <ele>844.66</ele>
        <time>2011-06-26T13:14:32Z</time>
      </trkpt>
      <trkpt lat="44.12682" lon="6.29755">
        <ele>846.58</ele>
        <time>2011-06-26T13:14:59Z</time>
      </trkpt>
      <trkpt lat="44.12675" lon="6.29755">
        <ele>848.98</ele>
        <time>2011-06-26T13:15:11Z</time>
      </trkpt>
      <trkpt lat="44.12674" lon="6.29752">
        <ele>848.98</ele>
        <time>2011-06-26T13:15:14Z</time>
      </trkpt>
      <trkpt lat="44.12673" lon="6.29745">
        <ele>849.46</ele>
        <time>2011-06-26T13:15:19Z</time>
      </trkpt>
      <trkpt lat="44.12671" lon="6.29745">
        <ele>849.94</ele>
        <time>2011-06-26T13:15:21Z</time>
      </trkpt>
      <trkpt lat="44.12662" lon="6.29753">
        <ele>853.31</ele>
        <time>2011-06-26T13:15:39Z</time>
      </trkpt>
      <trkpt lat="44.12657" lon="6.29757">
        <ele>855.71</ele>
        <time>2011-06-26T13:15:56Z</time>
      </trkpt>
      <trkpt lat="44.1265" lon="6.29748">
        <ele>858.59</ele>
        <time>2011-06-26T13:16:11Z</time>
      </trkpt>
      <trkpt lat="44.12649" lon="6.29737">
        <ele>860.04</ele>
        <time>2011-06-26T13:16:23Z</time>
      </trkpt>
      <trkpt lat="44.12649" lon="6.29732">
        <ele>861</ele>
        <time>2011-06-26T13:16:27Z</time>
      </trkpt>
      <trkpt lat="44.12644" lon="6.29719">
        <ele>863.88</ele>
        <time>2011-06-26T13:16:42Z</time>
      </trkpt>
      <trkpt lat="44.1264" lon="6.29709">
        <ele>865.8</ele>
        <time>2011-06-26T13:16:55Z</time>
      </trkpt>
      <trkpt lat="44.12634" lon="6.29699">
        <ele>867.73</ele>
        <time>2011-06-26T13:17:10Z</time>
      </trkpt>
      <trkpt lat="44.12629" lon="6.29689">
        <ele>870.61</ele>
        <time>2011-06-26T13:17:27Z</time>
      </trkpt>
      <trkpt lat="44.12624" lon="6.29693">
        <ele>872.05</ele>
        <time>2011-06-26T13:17:42Z</time>
      </trkpt>
      <trkpt lat="44.12619" lon="6.29702">
        <ele>874.94</ele>
        <time>2011-06-26T13:17:56Z</time>
      </trkpt>
      <trkpt lat="44.12615" lon="6.29711">
        <ele>876.86</ele>
        <time>2011-06-26T13:18:09Z</time>
      </trkpt>
      <trkpt lat="44.12608" lon="6.29716">
        <ele>879.26</ele>
        <time>2011-06-26T13:18:22Z</time>
      </trkpt>
      <trkpt lat="44.12605" lon="6.29718">
        <ele>880.22</ele>
        <time>2011-06-26T13:18:37Z</time>
      </trkpt>
      <trkpt lat="44.12594" lon="6.29716">
        <ele>882.63</ele>
        <time>2011-06-26T13:18:52Z</time>
      </trkpt>
      <trkpt lat="44.12577" lon="6.29712">
        <ele>885.03</ele>
        <time>2011-06-26T13:19:09Z</time>
      </trkpt>
      <trkpt lat="44.12564" lon="6.29708">
        <ele>886.95</ele>
        <time>2011-06-26T13:19:25Z</time>
      </trkpt>
      <trkpt lat="44.12559" lon="6.29703">
        <ele>888.4</ele>
        <time>2011-06-26T13:19:36Z</time>
      </trkpt>
      <trkpt lat="44.1255" lon="6.29695">
        <ele>890.8</ele>
        <time>2011-06-26T13:19:51Z</time>
      </trkpt>
      <trkpt lat="44.12538" lon="6.29692">
        <ele>893.2</ele>
        <time>2011-06-26T13:20:06Z</time>
      </trkpt>
      <trkpt lat="44.12528" lon="6.29689">
        <ele>895.12</ele>
        <time>2011-06-26T13:20:22Z</time>
      </trkpt>
      <trkpt lat="44.12525" lon="6.29689">
        <ele>895.61</ele>
        <time>2011-06-26T13:20:39Z</time>
      </trkpt>
      <trkpt lat="44.1252" lon="6.29683">
        <ele>898.49</ele>
        <time>2011-06-26T13:21:25Z</time>
      </trkpt>
      <trkpt lat="44.12517" lon="6.29673">
        <ele>901.85</ele>
        <time>2011-06-26T13:21:40Z</time>
      </trkpt>
      <trkpt lat="44.12514" lon="6.29668">
        <ele>903.3</ele>
        <time>2011-06-26T13:21:55Z</time>
      </trkpt>
      <trkpt lat="44.1251" lon="6.29665">
        <ele>903.3</ele>
        <time>2011-06-26T13:22:19Z</time>
      </trkpt>
      <trkpt lat="44.12494" lon="6.29662">
        <ele>905.7</ele>
        <time>2011-06-26T13:22:35Z</time>
      </trkpt>
      <trkpt lat="44.12483" lon="6.29671">
        <ele>909.06</ele>
        <time>2011-06-26T13:22:53Z</time>
      </trkpt>
      <trkpt lat="44.12474" lon="6.2968">
        <ele>911.95</ele>
        <time>2011-06-26T13:23:09Z</time>
      </trkpt>
      <trkpt lat="44.12462" lon="6.29685">
        <ele>913.39</ele>
        <time>2011-06-26T13:23:25Z</time>
      </trkpt>
      <trkpt lat="44.12461" lon="6.29685">
        <ele>913.39</ele>
        <time>2011-06-26T13:23:53Z</time>
      </trkpt>
      <trkpt lat="44.12461" lon="6.29682">
        <ele>913.39</ele>
        <time>2011-06-26T13:25:46Z</time>
      </trkpt>
      <trkpt lat="44.12448" lon="6.2966">
        <ele>909.06</ele>
        <time>2011-06-26T13:25:55Z</time>
      </trkpt>
      <trkpt lat="44.12438" lon="6.29646">
        <ele>906.18</ele>
        <time>2011-06-26T13:25:59Z</time>
      </trkpt>
      <trkpt lat="44.12428" lon="6.29638">
        <ele>903.3</ele>
        <time>2011-06-26T13:26:03Z</time>
      </trkpt>
      <trkpt lat="44.12412" lon="6.29632">
        <ele>900.89</ele>
        <time>2011-06-26T13:26:07Z</time>
      </trkpt>
      <trkpt lat="44.12374" lon="6.29618">
        <ele>900.89</ele>
        <time>2011-06-26T13:26:19Z</time>
      </trkpt>
      <trkpt lat="44.12371" lon="6.29614">
        <ele>901.85</ele>
        <time>2011-06-26T13:26:34Z</time>
      </trkpt>
      <trkpt lat="44.12367" lon="6.29611">
        <ele>902.82</ele>
        <time>2011-06-26T13:26:39Z</time>
      </trkpt>
      <trkpt lat="44.12359" lon="6.29595">
        <ele>900.41</ele>
        <time>2011-06-26T13:26:46Z</time>
      </trkpt>
      <trkpt lat="44.1234" lon="6.29563">
        <ele>901.85</ele>
        <time>2011-06-26T13:26:57Z</time>
      </trkpt>
      <trkpt lat="44.12331" lon="6.29561">
        <ele>902.82</ele>
        <time>2011-06-26T13:27:13Z</time>
      </trkpt>
      <trkpt lat="44.1233" lon="6.29561">
        <ele>903.3</ele>
        <time>2011-06-26T13:27:14Z</time>
      </trkpt>
      <trkpt lat="44.12323" lon="6.29562">
        <ele>902.33</ele>
        <time>2011-06-26T13:27:18Z</time>
      </trkpt>
      <trkpt lat="44.12291" lon="6.29571">
        <ele>899.93</ele>
        <time>2011-06-26T13:27:29Z</time>
      </trkpt>
      <trkpt lat="44.1226" lon="6.29569">
        <ele>899.45</ele>
        <time>2011-06-26T13:27:41Z</time>
      </trkpt>
      <trkpt lat="44.12245" lon="6.29574">
        <ele>900.89</ele>
        <time>2011-06-26T13:27:51Z</time>
      </trkpt>
      <trkpt lat="44.12224" lon="6.29569">
        <ele>902.33</ele>
        <time>2011-06-26T13:28:05Z</time>
      </trkpt>
      <trkpt lat="44.12219" lon="6.29566">
        <ele>901.85</ele>
        <time>2011-06-26T13:28:08Z</time>
      </trkpt>
      <trkpt lat="44.12208" lon="6.29553">
        <ele>904.26</ele>
        <time>2011-06-26T13:28:22Z</time>
      </trkpt>
      <trkpt lat="44.12203" lon="6.29548">
        <ele>903.3</ele>
        <time>2011-06-26T13:28:26Z</time>
      </trkpt>
      <trkpt lat="44.12193" lon="6.29548">
        <ele>904.26</ele>
        <time>2011-06-26T13:28:40Z</time>
      </trkpt>
      <trkpt lat="44.12182" lon="6.29557">
        <ele>907.62</ele>
        <time>2011-06-26T13:28:56Z</time>
      </trkpt>
      <trkpt lat="44.12174" lon="6.29563">
        <ele>908.1</ele>
        <time>2011-06-26T13:29:12Z</time>
      </trkpt>
      <trkpt lat="44.12162" lon="6.29563">
        <ele>905.7</ele>
        <time>2011-06-26T13:29:31Z</time>
      </trkpt>
      <trkpt lat="44.12158" lon="6.29552">
        <ele>908.58</ele>
        <time>2011-06-26T13:29:46Z</time>
      </trkpt>
      <trkpt lat="44.12157" lon="6.29547">
        <ele>909.06</ele>
        <time>2011-06-26T13:29:49Z</time>
      </trkpt>
      <trkpt lat="44.12156" lon="6.29546">
        <ele>909.54</ele>
        <time>2011-06-26T13:29:54Z</time>
      </trkpt>
      <trkpt lat="44.12153" lon="6.29519">
        <ele>910.51</ele>
        <time>2011-06-26T13:30:10Z</time>
      </trkpt>
      <trkpt lat="44.12149" lon="6.29512">
        <ele>911.95</ele>
        <time>2011-06-26T13:30:18Z</time>
      </trkpt>
      <trkpt lat="44.1214" lon="6.29483">
        <ele>910.51</ele>
        <time>2011-06-26T13:30:30Z</time>
      </trkpt>
      <trkpt lat="44.12118" lon="6.29461">
        <ele>910.51</ele>
        <time>2011-06-26T13:30:43Z</time>
      </trkpt>
      <trkpt lat="44.12104" lon="6.29443">
        <ele>911.47</ele>
        <time>2011-06-26T13:30:56Z</time>
      </trkpt>
      <trkpt lat="44.12096" lon="6.29442">
        <ele>913.87</ele>
        <time>2011-06-26T13:31:10Z</time>
      </trkpt>
      <trkpt lat="44.12094" lon="6.2944">
        <ele>913.87</ele>
        <time>2011-06-26T13:31:14Z</time>
      </trkpt>
      <trkpt lat="44.12088" lon="6.29437">
        <ele>913.39</ele>
        <time>2011-06-26T13:31:18Z</time>
      </trkpt>
      <trkpt lat="44.12073" lon="6.29434">
        <ele>913.39</ele>
        <time>2011-06-26T13:31:26Z</time>
      </trkpt>
      <trkpt lat="44.12062" lon="6.29431">
        <ele>916.27</ele>
        <time>2011-06-26T13:31:43Z</time>
      </trkpt>
      <trkpt lat="44.12059" lon="6.29426">
        <ele>916.27</ele>
        <time>2011-06-26T13:31:59Z</time>
      </trkpt>
      <trkpt lat="44.12056" lon="6.29421">
        <ele>917.24</ele>
        <time>2011-06-26T13:32:04Z</time>
      </trkpt>
      <trkpt lat="44.12051" lon="6.29412">
        <ele>918.68</ele>
        <time>2011-06-26T13:32:19Z</time>
      </trkpt>
      <trkpt lat="44.12049" lon="6.29409">
        <ele>919.64</ele>
        <time>2011-06-26T13:32:25Z</time>
      </trkpt>
      <trkpt lat="44.12042" lon="6.29397">
        <ele>921.56</ele>
        <time>2011-06-26T13:32:35Z</time>
      </trkpt>
      <trkpt lat="44.12041" lon="6.29395">
        <ele>922.52</ele>
        <time>2011-06-26T13:32:40Z</time>
      </trkpt>
      <trkpt lat="44.12038" lon="6.2939">
        <ele>923.48</ele>
        <time>2011-06-26T13:32:48Z</time>
      </trkpt>
      <trkpt lat="44.12035" lon="6.29387">
        <ele>923.48</ele>
        <time>2011-06-26T13:33:13Z</time>
      </trkpt>
      <trkpt lat="44.12031" lon="6.29375">
        <ele>926.85</ele>
        <time>2011-06-26T13:34:03Z</time>
      </trkpt>
      <trkpt lat="44.12022" lon="6.29365">
        <ele>929.25</ele>
        <time>2011-06-26T13:34:43Z</time>
      </trkpt>
      <trkpt lat="44.12018" lon="6.29351">
        <ele>931.65</ele>
        <time>2011-06-26T13:34:58Z</time>
      </trkpt>
      <trkpt lat="44.12014" lon="6.29344">
        <ele>933.58</ele>
        <time>2011-06-26T13:35:13Z</time>
      </trkpt>
      <trkpt lat="44.1201" lon="6.29334">
        <ele>933.1</ele>
        <time>2011-06-26T13:35:29Z</time>
      </trkpt>
      <trkpt lat="44.12006" lon="6.29306">
        <ele>932.62</ele>
        <time>2011-06-26T13:35:41Z</time>
      </trkpt>
      <trkpt lat="44.11997" lon="6.29293">
        <ele>933.58</ele>
        <time>2011-06-26T13:35:49Z</time>
      </trkpt>
      <trkpt lat="44.11994" lon="6.29286">
        <ele>933.1</ele>
        <time>2011-06-26T13:35:53Z</time>
      </trkpt>
      <trkpt lat="44.11984" lon="6.29272">
        <ele>929.25</ele>
        <time>2011-06-26T13:36:02Z</time>
      </trkpt>
      <trkpt lat="44.11965" lon="6.29254">
        <ele>927.81</ele>
        <time>2011-06-26T13:36:13Z</time>
      </trkpt>
      <trkpt lat="44.11962" lon="6.29254">
        <ele>929.25</ele>
        <time>2011-06-26T13:36:18Z</time>
      </trkpt>
      <trkpt lat="44.11958" lon="6.29253">
        <ele>929.73</ele>
        <time>2011-06-26T13:36:24Z</time>
      </trkpt>
      <trkpt lat="44.11947" lon="6.29253">
        <ele>930.21</ele>
        <time>2011-06-26T13:36:37Z</time>
      </trkpt>
      <trkpt lat="44.11946" lon="6.29252">
        <ele>929.73</ele>
        <time>2011-06-26T13:36:39Z</time>
      </trkpt>
      <trkpt lat="44.11925" lon="6.2924">
        <ele>928.29</ele>
        <time>2011-06-26T13:36:51Z</time>
      </trkpt>
      <trkpt lat="44.11926" lon="6.29246">
        <ele>930.21</ele>
        <time>2011-06-26T13:37:03Z</time>
      </trkpt>
      <trkpt lat="44.11926" lon="6.29253">
        <ele>932.62</ele>
        <time>2011-06-26T13:37:18Z</time>
      </trkpt>
      <trkpt lat="44.11926" lon="6.29253">
        <ele>932.14</ele>
        <time>2011-06-26T13:37:22Z</time>
      </trkpt>
      <trkpt lat="44.11924" lon="6.2926">
        <ele>932.62</ele>
        <time>2011-06-26T13:37:26Z</time>
      </trkpt>
      <trkpt lat="44.11917" lon="6.29271">
        <ele>930.69</ele>
        <time>2011-06-26T13:37:33Z</time>
      </trkpt>
      <trkpt lat="44.11899" lon="6.29255">
        <ele>930.21</ele>
        <time>2011-06-26T13:37:46Z</time>
      </trkpt>
      <trkpt lat="44.11878" lon="6.29247">
        <ele>926.85</ele>
        <time>2011-06-26T13:37:52Z</time>
      </trkpt>
      <trkpt lat="44.11866" lon="6.29237">
        <ele>923.96</ele>
        <time>2011-06-26T13:37:55Z</time>
      </trkpt>
      <trkpt lat="44.11862" lon="6.29234">
        <ele>922.52</ele>
        <time>2011-06-26T13:37:56Z</time>
      </trkpt>
      <trkpt lat="44.11845" lon="6.29227">
        <ele>917.72</ele>
        <time>2011-06-26T13:38:00Z</time>
      </trkpt>
      <trkpt lat="44.11831" lon="6.2921">
        <ele>914.35</ele>
        <time>2011-06-26T13:38:04Z</time>
      </trkpt>
      <trkpt lat="44.11817" lon="6.292">
        <ele>911.95</ele>
        <time>2011-06-26T13:38:07Z</time>
      </trkpt>
      <trkpt lat="44.11801" lon="6.29183">
        <ele>907.14</ele>
        <time>2011-06-26T13:38:12Z</time>
      </trkpt>
      <trkpt lat="44.11794" lon="6.29174">
        <ele>903.3</ele>
        <time>2011-06-26T13:38:15Z</time>
      </trkpt>
      <trkpt lat="44.11786" lon="6.29165">
        <ele>900.41</ele>
        <time>2011-06-26T13:38:18Z</time>
      </trkpt>
      <trkpt lat="44.11782" lon="6.2916">
        <ele>897.05</ele>
        <time>2011-06-26T13:38:20Z</time>
      </trkpt>
      <trkpt lat="44.11775" lon="6.29151">
        <ele>894.16</ele>
        <time>2011-06-26T13:38:23Z</time>
      </trkpt>
      <trkpt lat="44.11772" lon="6.29148">
        <ele>893.68</ele>
        <time>2011-06-26T13:38:24Z</time>
      </trkpt>
      <trkpt lat="44.11766" lon="6.29138">
        <ele>889.84</ele>
        <time>2011-06-26T13:38:27Z</time>
      </trkpt>
      <trkpt lat="44.1176" lon="6.29131">
        <ele>888.4</ele>
        <time>2011-06-26T13:38:30Z</time>
      </trkpt>
      <trkpt lat="44.11748" lon="6.29118">
        <ele>885.03</ele>
        <time>2011-06-26T13:38:35Z</time>
      </trkpt>
      <trkpt lat="44.11732" lon="6.29101">
        <ele>881.67</ele>
        <time>2011-06-26T13:38:40Z</time>
      </trkpt>
      <trkpt lat="44.11714" lon="6.29081">
        <ele>878.3</ele>
        <time>2011-06-26T13:38:45Z</time>
      </trkpt>
      <trkpt lat="44.11704" lon="6.29067">
        <ele>876.86</ele>
        <time>2011-06-26T13:38:48Z</time>
      </trkpt>
      <trkpt lat="44.11692" lon="6.29057">
        <ele>874.94</ele>
        <time>2011-06-26T13:38:51Z</time>
      </trkpt>
      <trkpt lat="44.11671" lon="6.29048">
        <ele>872.05</ele>
        <time>2011-06-26T13:38:57Z</time>
      </trkpt>
      <trkpt lat="44.11665" lon="6.29012">
        <ele>870.61</ele>
        <time>2011-06-26T13:39:05Z</time>
      </trkpt>
      <trkpt lat="44.1164" lon="6.28985">
        <ele>869.17</ele>
        <time>2011-06-26T13:39:14Z</time>
      </trkpt>
      <trkpt lat="44.11633" lon="6.28973">
        <ele>869.17</ele>
        <time>2011-06-26T13:39:17Z</time>
      </trkpt>
      <trkpt lat="44.11616" lon="6.28933">
        <ele>869.17</ele>
        <time>2011-06-26T13:39:26Z</time>
      </trkpt>
      <trkpt lat="44.11607" lon="6.2891">
        <ele>869.17</ele>
        <time>2011-06-26T13:39:31Z</time>
      </trkpt>
      <trkpt lat="44.11603" lon="6.28892">
        <ele>869.17</ele>
        <time>2011-06-26T13:39:35Z</time>
      </trkpt>
      <trkpt lat="44.11596" lon="6.2886">
        <ele>868.69</ele>
        <time>2011-06-26T13:39:41Z</time>
      </trkpt>
      <trkpt lat="44.11585" lon="6.2881">
        <ele>870.13</ele>
        <time>2011-06-26T13:39:52Z</time>
      </trkpt>
      <trkpt lat="44.11588" lon="6.28785">
        <ele>870.61</ele>
        <time>2011-06-26T13:40:01Z</time>
      </trkpt>
      <trkpt lat="44.11584" lon="6.28746">
        <ele>872.05</ele>
        <time>2011-06-26T13:40:14Z</time>
      </trkpt>
      <trkpt lat="44.11579" lon="6.28707">
        <ele>873.98</ele>
        <time>2011-06-26T13:40:26Z</time>
      </trkpt>
      <trkpt lat="44.1157" lon="6.28671">
        <ele>875.42</ele>
        <time>2011-06-26T13:40:39Z</time>
      </trkpt>
      <trkpt lat="44.11564" lon="6.28645">
        <ele>875.9</ele>
        <time>2011-06-26T13:40:50Z</time>
      </trkpt>
      <trkpt lat="44.11536" lon="6.28621">
        <ele>872.53</ele>
        <time>2011-06-26T13:40:58Z</time>
      </trkpt>
      <trkpt lat="44.11516" lon="6.2861">
        <ele>870.13</ele>
        <time>2011-06-26T13:41:03Z</time>
      </trkpt>
      <trkpt lat="44.11511" lon="6.28609">
        <ele>869.65</ele>
        <time>2011-06-26T13:41:04Z</time>
      </trkpt>
      <trkpt lat="44.11497" lon="6.28596">
        <ele>867.73</ele>
        <time>2011-06-26T13:41:08Z</time>
      </trkpt>
      <trkpt lat="44.11483" lon="6.28569">
        <ele>864.36</ele>
        <time>2011-06-26T13:41:14Z</time>
      </trkpt>
      <trkpt lat="44.11481" lon="6.28564">
        <ele>864.36</ele>
        <time>2011-06-26T13:41:15Z</time>
      </trkpt>
      <trkpt lat="44.11475" lon="6.28556">
        <ele>863.4</ele>
        <time>2011-06-26T13:41:17Z</time>
      </trkpt>
      <trkpt lat="44.11456" lon="6.28528">
        <ele>860.04</ele>
        <time>2011-06-26T13:41:24Z</time>
      </trkpt>
      <trkpt lat="44.11448" lon="6.28519">
        <ele>859.56</ele>
        <time>2011-06-26T13:41:26Z</time>
      </trkpt>
      <trkpt lat="44.11431" lon="6.2851">
        <ele>858.59</ele>
        <time>2011-06-26T13:41:30Z</time>
      </trkpt>
      <trkpt lat="44.11406" lon="6.28496">
        <ele>857.63</ele>
        <time>2011-06-26T13:41:36Z</time>
      </trkpt>
      <trkpt lat="44.11375" lon="6.28464">
        <ele>855.71</ele>
        <time>2011-06-26T13:41:44Z</time>
      </trkpt>
      <trkpt lat="44.11362" lon="6.28446">
        <ele>855.23</ele>
        <time>2011-06-26T13:41:48Z</time>
      </trkpt>
      <trkpt lat="44.11339" lon="6.28422">
        <ele>853.79</ele>
        <time>2011-06-26T13:41:57Z</time>
      </trkpt>
      <trkpt lat="44.11321" lon="6.28434">
        <ele>851.87</ele>
        <time>2011-06-26T13:42:04Z</time>
      </trkpt>
      <trkpt lat="44.11314" lon="6.2843">
        <ele>850.42</ele>
        <time>2011-06-26T13:42:08Z</time>
      </trkpt>
      <trkpt lat="44.11302" lon="6.28427">
        <ele>848.5</ele>
        <time>2011-06-26T13:42:12Z</time>
      </trkpt>
      <trkpt lat="44.11264" lon="6.28414">
        <ele>844.66</ele>
        <time>2011-06-26T13:42:21Z</time>
      </trkpt>
      <trkpt lat="44.11253" lon="6.28405">
        <ele>842.73</ele>
        <time>2011-06-26T13:42:25Z</time>
      </trkpt>
      <trkpt lat="44.11243" lon="6.28393">
        <ele>841.29</ele>
        <time>2011-06-26T13:42:29Z</time>
      </trkpt>
      <trkpt lat="44.11222" lon="6.28372">
        <ele>839.37</ele>
        <time>2011-06-26T13:42:35Z</time>
      </trkpt>
      <trkpt lat="44.11202" lon="6.28373">
        <ele>838.41</ele>
        <time>2011-06-26T13:42:39Z</time>
      </trkpt>
      <trkpt lat="44.11162" lon="6.28362">
        <ele>818.7</ele>
        <time>2011-06-26T13:42:48Z</time>
      </trkpt>
      <trkpt lat="44.11157" lon="6.28359">
        <ele>834.08</ele>
        <time>2011-06-26T13:42:49Z</time>
      </trkpt>
      <trkpt lat="44.11147" lon="6.28349">
        <ele>836</ele>
        <time>2011-06-26T13:42:51Z</time>
      </trkpt>
      <trkpt lat="44.11137" lon="6.28342">
        <ele>836</ele>
        <time>2011-06-26T13:42:53Z</time>
      </trkpt>
      <trkpt lat="44.11111" lon="6.28345">
        <ele>837.45</ele>
        <time>2011-06-26T13:43:05Z</time>
      </trkpt>
      <trkpt lat="44.11113" lon="6.28346">
        <ele>837.93</ele>
        <time>2011-06-26T13:43:17Z</time>
      </trkpt>
      <trkpt lat="44.11113" lon="6.28346">
        <ele>838.41</ele>
        <time>2011-06-26T13:43:51Z</time>
      </trkpt>
      <trkpt lat="44.11106" lon="6.28345">
        <ele>840.33</ele>
        <time>2011-06-26T13:44:06Z</time>
      </trkpt>
      <trkpt lat="44.11098" lon="6.28348">
        <ele>841.77</ele>
        <time>2011-06-26T13:44:21Z</time>
      </trkpt>
      <trkpt lat="44.11088" lon="6.28351">
        <ele>844.66</ele>
        <time>2011-06-26T13:44:37Z</time>
      </trkpt>
      <trkpt lat="44.11075" lon="6.28353">
        <ele>847.06</ele>
        <time>2011-06-26T13:44:54Z</time>
      </trkpt>
      <trkpt lat="44.11065" lon="6.28335">
        <ele>848.98</ele>
        <time>2011-06-26T13:45:10Z</time>
      </trkpt>
      <trkpt lat="44.11054" lon="6.28328">
        <ele>851.38</ele>
        <time>2011-06-26T13:45:27Z</time>
      </trkpt>
      <trkpt lat="44.11047" lon="6.28317">
        <ele>852.83</ele>
        <time>2011-06-26T13:45:42Z</time>
      </trkpt>
      <trkpt lat="44.11041" lon="6.28309">
        <ele>852.83</ele>
        <time>2011-06-26T13:45:56Z</time>
      </trkpt>
      <trkpt lat="44.11024" lon="6.28279">
        <ele>852.83</ele>
        <time>2011-06-26T13:46:06Z</time>
      </trkpt>
      <trkpt lat="44.11011" lon="6.28246">
        <ele>850.42</ele>
        <time>2011-06-26T13:46:16Z</time>
      </trkpt>
      <trkpt lat="44.10996" lon="6.28239">
        <ele>846.58</ele>
        <time>2011-06-26T13:46:20Z</time>
      </trkpt>
      <trkpt lat="44.10981" lon="6.28231">
        <ele>843.21</ele>
        <time>2011-06-26T13:46:24Z</time>
      </trkpt>
      <trkpt lat="44.10969" lon="6.28232">
        <ele>840.33</ele>
        <time>2011-06-26T13:46:27Z</time>
      </trkpt>
      <trkpt lat="44.10956" lon="6.28238">
        <ele>836.96</ele>
        <time>2011-06-26T13:46:31Z</time>
      </trkpt>
      <trkpt lat="44.10947" lon="6.28243">
        <ele>833.6</ele>
        <time>2011-06-26T13:46:34Z</time>
      </trkpt>
      <trkpt lat="44.10938" lon="6.28249">
        <ele>830.24</ele>
        <time>2011-06-26T13:46:37Z</time>
      </trkpt>
      <trkpt lat="44.10923" lon="6.28243">
        <ele>826.87</ele>
        <time>2011-06-26T13:46:41Z</time>
      </trkpt>
      <trkpt lat="44.10906" lon="6.28234">
        <ele>823.03</ele>
        <time>2011-06-26T13:46:45Z</time>
      </trkpt>
      <trkpt lat="44.10901" lon="6.2823">
        <ele>821.58</ele>
        <time>2011-06-26T13:46:46Z</time>
      </trkpt>
      <trkpt lat="44.10875" lon="6.28213">
        <ele>817.74</ele>
        <time>2011-06-26T13:46:50Z</time>
      </trkpt>
      <trkpt lat="44.1087" lon="6.2821">
        <ele>816.78</ele>
        <time>2011-06-26T13:46:51Z</time>
      </trkpt>
      <trkpt lat="44.10855" lon="6.28204">
        <ele>812.45</ele>
        <time>2011-06-26T13:46:54Z</time>
      </trkpt>
      <trkpt lat="44.10842" lon="6.28197">
        <ele>808.61</ele>
        <time>2011-06-26T13:46:58Z</time>
      </trkpt>
      <trkpt lat="44.10838" lon="6.2819">
        <ele>806.2</ele>
        <time>2011-06-26T13:47:00Z</time>
      </trkpt>
      <trkpt lat="44.10827" lon="6.28171">
        <ele>802.36</ele>
        <time>2011-06-26T13:47:03Z</time>
      </trkpt>
      <trkpt lat="44.1081" lon="6.28144">
        <ele>799.47</ele>
        <time>2011-06-26T13:47:07Z</time>
      </trkpt>
      <trkpt lat="44.10782" lon="6.28116">
        <ele>793.71</ele>
        <time>2011-06-26T13:47:12Z</time>
      </trkpt>
      <trkpt lat="44.10776" lon="6.28112">
        <ele>792.74</ele>
        <time>2011-06-26T13:47:13Z</time>
      </trkpt>
      <trkpt lat="44.10748" lon="6.28097">
        <ele>789.86</ele>
        <time>2011-06-26T13:47:17Z</time>
      </trkpt>
      <trkpt lat="44.10725" lon="6.28084">
        <ele>791.3</ele>
        <time>2011-06-26T13:47:24Z</time>
      </trkpt>
      <trkpt lat="44.10716" lon="6.28066">
        <ele>789.86</ele>
        <time>2011-06-26T13:47:28Z</time>
      </trkpt>
      <trkpt lat="44.10705" lon="6.28046">
        <ele>787.94</ele>
        <time>2011-06-26T13:47:31Z</time>
      </trkpt>
      <trkpt lat="44.10691" lon="6.28029">
        <ele>786.02</ele>
        <time>2011-06-26T13:47:34Z</time>
      </trkpt>
      <trkpt lat="44.10667" lon="6.28015">
        <ele>782.17</ele>
        <time>2011-06-26T13:47:40Z</time>
      </trkpt>
      <trkpt lat="44.10662" lon="6.28014">
        <ele>781.69</ele>
        <time>2011-06-26T13:47:41Z</time>
      </trkpt>
      <trkpt lat="44.10643" lon="6.28017">
        <ele>779.77</ele>
        <time>2011-06-26T13:47:45Z</time>
      </trkpt>
      <trkpt lat="44.10616" lon="6.28017">
        <ele>776.88</ele>
        <time>2011-06-26T13:47:50Z</time>
      </trkpt>
      <trkpt lat="44.10604" lon="6.28015">
        <ele>775.44</ele>
        <time>2011-06-26T13:47:52Z</time>
      </trkpt>
      <trkpt lat="44.10579" lon="6.28002">
        <ele>772.08</ele>
        <time>2011-06-26T13:47:58Z</time>
      </trkpt>
      <trkpt lat="44.10562" lon="6.27986">
        <ele>767.27</ele>
        <time>2011-06-26T13:48:03Z</time>
      </trkpt>
      <trkpt lat="44.10561" lon="6.2798">
        <ele>767.27</ele>
        <time>2011-06-26T13:48:04Z</time>
      </trkpt>
      <trkpt lat="44.10557" lon="6.27971">
        <ele>765.83</ele>
        <time>2011-06-26T13:48:06Z</time>
      </trkpt>
      <trkpt lat="44.10544" lon="6.27965">
        <ele>764.39</ele>
        <time>2011-06-26T13:48:09Z</time>
      </trkpt>
      <trkpt lat="44.10535" lon="6.27963">
        <ele>762.94</ele>
        <time>2011-06-26T13:48:11Z</time>
      </trkpt>
      <trkpt lat="44.10514" lon="6.27953">
        <ele>762.46</ele>
        <time>2011-06-26T13:48:17Z</time>
      </trkpt>
      <trkpt lat="44.10482" lon="6.27947">
        <ele>761.02</ele>
        <time>2011-06-26T13:48:24Z</time>
      </trkpt>
      <trkpt lat="44.10477" lon="6.27946">
        <ele>761.02</ele>
        <time>2011-06-26T13:48:25Z</time>
      </trkpt>
      <trkpt lat="44.10453" lon="6.27934">
        <ele>758.62</ele>
        <time>2011-06-26T13:48:32Z</time>
      </trkpt>
      <trkpt lat="44.10435" lon="6.27932">
        <ele>757.18</ele>
        <time>2011-06-26T13:48:36Z</time>
      </trkpt>
      <trkpt lat="44.10425" lon="6.27926">
        <ele>756.69</ele>
        <time>2011-06-26T13:48:38Z</time>
      </trkpt>
      <trkpt lat="44.10399" lon="6.27934">
        <ele>753.81</ele>
        <time>2011-06-26T13:48:43Z</time>
      </trkpt>
      <trkpt lat="44.1037" lon="6.27946">
        <ele>750.93</ele>
        <time>2011-06-26T13:48:48Z</time>
      </trkpt>
      <trkpt lat="44.10359" lon="6.27949">
        <ele>749.97</ele>
        <time>2011-06-26T13:48:50Z</time>
      </trkpt>
      <trkpt lat="44.10354" lon="6.2795">
        <ele>749</ele>
        <time>2011-06-26T13:48:51Z</time>
      </trkpt>
      <trkpt lat="44.10333" lon="6.27958">
        <ele>744.68</ele>
        <time>2011-06-26T13:48:55Z</time>
      </trkpt>
      <trkpt lat="44.10314" lon="6.27959">
        <ele>740.83</ele>
        <time>2011-06-26T13:48:59Z</time>
      </trkpt>
      <trkpt lat="44.10297" lon="6.27956">
        <ele>737.47</ele>
        <time>2011-06-26T13:49:03Z</time>
      </trkpt>
      <trkpt lat="44.10288" lon="6.27949">
        <ele>734.58</ele>
        <time>2011-06-26T13:49:06Z</time>
      </trkpt>
      <trkpt lat="44.10284" lon="6.27944">
        <ele>734.1</ele>
        <time>2011-06-26T13:49:07Z</time>
      </trkpt>
      <trkpt lat="44.10273" lon="6.27931">
        <ele>731.22</ele>
        <time>2011-06-26T13:49:11Z</time>
      </trkpt>
      <trkpt lat="44.10258" lon="6.27921">
        <ele>725.93</ele>
        <time>2011-06-26T13:49:16Z</time>
      </trkpt>
      <trkpt lat="44.10249" lon="6.27913">
        <ele>722.57</ele>
        <time>2011-06-26T13:49:19Z</time>
      </trkpt>
      <trkpt lat="44.10247" lon="6.2791">
        <ele>722.09</ele>
        <time>2011-06-26T13:49:20Z</time>
      </trkpt>
      <trkpt lat="44.10236" lon="6.27906">
        <ele>717.76</ele>
        <time>2011-06-26T13:49:24Z</time>
      </trkpt>
      <trkpt lat="44.10224" lon="6.27908">
        <ele>714.4</ele>
        <time>2011-06-26T13:49:28Z</time>
      </trkpt>
      <trkpt lat="44.1022" lon="6.27907">
        <ele>712.47</ele>
        <time>2011-06-26T13:49:30Z</time>
      </trkpt>
      <trkpt lat="44.10205" lon="6.27896">
        <ele>709.11</ele>
        <time>2011-06-26T13:49:36Z</time>
      </trkpt>
      <trkpt lat="44.10199" lon="6.27889">
        <ele>707.19</ele>
        <time>2011-06-26T13:49:39Z</time>
      </trkpt>
      <trkpt lat="44.10193" lon="6.27889">
        <ele>704.78</ele>
        <time>2011-06-26T13:49:42Z</time>
      </trkpt>
      <trkpt lat="44.10189" lon="6.2789">
        <ele>703.82</ele>
        <time>2011-06-26T13:49:44Z</time>
      </trkpt>
      <trkpt lat="44.10181" lon="6.27892">
        <ele>703.82</ele>
        <time>2011-06-26T13:49:48Z</time>
      </trkpt>
      <trkpt lat="44.10153" lon="6.27885">
        <ele>703.34</ele>
        <time>2011-06-26T13:49:59Z</time>
      </trkpt>
      <trkpt lat="44.10146" lon="6.2788">
        <ele>703.34</ele>
        <time>2011-06-26T13:50:02Z</time>
      </trkpt>
      <trkpt lat="44.10127" lon="6.2786">
        <ele>700.94</ele>
        <time>2011-06-26T13:50:09Z</time>
      </trkpt>
      <trkpt lat="44.10107" lon="6.27838">
        <ele>699.5</ele>
        <time>2011-06-26T13:50:22Z</time>
      </trkpt>
      <trkpt lat="44.10095" lon="6.27805">
        <ele>701.42</ele>
        <time>2011-06-26T13:50:36Z</time>
      </trkpt>
      <trkpt lat="44.10081" lon="6.27801">
        <ele>702.38</ele>
        <time>2011-06-26T13:50:44Z</time>
      </trkpt>
      <trkpt lat="44.10046" lon="6.27777">
        <ele>699.5</ele>
        <time>2011-06-26T13:50:56Z</time>
      </trkpt>
      <trkpt lat="44.10015" lon="6.27759">
        <ele>696.13</ele>
        <time>2011-06-26T13:51:04Z</time>
      </trkpt>
      <trkpt lat="44.10008" lon="6.27753">
        <ele>695.17</ele>
        <time>2011-06-26T13:51:06Z</time>
      </trkpt>
      <trkpt lat="44.0999" lon="6.27728">
        <ele>697.57</ele>
        <time>2011-06-26T13:51:18Z</time>
      </trkpt>
      <trkpt lat="44.09976" lon="6.27682">
        <ele>695.65</ele>
        <time>2011-06-26T13:51:33Z</time>
      </trkpt>
      <trkpt lat="44.09965" lon="6.27658">
        <ele>695.17</ele>
        <time>2011-06-26T13:51:40Z</time>
      </trkpt>
      <trkpt lat="44.09937" lon="6.27641">
        <ele>698.05</ele>
        <time>2011-06-26T13:51:54Z</time>
      </trkpt>
      <trkpt lat="44.09927" lon="6.27638">
        <ele>698.05</ele>
        <time>2011-06-26T13:52:01Z</time>
      </trkpt>
      <trkpt lat="44.09904" lon="6.27612">
        <ele>695.17</ele>
        <time>2011-06-26T13:52:14Z</time>
      </trkpt>
      <trkpt lat="44.09891" lon="6.27607">
        <ele>691.33</ele>
        <time>2011-06-26T13:52:18Z</time>
      </trkpt>
      <trkpt lat="44.09886" lon="6.27606">
        <ele>690.36</ele>
        <time>2011-06-26T13:52:19Z</time>
      </trkpt>
      <trkpt lat="44.09839" lon="6.2761">
        <ele>688.44</ele>
        <time>2011-06-26T13:52:34Z</time>
      </trkpt>
      <trkpt lat="44.09831" lon="6.27609">
        <ele>688.44</ele>
        <time>2011-06-26T13:52:49Z</time>
      </trkpt>
      <trkpt lat="44.09813" lon="6.2759">
        <ele>687</ele>
        <time>2011-06-26T13:53:03Z</time>
      </trkpt>
      <trkpt lat="44.09791" lon="6.27558">
        <ele>686.04</ele>
        <time>2011-06-26T13:53:16Z</time>
      </trkpt>
      <trkpt lat="44.09758" lon="6.27522">
        <ele>685.08</ele>
        <time>2011-06-26T13:53:27Z</time>
      </trkpt>
      <trkpt lat="44.09726" lon="6.27483">
        <ele>685.56</ele>
        <time>2011-06-26T13:53:39Z</time>
      </trkpt>
      <trkpt lat="44.09644" lon="6.27482">
        <ele>682.67</ele>
        <time>2011-06-26T13:53:55Z</time>
      </trkpt>
      <trkpt lat="44.09604" lon="6.27466">
        <ele>679.31</ele>
        <time>2011-06-26T13:54:05Z</time>
      </trkpt>
      <trkpt lat="44.09562" lon="6.27449">
        <ele>678.83</ele>
        <time>2011-06-26T13:54:15Z</time>
      </trkpt>
      <trkpt lat="44.09517" lon="6.27433">
        <ele>677.39</ele>
        <time>2011-06-26T13:54:27Z</time>
      </trkpt>
      <trkpt lat="44.09461" lon="6.27432">
        <ele>677.87</ele>
        <time>2011-06-26T13:54:40Z</time>
      </trkpt>
      <trkpt lat="44.09444" lon="6.27395">
        <ele>675.94</ele>
        <time>2011-06-26T13:54:49Z</time>
      </trkpt>
      <trkpt lat="44.09443" lon="6.27379">
        <ele>674.98</ele>
        <time>2011-06-26T13:54:51Z</time>
      </trkpt>
      <trkpt lat="44.09443" lon="6.27371">
        <ele>674.98</ele>
        <time>2011-06-26T13:54:52Z</time>
      </trkpt>
      <trkpt lat="44.09443" lon="6.27363">
        <ele>674.98</ele>
        <time>2011-06-26T13:54:53Z</time>
      </trkpt>
      <trkpt lat="44.0943" lon="6.27333">
        <ele>674.5</ele>
        <time>2011-06-26T13:55:00Z</time>
      </trkpt>
      <trkpt lat="44.0941" lon="6.27318">
        <ele>674.02</ele>
        <time>2011-06-26T13:55:04Z</time>
      </trkpt>
      <trkpt lat="44.09403" lon="6.27315">
        <ele>673.54</ele>
        <time>2011-06-26T13:55:05Z</time>
      </trkpt>
      <trkpt lat="44.09396" lon="6.27313">
        <ele>673.54</ele>
        <time>2011-06-26T13:55:06Z</time>
      </trkpt>
      <trkpt lat="44.0939" lon="6.27312">
        <ele>673.54</ele>
        <time>2011-06-26T13:55:07Z</time>
      </trkpt>
      <trkpt lat="44.09383" lon="6.27311">
        <ele>673.06</ele>
        <time>2011-06-26T13:55:08Z</time>
      </trkpt>
      <trkpt lat="44.0937" lon="6.27307">
        <ele>673.06</ele>
        <time>2011-06-26T13:55:10Z</time>
      </trkpt>
      <trkpt lat="44.09344" lon="6.27293">
        <ele>672.1</ele>
        <time>2011-06-26T13:55:15Z</time>
      </trkpt>
      <trkpt lat="44.09339" lon="6.27291">
        <ele>671.62</ele>
        <time>2011-06-26T13:55:16Z</time>
      </trkpt>
      <trkpt lat="44.09329" lon="6.27286">
        <ele>672.1</ele>
        <time>2011-06-26T13:55:18Z</time>
      </trkpt>
      <trkpt lat="44.09324" lon="6.27285">
        <ele>671.62</ele>
        <time>2011-06-26T13:55:19Z</time>
      </trkpt>
      <trkpt lat="44.09318" lon="6.27286">
        <ele>671.62</ele>
        <time>2011-06-26T13:55:20Z</time>
      </trkpt>
      <trkpt lat="44.09314" lon="6.27288">
        <ele>671.62</ele>
        <time>2011-06-26T13:55:21Z</time>
      </trkpt>
      <trkpt lat="44.0931" lon="6.2729">
        <ele>672.1</ele>
        <time>2011-06-26T13:55:22Z</time>
      </trkpt>
      <trkpt lat="44.09305" lon="6.27291">
        <ele>672.1</ele>
        <time>2011-06-26T13:55:23Z</time>
      </trkpt>
      <trkpt lat="44.093" lon="6.27291">
        <ele>671.62</ele>
        <time>2011-06-26T13:55:24Z</time>
      </trkpt>
      <trkpt lat="44.09296" lon="6.2729">
        <ele>672.1</ele>
        <time>2011-06-26T13:55:25Z</time>
      </trkpt>
      <trkpt lat="44.09291" lon="6.27289">
        <ele>675.94</ele>
        <time>2011-06-26T13:55:26Z</time>
      </trkpt>
      <trkpt lat="44.09287" lon="6.27288">
        <ele>673.54</ele>
        <time>2011-06-26T13:55:27Z</time>
      </trkpt>
      <trkpt lat="44.09274" lon="6.27289">
        <ele>671.14</ele>
        <time>2011-06-26T13:55:30Z</time>
      </trkpt>
      <trkpt lat="44.09238" lon="6.2729">
        <ele>670.66</ele>
        <time>2011-06-26T13:55:37Z</time>
      </trkpt>
      <trkpt lat="44.09169" lon="6.27312">
        <ele>668.73</ele>
        <time>2011-06-26T13:55:50Z</time>
      </trkpt>
      <trkpt lat="44.09164" lon="6.27313">
        <ele>668.73</ele>
        <time>2011-06-26T13:55:51Z</time>
      </trkpt>
      <trkpt lat="44.0916" lon="6.27313">
        <ele>668.73</ele>
        <time>2011-06-26T13:55:52Z</time>
      </trkpt>
      <trkpt lat="44.09156" lon="6.27311">
        <ele>668.25</ele>
        <time>2011-06-26T13:55:53Z</time>
      </trkpt>
      <trkpt lat="44.09153" lon="6.27307">
        <ele>667.29</ele>
        <time>2011-06-26T13:55:54Z</time>
      </trkpt>
      <trkpt lat="44.0915" lon="6.27302">
        <ele>666.81</ele>
        <time>2011-06-26T13:55:55Z</time>
      </trkpt>
      <trkpt lat="44.09147" lon="6.27296">
        <ele>666.33</ele>
        <time>2011-06-26T13:55:56Z</time>
      </trkpt>
      <trkpt lat="44.09143" lon="6.27291">
        <ele>666.33</ele>
        <time>2011-06-26T13:55:57Z</time>
      </trkpt>
      <trkpt lat="44.09139" lon="6.27286">
        <ele>666.81</ele>
        <time>2011-06-26T13:55:58Z</time>
      </trkpt>
      <trkpt lat="44.0912" lon="6.27255">
        <ele>667.29</ele>
        <time>2011-06-26T13:56:06Z</time>
      </trkpt>
      <trkpt lat="44.09116" lon="6.27252">
        <ele>667.77</ele>
        <time>2011-06-26T13:56:07Z</time>
      </trkpt>
      <trkpt lat="44.09095" lon="6.27231">
        <ele>666.33</ele>
        <time>2011-06-26T13:56:13Z</time>
      </trkpt>
      <trkpt lat="44.09092" lon="6.27226">
        <ele>666.33</ele>
        <time>2011-06-26T13:56:14Z</time>
      </trkpt>
      <trkpt lat="44.09089" lon="6.27221">
        <ele>666.33</ele>
        <time>2011-06-26T13:56:15Z</time>
      </trkpt>
      <trkpt lat="44.0908" lon="6.27206">
        <ele>665.85</ele>
        <time>2011-06-26T13:56:18Z</time>
      </trkpt>
      <trkpt lat="44.09076" lon="6.27202">
        <ele>665.85</ele>
        <time>2011-06-26T13:56:19Z</time>
      </trkpt>
      <trkpt lat="44.09072" lon="6.27199">
        <ele>665.85</ele>
        <time>2011-06-26T13:56:20Z</time>
      </trkpt>
      <trkpt lat="44.09068" lon="6.27195">
        <ele>665.37</ele>
        <time>2011-06-26T13:56:21Z</time>
      </trkpt>
      <trkpt lat="44.09065" lon="6.27191">
        <ele>665.37</ele>
        <time>2011-06-26T13:56:22Z</time>
      </trkpt>
      <trkpt lat="44.09061" lon="6.27186">
        <ele>665.37</ele>
        <time>2011-06-26T13:56:23Z</time>
      </trkpt>
      <trkpt lat="44.09059" lon="6.27181">
        <ele>665.37</ele>
        <time>2011-06-26T13:56:24Z</time>
      </trkpt>
      <trkpt lat="44.09048" lon="6.2716">
        <ele>665.85</ele>
        <time>2011-06-26T13:56:34Z</time>
      </trkpt>
      <trkpt lat="44.09046" lon="6.27159">
        <ele>666.33</ele>
        <time>2011-06-26T13:56:56Z</time>
      </trkpt>
      <trkpt lat="44.09045" lon="6.27157">
        <ele>666.81</ele>
        <time>2011-06-26T13:57:43Z</time>
      </trkpt>
      <trkpt lat="44.09045" lon="6.27157">
        <ele>666.81</ele>
        <time>2011-06-26T13:58:20Z</time>
      </trkpt>
      <trkpt lat="44.09049" lon="6.27119">
        <ele>666.33</ele>
        <time>2011-06-26T13:58:30Z</time>
      </trkpt>
      <trkpt lat="44.09046" lon="6.2707">
        <ele>665.37</ele>
        <time>2011-06-26T13:58:37Z</time>
      </trkpt>
      <trkpt lat="44.09046" lon="6.27062">
        <ele>665.37</ele>
        <time>2011-06-26T13:58:38Z</time>
      </trkpt>
      <trkpt lat="44.09045" lon="6.27047">
        <ele>665.37</ele>
        <time>2011-06-26T13:58:40Z</time>
      </trkpt>
      <trkpt lat="44.09041" lon="6.26939">
        <ele>664.41</ele>
        <time>2011-06-26T13:58:53Z</time>
      </trkpt>
      <trkpt lat="44.09041" lon="6.26931">
        <ele>664.41</ele>
        <time>2011-06-26T13:58:54Z</time>
      </trkpt>
      <trkpt lat="44.09039" lon="6.26922">
        <ele>664.41</ele>
        <time>2011-06-26T13:58:55Z</time>
      </trkpt>
      <trkpt lat="44.09034" lon="6.26897">
        <ele>663.93</ele>
        <time>2011-06-26T13:58:58Z</time>
      </trkpt>
      <trkpt lat="44.09031" lon="6.26889">
        <ele>663.93</ele>
        <time>2011-06-26T13:58:59Z</time>
      </trkpt>
      <trkpt lat="44.09027" lon="6.26882">
        <ele>663.45</ele>
        <time>2011-06-26T13:59:00Z</time>
      </trkpt>
      <trkpt lat="44.09016" lon="6.2686">
        <ele>663.45</ele>
        <time>2011-06-26T13:59:03Z</time>
      </trkpt>
      <trkpt lat="44.08969" lon="6.26767">
        <ele>662.01</ele>
        <time>2011-06-26T13:59:16Z</time>
      </trkpt>
      <trkpt lat="44.08919" lon="6.26639">
        <ele>659.6</ele>
        <time>2011-06-26T13:59:31Z</time>
      </trkpt>
      <trkpt lat="44.089" lon="6.26578">
        <ele>658.16</ele>
        <time>2011-06-26T13:59:38Z</time>
      </trkpt>
      <trkpt lat="44.08856" lon="6.26433">
        <ele>656.24</ele>
        <time>2011-06-26T13:59:55Z</time>
      </trkpt>
      <trkpt lat="44.08848" lon="6.26397">
        <ele>655.76</ele>
        <time>2011-06-26T13:59:59Z</time>
      </trkpt>
      <trkpt lat="44.08847" lon="6.26388">
        <ele>655.28</ele>
        <time>2011-06-26T14:00:00Z</time>
      </trkpt>
      <trkpt lat="44.08848" lon="6.26379">
        <ele>655.28</ele>
        <time>2011-06-26T14:00:01Z</time>
      </trkpt>
      <trkpt lat="44.08857" lon="6.26307">
        <ele>655.28</ele>
        <time>2011-06-26T14:00:09Z</time>
      </trkpt>
      <trkpt lat="44.08859" lon="6.26299">
        <ele>654.8</ele>
        <time>2011-06-26T14:00:10Z</time>
      </trkpt>
      <trkpt lat="44.08901" lon="6.26201">
        <ele>654.31</ele>
        <time>2011-06-26T14:00:22Z</time>
      </trkpt>
      <trkpt lat="44.08906" lon="6.26194">
        <ele>654.31</ele>
        <time>2011-06-26T14:00:23Z</time>
      </trkpt>
      <trkpt lat="44.0891" lon="6.26188">
        <ele>654.31</ele>
        <time>2011-06-26T14:00:24Z</time>
      </trkpt>
      <trkpt lat="44.08963" lon="6.26117">
        <ele>653.35</ele>
        <time>2011-06-26T14:00:36Z</time>
      </trkpt>
      <trkpt lat="44.08968" lon="6.26102">
        <ele>653.35</ele>
        <time>2011-06-26T14:00:38Z</time>
      </trkpt>
      <trkpt lat="44.0897" lon="6.26094">
        <ele>653.35</ele>
        <time>2011-06-26T14:00:39Z</time>
      </trkpt>
      <trkpt lat="44.08998" lon="6.25984">
        <ele>653.35</ele>
        <time>2011-06-26T14:00:54Z</time>
      </trkpt>
      <trkpt lat="44.09027" lon="6.2593">
        <ele>651.91</ele>
        <time>2011-06-26T14:01:03Z</time>
      </trkpt>
      <trkpt lat="44.0905" lon="6.25896">
        <ele>651.91</ele>
        <time>2011-06-26T14:01:09Z</time>
      </trkpt>
      <trkpt lat="44.09056" lon="6.25883">
        <ele>651.91</ele>
        <time>2011-06-26T14:01:11Z</time>
      </trkpt>
      <trkpt lat="44.09059" lon="6.25876">
        <ele>652.39</ele>
        <time>2011-06-26T14:01:12Z</time>
      </trkpt>
      <trkpt lat="44.09065" lon="6.25854">
        <ele>651.91</ele>
        <time>2011-06-26T14:01:15Z</time>
      </trkpt>
      <trkpt lat="44.09071" lon="6.2577">
        <ele>651.43</ele>
        <time>2011-06-26T14:01:25Z</time>
      </trkpt>
      <trkpt lat="44.09071" lon="6.25753">
        <ele>650.95</ele>
        <time>2011-06-26T14:01:27Z</time>
      </trkpt>
      <trkpt lat="44.0907" lon="6.25737">
        <ele>651.91</ele>
        <time>2011-06-26T14:01:29Z</time>
      </trkpt>
      <trkpt lat="44.09066" lon="6.2572">
        <ele>650.95</ele>
        <time>2011-06-26T14:01:31Z</time>
      </trkpt>
      <trkpt lat="44.09063" lon="6.25712">
        <ele>650.47</ele>
        <time>2011-06-26T14:01:32Z</time>
      </trkpt>
      <trkpt lat="44.0906" lon="6.25704">
        <ele>650.95</ele>
        <time>2011-06-26T14:01:33Z</time>
      </trkpt>
      <trkpt lat="44.09044" lon="6.25674">
        <ele>650.47</ele>
        <time>2011-06-26T14:01:37Z</time>
      </trkpt>
      <trkpt lat="44.09041" lon="6.25665">
        <ele>649.99</ele>
        <time>2011-06-26T14:01:38Z</time>
      </trkpt>
      <trkpt lat="44.09035" lon="6.25638">
        <ele>649.99</ele>
        <time>2011-06-26T14:01:41Z</time>
      </trkpt>
      <trkpt lat="44.09023" lon="6.25557">
        <ele>649.03</ele>
        <time>2011-06-26T14:01:50Z</time>
      </trkpt>
      <trkpt lat="44.0902" lon="6.25548">
        <ele>649.03</ele>
        <time>2011-06-26T14:01:51Z</time>
      </trkpt>
      <trkpt lat="44.09017" lon="6.2554">
        <ele>649.03</ele>
        <time>2011-06-26T14:01:52Z</time>
      </trkpt>
      <trkpt lat="44.09014" lon="6.25533">
        <ele>649.03</ele>
        <time>2011-06-26T14:01:53Z</time>
      </trkpt>
      <trkpt lat="44.09011" lon="6.25526">
        <ele>648.55</ele>
        <time>2011-06-26T14:01:54Z</time>
      </trkpt>
      <trkpt lat="44.08958" lon="6.25437">
        <ele>648.07</ele>
        <time>2011-06-26T14:02:07Z</time>
      </trkpt>
      <trkpt lat="44.08939" lon="6.2539">
        <ele>649.03</ele>
        <time>2011-06-26T14:02:13Z</time>
      </trkpt>
      <trkpt lat="44.08938" lon="6.25383">
        <ele>648.55</ele>
        <time>2011-06-26T14:02:14Z</time>
      </trkpt>
      <trkpt lat="44.08936" lon="6.25281">
        <ele>649.99</ele>
        <time>2011-06-26T14:02:28Z</time>
      </trkpt>
      <trkpt lat="44.0894" lon="6.25228">
        <ele>649.99</ele>
        <time>2011-06-26T14:02:35Z</time>
      </trkpt>
      <trkpt lat="44.0895" lon="6.25185">
        <ele>648.55</ele>
        <time>2011-06-26T14:02:40Z</time>
      </trkpt>
      <trkpt lat="44.08953" lon="6.25176">
        <ele>648.55</ele>
        <time>2011-06-26T14:02:41Z</time>
      </trkpt>
      <trkpt lat="44.08955" lon="6.25167">
        <ele>648.55</ele>
        <time>2011-06-26T14:02:42Z</time>
      </trkpt>
      <trkpt lat="44.08989" lon="6.25024">
        <ele>645.66</ele>
        <time>2011-06-26T14:02:57Z</time>
      </trkpt>
      <trkpt lat="44.0901" lon="6.24973">
        <ele>644.22</ele>
        <time>2011-06-26T14:03:03Z</time>
      </trkpt>
      <trkpt lat="44.09012" lon="6.24963">
        <ele>644.22</ele>
        <time>2011-06-26T14:03:04Z</time>
      </trkpt>
      <trkpt lat="44.09014" lon="6.24954">
        <ele>643.74</ele>
        <time>2011-06-26T14:03:05Z</time>
      </trkpt>
      <trkpt lat="44.09019" lon="6.24936">
        <ele>643.74</ele>
        <time>2011-06-26T14:03:07Z</time>
      </trkpt>
      <trkpt lat="44.09022" lon="6.24928">
        <ele>643.26</ele>
        <time>2011-06-26T14:03:08Z</time>
      </trkpt>
      <trkpt lat="44.09026" lon="6.2492">
        <ele>643.74</ele>
        <time>2011-06-26T14:03:09Z</time>
      </trkpt>
      <trkpt lat="44.09031" lon="6.24914">
        <ele>643.26</ele>
        <time>2011-06-26T14:03:10Z</time>
      </trkpt>
      <trkpt lat="44.09036" lon="6.24907">
        <ele>643.26</ele>
        <time>2011-06-26T14:03:11Z</time>
      </trkpt>
      <trkpt lat="44.0909" lon="6.24825">
        <ele>640.38</ele>
        <time>2011-06-26T14:03:23Z</time>
      </trkpt>
      <trkpt lat="44.09114" lon="6.24774">
        <ele>639.41</ele>
        <time>2011-06-26T14:03:30Z</time>
      </trkpt>
      <trkpt lat="44.09117" lon="6.24766">
        <ele>639.89</ele>
        <time>2011-06-26T14:03:31Z</time>
      </trkpt>
      <trkpt lat="44.0913" lon="6.24719">
        <ele>639.41</ele>
        <time>2011-06-26T14:03:37Z</time>
      </trkpt>
      <trkpt lat="44.09132" lon="6.2471">
        <ele>639.41</ele>
        <time>2011-06-26T14:03:38Z</time>
      </trkpt>
      <trkpt lat="44.09151" lon="6.24617">
        <ele>640.38</ele>
        <time>2011-06-26T14:03:50Z</time>
      </trkpt>
      <trkpt lat="44.09151" lon="6.24608">
        <ele>640.38</ele>
        <time>2011-06-26T14:03:51Z</time>
      </trkpt>
      <trkpt lat="44.09152" lon="6.246">
        <ele>639.89</ele>
        <time>2011-06-26T14:03:52Z</time>
      </trkpt>
      <trkpt lat="44.09152" lon="6.24591">
        <ele>640.38</ele>
        <time>2011-06-26T14:03:53Z</time>
      </trkpt>
      <trkpt lat="44.09152" lon="6.24583">
        <ele>640.38</ele>
        <time>2011-06-26T14:03:54Z</time>
      </trkpt>
      <trkpt lat="44.0915" lon="6.24558">
        <ele>639.89</ele>
        <time>2011-06-26T14:03:57Z</time>
      </trkpt>
      <trkpt lat="44.0914" lon="6.24484">
        <ele>639.41</ele>
        <time>2011-06-26T14:04:06Z</time>
      </trkpt>
      <trkpt lat="44.09126" lon="6.24419">
        <ele>637.49</ele>
        <time>2011-06-26T14:04:13Z</time>
      </trkpt>
      <trkpt lat="44.0912" lon="6.24402">
        <ele>636.53</ele>
        <time>2011-06-26T14:04:15Z</time>
      </trkpt>
      <trkpt lat="44.09118" lon="6.24392">
        <ele>636.53</ele>
        <time>2011-06-26T14:04:16Z</time>
      </trkpt>
      <trkpt lat="44.09117" lon="6.24383">
        <ele>636.53</ele>
        <time>2011-06-26T14:04:17Z</time>
      </trkpt>
      <trkpt lat="44.09119" lon="6.24353">
        <ele>635.09</ele>
        <time>2011-06-26T14:04:20Z</time>
      </trkpt>
      <trkpt lat="44.0912" lon="6.24332">
        <ele>634.13</ele>
        <time>2011-06-26T14:04:22Z</time>
      </trkpt>
      <trkpt lat="44.09119" lon="6.24322">
        <ele>633.65</ele>
        <time>2011-06-26T14:04:23Z</time>
      </trkpt>
      <trkpt lat="44.09117" lon="6.24312">
        <ele>633.17</ele>
        <time>2011-06-26T14:04:24Z</time>
      </trkpt>
      <trkpt lat="44.09113" lon="6.24303">
        <ele>632.68</ele>
        <time>2011-06-26T14:04:25Z</time>
      </trkpt>
      <trkpt lat="44.09109" lon="6.24294">
        <ele>632.2</ele>
        <time>2011-06-26T14:04:26Z</time>
      </trkpt>
      <trkpt lat="44.09104" lon="6.24285">
        <ele>631.72</ele>
        <time>2011-06-26T14:04:27Z</time>
      </trkpt>
      <trkpt lat="44.09026" lon="6.24128">
        <ele>629.8</ele>
        <time>2011-06-26T14:04:45Z</time>
      </trkpt>
      <trkpt lat="44.0898" lon="6.24026">
        <ele>627.88</ele>
        <time>2011-06-26T14:04:58Z</time>
      </trkpt>
      <trkpt lat="44.08971" lon="6.23912">
        <ele>626.92</ele>
        <time>2011-06-26T14:05:10Z</time>
      </trkpt>
      <trkpt lat="44.08974" lon="6.23884">
        <ele>626.92</ele>
        <time>2011-06-26T14:05:13Z</time>
      </trkpt>
      <trkpt lat="44.08976" lon="6.23875">
        <ele>626.44</ele>
        <time>2011-06-26T14:05:14Z</time>
      </trkpt>
      <trkpt lat="44.09009" lon="6.23724">
        <ele>625.47</ele>
        <time>2011-06-26T14:05:32Z</time>
      </trkpt>
      <trkpt lat="44.09011" lon="6.23717">
        <ele>624.99</ele>
        <time>2011-06-26T14:05:33Z</time>
      </trkpt>
      <trkpt lat="44.09013" lon="6.23711">
        <ele>625.47</ele>
        <time>2011-06-26T14:05:34Z</time>
      </trkpt>
      <trkpt lat="44.0902" lon="6.23692">
        <ele>625.47</ele>
        <time>2011-06-26T14:05:37Z</time>
      </trkpt>
      <trkpt lat="44.09022" lon="6.23685">
        <ele>625.47</ele>
        <time>2011-06-26T14:05:38Z</time>
      </trkpt>
      <trkpt lat="44.09023" lon="6.23678">
        <ele>624.99</ele>
        <time>2011-06-26T14:05:39Z</time>
      </trkpt>
      <trkpt lat="44.09022" lon="6.2367">
        <ele>625.47</ele>
        <time>2011-06-26T14:05:40Z</time>
      </trkpt>
      <trkpt lat="44.09023" lon="6.23662">
        <ele>625.96</ele>
        <time>2011-06-26T14:05:41Z</time>
      </trkpt>
      <trkpt lat="44.09023" lon="6.23653">
        <ele>625.96</ele>
        <time>2011-06-26T14:05:42Z</time>
      </trkpt>
      <trkpt lat="44.09024" lon="6.23645">
        <ele>625.96</ele>
        <time>2011-06-26T14:05:43Z</time>
      </trkpt>
      <trkpt lat="44.09026" lon="6.23637">
        <ele>625.96</ele>
        <time>2011-06-26T14:05:44Z</time>
      </trkpt>
      <trkpt lat="44.0905" lon="6.23504">
        <ele>624.51</ele>
        <time>2011-06-26T14:06:00Z</time>
      </trkpt>
      <trkpt lat="44.0905" lon="6.23495">
        <ele>624.03</ele>
        <time>2011-06-26T14:06:01Z</time>
      </trkpt>
      <trkpt lat="44.09053" lon="6.23409">
        <ele>623.07</ele>
        <time>2011-06-26T14:06:11Z</time>
      </trkpt>
      <trkpt lat="44.09066" lon="6.23319">
        <ele>622.11</ele>
        <time>2011-06-26T14:06:22Z</time>
      </trkpt>
      <trkpt lat="44.09065" lon="6.23312">
        <ele>622.11</ele>
        <time>2011-06-26T14:06:23Z</time>
      </trkpt>
      <trkpt lat="44.09063" lon="6.23306">
        <ele>622.11</ele>
        <time>2011-06-26T14:06:24Z</time>
      </trkpt>
      <trkpt lat="44.0906" lon="6.23301">
        <ele>622.59</ele>
        <time>2011-06-26T14:06:25Z</time>
      </trkpt>
      <trkpt lat="44.09057" lon="6.23299">
        <ele>622.59</ele>
        <time>2011-06-26T14:06:26Z</time>
      </trkpt>
      <trkpt lat="44.09052" lon="6.23298">
        <ele>622.59</ele>
        <time>2011-06-26T14:06:27Z</time>
      </trkpt>
      <trkpt lat="44.09048" lon="6.23297">
        <ele>622.59</ele>
        <time>2011-06-26T14:06:28Z</time>
      </trkpt>
      <trkpt lat="44.09044" lon="6.23295">
        <ele>622.59</ele>
        <time>2011-06-26T14:06:29Z</time>
      </trkpt>
      <trkpt lat="44.09016" lon="6.23283">
        <ele>622.59</ele>
        <time>2011-06-26T14:06:35Z</time>
      </trkpt>
      <trkpt lat="44.09011" lon="6.2328">
        <ele>622.59</ele>
        <time>2011-06-26T14:06:36Z</time>
      </trkpt>
      <trkpt lat="44.0893" lon="6.23224">
        <ele>620.67</ele>
        <time>2011-06-26T14:06:51Z</time>
      </trkpt>
      <trkpt lat="44.08852" lon="6.23166">
        <ele>619.23</ele>
        <time>2011-06-26T14:07:06Z</time>
      </trkpt>
      <trkpt lat="44.08848" lon="6.23161">
        <ele>619.23</ele>
        <time>2011-06-26T14:07:07Z</time>
      </trkpt>
      <trkpt lat="44.08847" lon="6.23156">
        <ele>618.75</ele>
        <time>2011-06-26T14:07:08Z</time>
      </trkpt>
      <trkpt lat="44.08847" lon="6.2315">
        <ele>618.75</ele>
        <time>2011-06-26T14:07:09Z</time>
      </trkpt>
      <trkpt lat="44.08848" lon="6.23143">
        <ele>618.75</ele>
        <time>2011-06-26T14:07:10Z</time>
      </trkpt>
      <trkpt lat="44.0885" lon="6.23137">
        <ele>618.75</ele>
        <time>2011-06-26T14:07:11Z</time>
      </trkpt>
      <trkpt lat="44.08852" lon="6.2313">
        <ele>617.78</ele>
        <time>2011-06-26T14:07:12Z</time>
      </trkpt>
      <trkpt lat="44.08855" lon="6.23123">
        <ele>618.26</ele>
        <time>2011-06-26T14:07:13Z</time>
      </trkpt>
      <trkpt lat="44.08881" lon="6.23054">
        <ele>618.26</ele>
        <time>2011-06-26T14:07:23Z</time>
      </trkpt>
      <trkpt lat="44.08905" lon="6.22995">
        <ele>618.26</ele>
        <time>2011-06-26T14:07:32Z</time>
      </trkpt>
      <trkpt lat="44.08921" lon="6.22954">
        <ele>617.3</ele>
        <time>2011-06-26T14:07:38Z</time>
      </trkpt>
      <trkpt lat="44.08922" lon="6.22946">
        <ele>616.82</ele>
        <time>2011-06-26T14:07:39Z</time>
      </trkpt>
      <trkpt lat="44.08923" lon="6.2294">
        <ele>617.3</ele>
        <time>2011-06-26T14:07:40Z</time>
      </trkpt>
      <trkpt lat="44.08922" lon="6.22934">
        <ele>617.78</ele>
        <time>2011-06-26T14:07:41Z</time>
      </trkpt>
      <trkpt lat="44.08921" lon="6.2293">
        <ele>617.78</ele>
        <time>2011-06-26T14:07:42Z</time>
      </trkpt>
      <trkpt lat="44.08919" lon="6.22926">
        <ele>617.78</ele>
        <time>2011-06-26T14:07:43Z</time>
      </trkpt>
      <trkpt lat="44.08917" lon="6.22924">
        <ele>618.26</ele>
        <time>2011-06-26T14:07:44Z</time>
      </trkpt>
      <trkpt lat="44.08915" lon="6.22922">
        <ele>617.78</ele>
        <time>2011-06-26T14:07:45Z</time>
      </trkpt>
      <trkpt lat="44.08913" lon="6.22921">
        <ele>617.78</ele>
        <time>2011-06-26T14:07:56Z</time>
      </trkpt>
      <trkpt lat="44.08892" lon="6.22904">
        <ele>617.78</ele>
        <time>2011-06-26T14:08:07Z</time>
      </trkpt>
      <trkpt lat="44.0882" lon="6.22842">
        <ele>616.82</ele>
        <time>2011-06-26T14:08:22Z</time>
      </trkpt>
      <trkpt lat="44.08734" lon="6.22766">
        <ele>616.34</ele>
        <time>2011-06-26T14:08:39Z</time>
      </trkpt>
      <trkpt lat="44.0868" lon="6.2272">
        <ele>615.86</ele>
        <time>2011-06-26T14:08:50Z</time>
      </trkpt>
      <trkpt lat="44.08671" lon="6.22712">
        <ele>615.38</ele>
        <time>2011-06-26T14:08:52Z</time>
      </trkpt>
      <trkpt lat="44.08662" lon="6.22704">
        <ele>614.9</ele>
        <time>2011-06-26T14:08:54Z</time>
      </trkpt>
      <trkpt lat="44.08657" lon="6.227">
        <ele>615.38</ele>
        <time>2011-06-26T14:08:55Z</time>
      </trkpt>
      <trkpt lat="44.08588" lon="6.22639">
        <ele>614.9</ele>
        <time>2011-06-26T14:09:09Z</time>
      </trkpt>
      <trkpt lat="44.0856" lon="6.22615">
        <ele>614.9</ele>
        <time>2011-06-26T14:09:15Z</time>
      </trkpt>
      <trkpt lat="44.08555" lon="6.22615">
        <ele>614.9</ele>
        <time>2011-06-26T14:09:16Z</time>
      </trkpt>
      <trkpt lat="44.08549" lon="6.22616">
        <ele>614.9</ele>
        <time>2011-06-26T14:09:17Z</time>
      </trkpt>
      <trkpt lat="44.08543" lon="6.22617">
        <ele>614.9</ele>
        <time>2011-06-26T14:09:18Z</time>
      </trkpt>
      <trkpt lat="44.08538" lon="6.22621">
        <ele>614.42</ele>
        <time>2011-06-26T14:09:19Z</time>
      </trkpt>
      <trkpt lat="44.08535" lon="6.22626">
        <ele>614.42</ele>
        <time>2011-06-26T14:09:20Z</time>
      </trkpt>
      <trkpt lat="44.08533" lon="6.22632">
        <ele>614.42</ele>
        <time>2011-06-26T14:09:21Z</time>
      </trkpt>
      <trkpt lat="44.08532" lon="6.22637">
        <ele>614.9</ele>
        <time>2011-06-26T14:09:22Z</time>
      </trkpt>
      <trkpt lat="44.0853" lon="6.22642">
        <ele>614.9</ele>
        <time>2011-06-26T14:09:23Z</time>
      </trkpt>
      <trkpt lat="44.08521" lon="6.22685">
        <ele>615.86</ele>
        <time>2011-06-26T14:09:33Z</time>
      </trkpt>
      <trkpt lat="44.08517" lon="6.22689">
        <ele>615.86</ele>
        <time>2011-06-26T14:09:35Z</time>
      </trkpt>
      <trkpt lat="44.08516" lon="6.22689">
        <ele>615.86</ele>
        <time>2011-06-26T14:09:36Z</time>
      </trkpt>
      <trkpt lat="44.08513" lon="6.22689">
        <ele>615.86</ele>
        <time>2011-06-26T14:09:37Z</time>
      </trkpt>
      <trkpt lat="44.08511" lon="6.22687">
        <ele>615.38</ele>
        <time>2011-06-26T14:09:38Z</time>
      </trkpt>
      <trkpt lat="44.08509" lon="6.22685">
        <ele>615.38</ele>
        <time>2011-06-26T14:09:39Z</time>
      </trkpt>
      <trkpt lat="44.08479" lon="6.22659">
        <ele>613.46</ele>
        <time>2011-06-26T14:09:47Z</time>
      </trkpt>
      <trkpt lat="44.08454" lon="6.22644">
        <ele>612.02</ele>
        <time>2011-06-26T14:09:53Z</time>
      </trkpt>
      <trkpt lat="44.0845" lon="6.22643">
        <ele>612.02</ele>
        <time>2011-06-26T14:09:54Z</time>
      </trkpt>
      <trkpt lat="44.08446" lon="6.22643">
        <ele>612.02</ele>
        <time>2011-06-26T14:09:55Z</time>
      </trkpt>
      <trkpt lat="44.08442" lon="6.22643">
        <ele>612.02</ele>
        <time>2011-06-26T14:09:56Z</time>
      </trkpt>
      <trkpt lat="44.08437" lon="6.22642">
        <ele>612.02</ele>
        <time>2011-06-26T14:09:57Z</time>
      </trkpt>
      <trkpt lat="44.08396" lon="6.22615">
        <ele>612.02</ele>
        <time>2011-06-26T14:10:10Z</time>
      </trkpt>
      <trkpt lat="44.08376" lon="6.22584">
        <ele>612.02</ele>
        <time>2011-06-26T14:10:22Z</time>
      </trkpt>
      <trkpt lat="44.0836" lon="6.22556">
        <ele>612.5</ele>
        <time>2011-06-26T14:10:34Z</time>
      </trkpt>
      <trkpt lat="44.08351" lon="6.2253">
        <ele>611.54</ele>
        <time>2011-06-26T14:10:46Z</time>
      </trkpt>
      <trkpt lat="44.0835" lon="6.22529">
        <ele>612.5</ele>
        <time>2011-06-26T14:11:26Z</time>
      </trkpt>
      <trkpt lat="44.08343" lon="6.22514">
        <ele>612.5</ele>
        <time>2011-06-26T14:11:40Z</time>
      </trkpt>
      <trkpt lat="44.08334" lon="6.22494">
        <ele>612.5</ele>
        <time>2011-06-26T14:11:55Z</time>
      </trkpt>
      <trkpt lat="44.08327" lon="6.2247">
        <ele>612.5</ele>
        <time>2011-06-26T14:12:11Z</time>
      </trkpt>
      <trkpt lat="44.08326" lon="6.22467">
        <ele>612.5</ele>
        <time>2011-06-26T14:12:24Z</time>
      </trkpt>
      <trkpt lat="44.08327" lon="6.22468">
        <ele>602.88</ele>
        <time>2011-06-26T14:12:31Z</time>
      </trkpt>
      <trkpt lat="44.08327" lon="6.22468">
        <ele>612.02</ele>
        <time>2011-06-26T14:12:32Z</time>
      </trkpt>
      <trkpt lat="44.08327" lon="6.22468">
        <ele>612.02</ele>
        <time>2011-06-26T14:12:36Z</time>
      </trkpt>
    </trkseg>
  </trk>
</gpx>